<?xml version="1.0" encoding="UTF-8" standalone="no" ?>
<gpx xmlns="http://www.topografix.com/GPX/1/1" xmlns:xsi="http://www.w3.org/2001/XMLSchema-instance" xsi:schemaLocation="http://www.topografix.com/GPX/1/1 http://www.topografix.com/GPX/1/1/gpx.xsd" version="1.1" creator="VisuGPX - https://www.visugpx.com">
  <metadata>
    <name>Boucle Pont-en-Royans - Châtelus - Ferme du Clos (Vercors)</name>
    <desc><![CDATA[Boucle Pont-en-Royans - Châtelus - Ferme du Clos (Vercors) [22 Avril 2019]]]></desc>
  </metadata>
  <trk>
    <name><![CDATA[Boucle Pont en Royans, Chatelus]]></name>
    <trkseg>
      <trkpt lat="45.06122" lon="5.34459">
        <ele>192.865</ele>
        <time>2019-04-21T09:07:42Z</time>
      </trkpt>
      <trkpt lat="45.0613" lon="5.34456">
        <ele>197.042</ele>
        <time>2019-04-21T09:07:43Z</time>
      </trkpt>
      <trkpt lat="45.06125" lon="5.3446">
        <ele>190.344</ele>
        <time>2019-04-21T09:07:44Z</time>
      </trkpt>
      <trkpt lat="45.06113" lon="5.34466">
        <ele>204.756</ele>
        <time>2019-04-21T09:07:45Z</time>
      </trkpt>
      <trkpt lat="45.06113" lon="5.34463">
        <ele>210.622</ele>
        <time>2019-04-21T09:07:47Z</time>
      </trkpt>
      <trkpt lat="45.06111" lon="5.34464">
        <ele>231.295</ele>
        <time>2019-04-21T09:07:48Z</time>
      </trkpt>
      <trkpt lat="45.06108" lon="5.3447">
        <ele>238.966</ele>
        <time>2019-04-21T09:07:49Z</time>
      </trkpt>
      <trkpt lat="45.06112" lon="5.34467">
        <ele>219.444</ele>
        <time>2019-04-21T09:07:50Z</time>
      </trkpt>
      <trkpt lat="45.06112" lon="5.34467">
        <ele>219.444</ele>
        <time>2019-04-21T09:07:50Z</time>
      </trkpt>
      <trkpt lat="45.06114" lon="5.34464">
        <ele>196.163</ele>
        <time>2019-04-21T09:07:51Z</time>
      </trkpt>
      <trkpt lat="45.06115" lon="5.34462">
        <ele>214.861</ele>
        <time>2019-04-21T09:07:52Z</time>
      </trkpt>
      <trkpt lat="45.06113" lon="5.34463">
        <ele>227.192</ele>
        <time>2019-04-21T09:07:53Z</time>
      </trkpt>
      <trkpt lat="45.06112" lon="5.34466">
        <ele>226.652</ele>
        <time>2019-04-21T09:07:55Z</time>
      </trkpt>
      <trkpt lat="45.06112" lon="5.34469">
        <ele>212.42</ele>
        <time>2019-04-21T09:08:02Z</time>
      </trkpt>
      <trkpt lat="45.06114" lon="5.34473">
        <ele>212.139</ele>
        <time>2019-04-21T09:08:05Z</time>
      </trkpt>
      <trkpt lat="45.06113" lon="5.34479">
        <ele>212.443</ele>
        <time>2019-04-21T09:08:07Z</time>
      </trkpt>
      <trkpt lat="45.06114" lon="5.34481">
        <ele>209.892</ele>
        <time>2019-04-21T09:08:09Z</time>
      </trkpt>
      <trkpt lat="45.06114" lon="5.34482">
        <ele>206.943</ele>
        <time>2019-04-21T09:08:11Z</time>
      </trkpt>
      <trkpt lat="45.06113" lon="5.34482">
        <ele>206.519</ele>
        <time>2019-04-21T09:08:12Z</time>
      </trkpt>
      <trkpt lat="45.06111" lon="5.34483">
        <ele>207.33</ele>
        <time>2019-04-21T09:08:15Z</time>
      </trkpt>
      <trkpt lat="45.06111" lon="5.34483">
        <ele>207.386</ele>
        <time>2019-04-21T09:08:16Z</time>
      </trkpt>
      <trkpt lat="45.06112" lon="5.34483">
        <ele>210.691</ele>
        <time>2019-04-21T09:08:20Z</time>
      </trkpt>
      <trkpt lat="45.06113" lon="5.34483">
        <ele>210.41</ele>
        <time>2019-04-21T09:08:21Z</time>
      </trkpt>
      <trkpt lat="45.06113" lon="5.34484">
        <ele>210.451</ele>
        <time>2019-04-21T09:08:22Z</time>
      </trkpt>
      <trkpt lat="45.06113" lon="5.34487">
        <ele>208.978</ele>
        <time>2019-04-21T09:08:25Z</time>
      </trkpt>
      <trkpt lat="45.06113" lon="5.3449">
        <ele>208.791</ele>
        <time>2019-04-21T09:08:28Z</time>
      </trkpt>
      <trkpt lat="45.06111" lon="5.34501">
        <ele>207.221</ele>
        <time>2019-04-21T09:08:34Z</time>
      </trkpt>
      <trkpt lat="45.06107" lon="5.34506">
        <ele>207.893</ele>
        <time>2019-04-21T09:08:36Z</time>
      </trkpt>
      <trkpt lat="45.06104" lon="5.34512">
        <ele>208.132</ele>
        <time>2019-04-21T09:08:39Z</time>
      </trkpt>
      <trkpt lat="45.06106" lon="5.34517">
        <ele>207.586</ele>
        <time>2019-04-21T09:08:42Z</time>
      </trkpt>
      <trkpt lat="45.06108" lon="5.34518">
        <ele>207.387</ele>
        <time>2019-04-21T09:08:44Z</time>
      </trkpt>
      <trkpt lat="45.06107" lon="5.34522">
        <ele>207.06</ele>
        <time>2019-04-21T09:08:47Z</time>
      </trkpt>
      <trkpt lat="45.06109" lon="5.34525">
        <ele>207.634</ele>
        <time>2019-04-21T09:08:49Z</time>
      </trkpt>
      <trkpt lat="45.06109" lon="5.34529">
        <ele>210.124</ele>
        <time>2019-04-21T09:08:52Z</time>
      </trkpt>
      <trkpt lat="45.06108" lon="5.34531">
        <ele>211.196</ele>
        <time>2019-04-21T09:08:54Z</time>
      </trkpt>
      <trkpt lat="45.06107" lon="5.34533">
        <ele>210.709</ele>
        <time>2019-04-21T09:08:55Z</time>
      </trkpt>
      <trkpt lat="45.06107" lon="5.34535">
        <ele>210.33</ele>
        <time>2019-04-21T09:08:56Z</time>
      </trkpt>
      <trkpt lat="45.06106" lon="5.34536">
        <ele>210.436</ele>
        <time>2019-04-21T09:08:57Z</time>
      </trkpt>
      <trkpt lat="45.06106" lon="5.34541">
        <ele>210.234</ele>
        <time>2019-04-21T09:09:03Z</time>
      </trkpt>
      <trkpt lat="45.06106" lon="5.34541">
        <ele>210.234</ele>
        <time>2019-04-21T09:09:03Z</time>
      </trkpt>
      <trkpt lat="45.06106" lon="5.34542">
        <ele>209.969</ele>
        <time>2019-04-21T09:09:04Z</time>
      </trkpt>
      <trkpt lat="45.06106" lon="5.34544">
        <ele>210.649</ele>
        <time>2019-04-21T09:09:08Z</time>
      </trkpt>
      <trkpt lat="45.06106" lon="5.34545">
        <ele>210.57</ele>
        <time>2019-04-21T09:09:13Z</time>
      </trkpt>
      <trkpt lat="45.06106" lon="5.34545">
        <ele>210.34</ele>
        <time>2019-04-21T09:09:14Z</time>
      </trkpt>
      <trkpt lat="45.06104" lon="5.34549">
        <ele>210.081</ele>
        <time>2019-04-21T09:09:17Z</time>
      </trkpt>
      <trkpt lat="45.06103" lon="5.34553">
        <ele>210.584</ele>
        <time>2019-04-21T09:09:20Z</time>
      </trkpt>
      <trkpt lat="45.06103" lon="5.34554">
        <ele>210.401</ele>
        <time>2019-04-21T09:09:22Z</time>
      </trkpt>
      <trkpt lat="45.06102" lon="5.34555">
        <ele>210.41</ele>
        <time>2019-04-21T09:09:23Z</time>
      </trkpt>
      <trkpt lat="45.061" lon="5.3456">
        <ele>210.626</ele>
        <time>2019-04-21T09:09:26Z</time>
      </trkpt>
      <trkpt lat="45.061" lon="5.34566">
        <ele>209.914</ele>
        <time>2019-04-21T09:09:29Z</time>
      </trkpt>
      <trkpt lat="45.06101" lon="5.34578">
        <ele>210.529</ele>
        <time>2019-04-21T09:09:33Z</time>
      </trkpt>
      <trkpt lat="45.06104" lon="5.34591">
        <ele>210.827</ele>
        <time>2019-04-21T09:09:36Z</time>
      </trkpt>
      <trkpt lat="45.06112" lon="5.34605">
        <ele>210.544</ele>
        <time>2019-04-21T09:09:40Z</time>
      </trkpt>
      <trkpt lat="45.06117" lon="5.34609">
        <ele>210.716</ele>
        <time>2019-04-21T09:09:41Z</time>
      </trkpt>
      <trkpt lat="45.06121" lon="5.3461">
        <ele>211.83</ele>
        <time>2019-04-21T09:09:44Z</time>
      </trkpt>
      <trkpt lat="45.06119" lon="5.34608">
        <ele>212.698</ele>
        <time>2019-04-21T09:09:45Z</time>
      </trkpt>
      <trkpt lat="45.06116" lon="5.34607">
        <ele>213.43</ele>
        <time>2019-04-21T09:09:46Z</time>
      </trkpt>
      <trkpt lat="45.06113" lon="5.34606">
        <ele>213.427</ele>
        <time>2019-04-21T09:09:47Z</time>
      </trkpt>
      <trkpt lat="45.06107" lon="5.34605">
        <ele>213.019</ele>
        <time>2019-04-21T09:09:50Z</time>
      </trkpt>
      <trkpt lat="45.06105" lon="5.34603">
        <ele>213.547</ele>
        <time>2019-04-21T09:09:52Z</time>
      </trkpt>
      <trkpt lat="45.061" lon="5.34603">
        <ele>214.12</ele>
        <time>2019-04-21T09:09:55Z</time>
      </trkpt>
      <trkpt lat="45.0609" lon="5.34609">
        <ele>212.772</ele>
        <time>2019-04-21T09:10:00Z</time>
      </trkpt>
      <trkpt lat="45.06085" lon="5.34617">
        <ele>212.39</ele>
        <time>2019-04-21T09:10:06Z</time>
      </trkpt>
      <trkpt lat="45.06086" lon="5.34617">
        <ele>211.83</ele>
        <time>2019-04-21T09:10:07Z</time>
      </trkpt>
      <trkpt lat="45.06088" lon="5.34618">
        <ele>211.831</ele>
        <time>2019-04-21T09:10:08Z</time>
      </trkpt>
      <trkpt lat="45.06095" lon="5.34625">
        <ele>211.719</ele>
        <time>2019-04-21T09:10:12Z</time>
      </trkpt>
      <trkpt lat="45.06099" lon="5.3463">
        <ele>212.111</ele>
        <time>2019-04-21T09:10:15Z</time>
      </trkpt>
      <trkpt lat="45.06098" lon="5.34634">
        <ele>212.286</ele>
        <time>2019-04-21T09:10:18Z</time>
      </trkpt>
      <trkpt lat="45.06096" lon="5.3464">
        <ele>212.245</ele>
        <time>2019-04-21T09:10:21Z</time>
      </trkpt>
      <trkpt lat="45.06093" lon="5.34641">
        <ele>212.073</ele>
        <time>2019-04-21T09:10:22Z</time>
      </trkpt>
      <trkpt lat="45.06085" lon="5.34645">
        <ele>212.109</ele>
        <time>2019-04-21T09:10:24Z</time>
      </trkpt>
      <trkpt lat="45.0608" lon="5.34647">
        <ele>212.046</ele>
        <time>2019-04-21T09:10:25Z</time>
      </trkpt>
      <trkpt lat="45.06059" lon="5.34649">
        <ele>211.492</ele>
        <time>2019-04-21T09:10:30Z</time>
      </trkpt>
      <trkpt lat="45.06054" lon="5.34645">
        <ele>212.545</ele>
        <time>2019-04-21T09:10:32Z</time>
      </trkpt>
      <trkpt lat="45.0605" lon="5.34641">
        <ele>213.846</ele>
        <time>2019-04-21T09:10:34Z</time>
      </trkpt>
      <trkpt lat="45.06049" lon="5.34641">
        <ele>212.647</ele>
        <time>2019-04-21T09:10:36Z</time>
      </trkpt>
      <trkpt lat="45.06052" lon="5.34645">
        <ele>210.942</ele>
        <time>2019-04-21T09:10:43Z</time>
      </trkpt>
      <trkpt lat="45.06057" lon="5.34649">
        <ele>211.624</ele>
        <time>2019-04-21T09:10:47Z</time>
      </trkpt>
      <trkpt lat="45.06057" lon="5.3465">
        <ele>211.741</ele>
        <time>2019-04-21T09:10:48Z</time>
      </trkpt>
      <trkpt lat="45.06055" lon="5.34647">
        <ele>211.431</ele>
        <time>2019-04-21T09:10:52Z</time>
      </trkpt>
      <trkpt lat="45.06053" lon="5.34645">
        <ele>211.213</ele>
        <time>2019-04-21T09:10:54Z</time>
      </trkpt>
      <trkpt lat="45.06051" lon="5.34645">
        <ele>210.631</ele>
        <time>2019-04-21T09:10:57Z</time>
      </trkpt>
      <trkpt lat="45.0605" lon="5.34646">
        <ele>210.42</ele>
        <time>2019-04-21T09:10:58Z</time>
      </trkpt>
      <trkpt lat="45.06047" lon="5.34649">
        <ele>210.562</ele>
        <time>2019-04-21T09:11:01Z</time>
      </trkpt>
      <trkpt lat="45.06045" lon="5.34652">
        <ele>210.225</ele>
        <time>2019-04-21T09:11:05Z</time>
      </trkpt>
      <trkpt lat="45.0604" lon="5.34663">
        <ele>211.624</ele>
        <time>2019-04-21T09:11:10Z</time>
      </trkpt>
      <trkpt lat="45.06037" lon="5.34666">
        <ele>213.107</ele>
        <time>2019-04-21T09:11:12Z</time>
      </trkpt>
      <trkpt lat="45.06035" lon="5.34671">
        <ele>216.296</ele>
        <time>2019-04-21T09:11:15Z</time>
      </trkpt>
      <trkpt lat="45.06033" lon="5.34673">
        <ele>216.824</ele>
        <time>2019-04-21T09:11:17Z</time>
      </trkpt>
      <trkpt lat="45.06033" lon="5.34678">
        <ele>215.144</ele>
        <time>2019-04-21T09:11:20Z</time>
      </trkpt>
      <trkpt lat="45.06032" lon="5.34684">
        <ele>215.567</ele>
        <time>2019-04-21T09:11:22Z</time>
      </trkpt>
      <trkpt lat="45.0603" lon="5.34693">
        <ele>214.545</ele>
        <time>2019-04-21T09:11:26Z</time>
      </trkpt>
      <trkpt lat="45.06031" lon="5.34696">
        <ele>213.579</ele>
        <time>2019-04-21T09:11:28Z</time>
      </trkpt>
      <trkpt lat="45.06033" lon="5.347">
        <ele>213.66</ele>
        <time>2019-04-21T09:11:30Z</time>
      </trkpt>
      <trkpt lat="45.06037" lon="5.34701">
        <ele>215.59</ele>
        <time>2019-04-21T09:11:34Z</time>
      </trkpt>
      <trkpt lat="45.06039" lon="5.34701">
        <ele>217.671</ele>
        <time>2019-04-21T09:11:35Z</time>
      </trkpt>
      <trkpt lat="45.0604" lon="5.34699">
        <ele>215.849</ele>
        <time>2019-04-21T09:11:37Z</time>
      </trkpt>
      <trkpt lat="45.0604" lon="5.34699">
        <ele>216.9</ele>
        <time>2019-04-21T09:11:37Z</time>
      </trkpt>
      <trkpt lat="45.06044" lon="5.34695">
        <ele>216.616</ele>
        <time>2019-04-21T09:11:41Z</time>
      </trkpt>
      <trkpt lat="45.06044" lon="5.34695">
        <ele>219.114</ele>
        <time>2019-04-21T09:12:10Z</time>
      </trkpt>
      <trkpt lat="45.06046" lon="5.34691">
        <ele>219.088</ele>
        <time>2019-04-21T09:12:11Z</time>
      </trkpt>
      <trkpt lat="45.06046" lon="5.34691">
        <ele>218.948</ele>
        <time>2019-04-21T09:12:12Z</time>
      </trkpt>
      <trkpt lat="45.06046" lon="5.34692">
        <ele>219.084</ele>
        <time>2019-04-21T09:12:13Z</time>
      </trkpt>
      <trkpt lat="45.06047" lon="5.34695">
        <ele>219.408</ele>
        <time>2019-04-21T09:12:17Z</time>
      </trkpt>
      <trkpt lat="45.06047" lon="5.34695">
        <ele>218.491</ele>
        <time>2019-04-21T09:12:18Z</time>
      </trkpt>
      <trkpt lat="45.06047" lon="5.34695">
        <ele>219.415</ele>
        <time>2019-04-21T09:12:20Z</time>
      </trkpt>
      <trkpt lat="45.06048" lon="5.34695">
        <ele>220.003</ele>
        <time>2019-04-21T09:12:21Z</time>
      </trkpt>
      <trkpt lat="45.06048" lon="5.34695">
        <ele>220.194</ele>
        <time>2019-04-21T09:12:22Z</time>
      </trkpt>
      <trkpt lat="45.06048" lon="5.34695">
        <ele>219.862</ele>
        <time>2019-04-21T09:12:23Z</time>
      </trkpt>
      <trkpt lat="45.06048" lon="5.34695">
        <ele>219.862</ele>
        <time>2019-04-21T09:12:23Z</time>
      </trkpt>
      <trkpt lat="45.06049" lon="5.34694">
        <ele>220.722</ele>
        <time>2019-04-21T09:12:24Z</time>
      </trkpt>
      <trkpt lat="45.0605" lon="5.34693">
        <ele>221.305</ele>
        <time>2019-04-21T09:12:26Z</time>
      </trkpt>
      <trkpt lat="45.0605" lon="5.34693">
        <ele>221.367</ele>
        <time>2019-04-21T09:12:49Z</time>
      </trkpt>
      <trkpt lat="45.06051" lon="5.34694">
        <ele>221.827</ele>
        <time>2019-04-21T09:12:50Z</time>
      </trkpt>
      <trkpt lat="45.06051" lon="5.34694">
        <ele>220.976</ele>
        <time>2019-04-21T09:12:51Z</time>
      </trkpt>
      <trkpt lat="45.06051" lon="5.34694">
        <ele>220.928</ele>
        <time>2019-04-21T09:12:52Z</time>
      </trkpt>
      <trkpt lat="45.06051" lon="5.34694">
        <ele>220.922</ele>
        <time>2019-04-21T09:12:53Z</time>
      </trkpt>
      <trkpt lat="45.06051" lon="5.34696">
        <ele>220.642</ele>
        <time>2019-04-21T09:12:54Z</time>
      </trkpt>
      <trkpt lat="45.06051" lon="5.34697">
        <ele>221.496</ele>
        <time>2019-04-21T09:12:55Z</time>
      </trkpt>
      <trkpt lat="45.06051" lon="5.34699">
        <ele>222.358</ele>
        <time>2019-04-21T09:12:57Z</time>
      </trkpt>
      <trkpt lat="45.06051" lon="5.34706">
        <ele>220.667</ele>
        <time>2019-04-21T09:13:01Z</time>
      </trkpt>
      <trkpt lat="45.06051" lon="5.34711">
        <ele>218.346</ele>
        <time>2019-04-21T09:13:04Z</time>
      </trkpt>
      <trkpt lat="45.06051" lon="5.34715">
        <ele>215.669</ele>
        <time>2019-04-21T09:13:08Z</time>
      </trkpt>
      <trkpt lat="45.06051" lon="5.34715">
        <ele>215.669</ele>
        <time>2019-04-21T09:13:08Z</time>
      </trkpt>
      <trkpt lat="45.06051" lon="5.34715">
        <ele>215.54</ele>
        <time>2019-04-21T09:13:09Z</time>
      </trkpt>
      <trkpt lat="45.06051" lon="5.34715">
        <ele>215.54</ele>
        <time>2019-04-21T09:13:09Z</time>
      </trkpt>
      <trkpt lat="45.0605" lon="5.34716">
        <ele>214.264</ele>
        <time>2019-04-21T09:13:10Z</time>
      </trkpt>
      <trkpt lat="45.0605" lon="5.34716">
        <ele>214.264</ele>
        <time>2019-04-21T09:13:10Z</time>
      </trkpt>
      <trkpt lat="45.06049" lon="5.34717">
        <ele>214.996</ele>
        <time>2019-04-21T09:13:11Z</time>
      </trkpt>
      <trkpt lat="45.06048" lon="5.34718">
        <ele>214.253</ele>
        <time>2019-04-21T09:13:13Z</time>
      </trkpt>
      <trkpt lat="45.06048" lon="5.34718">
        <ele>214.151</ele>
        <time>2019-04-21T09:13:14Z</time>
      </trkpt>
      <trkpt lat="45.06048" lon="5.34718">
        <ele>214.151</ele>
        <time>2019-04-21T09:13:14Z</time>
      </trkpt>
      <trkpt lat="45.06047" lon="5.34719">
        <ele>214.391</ele>
        <time>2019-04-21T09:13:15Z</time>
      </trkpt>
      <trkpt lat="45.06046" lon="5.3472">
        <ele>214.716</ele>
        <time>2019-04-21T09:13:17Z</time>
      </trkpt>
      <trkpt lat="45.06045" lon="5.34721">
        <ele>214.084</ele>
        <time>2019-04-21T09:13:18Z</time>
      </trkpt>
      <trkpt lat="45.06044" lon="5.34722">
        <ele>213.504</ele>
        <time>2019-04-21T09:13:20Z</time>
      </trkpt>
      <trkpt lat="45.06042" lon="5.34724">
        <ele>214.413</ele>
        <time>2019-04-21T09:13:22Z</time>
      </trkpt>
      <trkpt lat="45.06041" lon="5.34725">
        <ele>215.288</ele>
        <time>2019-04-21T09:13:24Z</time>
      </trkpt>
      <trkpt lat="45.06041" lon="5.34725">
        <ele>215.502</ele>
        <time>2019-04-21T09:13:26Z</time>
      </trkpt>
      <trkpt lat="45.06043" lon="5.34728">
        <ele>215.656</ele>
        <time>2019-04-21T09:13:27Z</time>
      </trkpt>
      <trkpt lat="45.06044" lon="5.34727">
        <ele>216.467</ele>
        <time>2019-04-21T09:13:29Z</time>
      </trkpt>
      <trkpt lat="45.06045" lon="5.34729">
        <ele>215.95</ele>
        <time>2019-04-21T09:13:32Z</time>
      </trkpt>
      <trkpt lat="45.06046" lon="5.3473">
        <ele>216.601</ele>
        <time>2019-04-21T09:13:33Z</time>
      </trkpt>
      <trkpt lat="45.06047" lon="5.34731">
        <ele>216.914</ele>
        <time>2019-04-21T09:13:34Z</time>
      </trkpt>
      <trkpt lat="45.0605" lon="5.34729">
        <ele>216.383</ele>
        <time>2019-04-21T09:13:39Z</time>
      </trkpt>
      <trkpt lat="45.06051" lon="5.3473">
        <ele>216.003</ele>
        <time>2019-04-21T09:13:41Z</time>
      </trkpt>
      <trkpt lat="45.06053" lon="5.34734">
        <ele>214.495</ele>
        <time>2019-04-21T09:13:44Z</time>
      </trkpt>
      <trkpt lat="45.06054" lon="5.34736">
        <ele>214.667</ele>
        <time>2019-04-21T09:13:46Z</time>
      </trkpt>
      <trkpt lat="45.06055" lon="5.34738">
        <ele>216.273</ele>
        <time>2019-04-21T09:13:49Z</time>
      </trkpt>
      <trkpt lat="45.06056" lon="5.34741">
        <ele>217.034</ele>
        <time>2019-04-21T09:13:53Z</time>
      </trkpt>
      <trkpt lat="45.06057" lon="5.34743">
        <ele>216.839</ele>
        <time>2019-04-21T09:13:55Z</time>
      </trkpt>
      <trkpt lat="45.06057" lon="5.34744">
        <ele>216.661</ele>
        <time>2019-04-21T09:13:56Z</time>
      </trkpt>
      <trkpt lat="45.06056" lon="5.34749">
        <ele>216.411</ele>
        <time>2019-04-21T09:14:00Z</time>
      </trkpt>
      <trkpt lat="45.06058" lon="5.34751">
        <ele>217.298</ele>
        <time>2019-04-21T09:14:03Z</time>
      </trkpt>
      <trkpt lat="45.0606" lon="5.34753">
        <ele>216.665</ele>
        <time>2019-04-21T09:14:06Z</time>
      </trkpt>
      <trkpt lat="45.06061" lon="5.34753">
        <ele>216.9</ele>
        <time>2019-04-21T09:14:07Z</time>
      </trkpt>
      <trkpt lat="45.06061" lon="5.34753">
        <ele>217.041</ele>
        <time>2019-04-21T09:14:08Z</time>
      </trkpt>
      <trkpt lat="45.06064" lon="5.34756">
        <ele>216.937</ele>
        <time>2019-04-21T09:14:12Z</time>
      </trkpt>
      <trkpt lat="45.06066" lon="5.34758">
        <ele>217.729</ele>
        <time>2019-04-21T09:14:15Z</time>
      </trkpt>
      <trkpt lat="45.06065" lon="5.3476">
        <ele>217.572</ele>
        <time>2019-04-21T09:14:17Z</time>
      </trkpt>
      <trkpt lat="45.06065" lon="5.34761">
        <ele>217.16</ele>
        <time>2019-04-21T09:14:18Z</time>
      </trkpt>
      <trkpt lat="45.06065" lon="5.34762">
        <ele>216.987</ele>
        <time>2019-04-21T09:14:20Z</time>
      </trkpt>
      <trkpt lat="45.06065" lon="5.34762">
        <ele>216.987</ele>
        <time>2019-04-21T09:14:20Z</time>
      </trkpt>
      <trkpt lat="45.06065" lon="5.34763">
        <ele>216.725</ele>
        <time>2019-04-21T09:14:21Z</time>
      </trkpt>
      <trkpt lat="45.06067" lon="5.34767">
        <ele>215.841</ele>
        <time>2019-04-21T09:14:25Z</time>
      </trkpt>
      <trkpt lat="45.06068" lon="5.3477">
        <ele>215.702</ele>
        <time>2019-04-21T09:14:28Z</time>
      </trkpt>
      <trkpt lat="45.06069" lon="5.34771">
        <ele>216.638</ele>
        <time>2019-04-21T09:14:30Z</time>
      </trkpt>
      <trkpt lat="45.06069" lon="5.34772">
        <ele>216.521</ele>
        <time>2019-04-21T09:14:31Z</time>
      </trkpt>
      <trkpt lat="45.06071" lon="5.34773">
        <ele>216.473</ele>
        <time>2019-04-21T09:14:33Z</time>
      </trkpt>
      <trkpt lat="45.06072" lon="5.34774">
        <ele>217.014</ele>
        <time>2019-04-21T09:14:35Z</time>
      </trkpt>
      <trkpt lat="45.06074" lon="5.34776">
        <ele>214.319</ele>
        <time>2019-04-21T09:14:40Z</time>
      </trkpt>
      <trkpt lat="45.06074" lon="5.3478">
        <ele>213.813</ele>
        <time>2019-04-21T09:14:44Z</time>
      </trkpt>
      <trkpt lat="45.06074" lon="5.34783">
        <ele>213.975</ele>
        <time>2019-04-21T09:14:48Z</time>
      </trkpt>
      <trkpt lat="45.06076" lon="5.34786">
        <ele>215.12</ele>
        <time>2019-04-21T09:14:52Z</time>
      </trkpt>
      <trkpt lat="45.06077" lon="5.34792">
        <ele>216.375</ele>
        <time>2019-04-21T09:14:58Z</time>
      </trkpt>
      <trkpt lat="45.06079" lon="5.34793">
        <ele>216.316</ele>
        <time>2019-04-21T09:15:00Z</time>
      </trkpt>
      <trkpt lat="45.06081" lon="5.34795">
        <ele>217.452</ele>
        <time>2019-04-21T09:15:03Z</time>
      </trkpt>
      <trkpt lat="45.06082" lon="5.34796">
        <ele>217.486</ele>
        <time>2019-04-21T09:15:04Z</time>
      </trkpt>
      <trkpt lat="45.06085" lon="5.34798">
        <ele>215.721</ele>
        <time>2019-04-21T09:15:07Z</time>
      </trkpt>
      <trkpt lat="45.06087" lon="5.34801">
        <ele>216.162</ele>
        <time>2019-04-21T09:15:10Z</time>
      </trkpt>
      <trkpt lat="45.06088" lon="5.34803">
        <ele>216.457</ele>
        <time>2019-04-21T09:15:12Z</time>
      </trkpt>
      <trkpt lat="45.06089" lon="5.34809">
        <ele>217.337</ele>
        <time>2019-04-21T09:15:17Z</time>
      </trkpt>
      <trkpt lat="45.06089" lon="5.34813">
        <ele>216.479</ele>
        <time>2019-04-21T09:15:21Z</time>
      </trkpt>
      <trkpt lat="45.06089" lon="5.34813">
        <ele>216.547</ele>
        <time>2019-04-21T09:15:22Z</time>
      </trkpt>
      <trkpt lat="45.06089" lon="5.34813">
        <ele>216.808</ele>
        <time>2019-04-21T09:15:23Z</time>
      </trkpt>
      <trkpt lat="45.06089" lon="5.34813">
        <ele>217.195</ele>
        <time>2019-04-21T09:15:31Z</time>
      </trkpt>
      <trkpt lat="45.06088" lon="5.34814">
        <ele>217.145</ele>
        <time>2019-04-21T09:15:32Z</time>
      </trkpt>
      <trkpt lat="45.06088" lon="5.34816">
        <ele>217.13</ele>
        <time>2019-04-21T09:15:35Z</time>
      </trkpt>
      <trkpt lat="45.06088" lon="5.34816">
        <ele>217.13</ele>
        <time>2019-04-21T09:15:35Z</time>
      </trkpt>
      <trkpt lat="45.06088" lon="5.34816">
        <ele>217.01</ele>
        <time>2019-04-21T09:15:36Z</time>
      </trkpt>
      <trkpt lat="45.06088" lon="5.34816">
        <ele>217.115</ele>
        <time>2019-04-21T09:15:37Z</time>
      </trkpt>
      <trkpt lat="45.06088" lon="5.34816">
        <ele>217.115</ele>
        <time>2019-04-21T09:15:37Z</time>
      </trkpt>
      <trkpt lat="45.06088" lon="5.34816">
        <ele>217.438</ele>
        <time>2019-04-21T09:15:38Z</time>
      </trkpt>
      <trkpt lat="45.06088" lon="5.34816">
        <ele>217.895</ele>
        <time>2019-04-21T09:15:40Z</time>
      </trkpt>
      <trkpt lat="45.06087" lon="5.34817">
        <ele>217.872</ele>
        <time>2019-04-21T09:15:41Z</time>
      </trkpt>
      <trkpt lat="45.06087" lon="5.34817">
        <ele>216.951</ele>
        <time>2019-04-21T09:15:42Z</time>
      </trkpt>
      <trkpt lat="45.06087" lon="5.34817">
        <ele>216.658</ele>
        <time>2019-04-21T09:15:44Z</time>
      </trkpt>
      <trkpt lat="45.06086" lon="5.34818">
        <ele>216.269</ele>
        <time>2019-04-21T09:15:45Z</time>
      </trkpt>
      <trkpt lat="45.06086" lon="5.34818">
        <ele>215.987</ele>
        <time>2019-04-21T09:15:46Z</time>
      </trkpt>
      <trkpt lat="45.06086" lon="5.34818">
        <ele>215.829</ele>
        <time>2019-04-21T09:15:51Z</time>
      </trkpt>
      <trkpt lat="45.06085" lon="5.3482">
        <ele>215.641</ele>
        <time>2019-04-21T09:15:52Z</time>
      </trkpt>
      <trkpt lat="45.06087" lon="5.34823">
        <ele>214.746</ele>
        <time>2019-04-21T09:15:56Z</time>
      </trkpt>
      <trkpt lat="45.06089" lon="5.34824">
        <ele>214.491</ele>
        <time>2019-04-21T09:15:59Z</time>
      </trkpt>
      <trkpt lat="45.06089" lon="5.34827">
        <ele>217.886</ele>
        <time>2019-04-21T09:16:02Z</time>
      </trkpt>
      <trkpt lat="45.06091" lon="5.34831">
        <ele>219.878</ele>
        <time>2019-04-21T09:16:05Z</time>
      </trkpt>
      <trkpt lat="45.06093" lon="5.34833">
        <ele>217.91</ele>
        <time>2019-04-21T09:16:09Z</time>
      </trkpt>
      <trkpt lat="45.06094" lon="5.34833">
        <ele>220.33</ele>
        <time>2019-04-21T09:16:11Z</time>
      </trkpt>
      <trkpt lat="45.06096" lon="5.34832">
        <ele>220.71</ele>
        <time>2019-04-21T09:16:13Z</time>
      </trkpt>
      <trkpt lat="45.06097" lon="5.34831">
        <ele>219.743</ele>
        <time>2019-04-21T09:16:14Z</time>
      </trkpt>
      <trkpt lat="45.06097" lon="5.34831">
        <ele>219.743</ele>
        <time>2019-04-21T09:16:14Z</time>
      </trkpt>
      <trkpt lat="45.06098" lon="5.34831">
        <ele>219.43</ele>
        <time>2019-04-21T09:16:15Z</time>
      </trkpt>
      <trkpt lat="45.06098" lon="5.34831">
        <ele>220.886</ele>
        <time>2019-04-21T09:16:16Z</time>
      </trkpt>
      <trkpt lat="45.06098" lon="5.34831">
        <ele>220.886</ele>
        <time>2019-04-21T09:16:16Z</time>
      </trkpt>
      <trkpt lat="45.06098" lon="5.34831">
        <ele>221.203</ele>
        <time>2019-04-21T09:16:17Z</time>
      </trkpt>
      <trkpt lat="45.06098" lon="5.34831">
        <ele>221.203</ele>
        <time>2019-04-21T09:16:17Z</time>
      </trkpt>
      <trkpt lat="45.06098" lon="5.34831">
        <ele>219.669</ele>
        <time>2019-04-21T09:16:18Z</time>
      </trkpt>
      <trkpt lat="45.06098" lon="5.34831">
        <ele>219.187</ele>
        <time>2019-04-21T09:16:24Z</time>
      </trkpt>
      <trkpt lat="45.06097" lon="5.34833">
        <ele>219.495</ele>
        <time>2019-04-21T09:16:25Z</time>
      </trkpt>
      <trkpt lat="45.06099" lon="5.34837">
        <ele>220.426</ele>
        <time>2019-04-21T09:16:28Z</time>
      </trkpt>
      <trkpt lat="45.06102" lon="5.34838">
        <ele>221.753</ele>
        <time>2019-04-21T09:16:32Z</time>
      </trkpt>
      <trkpt lat="45.06102" lon="5.34838">
        <ele>221.845</ele>
        <time>2019-04-21T09:16:33Z</time>
      </trkpt>
      <trkpt lat="45.06102" lon="5.34838">
        <ele>221.845</ele>
        <time>2019-04-21T09:16:34Z</time>
      </trkpt>
      <trkpt lat="45.06102" lon="5.34837">
        <ele>222.046</ele>
        <time>2019-04-21T09:16:35Z</time>
      </trkpt>
      <trkpt lat="45.06102" lon="5.34837">
        <ele>222.046</ele>
        <time>2019-04-21T09:16:35Z</time>
      </trkpt>
      <trkpt lat="45.06102" lon="5.34837">
        <ele>222.349</ele>
        <time>2019-04-21T09:16:36Z</time>
      </trkpt>
      <trkpt lat="45.06102" lon="5.34837">
        <ele>222.357</ele>
        <time>2019-04-21T09:16:39Z</time>
      </trkpt>
      <trkpt lat="45.06102" lon="5.34838">
        <ele>222.376</ele>
        <time>2019-04-21T09:16:40Z</time>
      </trkpt>
      <trkpt lat="45.06101" lon="5.34841">
        <ele>222.684</ele>
        <time>2019-04-21T09:16:43Z</time>
      </trkpt>
      <trkpt lat="45.06101" lon="5.34842">
        <ele>223.057</ele>
        <time>2019-04-21T09:16:44Z</time>
      </trkpt>
      <trkpt lat="45.06098" lon="5.3484">
        <ele>222.851</ele>
        <time>2019-04-21T09:16:48Z</time>
      </trkpt>
      <trkpt lat="45.06097" lon="5.3484">
        <ele>222.605</ele>
        <time>2019-04-21T09:16:49Z</time>
      </trkpt>
      <trkpt lat="45.06097" lon="5.3484">
        <ele>222.913</ele>
        <time>2019-04-21T09:16:50Z</time>
      </trkpt>
      <trkpt lat="45.06097" lon="5.3484">
        <ele>223.651</ele>
        <time>2019-04-21T09:16:53Z</time>
      </trkpt>
      <trkpt lat="45.06099" lon="5.3484">
        <ele>224.391</ele>
        <time>2019-04-21T09:16:54Z</time>
      </trkpt>
      <trkpt lat="45.06109" lon="5.34846">
        <ele>225.716</ele>
        <time>2019-04-21T09:17:01Z</time>
      </trkpt>
      <trkpt lat="45.06111" lon="5.34849">
        <ele>225.343</ele>
        <time>2019-04-21T09:17:03Z</time>
      </trkpt>
      <trkpt lat="45.06112" lon="5.34854">
        <ele>224.943</ele>
        <time>2019-04-21T09:17:06Z</time>
      </trkpt>
      <trkpt lat="45.06115" lon="5.34861">
        <ele>224.044</ele>
        <time>2019-04-21T09:17:10Z</time>
      </trkpt>
      <trkpt lat="45.06119" lon="5.34867">
        <ele>226.227</ele>
        <time>2019-04-21T09:17:14Z</time>
      </trkpt>
      <trkpt lat="45.06121" lon="5.34872">
        <ele>226.735</ele>
        <time>2019-04-21T09:17:19Z</time>
      </trkpt>
      <trkpt lat="45.06121" lon="5.34873">
        <ele>227.089</ele>
        <time>2019-04-21T09:17:20Z</time>
      </trkpt>
      <trkpt lat="45.06122" lon="5.34873">
        <ele>227.518</ele>
        <time>2019-04-21T09:17:21Z</time>
      </trkpt>
      <trkpt lat="45.06124" lon="5.34874">
        <ele>228.276</ele>
        <time>2019-04-21T09:17:24Z</time>
      </trkpt>
      <trkpt lat="45.06148" lon="5.34886">
        <ele>231.042</ele>
        <time>2019-04-21T09:17:47Z</time>
      </trkpt>
      <trkpt lat="45.06153" lon="5.34893">
        <ele>232.627</ele>
        <time>2019-04-21T09:17:54Z</time>
      </trkpt>
      <trkpt lat="45.06157" lon="5.34897">
        <ele>232.679</ele>
        <time>2019-04-21T09:17:58Z</time>
      </trkpt>
      <trkpt lat="45.06163" lon="5.34903">
        <ele>233.834</ele>
        <time>2019-04-21T09:18:09Z</time>
      </trkpt>
      <trkpt lat="45.06163" lon="5.34903">
        <ele>233.834</ele>
        <time>2019-04-21T09:18:09Z</time>
      </trkpt>
      <trkpt lat="45.06164" lon="5.34903">
        <ele>233.856</ele>
        <time>2019-04-21T09:18:10Z</time>
      </trkpt>
      <trkpt lat="45.06165" lon="5.34904">
        <ele>233.979</ele>
        <time>2019-04-21T09:18:12Z</time>
      </trkpt>
      <trkpt lat="45.06167" lon="5.34905">
        <ele>233.907</ele>
        <time>2019-04-21T09:18:14Z</time>
      </trkpt>
      <trkpt lat="45.0617" lon="5.34907">
        <ele>234.277</ele>
        <time>2019-04-21T09:18:17Z</time>
      </trkpt>
      <trkpt lat="45.06173" lon="5.34907">
        <ele>235.027</ele>
        <time>2019-04-21T09:18:20Z</time>
      </trkpt>
      <trkpt lat="45.06173" lon="5.34907">
        <ele>235.027</ele>
        <time>2019-04-21T09:18:20Z</time>
      </trkpt>
      <trkpt lat="45.06173" lon="5.34906">
        <ele>235.128</ele>
        <time>2019-04-21T09:18:21Z</time>
      </trkpt>
      <trkpt lat="45.06175" lon="5.34906">
        <ele>236.367</ele>
        <time>2019-04-21T09:18:26Z</time>
      </trkpt>
      <trkpt lat="45.06175" lon="5.34906">
        <ele>236.367</ele>
        <time>2019-04-21T09:18:26Z</time>
      </trkpt>
      <trkpt lat="45.06175" lon="5.34905">
        <ele>236.371</ele>
        <time>2019-04-21T09:18:27Z</time>
      </trkpt>
      <trkpt lat="45.06175" lon="5.34904">
        <ele>236.562</ele>
        <time>2019-04-21T09:18:29Z</time>
      </trkpt>
      <trkpt lat="45.06176" lon="5.34905">
        <ele>236.39</ele>
        <time>2019-04-21T09:18:30Z</time>
      </trkpt>
      <trkpt lat="45.06177" lon="5.3491">
        <ele>237.432</ele>
        <time>2019-04-21T09:18:33Z</time>
      </trkpt>
      <trkpt lat="45.06177" lon="5.34912">
        <ele>237.405</ele>
        <time>2019-04-21T09:18:34Z</time>
      </trkpt>
      <trkpt lat="45.06178" lon="5.34915">
        <ele>237.637</ele>
        <time>2019-04-21T09:18:35Z</time>
      </trkpt>
      <trkpt lat="45.06178" lon="5.34917">
        <ele>237.535</ele>
        <time>2019-04-21T09:18:36Z</time>
      </trkpt>
      <trkpt lat="45.0618" lon="5.34916">
        <ele>237.973</ele>
        <time>2019-04-21T09:18:41Z</time>
      </trkpt>
      <trkpt lat="45.0618" lon="5.3492">
        <ele>239.441</ele>
        <time>2019-04-21T09:18:43Z</time>
      </trkpt>
      <trkpt lat="45.0618" lon="5.34921">
        <ele>239.539</ele>
        <time>2019-04-21T09:18:44Z</time>
      </trkpt>
      <trkpt lat="45.06183" lon="5.34923">
        <ele>241.404</ele>
        <time>2019-04-21T09:18:47Z</time>
      </trkpt>
      <trkpt lat="45.06184" lon="5.34923">
        <ele>241.964</ele>
        <time>2019-04-21T09:18:49Z</time>
      </trkpt>
      <trkpt lat="45.06185" lon="5.34923">
        <ele>242.182</ele>
        <time>2019-04-21T09:18:50Z</time>
      </trkpt>
      <trkpt lat="45.06187" lon="5.34923">
        <ele>244.002</ele>
        <time>2019-04-21T09:18:52Z</time>
      </trkpt>
      <trkpt lat="45.06187" lon="5.34923">
        <ele>244.002</ele>
        <time>2019-04-21T09:18:52Z</time>
      </trkpt>
      <trkpt lat="45.06187" lon="5.34923">
        <ele>244.026</ele>
        <time>2019-04-21T09:18:53Z</time>
      </trkpt>
      <trkpt lat="45.06188" lon="5.34924">
        <ele>244.796</ele>
        <time>2019-04-21T09:18:56Z</time>
      </trkpt>
      <trkpt lat="45.06188" lon="5.34924">
        <ele>244.796</ele>
        <time>2019-04-21T09:18:56Z</time>
      </trkpt>
      <trkpt lat="45.06189" lon="5.34924">
        <ele>245.549</ele>
        <time>2019-04-21T09:18:57Z</time>
      </trkpt>
      <trkpt lat="45.06189" lon="5.34925">
        <ele>247.959</ele>
        <time>2019-04-21T09:18:59Z</time>
      </trkpt>
      <trkpt lat="45.06191" lon="5.34929">
        <ele>249.456</ele>
        <time>2019-04-21T09:19:02Z</time>
      </trkpt>
      <trkpt lat="45.06193" lon="5.3493">
        <ele>250.852</ele>
        <time>2019-04-21T09:19:06Z</time>
      </trkpt>
      <trkpt lat="45.06195" lon="5.34931">
        <ele>249.914</ele>
        <time>2019-04-21T09:19:08Z</time>
      </trkpt>
      <trkpt lat="45.06197" lon="5.34931">
        <ele>250.369</ele>
        <time>2019-04-21T09:19:11Z</time>
      </trkpt>
      <trkpt lat="45.06198" lon="5.34931">
        <ele>250.34</ele>
        <time>2019-04-21T09:19:12Z</time>
      </trkpt>
      <trkpt lat="45.06201" lon="5.3493">
        <ele>249.849</ele>
        <time>2019-04-21T09:19:15Z</time>
      </trkpt>
      <trkpt lat="45.06204" lon="5.34931">
        <ele>250.316</ele>
        <time>2019-04-21T09:19:19Z</time>
      </trkpt>
      <trkpt lat="45.06206" lon="5.34931">
        <ele>250.911</ele>
        <time>2019-04-21T09:19:22Z</time>
      </trkpt>
      <trkpt lat="45.06208" lon="5.34931">
        <ele>251.09</ele>
        <time>2019-04-21T09:19:24Z</time>
      </trkpt>
      <trkpt lat="45.06208" lon="5.34931">
        <ele>251.495</ele>
        <time>2019-04-21T09:19:25Z</time>
      </trkpt>
      <trkpt lat="45.0621" lon="5.34933">
        <ele>253.616</ele>
        <time>2019-04-21T09:19:29Z</time>
      </trkpt>
      <trkpt lat="45.06212" lon="5.34932">
        <ele>255.669</ele>
        <time>2019-04-21T09:19:33Z</time>
      </trkpt>
      <trkpt lat="45.06215" lon="5.34932">
        <ele>256.994</ele>
        <time>2019-04-21T09:19:37Z</time>
      </trkpt>
      <trkpt lat="45.06217" lon="5.34929">
        <ele>257.035</ele>
        <time>2019-04-21T09:19:41Z</time>
      </trkpt>
      <trkpt lat="45.06217" lon="5.34931">
        <ele>257.364</ele>
        <time>2019-04-21T09:19:43Z</time>
      </trkpt>
      <trkpt lat="45.06217" lon="5.34931">
        <ele>257.384</ele>
        <time>2019-04-21T09:19:44Z</time>
      </trkpt>
      <trkpt lat="45.06217" lon="5.34931">
        <ele>257.384</ele>
        <time>2019-04-21T09:19:44Z</time>
      </trkpt>
      <trkpt lat="45.06218" lon="5.34929">
        <ele>257.594</ele>
        <time>2019-04-21T09:19:45Z</time>
      </trkpt>
      <trkpt lat="45.0622" lon="5.34921">
        <ele>257.594</ele>
        <time>2019-04-21T09:19:47Z</time>
      </trkpt>
      <trkpt lat="45.06222" lon="5.34916">
        <ele>257.514</ele>
        <time>2019-04-21T09:19:49Z</time>
      </trkpt>
      <trkpt lat="45.06225" lon="5.34912">
        <ele>257.807</ele>
        <time>2019-04-21T09:19:53Z</time>
      </trkpt>
      <trkpt lat="45.06228" lon="5.34913">
        <ele>257.916</ele>
        <time>2019-04-21T09:19:55Z</time>
      </trkpt>
      <trkpt lat="45.0623" lon="5.34915">
        <ele>258.001</ele>
        <time>2019-04-21T09:19:57Z</time>
      </trkpt>
      <trkpt lat="45.06231" lon="5.34917">
        <ele>257.988</ele>
        <time>2019-04-21T09:19:58Z</time>
      </trkpt>
      <trkpt lat="45.06231" lon="5.34917">
        <ele>257.988</ele>
        <time>2019-04-21T09:19:58Z</time>
      </trkpt>
      <trkpt lat="45.06231" lon="5.34919">
        <ele>258.02</ele>
        <time>2019-04-21T09:19:59Z</time>
      </trkpt>
      <trkpt lat="45.06231" lon="5.34919">
        <ele>257.951</ele>
        <time>2019-04-21T09:20:00Z</time>
      </trkpt>
      <trkpt lat="45.06231" lon="5.34919">
        <ele>257.951</ele>
        <time>2019-04-21T09:20:00Z</time>
      </trkpt>
      <trkpt lat="45.06231" lon="5.34922">
        <ele>257.997</ele>
        <time>2019-04-21T09:20:01Z</time>
      </trkpt>
      <trkpt lat="45.06232" lon="5.34919">
        <ele>258.39</ele>
        <time>2019-04-21T09:20:03Z</time>
      </trkpt>
      <trkpt lat="45.06234" lon="5.34922">
        <ele>259.488</ele>
        <time>2019-04-21T09:20:08Z</time>
      </trkpt>
      <trkpt lat="45.06235" lon="5.34924">
        <ele>258.265</ele>
        <time>2019-04-21T09:20:09Z</time>
      </trkpt>
      <trkpt lat="45.06235" lon="5.34926">
        <ele>258.248</ele>
        <time>2019-04-21T09:20:10Z</time>
      </trkpt>
      <trkpt lat="45.06236" lon="5.34928">
        <ele>259.76</ele>
        <time>2019-04-21T09:20:11Z</time>
      </trkpt>
      <trkpt lat="45.06237" lon="5.3493">
        <ele>260.266</ele>
        <time>2019-04-21T09:20:12Z</time>
      </trkpt>
      <trkpt lat="45.06239" lon="5.34932">
        <ele>260.966</ele>
        <time>2019-04-21T09:20:14Z</time>
      </trkpt>
      <trkpt lat="45.06241" lon="5.34933">
        <ele>260.81</ele>
        <time>2019-04-21T09:20:17Z</time>
      </trkpt>
      <trkpt lat="45.06242" lon="5.34934">
        <ele>261.9</ele>
        <time>2019-04-21T09:20:20Z</time>
      </trkpt>
      <trkpt lat="45.06244" lon="5.34933">
        <ele>263.314</ele>
        <time>2019-04-21T09:20:23Z</time>
      </trkpt>
      <trkpt lat="45.06244" lon="5.34932">
        <ele>263.214</ele>
        <time>2019-04-21T09:20:24Z</time>
      </trkpt>
      <trkpt lat="45.06244" lon="5.34932">
        <ele>263.296</ele>
        <time>2019-04-21T09:20:25Z</time>
      </trkpt>
      <trkpt lat="45.06244" lon="5.34932">
        <ele>264.068</ele>
        <time>2019-04-21T09:20:26Z</time>
      </trkpt>
      <trkpt lat="45.06245" lon="5.34934">
        <ele>264.865</ele>
        <time>2019-04-21T09:20:29Z</time>
      </trkpt>
      <trkpt lat="45.06249" lon="5.34944">
        <ele>264.137</ele>
        <time>2019-04-21T09:20:34Z</time>
      </trkpt>
      <trkpt lat="45.06253" lon="5.34949">
        <ele>265.094</ele>
        <time>2019-04-21T09:20:38Z</time>
      </trkpt>
      <trkpt lat="45.06253" lon="5.34949">
        <ele>265.662</ele>
        <time>2019-04-21T09:20:39Z</time>
      </trkpt>
      <trkpt lat="45.06253" lon="5.34949">
        <ele>265.662</ele>
        <time>2019-04-21T09:20:39Z</time>
      </trkpt>
      <trkpt lat="45.06254" lon="5.34948">
        <ele>266.069</ele>
        <time>2019-04-21T09:20:40Z</time>
      </trkpt>
      <trkpt lat="45.06256" lon="5.34947">
        <ele>266.048</ele>
        <time>2019-04-21T09:20:43Z</time>
      </trkpt>
      <trkpt lat="45.06257" lon="5.34947">
        <ele>264.052</ele>
        <time>2019-04-21T09:20:44Z</time>
      </trkpt>
      <trkpt lat="45.06258" lon="5.34948">
        <ele>263.104</ele>
        <time>2019-04-21T09:20:46Z</time>
      </trkpt>
      <trkpt lat="45.06259" lon="5.34948">
        <ele>263.515</ele>
        <time>2019-04-21T09:20:47Z</time>
      </trkpt>
      <trkpt lat="45.06259" lon="5.34948">
        <ele>263.515</ele>
        <time>2019-04-21T09:20:47Z</time>
      </trkpt>
      <trkpt lat="45.06261" lon="5.34951">
        <ele>260.469</ele>
        <time>2019-04-21T09:20:48Z</time>
      </trkpt>
      <trkpt lat="45.06261" lon="5.34951">
        <ele>260.605</ele>
        <time>2019-04-21T09:20:49Z</time>
      </trkpt>
      <trkpt lat="45.06261" lon="5.34951">
        <ele>260.605</ele>
        <time>2019-04-21T09:20:49Z</time>
      </trkpt>
      <trkpt lat="45.06262" lon="5.34952">
        <ele>261.235</ele>
        <time>2019-04-21T09:20:50Z</time>
      </trkpt>
      <trkpt lat="45.06262" lon="5.34952">
        <ele>261.875</ele>
        <time>2019-04-21T09:20:51Z</time>
      </trkpt>
      <trkpt lat="45.06262" lon="5.34952">
        <ele>261.446</ele>
        <time>2019-04-21T09:20:52Z</time>
      </trkpt>
      <trkpt lat="45.06263" lon="5.34956">
        <ele>259.565</ele>
        <time>2019-04-21T09:20:55Z</time>
      </trkpt>
      <trkpt lat="45.06263" lon="5.34956">
        <ele>259.565</ele>
        <time>2019-04-21T09:20:55Z</time>
      </trkpt>
      <trkpt lat="45.06264" lon="5.34958">
        <ele>258.966</ele>
        <time>2019-04-21T09:20:56Z</time>
      </trkpt>
      <trkpt lat="45.06267" lon="5.34963">
        <ele>259.844</ele>
        <time>2019-04-21T09:21:00Z</time>
      </trkpt>
      <trkpt lat="45.0627" lon="5.34975">
        <ele>259.802</ele>
        <time>2019-04-21T09:21:07Z</time>
      </trkpt>
      <trkpt lat="45.06271" lon="5.34976">
        <ele>259.98</ele>
        <time>2019-04-21T09:21:09Z</time>
      </trkpt>
      <trkpt lat="45.06271" lon="5.34977">
        <ele>260.46</ele>
        <time>2019-04-21T09:21:10Z</time>
      </trkpt>
      <trkpt lat="45.06272" lon="5.34979">
        <ele>261.083</ele>
        <time>2019-04-21T09:21:13Z</time>
      </trkpt>
      <trkpt lat="45.06272" lon="5.34979">
        <ele>261.083</ele>
        <time>2019-04-21T09:21:13Z</time>
      </trkpt>
      <trkpt lat="45.06272" lon="5.34979">
        <ele>260.966</ele>
        <time>2019-04-21T09:21:14Z</time>
      </trkpt>
      <trkpt lat="45.06273" lon="5.34978">
        <ele>260.944</ele>
        <time>2019-04-21T09:21:16Z</time>
      </trkpt>
      <trkpt lat="45.06274" lon="5.34977">
        <ele>261.376</ele>
        <time>2019-04-21T09:21:19Z</time>
      </trkpt>
      <trkpt lat="45.06275" lon="5.34977">
        <ele>261.759</ele>
        <time>2019-04-21T09:21:20Z</time>
      </trkpt>
      <trkpt lat="45.06275" lon="5.34977">
        <ele>261.759</ele>
        <time>2019-04-21T09:21:20Z</time>
      </trkpt>
      <trkpt lat="45.06275" lon="5.34978">
        <ele>262.222</ele>
        <time>2019-04-21T09:21:21Z</time>
      </trkpt>
      <trkpt lat="45.06276" lon="5.34979">
        <ele>262.526</ele>
        <time>2019-04-21T09:21:24Z</time>
      </trkpt>
      <trkpt lat="45.06276" lon="5.34979">
        <ele>262.569</ele>
        <time>2019-04-21T09:21:25Z</time>
      </trkpt>
      <trkpt lat="45.06277" lon="5.34978">
        <ele>262.932</ele>
        <time>2019-04-21T09:21:26Z</time>
      </trkpt>
      <trkpt lat="45.06278" lon="5.34977">
        <ele>262.981</ele>
        <time>2019-04-21T09:21:29Z</time>
      </trkpt>
      <trkpt lat="45.0628" lon="5.34978">
        <ele>262.6</ele>
        <time>2019-04-21T09:21:32Z</time>
      </trkpt>
      <trkpt lat="45.06281" lon="5.34979">
        <ele>262.142</ele>
        <time>2019-04-21T09:21:34Z</time>
      </trkpt>
      <trkpt lat="45.06283" lon="5.34981">
        <ele>263.904</ele>
        <time>2019-04-21T09:21:37Z</time>
      </trkpt>
      <trkpt lat="45.06283" lon="5.34981">
        <ele>263.904</ele>
        <time>2019-04-21T09:21:37Z</time>
      </trkpt>
      <trkpt lat="45.06284" lon="5.34981">
        <ele>264.594</ele>
        <time>2019-04-21T09:21:38Z</time>
      </trkpt>
      <trkpt lat="45.06285" lon="5.34981">
        <ele>264.54</ele>
        <time>2019-04-21T09:21:39Z</time>
      </trkpt>
      <trkpt lat="45.06286" lon="5.34981">
        <ele>264.812</ele>
        <time>2019-04-21T09:21:42Z</time>
      </trkpt>
      <trkpt lat="45.06288" lon="5.34985">
        <ele>263.387</ele>
        <time>2019-04-21T09:21:45Z</time>
      </trkpt>
      <trkpt lat="45.06289" lon="5.34987">
        <ele>262.737</ele>
        <time>2019-04-21T09:21:46Z</time>
      </trkpt>
      <trkpt lat="45.0629" lon="5.34991">
        <ele>261.963</ele>
        <time>2019-04-21T09:21:49Z</time>
      </trkpt>
      <trkpt lat="45.06291" lon="5.34992">
        <ele>261.877</ele>
        <time>2019-04-21T09:21:50Z</time>
      </trkpt>
      <trkpt lat="45.06291" lon="5.34993">
        <ele>261.711</ele>
        <time>2019-04-21T09:21:51Z</time>
      </trkpt>
      <trkpt lat="45.06293" lon="5.34996">
        <ele>260.809</ele>
        <time>2019-04-21T09:21:54Z</time>
      </trkpt>
      <trkpt lat="45.06293" lon="5.34997">
        <ele>260.726</ele>
        <time>2019-04-21T09:21:55Z</time>
      </trkpt>
      <trkpt lat="45.06294" lon="5.34997">
        <ele>260.18</ele>
        <time>2019-04-21T09:21:56Z</time>
      </trkpt>
      <trkpt lat="45.06294" lon="5.34998">
        <ele>259.798</ele>
        <time>2019-04-21T09:21:57Z</time>
      </trkpt>
      <trkpt lat="45.06297" lon="5.35005">
        <ele>260.449</ele>
        <time>2019-04-21T09:22:03Z</time>
      </trkpt>
      <trkpt lat="45.06297" lon="5.35006">
        <ele>260.61</ele>
        <time>2019-04-21T09:22:04Z</time>
      </trkpt>
      <trkpt lat="45.06297" lon="5.35006">
        <ele>260.61</ele>
        <time>2019-04-21T09:22:04Z</time>
      </trkpt>
      <trkpt lat="45.06297" lon="5.35006">
        <ele>260.626</ele>
        <time>2019-04-21T09:22:05Z</time>
      </trkpt>
      <trkpt lat="45.06297" lon="5.35006">
        <ele>260.626</ele>
        <time>2019-04-21T09:22:05Z</time>
      </trkpt>
      <trkpt lat="45.06298" lon="5.35007">
        <ele>260.806</ele>
        <time>2019-04-21T09:22:06Z</time>
      </trkpt>
      <trkpt lat="45.06298" lon="5.35007">
        <ele>260.806</ele>
        <time>2019-04-21T09:22:06Z</time>
      </trkpt>
      <trkpt lat="45.06299" lon="5.35007">
        <ele>261.55</ele>
        <time>2019-04-21T09:22:07Z</time>
      </trkpt>
      <trkpt lat="45.06299" lon="5.35008">
        <ele>261.609</ele>
        <time>2019-04-21T09:22:08Z</time>
      </trkpt>
      <trkpt lat="45.063" lon="5.35009">
        <ele>261.125</ele>
        <time>2019-04-21T09:22:09Z</time>
      </trkpt>
      <trkpt lat="45.06303" lon="5.35027">
        <ele>261.481</ele>
        <time>2019-04-21T09:22:22Z</time>
      </trkpt>
      <trkpt lat="45.06303" lon="5.35028">
        <ele>261.275</ele>
        <time>2019-04-21T09:22:23Z</time>
      </trkpt>
      <trkpt lat="45.06308" lon="5.35041">
        <ele>260.825</ele>
        <time>2019-04-21T09:22:37Z</time>
      </trkpt>
      <trkpt lat="45.06309" lon="5.35043">
        <ele>261.858</ele>
        <time>2019-04-21T09:22:39Z</time>
      </trkpt>
      <trkpt lat="45.0631" lon="5.35047">
        <ele>261.544</ele>
        <time>2019-04-21T09:22:42Z</time>
      </trkpt>
      <trkpt lat="45.06311" lon="5.35051">
        <ele>261.448</ele>
        <time>2019-04-21T09:22:46Z</time>
      </trkpt>
      <trkpt lat="45.06313" lon="5.35055">
        <ele>261.606</ele>
        <time>2019-04-21T09:22:51Z</time>
      </trkpt>
      <trkpt lat="45.06313" lon="5.35056">
        <ele>261.476</ele>
        <time>2019-04-21T09:22:53Z</time>
      </trkpt>
      <trkpt lat="45.06314" lon="5.35059">
        <ele>261.012</ele>
        <time>2019-04-21T09:22:56Z</time>
      </trkpt>
      <trkpt lat="45.06314" lon="5.35061">
        <ele>261.668</ele>
        <time>2019-04-21T09:22:58Z</time>
      </trkpt>
      <trkpt lat="45.06315" lon="5.35062">
        <ele>261.859</ele>
        <time>2019-04-21T09:22:59Z</time>
      </trkpt>
      <trkpt lat="45.06316" lon="5.3507">
        <ele>263.48</ele>
        <time>2019-04-21T09:23:08Z</time>
      </trkpt>
      <trkpt lat="45.06317" lon="5.35071">
        <ele>263.399</ele>
        <time>2019-04-21T09:23:11Z</time>
      </trkpt>
      <trkpt lat="45.06319" lon="5.35074">
        <ele>265.197</ele>
        <time>2019-04-21T09:23:16Z</time>
      </trkpt>
      <trkpt lat="45.06319" lon="5.35077">
        <ele>265.692</ele>
        <time>2019-04-21T09:23:19Z</time>
      </trkpt>
      <trkpt lat="45.06319" lon="5.35077">
        <ele>265.596</ele>
        <time>2019-04-21T09:23:20Z</time>
      </trkpt>
      <trkpt lat="45.06319" lon="5.35079">
        <ele>265.707</ele>
        <time>2019-04-21T09:23:22Z</time>
      </trkpt>
      <trkpt lat="45.06319" lon="5.35079">
        <ele>265.752</ele>
        <time>2019-04-21T09:23:23Z</time>
      </trkpt>
      <trkpt lat="45.0632" lon="5.35082">
        <ele>265.47</ele>
        <time>2019-04-21T09:23:26Z</time>
      </trkpt>
      <trkpt lat="45.06321" lon="5.35084">
        <ele>265.733</ele>
        <time>2019-04-21T09:23:28Z</time>
      </trkpt>
      <trkpt lat="45.06323" lon="5.35087">
        <ele>266.015</ele>
        <time>2019-04-21T09:23:32Z</time>
      </trkpt>
      <trkpt lat="45.06323" lon="5.35088">
        <ele>265.849</ele>
        <time>2019-04-21T09:23:33Z</time>
      </trkpt>
      <trkpt lat="45.06324" lon="5.35091">
        <ele>266.602</ele>
        <time>2019-04-21T09:23:37Z</time>
      </trkpt>
      <trkpt lat="45.06324" lon="5.35092">
        <ele>266.94</ele>
        <time>2019-04-21T09:23:38Z</time>
      </trkpt>
      <trkpt lat="45.06326" lon="5.351">
        <ele>266.617</ele>
        <time>2019-04-21T09:23:47Z</time>
      </trkpt>
      <trkpt lat="45.06327" lon="5.351">
        <ele>265.24</ele>
        <time>2019-04-21T09:23:48Z</time>
      </trkpt>
      <trkpt lat="45.06327" lon="5.35101">
        <ele>265.306</ele>
        <time>2019-04-21T09:23:49Z</time>
      </trkpt>
      <trkpt lat="45.06328" lon="5.35103">
        <ele>264.773</ele>
        <time>2019-04-21T09:23:52Z</time>
      </trkpt>
      <trkpt lat="45.0633" lon="5.35107">
        <ele>265.104</ele>
        <time>2019-04-21T09:23:57Z</time>
      </trkpt>
      <trkpt lat="45.06331" lon="5.35107">
        <ele>265.845</ele>
        <time>2019-04-21T09:23:58Z</time>
      </trkpt>
      <trkpt lat="45.06331" lon="5.35108">
        <ele>266.03</ele>
        <time>2019-04-21T09:23:59Z</time>
      </trkpt>
      <trkpt lat="45.06331" lon="5.35109">
        <ele>266.177</ele>
        <time>2019-04-21T09:24:00Z</time>
      </trkpt>
      <trkpt lat="45.06331" lon="5.35113">
        <ele>267.594</ele>
        <time>2019-04-21T09:24:06Z</time>
      </trkpt>
      <trkpt lat="45.06332" lon="5.35118">
        <ele>267.127</ele>
        <time>2019-04-21T09:24:13Z</time>
      </trkpt>
      <trkpt lat="45.06333" lon="5.3512">
        <ele>267.332</ele>
        <time>2019-04-21T09:24:15Z</time>
      </trkpt>
      <trkpt lat="45.06333" lon="5.35122">
        <ele>267.263</ele>
        <time>2019-04-21T09:24:17Z</time>
      </trkpt>
      <trkpt lat="45.06333" lon="5.35122">
        <ele>267.163</ele>
        <time>2019-04-21T09:24:18Z</time>
      </trkpt>
      <trkpt lat="45.06333" lon="5.35127">
        <ele>267.789</ele>
        <time>2019-04-21T09:24:22Z</time>
      </trkpt>
      <trkpt lat="45.06333" lon="5.3513">
        <ele>268.255</ele>
        <time>2019-04-21T09:24:25Z</time>
      </trkpt>
      <trkpt lat="45.06334" lon="5.35134">
        <ele>268.979</ele>
        <time>2019-04-21T09:24:30Z</time>
      </trkpt>
      <trkpt lat="45.06334" lon="5.35136">
        <ele>267.835</ele>
        <time>2019-04-21T09:24:32Z</time>
      </trkpt>
      <trkpt lat="45.06335" lon="5.3514">
        <ele>268.6</ele>
        <time>2019-04-21T09:24:36Z</time>
      </trkpt>
      <trkpt lat="45.06336" lon="5.3514">
        <ele>268.231</ele>
        <time>2019-04-21T09:24:37Z</time>
      </trkpt>
      <trkpt lat="45.06336" lon="5.35141">
        <ele>268.382</ele>
        <time>2019-04-21T09:24:39Z</time>
      </trkpt>
      <trkpt lat="45.06337" lon="5.35142">
        <ele>268.339</ele>
        <time>2019-04-21T09:24:42Z</time>
      </trkpt>
      <trkpt lat="45.06338" lon="5.35148">
        <ele>268.087</ele>
        <time>2019-04-21T09:24:50Z</time>
      </trkpt>
      <trkpt lat="45.06338" lon="5.35149">
        <ele>268.359</ele>
        <time>2019-04-21T09:24:51Z</time>
      </trkpt>
      <trkpt lat="45.06341" lon="5.35154">
        <ele>268.739</ele>
        <time>2019-04-21T09:24:58Z</time>
      </trkpt>
      <trkpt lat="45.06341" lon="5.35154">
        <ele>268.654</ele>
        <time>2019-04-21T09:24:59Z</time>
      </trkpt>
      <trkpt lat="45.06343" lon="5.35158">
        <ele>269.828</ele>
        <time>2019-04-21T09:25:04Z</time>
      </trkpt>
      <trkpt lat="45.06343" lon="5.35161">
        <ele>269.263</ele>
        <time>2019-04-21T09:25:07Z</time>
      </trkpt>
      <trkpt lat="45.06343" lon="5.35165">
        <ele>268.067</ele>
        <time>2019-04-21T09:25:12Z</time>
      </trkpt>
      <trkpt lat="45.06343" lon="5.35166">
        <ele>268.569</ele>
        <time>2019-04-21T09:25:14Z</time>
      </trkpt>
      <trkpt lat="45.06343" lon="5.35166">
        <ele>269.471</ele>
        <time>2019-04-21T09:25:15Z</time>
      </trkpt>
      <trkpt lat="45.06343" lon="5.35166">
        <ele>270.123</ele>
        <time>2019-04-21T09:25:18Z</time>
      </trkpt>
      <trkpt lat="45.06342" lon="5.35167">
        <ele>270.479</ele>
        <time>2019-04-21T09:25:19Z</time>
      </trkpt>
      <trkpt lat="45.06342" lon="5.35167">
        <ele>270.479</ele>
        <time>2019-04-21T09:25:19Z</time>
      </trkpt>
      <trkpt lat="45.06342" lon="5.35167">
        <ele>270.809</ele>
        <time>2019-04-21T09:25:20Z</time>
      </trkpt>
      <trkpt lat="45.06342" lon="5.35167">
        <ele>270.809</ele>
        <time>2019-04-21T09:25:20Z</time>
      </trkpt>
      <trkpt lat="45.06342" lon="5.35167">
        <ele>271.937</ele>
        <time>2019-04-21T09:25:21Z</time>
      </trkpt>
      <trkpt lat="45.06342" lon="5.35167">
        <ele>273.214</ele>
        <time>2019-04-21T09:25:22Z</time>
      </trkpt>
      <trkpt lat="45.06342" lon="5.35167">
        <ele>273.415</ele>
        <time>2019-04-21T09:25:23Z</time>
      </trkpt>
      <trkpt lat="45.06342" lon="5.35167">
        <ele>273.866</ele>
        <time>2019-04-21T09:25:26Z</time>
      </trkpt>
      <trkpt lat="45.06344" lon="5.35166">
        <ele>273.99</ele>
        <time>2019-04-21T09:25:27Z</time>
      </trkpt>
      <trkpt lat="45.06344" lon="5.35166">
        <ele>274.674</ele>
        <time>2019-04-21T09:25:28Z</time>
      </trkpt>
      <trkpt lat="45.06344" lon="5.35166">
        <ele>275.353</ele>
        <time>2019-04-21T09:26:01Z</time>
      </trkpt>
      <trkpt lat="45.06345" lon="5.35164">
        <ele>275.359</ele>
        <time>2019-04-21T09:26:02Z</time>
      </trkpt>
      <trkpt lat="45.06345" lon="5.35164">
        <ele>275.359</ele>
        <time>2019-04-21T09:26:02Z</time>
      </trkpt>
      <trkpt lat="45.06344" lon="5.35164">
        <ele>275.038</ele>
        <time>2019-04-21T09:26:03Z</time>
      </trkpt>
      <trkpt lat="45.06344" lon="5.35164">
        <ele>274.893</ele>
        <time>2019-04-21T09:26:04Z</time>
      </trkpt>
      <trkpt lat="45.06344" lon="5.35164">
        <ele>275.248</ele>
        <time>2019-04-21T09:26:05Z</time>
      </trkpt>
      <trkpt lat="45.06342" lon="5.35165">
        <ele>274.549</ele>
        <time>2019-04-21T09:26:09Z</time>
      </trkpt>
      <trkpt lat="45.06342" lon="5.35165">
        <ele>274.549</ele>
        <time>2019-04-21T09:26:09Z</time>
      </trkpt>
      <trkpt lat="45.06342" lon="5.35165">
        <ele>274.594</ele>
        <time>2019-04-21T09:26:10Z</time>
      </trkpt>
      <trkpt lat="45.06342" lon="5.35165">
        <ele>275.033</ele>
        <time>2019-04-21T09:26:11Z</time>
      </trkpt>
      <trkpt lat="45.06342" lon="5.35166">
        <ele>274.91</ele>
        <time>2019-04-21T09:26:12Z</time>
      </trkpt>
      <trkpt lat="45.06342" lon="5.35167">
        <ele>274.804</ele>
        <time>2019-04-21T09:26:13Z</time>
      </trkpt>
      <trkpt lat="45.06342" lon="5.35167">
        <ele>274.804</ele>
        <time>2019-04-21T09:26:13Z</time>
      </trkpt>
      <trkpt lat="45.06342" lon="5.35167">
        <ele>273.95</ele>
        <time>2019-04-21T09:26:14Z</time>
      </trkpt>
      <trkpt lat="45.06343" lon="5.35167">
        <ele>273.689</ele>
        <time>2019-04-21T09:26:15Z</time>
      </trkpt>
      <trkpt lat="45.06344" lon="5.35167">
        <ele>272.204</ele>
        <time>2019-04-21T09:26:18Z</time>
      </trkpt>
      <trkpt lat="45.06344" lon="5.35167">
        <ele>270.18</ele>
        <time>2019-04-21T09:26:25Z</time>
      </trkpt>
      <trkpt lat="45.0634" lon="5.35167">
        <ele>271.097</ele>
        <time>2019-04-21T09:26:26Z</time>
      </trkpt>
      <trkpt lat="45.06339" lon="5.35168">
        <ele>271.963</ele>
        <time>2019-04-21T09:26:28Z</time>
      </trkpt>
      <trkpt lat="45.06339" lon="5.35171">
        <ele>272.532</ele>
        <time>2019-04-21T09:26:30Z</time>
      </trkpt>
      <trkpt lat="45.06338" lon="5.35173">
        <ele>272.279</ele>
        <time>2019-04-21T09:26:32Z</time>
      </trkpt>
      <trkpt lat="45.06338" lon="5.35174">
        <ele>269.21</ele>
        <time>2019-04-21T09:26:34Z</time>
      </trkpt>
      <trkpt lat="45.06338" lon="5.35174">
        <ele>268.083</ele>
        <time>2019-04-21T09:26:36Z</time>
      </trkpt>
      <trkpt lat="45.06338" lon="5.35173">
        <ele>268.238</ele>
        <time>2019-04-21T09:26:37Z</time>
      </trkpt>
      <trkpt lat="45.06338" lon="5.35173">
        <ele>268.238</ele>
        <time>2019-04-21T09:26:37Z</time>
      </trkpt>
      <trkpt lat="45.06338" lon="5.35173">
        <ele>268.162</ele>
        <time>2019-04-21T09:26:38Z</time>
      </trkpt>
      <trkpt lat="45.06338" lon="5.35173">
        <ele>274.657</ele>
        <time>2019-04-21T09:26:59Z</time>
      </trkpt>
      <trkpt lat="45.0634" lon="5.35173">
        <ele>273.466</ele>
        <time>2019-04-21T09:27:00Z</time>
      </trkpt>
      <trkpt lat="45.0634" lon="5.35173">
        <ele>273.22</ele>
        <time>2019-04-21T09:27:01Z</time>
      </trkpt>
      <trkpt lat="45.0634" lon="5.35173">
        <ele>273.236</ele>
        <time>2019-04-21T09:27:12Z</time>
      </trkpt>
      <trkpt lat="45.06341" lon="5.35174">
        <ele>273.558</ele>
        <time>2019-04-21T09:27:13Z</time>
      </trkpt>
      <trkpt lat="45.06341" lon="5.35175">
        <ele>273.489</ele>
        <time>2019-04-21T09:27:14Z</time>
      </trkpt>
      <trkpt lat="45.06341" lon="5.35176">
        <ele>272.651</ele>
        <time>2019-04-21T09:27:15Z</time>
      </trkpt>
      <trkpt lat="45.06342" lon="5.35178">
        <ele>273.242</ele>
        <time>2019-04-21T09:27:17Z</time>
      </trkpt>
      <trkpt lat="45.06342" lon="5.35181">
        <ele>272.542</ele>
        <time>2019-04-21T09:27:20Z</time>
      </trkpt>
      <trkpt lat="45.06341" lon="5.35184">
        <ele>271.615</ele>
        <time>2019-04-21T09:27:22Z</time>
      </trkpt>
      <trkpt lat="45.06342" lon="5.35191">
        <ele>272.51</ele>
        <time>2019-04-21T09:27:27Z</time>
      </trkpt>
      <trkpt lat="45.06341" lon="5.35192">
        <ele>273.062</ele>
        <time>2019-04-21T09:27:28Z</time>
      </trkpt>
      <trkpt lat="45.06342" lon="5.35196">
        <ele>275.056</ele>
        <time>2019-04-21T09:27:32Z</time>
      </trkpt>
      <trkpt lat="45.06342" lon="5.352">
        <ele>275.687</ele>
        <time>2019-04-21T09:27:37Z</time>
      </trkpt>
      <trkpt lat="45.0634" lon="5.35203">
        <ele>276.24</ele>
        <time>2019-04-21T09:27:41Z</time>
      </trkpt>
      <trkpt lat="45.06341" lon="5.35206">
        <ele>275.421</ele>
        <time>2019-04-21T09:27:43Z</time>
      </trkpt>
      <trkpt lat="45.06342" lon="5.35212">
        <ele>275.898</ele>
        <time>2019-04-21T09:27:46Z</time>
      </trkpt>
      <trkpt lat="45.06342" lon="5.35212">
        <ele>276.96</ele>
        <time>2019-04-21T09:27:47Z</time>
      </trkpt>
      <trkpt lat="45.06341" lon="5.35214">
        <ele>277.272</ele>
        <time>2019-04-21T09:27:48Z</time>
      </trkpt>
      <trkpt lat="45.06341" lon="5.35217">
        <ele>278.542</ele>
        <time>2019-04-21T09:27:51Z</time>
      </trkpt>
      <trkpt lat="45.06341" lon="5.35218">
        <ele>278.4</ele>
        <time>2019-04-21T09:27:53Z</time>
      </trkpt>
      <trkpt lat="45.06341" lon="5.35218">
        <ele>279.237</ele>
        <time>2019-04-21T09:27:56Z</time>
      </trkpt>
      <trkpt lat="45.06342" lon="5.3522">
        <ele>279.312</ele>
        <time>2019-04-21T09:27:57Z</time>
      </trkpt>
      <trkpt lat="45.06342" lon="5.35222">
        <ele>279.322</ele>
        <time>2019-04-21T09:27:59Z</time>
      </trkpt>
      <trkpt lat="45.06342" lon="5.35224">
        <ele>280.309</ele>
        <time>2019-04-21T09:28:01Z</time>
      </trkpt>
      <trkpt lat="45.06342" lon="5.35228">
        <ele>280.315</ele>
        <time>2019-04-21T09:28:05Z</time>
      </trkpt>
      <trkpt lat="45.06342" lon="5.35228">
        <ele>280.831</ele>
        <time>2019-04-21T09:28:06Z</time>
      </trkpt>
      <trkpt lat="45.06342" lon="5.35228">
        <ele>280.831</ele>
        <time>2019-04-21T09:28:06Z</time>
      </trkpt>
      <trkpt lat="45.06342" lon="5.35228">
        <ele>280.937</ele>
        <time>2019-04-21T09:28:07Z</time>
      </trkpt>
      <trkpt lat="45.06342" lon="5.35228">
        <ele>281.472</ele>
        <time>2019-04-21T09:28:09Z</time>
      </trkpt>
      <trkpt lat="45.06342" lon="5.35228">
        <ele>282.172</ele>
        <time>2019-04-21T09:28:11Z</time>
      </trkpt>
      <trkpt lat="45.06343" lon="5.35228">
        <ele>282.515</ele>
        <time>2019-04-21T09:28:12Z</time>
      </trkpt>
      <trkpt lat="45.06343" lon="5.35228">
        <ele>282.463</ele>
        <time>2019-04-21T09:28:14Z</time>
      </trkpt>
      <trkpt lat="45.06343" lon="5.35228">
        <ele>282.463</ele>
        <time>2019-04-21T09:28:14Z</time>
      </trkpt>
      <trkpt lat="45.06342" lon="5.35228">
        <ele>282.271</ele>
        <time>2019-04-21T09:28:15Z</time>
      </trkpt>
      <trkpt lat="45.0634" lon="5.35227">
        <ele>280.581</ele>
        <time>2019-04-21T09:28:19Z</time>
      </trkpt>
      <trkpt lat="45.0634" lon="5.35227">
        <ele>279.712</ele>
        <time>2019-04-21T09:28:22Z</time>
      </trkpt>
      <trkpt lat="45.0634" lon="5.35229">
        <ele>279.164</ele>
        <time>2019-04-21T09:28:23Z</time>
      </trkpt>
      <trkpt lat="45.0634" lon="5.35232">
        <ele>280.462</ele>
        <time>2019-04-21T09:28:25Z</time>
      </trkpt>
      <trkpt lat="45.0634" lon="5.35233">
        <ele>280.788</ele>
        <time>2019-04-21T09:28:27Z</time>
      </trkpt>
      <trkpt lat="45.0634" lon="5.35233">
        <ele>280.914</ele>
        <time>2019-04-21T09:28:56Z</time>
      </trkpt>
      <trkpt lat="45.06339" lon="5.35235">
        <ele>280.628</ele>
        <time>2019-04-21T09:28:57Z</time>
      </trkpt>
      <trkpt lat="45.06339" lon="5.35236">
        <ele>281.912</ele>
        <time>2019-04-21T09:28:59Z</time>
      </trkpt>
      <trkpt lat="45.06339" lon="5.35236">
        <ele>280.825</ele>
        <time>2019-04-21T09:29:00Z</time>
      </trkpt>
      <trkpt lat="45.06339" lon="5.35236">
        <ele>280.608</ele>
        <time>2019-04-21T09:29:02Z</time>
      </trkpt>
      <trkpt lat="45.06339" lon="5.35237">
        <ele>279.613</ele>
        <time>2019-04-21T09:29:03Z</time>
      </trkpt>
      <trkpt lat="45.06339" lon="5.3524">
        <ele>279.579</ele>
        <time>2019-04-21T09:29:05Z</time>
      </trkpt>
      <trkpt lat="45.0634" lon="5.35242">
        <ele>279.091</ele>
        <time>2019-04-21T09:29:06Z</time>
      </trkpt>
      <trkpt lat="45.0634" lon="5.35246">
        <ele>278.206</ele>
        <time>2019-04-21T09:29:07Z</time>
      </trkpt>
      <trkpt lat="45.0634" lon="5.35249">
        <ele>278.352</ele>
        <time>2019-04-21T09:29:09Z</time>
      </trkpt>
      <trkpt lat="45.06341" lon="5.35249">
        <ele>276.326</ele>
        <time>2019-04-21T09:29:10Z</time>
      </trkpt>
      <trkpt lat="45.06341" lon="5.35249">
        <ele>276.326</ele>
        <time>2019-04-21T09:29:10Z</time>
      </trkpt>
      <trkpt lat="45.06342" lon="5.35249">
        <ele>275.731</ele>
        <time>2019-04-21T09:29:11Z</time>
      </trkpt>
      <trkpt lat="45.06344" lon="5.35249">
        <ele>275.805</ele>
        <time>2019-04-21T09:29:13Z</time>
      </trkpt>
      <trkpt lat="45.06348" lon="5.3525">
        <ele>276.382</ele>
        <time>2019-04-21T09:29:15Z</time>
      </trkpt>
      <trkpt lat="45.06351" lon="5.35253">
        <ele>276.259</ele>
        <time>2019-04-21T09:29:17Z</time>
      </trkpt>
      <trkpt lat="45.06351" lon="5.35257">
        <ele>277.303</ele>
        <time>2019-04-21T09:29:20Z</time>
      </trkpt>
      <trkpt lat="45.06351" lon="5.35258">
        <ele>276.479</ele>
        <time>2019-04-21T09:29:21Z</time>
      </trkpt>
      <trkpt lat="45.06351" lon="5.35261">
        <ele>278.261</ele>
        <time>2019-04-21T09:29:23Z</time>
      </trkpt>
      <trkpt lat="45.06353" lon="5.35264">
        <ele>279.216</ele>
        <time>2019-04-21T09:29:26Z</time>
      </trkpt>
      <trkpt lat="45.06354" lon="5.35265">
        <ele>279.229</ele>
        <time>2019-04-21T09:29:28Z</time>
      </trkpt>
      <trkpt lat="45.06355" lon="5.35268">
        <ele>279.067</ele>
        <time>2019-04-21T09:29:31Z</time>
      </trkpt>
      <trkpt lat="45.06355" lon="5.3527">
        <ele>282.025</ele>
        <time>2019-04-21T09:29:33Z</time>
      </trkpt>
      <trkpt lat="45.06354" lon="5.35276">
        <ele>281.018</ele>
        <time>2019-04-21T09:29:36Z</time>
      </trkpt>
      <trkpt lat="45.06352" lon="5.3528">
        <ele>280.325</ele>
        <time>2019-04-21T09:29:39Z</time>
      </trkpt>
      <trkpt lat="45.06351" lon="5.35285">
        <ele>281.703</ele>
        <time>2019-04-21T09:29:43Z</time>
      </trkpt>
      <trkpt lat="45.06352" lon="5.3529">
        <ele>280.876</ele>
        <time>2019-04-21T09:29:46Z</time>
      </trkpt>
      <trkpt lat="45.06353" lon="5.35291">
        <ele>281.623</ele>
        <time>2019-04-21T09:29:48Z</time>
      </trkpt>
      <trkpt lat="45.06355" lon="5.35292">
        <ele>280.153</ele>
        <time>2019-04-21T09:29:53Z</time>
      </trkpt>
      <trkpt lat="45.06354" lon="5.35293">
        <ele>280.476</ele>
        <time>2019-04-21T09:29:54Z</time>
      </trkpt>
      <trkpt lat="45.06354" lon="5.35298">
        <ele>281.343</ele>
        <time>2019-04-21T09:29:57Z</time>
      </trkpt>
      <trkpt lat="45.06355" lon="5.35299">
        <ele>282.002</ele>
        <time>2019-04-21T09:29:58Z</time>
      </trkpt>
      <trkpt lat="45.06357" lon="5.35306">
        <ele>282.393</ele>
        <time>2019-04-21T09:30:02Z</time>
      </trkpt>
      <trkpt lat="45.06357" lon="5.35308">
        <ele>282.113</ele>
        <time>2019-04-21T09:30:03Z</time>
      </trkpt>
      <trkpt lat="45.06357" lon="5.35313">
        <ele>284.358</ele>
        <time>2019-04-21T09:30:06Z</time>
      </trkpt>
      <trkpt lat="45.06358" lon="5.35316">
        <ele>284.928</ele>
        <time>2019-04-21T09:30:09Z</time>
      </trkpt>
      <trkpt lat="45.06358" lon="5.35317">
        <ele>286.13</ele>
        <time>2019-04-21T09:30:10Z</time>
      </trkpt>
      <trkpt lat="45.06358" lon="5.35319">
        <ele>286.83</ele>
        <time>2019-04-21T09:30:14Z</time>
      </trkpt>
      <trkpt lat="45.06358" lon="5.3532">
        <ele>286.767</ele>
        <time>2019-04-21T09:30:15Z</time>
      </trkpt>
      <trkpt lat="45.06357" lon="5.3532">
        <ele>286.997</ele>
        <time>2019-04-21T09:30:16Z</time>
      </trkpt>
      <trkpt lat="45.06357" lon="5.35319">
        <ele>286.75</ele>
        <time>2019-04-21T09:30:17Z</time>
      </trkpt>
      <trkpt lat="45.06356" lon="5.3532">
        <ele>286.728</ele>
        <time>2019-04-21T09:30:18Z</time>
      </trkpt>
      <trkpt lat="45.06356" lon="5.35322">
        <ele>286.684</ele>
        <time>2019-04-21T09:30:21Z</time>
      </trkpt>
      <trkpt lat="45.06357" lon="5.35325">
        <ele>286.325</ele>
        <time>2019-04-21T09:30:23Z</time>
      </trkpt>
      <trkpt lat="45.06359" lon="5.35335">
        <ele>285.82</ele>
        <time>2019-04-21T09:30:28Z</time>
      </trkpt>
      <trkpt lat="45.06357" lon="5.35337">
        <ele>286.529</ele>
        <time>2019-04-21T09:30:31Z</time>
      </trkpt>
      <trkpt lat="45.06355" lon="5.35339">
        <ele>285.853</ele>
        <time>2019-04-21T09:30:33Z</time>
      </trkpt>
      <trkpt lat="45.06355" lon="5.35346">
        <ele>285.352</ele>
        <time>2019-04-21T09:30:36Z</time>
      </trkpt>
      <trkpt lat="45.06355" lon="5.35348">
        <ele>285.552</ele>
        <time>2019-04-21T09:30:37Z</time>
      </trkpt>
      <trkpt lat="45.06354" lon="5.35348">
        <ele>285.553</ele>
        <time>2019-04-21T09:30:38Z</time>
      </trkpt>
      <trkpt lat="45.06353" lon="5.35348">
        <ele>285.389</ele>
        <time>2019-04-21T09:30:41Z</time>
      </trkpt>
      <trkpt lat="45.06353" lon="5.35348">
        <ele>285.389</ele>
        <time>2019-04-21T09:30:41Z</time>
      </trkpt>
      <trkpt lat="45.06353" lon="5.35347">
        <ele>284.99</ele>
        <time>2019-04-21T09:30:42Z</time>
      </trkpt>
      <trkpt lat="45.06354" lon="5.35345">
        <ele>284.81</ele>
        <time>2019-04-21T09:30:44Z</time>
      </trkpt>
      <trkpt lat="45.06354" lon="5.35345">
        <ele>284.81</ele>
        <time>2019-04-21T09:30:44Z</time>
      </trkpt>
      <trkpt lat="45.06355" lon="5.35345">
        <ele>284.71</ele>
        <time>2019-04-21T09:30:45Z</time>
      </trkpt>
      <trkpt lat="45.06357" lon="5.35347">
        <ele>284.246</ele>
        <time>2019-04-21T09:30:47Z</time>
      </trkpt>
      <trkpt lat="45.06357" lon="5.35352">
        <ele>285.022</ele>
        <time>2019-04-21T09:30:50Z</time>
      </trkpt>
      <trkpt lat="45.06356" lon="5.35353">
        <ele>284.846</ele>
        <time>2019-04-21T09:30:52Z</time>
      </trkpt>
      <trkpt lat="45.06356" lon="5.35353">
        <ele>284.603</ele>
        <time>2019-04-21T09:30:53Z</time>
      </trkpt>
      <trkpt lat="45.06356" lon="5.35353">
        <ele>284.603</ele>
        <time>2019-04-21T09:30:53Z</time>
      </trkpt>
      <trkpt lat="45.06356" lon="5.35353">
        <ele>285.162</ele>
        <time>2019-04-21T09:30:54Z</time>
      </trkpt>
      <trkpt lat="45.06358" lon="5.35358">
        <ele>284.615</ele>
        <time>2019-04-21T09:30:58Z</time>
      </trkpt>
      <trkpt lat="45.06359" lon="5.35362">
        <ele>284.645</ele>
        <time>2019-04-21T09:30:59Z</time>
      </trkpt>
      <trkpt lat="45.06359" lon="5.35362">
        <ele>285.43</ele>
        <time>2019-04-21T09:31:01Z</time>
      </trkpt>
      <trkpt lat="45.06359" lon="5.35364">
        <ele>285.113</ele>
        <time>2019-04-21T09:31:02Z</time>
      </trkpt>
      <trkpt lat="45.06358" lon="5.35369">
        <ele>285.534</ele>
        <time>2019-04-21T09:31:06Z</time>
      </trkpt>
      <trkpt lat="45.06356" lon="5.35385">
        <ele>287.335</ele>
        <time>2019-04-21T09:31:19Z</time>
      </trkpt>
      <trkpt lat="45.06355" lon="5.35386">
        <ele>287.323</ele>
        <time>2019-04-21T09:31:20Z</time>
      </trkpt>
      <trkpt lat="45.06355" lon="5.3539">
        <ele>286.649</ele>
        <time>2019-04-21T09:31:23Z</time>
      </trkpt>
      <trkpt lat="45.06355" lon="5.35395">
        <ele>286.09</ele>
        <time>2019-04-21T09:31:28Z</time>
      </trkpt>
      <trkpt lat="45.06355" lon="5.35396">
        <ele>285.762</ele>
        <time>2019-04-21T09:31:30Z</time>
      </trkpt>
      <trkpt lat="45.06355" lon="5.35396">
        <ele>285.762</ele>
        <time>2019-04-21T09:31:30Z</time>
      </trkpt>
      <trkpt lat="45.06356" lon="5.35396">
        <ele>286.014</ele>
        <time>2019-04-21T09:31:31Z</time>
      </trkpt>
      <trkpt lat="45.06357" lon="5.35396">
        <ele>286.331</ele>
        <time>2019-04-21T09:31:34Z</time>
      </trkpt>
      <trkpt lat="45.06357" lon="5.35396">
        <ele>286.333</ele>
        <time>2019-04-21T09:31:35Z</time>
      </trkpt>
      <trkpt lat="45.06356" lon="5.35396">
        <ele>285.733</ele>
        <time>2019-04-21T09:31:36Z</time>
      </trkpt>
      <trkpt lat="45.06354" lon="5.35399">
        <ele>285.516</ele>
        <time>2019-04-21T09:31:40Z</time>
      </trkpt>
      <trkpt lat="45.06353" lon="5.354">
        <ele>285.51</ele>
        <time>2019-04-21T09:31:41Z</time>
      </trkpt>
      <trkpt lat="45.06353" lon="5.35403">
        <ele>287.056</ele>
        <time>2019-04-21T09:31:44Z</time>
      </trkpt>
      <trkpt lat="45.06353" lon="5.35403">
        <ele>287.056</ele>
        <time>2019-04-21T09:31:44Z</time>
      </trkpt>
      <trkpt lat="45.06353" lon="5.35403">
        <ele>286.357</ele>
        <time>2019-04-21T09:31:45Z</time>
      </trkpt>
      <trkpt lat="45.06353" lon="5.35403">
        <ele>285.796</ele>
        <time>2019-04-21T09:31:46Z</time>
      </trkpt>
      <trkpt lat="45.06353" lon="5.35403">
        <ele>285.796</ele>
        <time>2019-04-21T09:31:46Z</time>
      </trkpt>
      <trkpt lat="45.06353" lon="5.35402">
        <ele>284.99</ele>
        <time>2019-04-21T09:31:47Z</time>
      </trkpt>
      <trkpt lat="45.06351" lon="5.35401">
        <ele>285.295</ele>
        <time>2019-04-21T09:31:49Z</time>
      </trkpt>
      <trkpt lat="45.06349" lon="5.35403">
        <ele>285.712</ele>
        <time>2019-04-21T09:31:53Z</time>
      </trkpt>
      <trkpt lat="45.0635" lon="5.35405">
        <ele>285.919</ele>
        <time>2019-04-21T09:31:55Z</time>
      </trkpt>
      <trkpt lat="45.0635" lon="5.35405">
        <ele>285.962</ele>
        <time>2019-04-21T09:31:56Z</time>
      </trkpt>
      <trkpt lat="45.0635" lon="5.35406">
        <ele>285.873</ele>
        <time>2019-04-21T09:31:57Z</time>
      </trkpt>
      <trkpt lat="45.06348" lon="5.35407">
        <ele>286.224</ele>
        <time>2019-04-21T09:31:59Z</time>
      </trkpt>
      <trkpt lat="45.06346" lon="5.35408">
        <ele>286.317</ele>
        <time>2019-04-21T09:32:01Z</time>
      </trkpt>
      <trkpt lat="45.06347" lon="5.35408">
        <ele>287.403</ele>
        <time>2019-04-21T09:32:02Z</time>
      </trkpt>
      <trkpt lat="45.06349" lon="5.3541">
        <ele>287.477</ele>
        <time>2019-04-21T09:32:04Z</time>
      </trkpt>
      <trkpt lat="45.06349" lon="5.35411">
        <ele>288.565</ele>
        <time>2019-04-21T09:32:06Z</time>
      </trkpt>
      <trkpt lat="45.06348" lon="5.35407">
        <ele>289.074</ele>
        <time>2019-04-21T09:32:11Z</time>
      </trkpt>
      <trkpt lat="45.06347" lon="5.35406">
        <ele>288.194</ele>
        <time>2019-04-21T09:32:13Z</time>
      </trkpt>
      <trkpt lat="45.06347" lon="5.35406">
        <ele>288.194</ele>
        <time>2019-04-21T09:32:13Z</time>
      </trkpt>
      <trkpt lat="45.06345" lon="5.35406">
        <ele>289.286</ele>
        <time>2019-04-21T09:32:14Z</time>
      </trkpt>
      <trkpt lat="45.06345" lon="5.35408">
        <ele>290.104</ele>
        <time>2019-04-21T09:32:16Z</time>
      </trkpt>
      <trkpt lat="45.06344" lon="5.35409">
        <ele>289.505</ele>
        <time>2019-04-21T09:32:18Z</time>
      </trkpt>
      <trkpt lat="45.06344" lon="5.35409">
        <ele>289.505</ele>
        <time>2019-04-21T09:32:18Z</time>
      </trkpt>
      <trkpt lat="45.06345" lon="5.3541">
        <ele>289.282</ele>
        <time>2019-04-21T09:32:19Z</time>
      </trkpt>
      <trkpt lat="45.06345" lon="5.35414">
        <ele>291.134</ele>
        <time>2019-04-21T09:32:22Z</time>
      </trkpt>
      <trkpt lat="45.06341" lon="5.35419">
        <ele>292.039</ele>
        <time>2019-04-21T09:32:25Z</time>
      </trkpt>
      <trkpt lat="45.0634" lon="5.3542">
        <ele>290.324</ele>
        <time>2019-04-21T09:32:26Z</time>
      </trkpt>
      <trkpt lat="45.06339" lon="5.35424">
        <ele>288.155</ele>
        <time>2019-04-21T09:32:31Z</time>
      </trkpt>
      <trkpt lat="45.0634" lon="5.35429">
        <ele>289.415</ele>
        <time>2019-04-21T09:32:34Z</time>
      </trkpt>
      <trkpt lat="45.06341" lon="5.3543">
        <ele>289.384</ele>
        <time>2019-04-21T09:32:36Z</time>
      </trkpt>
      <trkpt lat="45.0634" lon="5.3543">
        <ele>290.127</ele>
        <time>2019-04-21T09:32:39Z</time>
      </trkpt>
      <trkpt lat="45.06339" lon="5.35434">
        <ele>292.987</ele>
        <time>2019-04-21T09:32:44Z</time>
      </trkpt>
      <trkpt lat="45.0634" lon="5.35435">
        <ele>293.899</ele>
        <time>2019-04-21T09:32:46Z</time>
      </trkpt>
      <trkpt lat="45.06339" lon="5.35435">
        <ele>294.174</ele>
        <time>2019-04-21T09:32:47Z</time>
      </trkpt>
      <trkpt lat="45.06339" lon="5.35435">
        <ele>294.174</ele>
        <time>2019-04-21T09:32:47Z</time>
      </trkpt>
      <trkpt lat="45.06339" lon="5.35435">
        <ele>294.141</ele>
        <time>2019-04-21T09:32:48Z</time>
      </trkpt>
      <trkpt lat="45.06339" lon="5.35435">
        <ele>294.141</ele>
        <time>2019-04-21T09:32:48Z</time>
      </trkpt>
      <trkpt lat="45.06339" lon="5.35435">
        <ele>294.218</ele>
        <time>2019-04-21T09:32:49Z</time>
      </trkpt>
      <trkpt lat="45.06339" lon="5.35435">
        <ele>294.218</ele>
        <time>2019-04-21T09:32:49Z</time>
      </trkpt>
      <trkpt lat="45.06339" lon="5.35435">
        <ele>295.205</ele>
        <time>2019-04-21T09:32:50Z</time>
      </trkpt>
      <trkpt lat="45.06339" lon="5.35436">
        <ele>295.718</ele>
        <time>2019-04-21T09:32:52Z</time>
      </trkpt>
      <trkpt lat="45.06339" lon="5.35438">
        <ele>295.096</ele>
        <time>2019-04-21T09:32:54Z</time>
      </trkpt>
      <trkpt lat="45.06339" lon="5.35438">
        <ele>295.096</ele>
        <time>2019-04-21T09:32:54Z</time>
      </trkpt>
      <trkpt lat="45.06339" lon="5.35438">
        <ele>294.85</ele>
        <time>2019-04-21T09:32:55Z</time>
      </trkpt>
      <trkpt lat="45.06339" lon="5.35439">
        <ele>295.546</ele>
        <time>2019-04-21T09:32:56Z</time>
      </trkpt>
      <trkpt lat="45.06339" lon="5.35439">
        <ele>297.301</ele>
        <time>2019-04-21T09:32:58Z</time>
      </trkpt>
      <trkpt lat="45.06339" lon="5.35437">
        <ele>298.812</ele>
        <time>2019-04-21T09:33:02Z</time>
      </trkpt>
      <trkpt lat="45.06339" lon="5.35437">
        <ele>298.812</ele>
        <time>2019-04-21T09:33:02Z</time>
      </trkpt>
      <trkpt lat="45.06339" lon="5.35438">
        <ele>299.163</ele>
        <time>2019-04-21T09:33:03Z</time>
      </trkpt>
      <trkpt lat="45.06338" lon="5.3544">
        <ele>299.31</ele>
        <time>2019-04-21T09:33:05Z</time>
      </trkpt>
      <trkpt lat="45.06338" lon="5.35441">
        <ele>299.811</ele>
        <time>2019-04-21T09:33:06Z</time>
      </trkpt>
      <trkpt lat="45.06336" lon="5.3544">
        <ele>299.458</ele>
        <time>2019-04-21T09:33:08Z</time>
      </trkpt>
      <trkpt lat="45.06335" lon="5.35441">
        <ele>301.219</ele>
        <time>2019-04-21T09:33:11Z</time>
      </trkpt>
      <trkpt lat="45.06332" lon="5.35444">
        <ele>300.549</ele>
        <time>2019-04-21T09:33:15Z</time>
      </trkpt>
      <trkpt lat="45.0633" lon="5.35447">
        <ele>301.922</ele>
        <time>2019-04-21T09:33:18Z</time>
      </trkpt>
      <trkpt lat="45.06329" lon="5.35451">
        <ele>302.236</ele>
        <time>2019-04-21T09:33:20Z</time>
      </trkpt>
      <trkpt lat="45.0633" lon="5.35453">
        <ele>301.549</ele>
        <time>2019-04-21T09:33:21Z</time>
      </trkpt>
      <trkpt lat="45.06331" lon="5.35458">
        <ele>301.878</ele>
        <time>2019-04-21T09:33:24Z</time>
      </trkpt>
      <trkpt lat="45.0633" lon="5.3546">
        <ele>301.034</ele>
        <time>2019-04-21T09:33:26Z</time>
      </trkpt>
      <trkpt lat="45.06328" lon="5.35461">
        <ele>300.556</ele>
        <time>2019-04-21T09:33:31Z</time>
      </trkpt>
      <trkpt lat="45.06328" lon="5.35461">
        <ele>300.49</ele>
        <time>2019-04-21T09:33:32Z</time>
      </trkpt>
      <trkpt lat="45.06329" lon="5.35467">
        <ele>300.267</ele>
        <time>2019-04-21T09:33:35Z</time>
      </trkpt>
      <trkpt lat="45.06329" lon="5.3547">
        <ele>300.294</ele>
        <time>2019-04-21T09:33:36Z</time>
      </trkpt>
      <trkpt lat="45.0633" lon="5.35476">
        <ele>300.492</ele>
        <time>2019-04-21T09:33:39Z</time>
      </trkpt>
      <trkpt lat="45.06329" lon="5.35481">
        <ele>300.478</ele>
        <time>2019-04-21T09:33:43Z</time>
      </trkpt>
      <trkpt lat="45.0633" lon="5.35485">
        <ele>300.839</ele>
        <time>2019-04-21T09:33:47Z</time>
      </trkpt>
      <trkpt lat="45.06332" lon="5.35485">
        <ele>302.823</ele>
        <time>2019-04-21T09:33:49Z</time>
      </trkpt>
      <trkpt lat="45.06333" lon="5.35482">
        <ele>303.254</ele>
        <time>2019-04-21T09:33:51Z</time>
      </trkpt>
      <trkpt lat="45.06332" lon="5.35479">
        <ele>303.76</ele>
        <time>2019-04-21T09:33:55Z</time>
      </trkpt>
      <trkpt lat="45.06332" lon="5.35479">
        <ele>304.141</ele>
        <time>2019-04-21T09:33:57Z</time>
      </trkpt>
      <trkpt lat="45.06332" lon="5.35479">
        <ele>304.141</ele>
        <time>2019-04-21T09:33:57Z</time>
      </trkpt>
      <trkpt lat="45.06332" lon="5.35478">
        <ele>304.154</ele>
        <time>2019-04-21T09:33:58Z</time>
      </trkpt>
      <trkpt lat="45.06332" lon="5.35478">
        <ele>304.052</ele>
        <time>2019-04-21T09:33:59Z</time>
      </trkpt>
      <trkpt lat="45.06332" lon="5.35478">
        <ele>304.052</ele>
        <time>2019-04-21T09:33:59Z</time>
      </trkpt>
      <trkpt lat="45.06332" lon="5.35478">
        <ele>304.246</ele>
        <time>2019-04-21T09:34:00Z</time>
      </trkpt>
      <trkpt lat="45.06333" lon="5.35478">
        <ele>304.064</ele>
        <time>2019-04-21T09:34:02Z</time>
      </trkpt>
      <trkpt lat="45.06333" lon="5.35478">
        <ele>304.064</ele>
        <time>2019-04-21T09:34:02Z</time>
      </trkpt>
      <trkpt lat="45.06333" lon="5.35478">
        <ele>304.341</ele>
        <time>2019-04-21T09:34:03Z</time>
      </trkpt>
      <trkpt lat="45.06333" lon="5.35476">
        <ele>303.323</ele>
        <time>2019-04-21T09:34:07Z</time>
      </trkpt>
      <trkpt lat="45.06333" lon="5.35476">
        <ele>303.323</ele>
        <time>2019-04-21T09:34:07Z</time>
      </trkpt>
      <trkpt lat="45.06332" lon="5.35475">
        <ele>301.731</ele>
        <time>2019-04-21T09:34:08Z</time>
      </trkpt>
      <trkpt lat="45.06331" lon="5.35476">
        <ele>300.716</ele>
        <time>2019-04-21T09:34:11Z</time>
      </trkpt>
      <trkpt lat="45.0633" lon="5.3548">
        <ele>300.545</ele>
        <time>2019-04-21T09:34:15Z</time>
      </trkpt>
      <trkpt lat="45.06328" lon="5.35496">
        <ele>298.003</ele>
        <time>2019-04-21T09:34:24Z</time>
      </trkpt>
      <trkpt lat="45.06326" lon="5.355">
        <ele>298.208</ele>
        <time>2019-04-21T09:34:26Z</time>
      </trkpt>
      <trkpt lat="45.06326" lon="5.35499">
        <ele>299.452</ele>
        <time>2019-04-21T09:34:28Z</time>
      </trkpt>
      <trkpt lat="45.06324" lon="5.35501">
        <ele>300.37</ele>
        <time>2019-04-21T09:34:31Z</time>
      </trkpt>
      <trkpt lat="45.06323" lon="5.35503">
        <ele>299.903</ele>
        <time>2019-04-21T09:34:33Z</time>
      </trkpt>
      <trkpt lat="45.06323" lon="5.35504">
        <ele>299.599</ele>
        <time>2019-04-21T09:34:34Z</time>
      </trkpt>
      <trkpt lat="45.06323" lon="5.35509">
        <ele>301.75</ele>
        <time>2019-04-21T09:34:38Z</time>
      </trkpt>
      <trkpt lat="45.06322" lon="5.35512">
        <ele>302.308</ele>
        <time>2019-04-21T09:34:41Z</time>
      </trkpt>
      <trkpt lat="45.06322" lon="5.35513">
        <ele>303.594</ele>
        <time>2019-04-21T09:34:43Z</time>
      </trkpt>
      <trkpt lat="45.06322" lon="5.35514">
        <ele>303.101</ele>
        <time>2019-04-21T09:34:45Z</time>
      </trkpt>
      <trkpt lat="45.06322" lon="5.35516">
        <ele>302.28</ele>
        <time>2019-04-21T09:34:46Z</time>
      </trkpt>
      <trkpt lat="45.0632" lon="5.3552">
        <ele>303.118</ele>
        <time>2019-04-21T09:34:48Z</time>
      </trkpt>
      <trkpt lat="45.06314" lon="5.35525">
        <ele>304.416</ele>
        <time>2019-04-21T09:34:53Z</time>
      </trkpt>
      <trkpt lat="45.06311" lon="5.35524">
        <ele>303.837</ele>
        <time>2019-04-21T09:34:56Z</time>
      </trkpt>
      <trkpt lat="45.06309" lon="5.35523">
        <ele>304.297</ele>
        <time>2019-04-21T09:35:01Z</time>
      </trkpt>
      <trkpt lat="45.06309" lon="5.35524">
        <ele>304.527</ele>
        <time>2019-04-21T09:35:03Z</time>
      </trkpt>
      <trkpt lat="45.06308" lon="5.35524">
        <ele>304.363</ele>
        <time>2019-04-21T09:35:04Z</time>
      </trkpt>
      <trkpt lat="45.06308" lon="5.35524">
        <ele>304.363</ele>
        <time>2019-04-21T09:35:04Z</time>
      </trkpt>
      <trkpt lat="45.06308" lon="5.35524">
        <ele>304.938</ele>
        <time>2019-04-21T09:35:05Z</time>
      </trkpt>
      <trkpt lat="45.06307" lon="5.35525">
        <ele>305.17</ele>
        <time>2019-04-21T09:35:06Z</time>
      </trkpt>
      <trkpt lat="45.06311" lon="5.35527">
        <ele>307.006</ele>
        <time>2019-04-21T09:35:10Z</time>
      </trkpt>
      <trkpt lat="45.06311" lon="5.35529">
        <ele>308.009</ele>
        <time>2019-04-21T09:35:13Z</time>
      </trkpt>
      <trkpt lat="45.06311" lon="5.35529">
        <ele>307.856</ele>
        <time>2019-04-21T09:35:14Z</time>
      </trkpt>
      <trkpt lat="45.0631" lon="5.3553">
        <ele>307.945</ele>
        <time>2019-04-21T09:35:15Z</time>
      </trkpt>
      <trkpt lat="45.0631" lon="5.3553">
        <ele>308.081</ele>
        <time>2019-04-21T09:35:16Z</time>
      </trkpt>
      <trkpt lat="45.0631" lon="5.3553">
        <ele>308.081</ele>
        <time>2019-04-21T09:35:16Z</time>
      </trkpt>
      <trkpt lat="45.0631" lon="5.35531">
        <ele>308.551</ele>
        <time>2019-04-21T09:35:17Z</time>
      </trkpt>
      <trkpt lat="45.0631" lon="5.35531">
        <ele>309.405</ele>
        <time>2019-04-21T09:35:19Z</time>
      </trkpt>
      <trkpt lat="45.0631" lon="5.35531">
        <ele>309.405</ele>
        <time>2019-04-21T09:35:19Z</time>
      </trkpt>
      <trkpt lat="45.0631" lon="5.3553">
        <ele>308.884</ele>
        <time>2019-04-21T09:35:20Z</time>
      </trkpt>
      <trkpt lat="45.0631" lon="5.3553">
        <ele>308.884</ele>
        <time>2019-04-21T09:35:20Z</time>
      </trkpt>
      <trkpt lat="45.06311" lon="5.35531">
        <ele>308.199</ele>
        <time>2019-04-21T09:35:21Z</time>
      </trkpt>
      <trkpt lat="45.0631" lon="5.35538">
        <ele>308.344</ele>
        <time>2019-04-21T09:35:25Z</time>
      </trkpt>
      <trkpt lat="45.06306" lon="5.35543">
        <ele>308.812</ele>
        <time>2019-04-21T09:35:28Z</time>
      </trkpt>
      <trkpt lat="45.06303" lon="5.3555">
        <ele>310.487</ele>
        <time>2019-04-21T09:35:33Z</time>
      </trkpt>
      <trkpt lat="45.06303" lon="5.35551">
        <ele>310.332</ele>
        <time>2019-04-21T09:35:34Z</time>
      </trkpt>
      <trkpt lat="45.06303" lon="5.35551">
        <ele>311.076</ele>
        <time>2019-04-21T09:35:37Z</time>
      </trkpt>
      <trkpt lat="45.06302" lon="5.35551">
        <ele>311.217</ele>
        <time>2019-04-21T09:35:39Z</time>
      </trkpt>
      <trkpt lat="45.06302" lon="5.35552">
        <ele>311.495</ele>
        <time>2019-04-21T09:35:41Z</time>
      </trkpt>
      <trkpt lat="45.06301" lon="5.35557">
        <ele>311.312</ele>
        <time>2019-04-21T09:35:46Z</time>
      </trkpt>
      <trkpt lat="45.06303" lon="5.35567">
        <ele>311.747</ele>
        <time>2019-04-21T09:35:50Z</time>
      </trkpt>
      <trkpt lat="45.06303" lon="5.35568">
        <ele>312.839</ele>
        <time>2019-04-21T09:35:53Z</time>
      </trkpt>
      <trkpt lat="45.06301" lon="5.35568">
        <ele>313.675</ele>
        <time>2019-04-21T09:35:59Z</time>
      </trkpt>
      <trkpt lat="45.06301" lon="5.3557">
        <ele>313.839</ele>
        <time>2019-04-21T09:36:01Z</time>
      </trkpt>
      <trkpt lat="45.06301" lon="5.35579">
        <ele>314.502</ele>
        <time>2019-04-21T09:36:06Z</time>
      </trkpt>
      <trkpt lat="45.06302" lon="5.35581">
        <ele>314.959</ele>
        <time>2019-04-21T09:36:08Z</time>
      </trkpt>
      <trkpt lat="45.06302" lon="5.35581">
        <ele>314.959</ele>
        <time>2019-04-21T09:36:08Z</time>
      </trkpt>
      <trkpt lat="45.06302" lon="5.35582">
        <ele>315.287</ele>
        <time>2019-04-21T09:36:09Z</time>
      </trkpt>
      <trkpt lat="45.06299" lon="5.35586">
        <ele>316.275</ele>
        <time>2019-04-21T09:36:15Z</time>
      </trkpt>
      <trkpt lat="45.06297" lon="5.35586">
        <ele>316.962</ele>
        <time>2019-04-21T09:36:18Z</time>
      </trkpt>
      <trkpt lat="45.06296" lon="5.35586">
        <ele>317.199</ele>
        <time>2019-04-21T09:36:19Z</time>
      </trkpt>
      <trkpt lat="45.06296" lon="5.35585">
        <ele>316.651</ele>
        <time>2019-04-21T09:36:20Z</time>
      </trkpt>
      <trkpt lat="45.06295" lon="5.35585">
        <ele>317.397</ele>
        <time>2019-04-21T09:36:22Z</time>
      </trkpt>
      <trkpt lat="45.06293" lon="5.35587">
        <ele>317.666</ele>
        <time>2019-04-21T09:36:29Z</time>
      </trkpt>
      <trkpt lat="45.06291" lon="5.35589">
        <ele>317.571</ele>
        <time>2019-04-21T09:36:31Z</time>
      </trkpt>
      <trkpt lat="45.06291" lon="5.35594">
        <ele>318.372</ele>
        <time>2019-04-21T09:36:34Z</time>
      </trkpt>
      <trkpt lat="45.06292" lon="5.35597">
        <ele>318.09</ele>
        <time>2019-04-21T09:36:36Z</time>
      </trkpt>
      <trkpt lat="45.06292" lon="5.35598">
        <ele>317.5</ele>
        <time>2019-04-21T09:36:37Z</time>
      </trkpt>
      <trkpt lat="45.06291" lon="5.35598">
        <ele>317.458</ele>
        <time>2019-04-21T09:36:41Z</time>
      </trkpt>
      <trkpt lat="45.06291" lon="5.35601">
        <ele>317.982</ele>
        <time>2019-04-21T09:36:42Z</time>
      </trkpt>
      <trkpt lat="45.06292" lon="5.35605">
        <ele>317.776</ele>
        <time>2019-04-21T09:36:43Z</time>
      </trkpt>
      <trkpt lat="45.06293" lon="5.35612">
        <ele>318.119</ele>
        <time>2019-04-21T09:36:45Z</time>
      </trkpt>
      <trkpt lat="45.06293" lon="5.35616">
        <ele>318.254</ele>
        <time>2019-04-21T09:36:47Z</time>
      </trkpt>
      <trkpt lat="45.06292" lon="5.3562">
        <ele>318.844</ele>
        <time>2019-04-21T09:36:50Z</time>
      </trkpt>
      <trkpt lat="45.06286" lon="5.35626">
        <ele>319.157</ele>
        <time>2019-04-21T09:36:58Z</time>
      </trkpt>
      <trkpt lat="45.06284" lon="5.35627">
        <ele>318.912</ele>
        <time>2019-04-21T09:37:01Z</time>
      </trkpt>
      <trkpt lat="45.06284" lon="5.35628">
        <ele>318.725</ele>
        <time>2019-04-21T09:37:02Z</time>
      </trkpt>
      <trkpt lat="45.06284" lon="5.3563">
        <ele>320.302</ele>
        <time>2019-04-21T09:37:05Z</time>
      </trkpt>
      <trkpt lat="45.06283" lon="5.3563">
        <ele>321.667</ele>
        <time>2019-04-21T09:37:07Z</time>
      </trkpt>
      <trkpt lat="45.06282" lon="5.35631">
        <ele>322.135</ele>
        <time>2019-04-21T09:37:09Z</time>
      </trkpt>
      <trkpt lat="45.06279" lon="5.35634">
        <ele>323.372</ele>
        <time>2019-04-21T09:37:13Z</time>
      </trkpt>
      <trkpt lat="45.06278" lon="5.35643">
        <ele>323.693</ele>
        <time>2019-04-21T09:37:20Z</time>
      </trkpt>
      <trkpt lat="45.06277" lon="5.3565">
        <ele>323.339</ele>
        <time>2019-04-21T09:37:25Z</time>
      </trkpt>
      <trkpt lat="45.06277" lon="5.35655">
        <ele>324.225</ele>
        <time>2019-04-21T09:37:28Z</time>
      </trkpt>
      <trkpt lat="45.06276" lon="5.3566">
        <ele>324.993</ele>
        <time>2019-04-21T09:37:33Z</time>
      </trkpt>
      <trkpt lat="45.06275" lon="5.35663">
        <ele>326.451</ele>
        <time>2019-04-21T09:37:36Z</time>
      </trkpt>
      <trkpt lat="45.06273" lon="5.35666">
        <ele>329.391</ele>
        <time>2019-04-21T09:37:41Z</time>
      </trkpt>
      <trkpt lat="45.06273" lon="5.35667">
        <ele>329.249</ele>
        <time>2019-04-21T09:37:42Z</time>
      </trkpt>
      <trkpt lat="45.0627" lon="5.35676">
        <ele>328.971</ele>
        <time>2019-04-21T09:37:51Z</time>
      </trkpt>
      <trkpt lat="45.06269" lon="5.35677">
        <ele>329.297</ele>
        <time>2019-04-21T09:37:54Z</time>
      </trkpt>
      <trkpt lat="45.06267" lon="5.35683">
        <ele>330.544</ele>
        <time>2019-04-21T09:38:01Z</time>
      </trkpt>
      <trkpt lat="45.06266" lon="5.35687">
        <ele>330.938</ele>
        <time>2019-04-21T09:38:05Z</time>
      </trkpt>
      <trkpt lat="45.06266" lon="5.35687">
        <ele>330.938</ele>
        <time>2019-04-21T09:38:05Z</time>
      </trkpt>
      <trkpt lat="45.06266" lon="5.35687">
        <ele>331.539</ele>
        <time>2019-04-21T09:38:06Z</time>
      </trkpt>
      <trkpt lat="45.06265" lon="5.35687">
        <ele>331.292</ele>
        <time>2019-04-21T09:38:07Z</time>
      </trkpt>
      <trkpt lat="45.06265" lon="5.35688">
        <ele>332.186</ele>
        <time>2019-04-21T09:38:08Z</time>
      </trkpt>
      <trkpt lat="45.06265" lon="5.3569">
        <ele>332.116</ele>
        <time>2019-04-21T09:38:10Z</time>
      </trkpt>
      <trkpt lat="45.06267" lon="5.35695">
        <ele>333.307</ele>
        <time>2019-04-21T09:38:17Z</time>
      </trkpt>
      <trkpt lat="45.06267" lon="5.35695">
        <ele>332.584</ele>
        <time>2019-04-21T09:38:18Z</time>
      </trkpt>
      <trkpt lat="45.06267" lon="5.35695">
        <ele>332.584</ele>
        <time>2019-04-21T09:38:18Z</time>
      </trkpt>
      <trkpt lat="45.06267" lon="5.35696">
        <ele>332.362</ele>
        <time>2019-04-21T09:38:19Z</time>
      </trkpt>
      <trkpt lat="45.06267" lon="5.35696">
        <ele>332.261</ele>
        <time>2019-04-21T09:38:21Z</time>
      </trkpt>
      <trkpt lat="45.06266" lon="5.357">
        <ele>332.478</ele>
        <time>2019-04-21T09:38:24Z</time>
      </trkpt>
      <trkpt lat="45.06259" lon="5.35712">
        <ele>332.911</ele>
        <time>2019-04-21T09:38:31Z</time>
      </trkpt>
      <trkpt lat="45.06256" lon="5.35713">
        <ele>332.938</ele>
        <time>2019-04-21T09:38:34Z</time>
      </trkpt>
      <trkpt lat="45.06255" lon="5.35712">
        <ele>333.011</ele>
        <time>2019-04-21T09:38:35Z</time>
      </trkpt>
      <trkpt lat="45.06252" lon="5.35712">
        <ele>333.016</ele>
        <time>2019-04-21T09:38:40Z</time>
      </trkpt>
      <trkpt lat="45.06251" lon="5.35708">
        <ele>331.773</ele>
        <time>2019-04-21T09:38:43Z</time>
      </trkpt>
      <trkpt lat="45.0625" lon="5.35708">
        <ele>331.521</ele>
        <time>2019-04-21T09:38:44Z</time>
      </trkpt>
      <trkpt lat="45.0625" lon="5.35708">
        <ele>331.368</ele>
        <time>2019-04-21T09:38:45Z</time>
      </trkpt>
      <trkpt lat="45.0625" lon="5.35709">
        <ele>330.884</ele>
        <time>2019-04-21T09:38:46Z</time>
      </trkpt>
      <trkpt lat="45.06249" lon="5.35714">
        <ele>330.372</ele>
        <time>2019-04-21T09:38:48Z</time>
      </trkpt>
      <trkpt lat="45.06248" lon="5.35719">
        <ele>330.017</ele>
        <time>2019-04-21T09:38:50Z</time>
      </trkpt>
      <trkpt lat="45.06249" lon="5.35722">
        <ele>330.351</ele>
        <time>2019-04-21T09:38:53Z</time>
      </trkpt>
      <trkpt lat="45.0625" lon="5.35723">
        <ele>330.581</ele>
        <time>2019-04-21T09:38:55Z</time>
      </trkpt>
      <trkpt lat="45.06252" lon="5.35724">
        <ele>331.475</ele>
        <time>2019-04-21T09:38:57Z</time>
      </trkpt>
      <trkpt lat="45.06254" lon="5.35724">
        <ele>331.74</ele>
        <time>2019-04-21T09:38:59Z</time>
      </trkpt>
      <trkpt lat="45.06255" lon="5.35724">
        <ele>331.761</ele>
        <time>2019-04-21T09:39:00Z</time>
      </trkpt>
      <trkpt lat="45.06254" lon="5.35726">
        <ele>332.339</ele>
        <time>2019-04-21T09:39:05Z</time>
      </trkpt>
      <trkpt lat="45.06253" lon="5.35728">
        <ele>333.249</ele>
        <time>2019-04-21T09:39:08Z</time>
      </trkpt>
      <trkpt lat="45.06253" lon="5.35728">
        <ele>333.249</ele>
        <time>2019-04-21T09:39:08Z</time>
      </trkpt>
      <trkpt lat="45.06254" lon="5.35727">
        <ele>333.876</ele>
        <time>2019-04-21T09:39:09Z</time>
      </trkpt>
      <trkpt lat="45.06254" lon="5.35727">
        <ele>334.02</ele>
        <time>2019-04-21T09:39:10Z</time>
      </trkpt>
      <trkpt lat="45.06254" lon="5.35727">
        <ele>334.006</ele>
        <time>2019-04-21T09:39:43Z</time>
      </trkpt>
      <trkpt lat="45.06254" lon="5.35729">
        <ele>333.504</ele>
        <time>2019-04-21T09:39:44Z</time>
      </trkpt>
      <trkpt lat="45.06254" lon="5.35731">
        <ele>332.995</ele>
        <time>2019-04-21T09:39:45Z</time>
      </trkpt>
      <trkpt lat="45.06254" lon="5.35732">
        <ele>333.831</ele>
        <time>2019-04-21T09:39:46Z</time>
      </trkpt>
      <trkpt lat="45.06252" lon="5.35735">
        <ele>333.794</ele>
        <time>2019-04-21T09:39:50Z</time>
      </trkpt>
      <trkpt lat="45.0625" lon="5.35736">
        <ele>334.081</ele>
        <time>2019-04-21T09:39:51Z</time>
      </trkpt>
      <trkpt lat="45.06247" lon="5.35738">
        <ele>335.489</ele>
        <time>2019-04-21T09:39:54Z</time>
      </trkpt>
      <trkpt lat="45.06247" lon="5.35738">
        <ele>335.91</ele>
        <time>2019-04-21T09:39:55Z</time>
      </trkpt>
      <trkpt lat="45.06247" lon="5.35738">
        <ele>335.91</ele>
        <time>2019-04-21T09:39:55Z</time>
      </trkpt>
      <trkpt lat="45.06246" lon="5.35739">
        <ele>335.358</ele>
        <time>2019-04-21T09:39:56Z</time>
      </trkpt>
      <trkpt lat="45.06246" lon="5.3574">
        <ele>336.502</ele>
        <time>2019-04-21T09:39:58Z</time>
      </trkpt>
      <trkpt lat="45.06246" lon="5.3574">
        <ele>336.502</ele>
        <time>2019-04-21T09:39:58Z</time>
      </trkpt>
      <trkpt lat="45.06246" lon="5.3574">
        <ele>336.331</ele>
        <time>2019-04-21T09:39:59Z</time>
      </trkpt>
      <trkpt lat="45.06246" lon="5.3574">
        <ele>337.324</ele>
        <time>2019-04-21T09:40:00Z</time>
      </trkpt>
      <trkpt lat="45.06246" lon="5.3574">
        <ele>337.324</ele>
        <time>2019-04-21T09:40:00Z</time>
      </trkpt>
      <trkpt lat="45.06246" lon="5.35739">
        <ele>338.424</ele>
        <time>2019-04-21T09:40:01Z</time>
      </trkpt>
      <trkpt lat="45.06246" lon="5.35739">
        <ele>338.373</ele>
        <time>2019-04-21T09:40:02Z</time>
      </trkpt>
      <trkpt lat="45.06246" lon="5.35739">
        <ele>338.373</ele>
        <time>2019-04-21T09:40:02Z</time>
      </trkpt>
      <trkpt lat="45.06247" lon="5.35739">
        <ele>339.616</ele>
        <time>2019-04-21T09:40:03Z</time>
      </trkpt>
      <trkpt lat="45.06247" lon="5.35739">
        <ele>339.616</ele>
        <time>2019-04-21T09:40:03Z</time>
      </trkpt>
      <trkpt lat="45.06247" lon="5.35739">
        <ele>340.207</ele>
        <time>2019-04-21T09:40:04Z</time>
      </trkpt>
      <trkpt lat="45.06247" lon="5.35739">
        <ele>340.444</ele>
        <time>2019-04-21T09:41:04Z</time>
      </trkpt>
      <trkpt lat="45.06248" lon="5.35741">
        <ele>341.003</ele>
        <time>2019-04-21T09:41:05Z</time>
      </trkpt>
      <trkpt lat="45.06248" lon="5.35742">
        <ele>340.251</ele>
        <time>2019-04-21T09:41:08Z</time>
      </trkpt>
      <trkpt lat="45.06248" lon="5.35742">
        <ele>340.251</ele>
        <time>2019-04-21T09:41:08Z</time>
      </trkpt>
      <trkpt lat="45.06248" lon="5.35743">
        <ele>341.343</ele>
        <time>2019-04-21T09:41:09Z</time>
      </trkpt>
      <trkpt lat="45.06247" lon="5.35744">
        <ele>341.754</ele>
        <time>2019-04-21T09:41:10Z</time>
      </trkpt>
      <trkpt lat="45.06244" lon="5.35748">
        <ele>339.368</ele>
        <time>2019-04-21T09:41:13Z</time>
      </trkpt>
      <trkpt lat="45.06242" lon="5.35755">
        <ele>339.299</ele>
        <time>2019-04-21T09:41:18Z</time>
      </trkpt>
      <trkpt lat="45.06241" lon="5.35762">
        <ele>340.879</ele>
        <time>2019-04-21T09:41:22Z</time>
      </trkpt>
      <trkpt lat="45.06241" lon="5.35768">
        <ele>339.62</ele>
        <time>2019-04-21T09:41:27Z</time>
      </trkpt>
      <trkpt lat="45.06241" lon="5.35768">
        <ele>339.299</ele>
        <time>2019-04-21T09:41:28Z</time>
      </trkpt>
      <trkpt lat="45.06241" lon="5.35768">
        <ele>339.534</ele>
        <time>2019-04-21T09:41:29Z</time>
      </trkpt>
      <trkpt lat="45.0624" lon="5.35769">
        <ele>340.655</ele>
        <time>2019-04-21T09:41:30Z</time>
      </trkpt>
      <trkpt lat="45.0624" lon="5.3577">
        <ele>341.071</ele>
        <time>2019-04-21T09:41:31Z</time>
      </trkpt>
      <trkpt lat="45.06237" lon="5.35775">
        <ele>341.108</ele>
        <time>2019-04-21T09:41:34Z</time>
      </trkpt>
      <trkpt lat="45.06236" lon="5.35777">
        <ele>340.751</ele>
        <time>2019-04-21T09:41:35Z</time>
      </trkpt>
      <trkpt lat="45.06237" lon="5.35781">
        <ele>344.413</ele>
        <time>2019-04-21T09:41:38Z</time>
      </trkpt>
      <trkpt lat="45.06237" lon="5.35786">
        <ele>344.841</ele>
        <time>2019-04-21T09:41:41Z</time>
      </trkpt>
      <trkpt lat="45.06236" lon="5.35789">
        <ele>345.571</ele>
        <time>2019-04-21T09:41:44Z</time>
      </trkpt>
      <trkpt lat="45.06236" lon="5.3579">
        <ele>347.474</ele>
        <time>2019-04-21T09:41:46Z</time>
      </trkpt>
      <trkpt lat="45.06236" lon="5.35792">
        <ele>347.461</ele>
        <time>2019-04-21T09:41:48Z</time>
      </trkpt>
      <trkpt lat="45.06234" lon="5.35796">
        <ele>348.218</ele>
        <time>2019-04-21T09:41:51Z</time>
      </trkpt>
      <trkpt lat="45.06231" lon="5.35803">
        <ele>347.875</ele>
        <time>2019-04-21T09:41:56Z</time>
      </trkpt>
      <trkpt lat="45.06231" lon="5.35803">
        <ele>347.667</ele>
        <time>2019-04-21T09:41:57Z</time>
      </trkpt>
      <trkpt lat="45.06231" lon="5.35803">
        <ele>347.876</ele>
        <time>2019-04-21T09:41:58Z</time>
      </trkpt>
      <trkpt lat="45.06231" lon="5.35803">
        <ele>348.351</ele>
        <time>2019-04-21T09:41:59Z</time>
      </trkpt>
      <trkpt lat="45.0623" lon="5.35804">
        <ele>348.122</ele>
        <time>2019-04-21T09:42:00Z</time>
      </trkpt>
      <trkpt lat="45.0623" lon="5.35805">
        <ele>348.973</ele>
        <time>2019-04-21T09:42:02Z</time>
      </trkpt>
      <trkpt lat="45.06231" lon="5.35805">
        <ele>349.503</ele>
        <time>2019-04-21T09:42:04Z</time>
      </trkpt>
      <trkpt lat="45.06232" lon="5.35805">
        <ele>349.337</ele>
        <time>2019-04-21T09:42:06Z</time>
      </trkpt>
      <trkpt lat="45.06232" lon="5.35805">
        <ele>349.337</ele>
        <time>2019-04-21T09:42:06Z</time>
      </trkpt>
      <trkpt lat="45.06232" lon="5.35803">
        <ele>350.382</ele>
        <time>2019-04-21T09:42:07Z</time>
      </trkpt>
      <trkpt lat="45.06232" lon="5.35802">
        <ele>348.298</ele>
        <time>2019-04-21T09:42:10Z</time>
      </trkpt>
      <trkpt lat="45.06232" lon="5.35802">
        <ele>348.298</ele>
        <time>2019-04-21T09:42:10Z</time>
      </trkpt>
      <trkpt lat="45.06232" lon="5.35801">
        <ele>347.551</ele>
        <time>2019-04-21T09:42:11Z</time>
      </trkpt>
      <trkpt lat="45.06233" lon="5.35799">
        <ele>347.226</ele>
        <time>2019-04-21T09:42:14Z</time>
      </trkpt>
      <trkpt lat="45.06232" lon="5.35798">
        <ele>348.391</ele>
        <time>2019-04-21T09:42:16Z</time>
      </trkpt>
      <trkpt lat="45.06232" lon="5.35798">
        <ele>348.391</ele>
        <time>2019-04-21T09:42:16Z</time>
      </trkpt>
      <trkpt lat="45.06232" lon="5.35798">
        <ele>348.78</ele>
        <time>2019-04-21T09:42:17Z</time>
      </trkpt>
      <trkpt lat="45.0623" lon="5.35799">
        <ele>349.273</ele>
        <time>2019-04-21T09:42:19Z</time>
      </trkpt>
      <trkpt lat="45.06226" lon="5.358">
        <ele>353.302</ele>
        <time>2019-04-21T09:42:22Z</time>
      </trkpt>
      <trkpt lat="45.06222" lon="5.35801">
        <ele>355.944</ele>
        <time>2019-04-21T09:42:25Z</time>
      </trkpt>
      <trkpt lat="45.06219" lon="5.35802">
        <ele>355.681</ele>
        <time>2019-04-21T09:42:26Z</time>
      </trkpt>
      <trkpt lat="45.06219" lon="5.35803">
        <ele>356.698</ele>
        <time>2019-04-21T09:42:27Z</time>
      </trkpt>
      <trkpt lat="45.06219" lon="5.35803">
        <ele>356.802</ele>
        <time>2019-04-21T09:42:28Z</time>
      </trkpt>
      <trkpt lat="45.06219" lon="5.35803">
        <ele>356.411</ele>
        <time>2019-04-21T09:42:29Z</time>
      </trkpt>
      <trkpt lat="45.06219" lon="5.35803">
        <ele>356.411</ele>
        <time>2019-04-21T09:42:29Z</time>
      </trkpt>
      <trkpt lat="45.0622" lon="5.35804">
        <ele>355.625</ele>
        <time>2019-04-21T09:42:30Z</time>
      </trkpt>
      <trkpt lat="45.06222" lon="5.35805">
        <ele>357.365</ele>
        <time>2019-04-21T09:42:33Z</time>
      </trkpt>
      <trkpt lat="45.06222" lon="5.35805">
        <ele>356.878</ele>
        <time>2019-04-21T09:42:35Z</time>
      </trkpt>
      <trkpt lat="45.06224" lon="5.35805">
        <ele>357.789</ele>
        <time>2019-04-21T09:42:36Z</time>
      </trkpt>
      <trkpt lat="45.06226" lon="5.35805">
        <ele>357.662</ele>
        <time>2019-04-21T09:42:38Z</time>
      </trkpt>
      <trkpt lat="45.06231" lon="5.35805">
        <ele>360.455</ele>
        <time>2019-04-21T09:42:41Z</time>
      </trkpt>
      <trkpt lat="45.06233" lon="5.35808">
        <ele>359.826</ele>
        <time>2019-04-21T09:42:47Z</time>
      </trkpt>
      <trkpt lat="45.06234" lon="5.35812">
        <ele>359.591</ele>
        <time>2019-04-21T09:42:50Z</time>
      </trkpt>
      <trkpt lat="45.06234" lon="5.35813">
        <ele>358.439</ele>
        <time>2019-04-21T09:42:51Z</time>
      </trkpt>
      <trkpt lat="45.06234" lon="5.35814">
        <ele>359.459</ele>
        <time>2019-04-21T09:42:52Z</time>
      </trkpt>
      <trkpt lat="45.06234" lon="5.35815">
        <ele>360.283</ele>
        <time>2019-04-21T09:42:55Z</time>
      </trkpt>
      <trkpt lat="45.06234" lon="5.35816">
        <ele>360.825</ele>
        <time>2019-04-21T09:42:57Z</time>
      </trkpt>
      <trkpt lat="45.06234" lon="5.35816">
        <ele>360.825</ele>
        <time>2019-04-21T09:42:57Z</time>
      </trkpt>
      <trkpt lat="45.06233" lon="5.35817">
        <ele>360.599</ele>
        <time>2019-04-21T09:42:58Z</time>
      </trkpt>
      <trkpt lat="45.06232" lon="5.35818">
        <ele>360.371</ele>
        <time>2019-04-21T09:43:00Z</time>
      </trkpt>
      <trkpt lat="45.06232" lon="5.35818">
        <ele>360.371</ele>
        <time>2019-04-21T09:43:00Z</time>
      </trkpt>
      <trkpt lat="45.0623" lon="5.35819">
        <ele>359.146</ele>
        <time>2019-04-21T09:43:01Z</time>
      </trkpt>
      <trkpt lat="45.0623" lon="5.3582">
        <ele>357.591</ele>
        <time>2019-04-21T09:43:05Z</time>
      </trkpt>
      <trkpt lat="45.06228" lon="5.35824">
        <ele>359.516</ele>
        <time>2019-04-21T09:43:08Z</time>
      </trkpt>
      <trkpt lat="45.06226" lon="5.35827">
        <ele>359.397</ele>
        <time>2019-04-21T09:43:10Z</time>
      </trkpt>
      <trkpt lat="45.06223" lon="5.35832">
        <ele>361.267</ele>
        <time>2019-04-21T09:43:14Z</time>
      </trkpt>
      <trkpt lat="45.0622" lon="5.35837">
        <ele>358.839</ele>
        <time>2019-04-21T09:43:19Z</time>
      </trkpt>
      <trkpt lat="45.06218" lon="5.35841">
        <ele>361.461</ele>
        <time>2019-04-21T09:43:23Z</time>
      </trkpt>
      <trkpt lat="45.06218" lon="5.35847">
        <ele>361.163</ele>
        <time>2019-04-21T09:43:28Z</time>
      </trkpt>
      <trkpt lat="45.06218" lon="5.35847">
        <ele>360.748</ele>
        <time>2019-04-21T09:43:29Z</time>
      </trkpt>
      <trkpt lat="45.06219" lon="5.35848">
        <ele>361.728</ele>
        <time>2019-04-21T09:43:32Z</time>
      </trkpt>
      <trkpt lat="45.06219" lon="5.35855">
        <ele>359.502</ele>
        <time>2019-04-21T09:43:38Z</time>
      </trkpt>
      <trkpt lat="45.06218" lon="5.3586">
        <ele>359.875</ele>
        <time>2019-04-21T09:43:42Z</time>
      </trkpt>
      <trkpt lat="45.06216" lon="5.35865">
        <ele>362.289</ele>
        <time>2019-04-21T09:43:47Z</time>
      </trkpt>
      <trkpt lat="45.06215" lon="5.35868">
        <ele>361.326</ele>
        <time>2019-04-21T09:43:49Z</time>
      </trkpt>
      <trkpt lat="45.06215" lon="5.35871">
        <ele>361.393</ele>
        <time>2019-04-21T09:43:51Z</time>
      </trkpt>
      <trkpt lat="45.06214" lon="5.35874">
        <ele>360.928</ele>
        <time>2019-04-21T09:43:55Z</time>
      </trkpt>
      <trkpt lat="45.06214" lon="5.35875">
        <ele>360.308</ele>
        <time>2019-04-21T09:43:56Z</time>
      </trkpt>
      <trkpt lat="45.0621" lon="5.35883">
        <ele>360.288</ele>
        <time>2019-04-21T09:44:01Z</time>
      </trkpt>
      <trkpt lat="45.06209" lon="5.35884">
        <ele>360.891</ele>
        <time>2019-04-21T09:44:03Z</time>
      </trkpt>
      <trkpt lat="45.06208" lon="5.35886">
        <ele>360.391</ele>
        <time>2019-04-21T09:44:07Z</time>
      </trkpt>
      <trkpt lat="45.06206" lon="5.3589">
        <ele>361.377</ele>
        <time>2019-04-21T09:44:11Z</time>
      </trkpt>
      <trkpt lat="45.06205" lon="5.35893">
        <ele>360.554</ele>
        <time>2019-04-21T09:44:14Z</time>
      </trkpt>
      <trkpt lat="45.06204" lon="5.35894">
        <ele>361.087</ele>
        <time>2019-04-21T09:44:16Z</time>
      </trkpt>
      <trkpt lat="45.06201" lon="5.35897">
        <ele>359.993</ele>
        <time>2019-04-21T09:44:20Z</time>
      </trkpt>
      <trkpt lat="45.06199" lon="5.35902">
        <ele>360.462</ele>
        <time>2019-04-21T09:44:24Z</time>
      </trkpt>
      <trkpt lat="45.06197" lon="5.35903">
        <ele>361.792</ele>
        <time>2019-04-21T09:44:28Z</time>
      </trkpt>
      <trkpt lat="45.06197" lon="5.35903">
        <ele>360.604</ele>
        <time>2019-04-21T09:44:29Z</time>
      </trkpt>
      <trkpt lat="45.06197" lon="5.35903">
        <ele>359.927</ele>
        <time>2019-04-21T09:44:33Z</time>
      </trkpt>
      <trkpt lat="45.06198" lon="5.35904">
        <ele>359.598</ele>
        <time>2019-04-21T09:44:34Z</time>
      </trkpt>
      <trkpt lat="45.06198" lon="5.35904">
        <ele>359.401</ele>
        <time>2019-04-21T09:44:35Z</time>
      </trkpt>
      <trkpt lat="45.06199" lon="5.35905">
        <ele>359.956</ele>
        <time>2019-04-21T09:44:37Z</time>
      </trkpt>
      <trkpt lat="45.06199" lon="5.35905">
        <ele>359.903</ele>
        <time>2019-04-21T09:44:38Z</time>
      </trkpt>
      <trkpt lat="45.06199" lon="5.35905">
        <ele>359.903</ele>
        <time>2019-04-21T09:44:38Z</time>
      </trkpt>
      <trkpt lat="45.06199" lon="5.35906">
        <ele>359.371</ele>
        <time>2019-04-21T09:44:39Z</time>
      </trkpt>
      <trkpt lat="45.06199" lon="5.35906">
        <ele>359.162</ele>
        <time>2019-04-21T09:44:40Z</time>
      </trkpt>
      <trkpt lat="45.06199" lon="5.35906">
        <ele>359.085</ele>
        <time>2019-04-21T09:44:42Z</time>
      </trkpt>
      <trkpt lat="45.062" lon="5.35908">
        <ele>358.481</ele>
        <time>2019-04-21T09:44:43Z</time>
      </trkpt>
      <trkpt lat="45.062" lon="5.35908">
        <ele>358.448</ele>
        <time>2019-04-21T09:44:44Z</time>
      </trkpt>
      <trkpt lat="45.062" lon="5.35909">
        <ele>358.512</ele>
        <time>2019-04-21T09:44:57Z</time>
      </trkpt>
      <trkpt lat="45.062" lon="5.35908">
        <ele>358.774</ele>
        <time>2019-04-21T09:44:58Z</time>
      </trkpt>
      <trkpt lat="45.062" lon="5.35908">
        <ele>358.774</ele>
        <time>2019-04-21T09:44:58Z</time>
      </trkpt>
      <trkpt lat="45.062" lon="5.35908">
        <ele>358.803</ele>
        <time>2019-04-21T09:44:59Z</time>
      </trkpt>
      <trkpt lat="45.062" lon="5.35908">
        <ele>360.396</ele>
        <time>2019-04-21T09:45:17Z</time>
      </trkpt>
      <trkpt lat="45.06199" lon="5.35908">
        <ele>360.959</ele>
        <time>2019-04-21T09:45:18Z</time>
      </trkpt>
      <trkpt lat="45.06199" lon="5.35908">
        <ele>360.959</ele>
        <time>2019-04-21T09:45:18Z</time>
      </trkpt>
      <trkpt lat="45.06199" lon="5.35908">
        <ele>361.959</ele>
        <time>2019-04-21T09:45:19Z</time>
      </trkpt>
      <trkpt lat="45.06199" lon="5.35908">
        <ele>362.787</ele>
        <time>2019-04-21T09:45:20Z</time>
      </trkpt>
      <trkpt lat="45.06199" lon="5.35908">
        <ele>362.787</ele>
        <time>2019-04-21T09:45:20Z</time>
      </trkpt>
      <trkpt lat="45.06199" lon="5.35909">
        <ele>362.432</ele>
        <time>2019-04-21T09:45:21Z</time>
      </trkpt>
      <trkpt lat="45.06197" lon="5.35911">
        <ele>362.82</ele>
        <time>2019-04-21T09:45:24Z</time>
      </trkpt>
      <trkpt lat="45.06197" lon="5.35911">
        <ele>362.821</ele>
        <time>2019-04-21T09:45:26Z</time>
      </trkpt>
      <trkpt lat="45.06197" lon="5.35911">
        <ele>361.945</ele>
        <time>2019-04-21T09:45:35Z</time>
      </trkpt>
      <trkpt lat="45.06198" lon="5.35911">
        <ele>362.433</ele>
        <time>2019-04-21T09:45:36Z</time>
      </trkpt>
      <trkpt lat="45.06197" lon="5.35913">
        <ele>362.96</ele>
        <time>2019-04-21T09:45:39Z</time>
      </trkpt>
      <trkpt lat="45.06195" lon="5.35917">
        <ele>365.568</ele>
        <time>2019-04-21T09:45:44Z</time>
      </trkpt>
      <trkpt lat="45.06194" lon="5.35917">
        <ele>367.078</ele>
        <time>2019-04-21T09:45:45Z</time>
      </trkpt>
      <trkpt lat="45.06189" lon="5.35918">
        <ele>364.602</ele>
        <time>2019-04-21T09:45:49Z</time>
      </trkpt>
      <trkpt lat="45.06188" lon="5.35918">
        <ele>365.31</ele>
        <time>2019-04-21T09:45:51Z</time>
      </trkpt>
      <trkpt lat="45.06189" lon="5.35919">
        <ele>363.319</ele>
        <time>2019-04-21T09:45:52Z</time>
      </trkpt>
      <trkpt lat="45.06189" lon="5.3592">
        <ele>363.255</ele>
        <time>2019-04-21T09:45:54Z</time>
      </trkpt>
      <trkpt lat="45.06189" lon="5.3592">
        <ele>362.548</ele>
        <time>2019-04-21T09:45:55Z</time>
      </trkpt>
      <trkpt lat="45.06189" lon="5.3592">
        <ele>362.548</ele>
        <time>2019-04-21T09:45:55Z</time>
      </trkpt>
      <trkpt lat="45.06189" lon="5.3592">
        <ele>361.897</ele>
        <time>2019-04-21T09:45:56Z</time>
      </trkpt>
      <trkpt lat="45.06189" lon="5.3592">
        <ele>363.126</ele>
        <time>2019-04-21T09:45:57Z</time>
      </trkpt>
      <trkpt lat="45.06189" lon="5.3592">
        <ele>363.126</ele>
        <time>2019-04-21T09:45:57Z</time>
      </trkpt>
      <trkpt lat="45.06189" lon="5.35919">
        <ele>360.521</ele>
        <time>2019-04-21T09:45:58Z</time>
      </trkpt>
      <trkpt lat="45.06189" lon="5.35917">
        <ele>361.646</ele>
        <time>2019-04-21T09:46:02Z</time>
      </trkpt>
      <trkpt lat="45.06189" lon="5.35917">
        <ele>364.362</ele>
        <time>2019-04-21T09:46:06Z</time>
      </trkpt>
      <trkpt lat="45.0619" lon="5.35915">
        <ele>365.002</ele>
        <time>2019-04-21T09:46:07Z</time>
      </trkpt>
      <trkpt lat="45.0619" lon="5.35915">
        <ele>365.839</ele>
        <time>2019-04-21T09:46:09Z</time>
      </trkpt>
      <trkpt lat="45.0619" lon="5.35915">
        <ele>365.839</ele>
        <time>2019-04-21T09:46:09Z</time>
      </trkpt>
      <trkpt lat="45.0619" lon="5.35916">
        <ele>366.625</ele>
        <time>2019-04-21T09:46:10Z</time>
      </trkpt>
      <trkpt lat="45.06191" lon="5.35916">
        <ele>366.529</ele>
        <time>2019-04-21T09:46:13Z</time>
      </trkpt>
      <trkpt lat="45.06191" lon="5.35917">
        <ele>365.754</ele>
        <time>2019-04-21T09:46:14Z</time>
      </trkpt>
      <trkpt lat="45.06191" lon="5.3592">
        <ele>363.623</ele>
        <time>2019-04-21T09:46:18Z</time>
      </trkpt>
      <trkpt lat="45.06192" lon="5.35921">
        <ele>365.119</ele>
        <time>2019-04-21T09:46:19Z</time>
      </trkpt>
      <trkpt lat="45.06192" lon="5.35921">
        <ele>365.75</ele>
        <time>2019-04-21T09:46:20Z</time>
      </trkpt>
      <trkpt lat="45.06192" lon="5.35921">
        <ele>365.365</ele>
        <time>2019-04-21T09:46:21Z</time>
      </trkpt>
      <trkpt lat="45.06192" lon="5.35921">
        <ele>365.455</ele>
        <time>2019-04-21T09:46:24Z</time>
      </trkpt>
      <trkpt lat="45.06193" lon="5.35923">
        <ele>366.711</ele>
        <time>2019-04-21T09:46:25Z</time>
      </trkpt>
      <trkpt lat="45.06193" lon="5.35923">
        <ele>366.711</ele>
        <time>2019-04-21T09:46:25Z</time>
      </trkpt>
      <trkpt lat="45.06193" lon="5.35923">
        <ele>368.055</ele>
        <time>2019-04-21T09:46:26Z</time>
      </trkpt>
      <trkpt lat="45.06193" lon="5.35923">
        <ele>368.055</ele>
        <time>2019-04-21T09:46:26Z</time>
      </trkpt>
      <trkpt lat="45.06194" lon="5.35923">
        <ele>369.457</ele>
        <time>2019-04-21T09:46:27Z</time>
      </trkpt>
      <trkpt lat="45.06195" lon="5.35924">
        <ele>368.926</ele>
        <time>2019-04-21T09:46:29Z</time>
      </trkpt>
      <trkpt lat="45.06197" lon="5.35928">
        <ele>368.679</ele>
        <time>2019-04-21T09:46:31Z</time>
      </trkpt>
      <trkpt lat="45.06197" lon="5.3593">
        <ele>370.463</ele>
        <time>2019-04-21T09:46:33Z</time>
      </trkpt>
      <trkpt lat="45.06197" lon="5.3593">
        <ele>370.463</ele>
        <time>2019-04-21T09:46:33Z</time>
      </trkpt>
      <trkpt lat="45.06198" lon="5.35931">
        <ele>371.881</ele>
        <time>2019-04-21T09:46:34Z</time>
      </trkpt>
      <trkpt lat="45.06198" lon="5.35931">
        <ele>373.122</ele>
        <time>2019-04-21T09:46:35Z</time>
      </trkpt>
      <trkpt lat="45.06198" lon="5.35931">
        <ele>373.272</ele>
        <time>2019-04-21T09:46:53Z</time>
      </trkpt>
      <trkpt lat="45.06198" lon="5.35932">
        <ele>372.71</ele>
        <time>2019-04-21T09:46:54Z</time>
      </trkpt>
      <trkpt lat="45.06195" lon="5.35935">
        <ele>372.849</ele>
        <time>2019-04-21T09:46:57Z</time>
      </trkpt>
      <trkpt lat="45.06194" lon="5.35935">
        <ele>372.675</ele>
        <time>2019-04-21T09:46:58Z</time>
      </trkpt>
      <trkpt lat="45.06192" lon="5.3594">
        <ele>373.299</ele>
        <time>2019-04-21T09:47:03Z</time>
      </trkpt>
      <trkpt lat="45.06191" lon="5.35941">
        <ele>374.093</ele>
        <time>2019-04-21T09:47:05Z</time>
      </trkpt>
      <trkpt lat="45.06189" lon="5.35944">
        <ele>373.099</ele>
        <time>2019-04-21T09:47:08Z</time>
      </trkpt>
      <trkpt lat="45.06187" lon="5.35945">
        <ele>374.124</ele>
        <time>2019-04-21T09:47:10Z</time>
      </trkpt>
      <trkpt lat="45.06185" lon="5.35949">
        <ele>376.46</ele>
        <time>2019-04-21T09:47:14Z</time>
      </trkpt>
      <trkpt lat="45.06183" lon="5.35951">
        <ele>372.979</ele>
        <time>2019-04-21T09:47:18Z</time>
      </trkpt>
      <trkpt lat="45.0618" lon="5.35954">
        <ele>372.31</ele>
        <time>2019-04-21T09:47:23Z</time>
      </trkpt>
      <trkpt lat="45.0618" lon="5.35954">
        <ele>372.495</ele>
        <time>2019-04-21T09:47:24Z</time>
      </trkpt>
      <trkpt lat="45.06178" lon="5.35957">
        <ele>369.837</ele>
        <time>2019-04-21T09:47:27Z</time>
      </trkpt>
      <trkpt lat="45.06173" lon="5.35962">
        <ele>369.536</ele>
        <time>2019-04-21T09:47:34Z</time>
      </trkpt>
      <trkpt lat="45.0617" lon="5.35967">
        <ele>369.867</ele>
        <time>2019-04-21T09:47:38Z</time>
      </trkpt>
      <trkpt lat="45.06165" lon="5.35976">
        <ele>372.44</ele>
        <time>2019-04-21T09:47:46Z</time>
      </trkpt>
      <trkpt lat="45.06163" lon="5.35979">
        <ele>373.508</ele>
        <time>2019-04-21T09:47:51Z</time>
      </trkpt>
      <trkpt lat="45.06162" lon="5.3598">
        <ele>372.664</ele>
        <time>2019-04-21T09:47:53Z</time>
      </trkpt>
      <trkpt lat="45.06161" lon="5.35984">
        <ele>375.087</ele>
        <time>2019-04-21T09:47:57Z</time>
      </trkpt>
      <trkpt lat="45.06161" lon="5.3599">
        <ele>372.965</ele>
        <time>2019-04-21T09:48:03Z</time>
      </trkpt>
      <trkpt lat="45.06161" lon="5.3599">
        <ele>373.089</ele>
        <time>2019-04-21T09:48:05Z</time>
      </trkpt>
      <trkpt lat="45.06161" lon="5.35989">
        <ele>371.912</ele>
        <time>2019-04-21T09:48:06Z</time>
      </trkpt>
      <trkpt lat="45.06161" lon="5.35988">
        <ele>372.192</ele>
        <time>2019-04-21T09:48:07Z</time>
      </trkpt>
      <trkpt lat="45.06161" lon="5.35988">
        <ele>372.028</ele>
        <time>2019-04-21T09:48:08Z</time>
      </trkpt>
      <trkpt lat="45.06161" lon="5.35988">
        <ele>372.028</ele>
        <time>2019-04-21T09:48:08Z</time>
      </trkpt>
      <trkpt lat="45.0616" lon="5.35988">
        <ele>372.089</ele>
        <time>2019-04-21T09:48:09Z</time>
      </trkpt>
      <trkpt lat="45.06159" lon="5.35987">
        <ele>373.185</ele>
        <time>2019-04-21T09:48:13Z</time>
      </trkpt>
      <trkpt lat="45.06158" lon="5.35991">
        <ele>373.532</ele>
        <time>2019-04-21T09:48:18Z</time>
      </trkpt>
      <trkpt lat="45.06158" lon="5.35991">
        <ele>372.908</ele>
        <time>2019-04-21T09:48:19Z</time>
      </trkpt>
      <trkpt lat="45.06158" lon="5.35991">
        <ele>373.129</ele>
        <time>2019-04-21T09:48:20Z</time>
      </trkpt>
      <trkpt lat="45.06158" lon="5.35992">
        <ele>372.146</ele>
        <time>2019-04-21T09:48:21Z</time>
      </trkpt>
      <trkpt lat="45.06158" lon="5.35993">
        <ele>369.199</ele>
        <time>2019-04-21T09:48:23Z</time>
      </trkpt>
      <trkpt lat="45.06154" lon="5.36004">
        <ele>368.436</ele>
        <time>2019-04-21T09:48:38Z</time>
      </trkpt>
      <trkpt lat="45.0615" lon="5.36007">
        <ele>365.229</ele>
        <time>2019-04-21T09:48:43Z</time>
      </trkpt>
      <trkpt lat="45.0615" lon="5.36008">
        <ele>365.733</ele>
        <time>2019-04-21T09:48:45Z</time>
      </trkpt>
      <trkpt lat="45.0615" lon="5.36008">
        <ele>366.831</ele>
        <time>2019-04-21T09:48:46Z</time>
      </trkpt>
      <trkpt lat="45.06151" lon="5.36006">
        <ele>366.835</ele>
        <time>2019-04-21T09:48:47Z</time>
      </trkpt>
      <trkpt lat="45.06151" lon="5.36006">
        <ele>367.508</ele>
        <time>2019-04-21T09:48:48Z</time>
      </trkpt>
      <trkpt lat="45.06151" lon="5.36006">
        <ele>367.774</ele>
        <time>2019-04-21T09:48:49Z</time>
      </trkpt>
      <trkpt lat="45.06151" lon="5.36006">
        <ele>367.774</ele>
        <time>2019-04-21T09:48:49Z</time>
      </trkpt>
      <trkpt lat="45.06152" lon="5.36008">
        <ele>368.692</ele>
        <time>2019-04-21T09:48:50Z</time>
      </trkpt>
      <trkpt lat="45.06152" lon="5.36008">
        <ele>368.692</ele>
        <time>2019-04-21T09:48:50Z</time>
      </trkpt>
      <trkpt lat="45.06152" lon="5.36008">
        <ele>367.116</ele>
        <time>2019-04-21T09:48:51Z</time>
      </trkpt>
      <trkpt lat="45.06152" lon="5.36008">
        <ele>367.116</ele>
        <time>2019-04-21T09:48:51Z</time>
      </trkpt>
      <trkpt lat="45.06152" lon="5.36009">
        <ele>368.201</ele>
        <time>2019-04-21T09:48:52Z</time>
      </trkpt>
      <trkpt lat="45.06152" lon="5.3601">
        <ele>368.169</ele>
        <time>2019-04-21T09:48:53Z</time>
      </trkpt>
      <trkpt lat="45.06152" lon="5.36011">
        <ele>368.467</ele>
        <time>2019-04-21T09:48:54Z</time>
      </trkpt>
      <trkpt lat="45.0615" lon="5.36014">
        <ele>370.032</ele>
        <time>2019-04-21T09:48:57Z</time>
      </trkpt>
      <trkpt lat="45.06139" lon="5.36018">
        <ele>369.513</ele>
        <time>2019-04-21T09:49:09Z</time>
      </trkpt>
      <trkpt lat="45.06136" lon="5.3602">
        <ele>370.867</ele>
        <time>2019-04-21T09:49:12Z</time>
      </trkpt>
      <trkpt lat="45.06135" lon="5.36021">
        <ele>371.846</ele>
        <time>2019-04-21T09:49:14Z</time>
      </trkpt>
      <trkpt lat="45.06133" lon="5.36022">
        <ele>372.742</ele>
        <time>2019-04-21T09:49:17Z</time>
      </trkpt>
      <trkpt lat="45.0613" lon="5.36023">
        <ele>371.388</ele>
        <time>2019-04-21T09:49:22Z</time>
      </trkpt>
      <trkpt lat="45.0613" lon="5.36023">
        <ele>370.721</ele>
        <time>2019-04-21T09:49:23Z</time>
      </trkpt>
      <trkpt lat="45.0613" lon="5.36023">
        <ele>370.721</ele>
        <time>2019-04-21T09:49:23Z</time>
      </trkpt>
      <trkpt lat="45.0613" lon="5.36023">
        <ele>369.858</ele>
        <time>2019-04-21T09:49:24Z</time>
      </trkpt>
      <trkpt lat="45.06129" lon="5.36023">
        <ele>374.089</ele>
        <time>2019-04-21T09:49:26Z</time>
      </trkpt>
      <trkpt lat="45.06129" lon="5.36023">
        <ele>376.822</ele>
        <time>2019-04-21T09:49:48Z</time>
      </trkpt>
      <trkpt lat="45.0613" lon="5.36026">
        <ele>377.417</ele>
        <time>2019-04-21T09:49:49Z</time>
      </trkpt>
      <trkpt lat="45.06128" lon="5.36027">
        <ele>377.077</ele>
        <time>2019-04-21T09:49:51Z</time>
      </trkpt>
      <trkpt lat="45.06127" lon="5.36028">
        <ele>378.286</ele>
        <time>2019-04-21T09:49:52Z</time>
      </trkpt>
      <trkpt lat="45.06125" lon="5.36031">
        <ele>380.064</ele>
        <time>2019-04-21T09:49:55Z</time>
      </trkpt>
      <trkpt lat="45.06124" lon="5.36033">
        <ele>378.601</ele>
        <time>2019-04-21T09:49:57Z</time>
      </trkpt>
      <trkpt lat="45.06123" lon="5.36035">
        <ele>378.218</ele>
        <time>2019-04-21T09:50:01Z</time>
      </trkpt>
      <trkpt lat="45.06121" lon="5.36034">
        <ele>378.045</ele>
        <time>2019-04-21T09:50:05Z</time>
      </trkpt>
      <trkpt lat="45.06116" lon="5.36036">
        <ele>376.396</ele>
        <time>2019-04-21T09:50:12Z</time>
      </trkpt>
      <trkpt lat="45.06116" lon="5.36036">
        <ele>376.396</ele>
        <time>2019-04-21T09:50:12Z</time>
      </trkpt>
      <trkpt lat="45.06116" lon="5.36036">
        <ele>376.438</ele>
        <time>2019-04-21T09:50:13Z</time>
      </trkpt>
      <trkpt lat="45.06116" lon="5.36036">
        <ele>377.016</ele>
        <time>2019-04-21T09:50:14Z</time>
      </trkpt>
      <trkpt lat="45.06116" lon="5.36036">
        <ele>377.56</ele>
        <time>2019-04-21T09:50:15Z</time>
      </trkpt>
      <trkpt lat="45.06116" lon="5.36036">
        <ele>378.931</ele>
        <time>2019-04-21T09:50:17Z</time>
      </trkpt>
      <trkpt lat="45.06114" lon="5.36036">
        <ele>380.136</ele>
        <time>2019-04-21T09:50:18Z</time>
      </trkpt>
      <trkpt lat="45.06114" lon="5.36036">
        <ele>380.773</ele>
        <time>2019-04-21T09:50:19Z</time>
      </trkpt>
      <trkpt lat="45.06114" lon="5.36036">
        <ele>380.773</ele>
        <time>2019-04-21T09:50:19Z</time>
      </trkpt>
      <trkpt lat="45.06114" lon="5.36035">
        <ele>381.07</ele>
        <time>2019-04-21T09:50:20Z</time>
      </trkpt>
      <trkpt lat="45.06112" lon="5.36033">
        <ele>381.453</ele>
        <time>2019-04-21T09:50:22Z</time>
      </trkpt>
      <trkpt lat="45.06111" lon="5.36033">
        <ele>381.096</ele>
        <time>2019-04-21T09:50:25Z</time>
      </trkpt>
      <trkpt lat="45.06111" lon="5.36033">
        <ele>381.096</ele>
        <time>2019-04-21T09:50:25Z</time>
      </trkpt>
      <trkpt lat="45.0611" lon="5.36033">
        <ele>381.913</ele>
        <time>2019-04-21T09:50:26Z</time>
      </trkpt>
      <trkpt lat="45.06108" lon="5.36037">
        <ele>378.23</ele>
        <time>2019-04-21T09:50:30Z</time>
      </trkpt>
      <trkpt lat="45.06108" lon="5.36038">
        <ele>379.124</ele>
        <time>2019-04-21T09:50:31Z</time>
      </trkpt>
      <trkpt lat="45.06105" lon="5.36039">
        <ele>378.88</ele>
        <time>2019-04-21T09:50:34Z</time>
      </trkpt>
      <trkpt lat="45.06102" lon="5.3604">
        <ele>379.234</ele>
        <time>2019-04-21T09:50:39Z</time>
      </trkpt>
      <trkpt lat="45.06101" lon="5.36041">
        <ele>379.289</ele>
        <time>2019-04-21T09:50:40Z</time>
      </trkpt>
      <trkpt lat="45.061" lon="5.36041">
        <ele>379.251</ele>
        <time>2019-04-21T09:50:42Z</time>
      </trkpt>
      <trkpt lat="45.06097" lon="5.36043">
        <ele>381.99</ele>
        <time>2019-04-21T09:50:47Z</time>
      </trkpt>
      <trkpt lat="45.06095" lon="5.36043">
        <ele>381.557</ele>
        <time>2019-04-21T09:50:49Z</time>
      </trkpt>
      <trkpt lat="45.06094" lon="5.36044">
        <ele>384.861</ele>
        <time>2019-04-21T09:50:54Z</time>
      </trkpt>
      <trkpt lat="45.06091" lon="5.36045">
        <ele>383.051</ele>
        <time>2019-04-21T09:50:57Z</time>
      </trkpt>
      <trkpt lat="45.06085" lon="5.36047">
        <ele>381.334</ele>
        <time>2019-04-21T09:51:04Z</time>
      </trkpt>
      <trkpt lat="45.06084" lon="5.36048">
        <ele>381.607</ele>
        <time>2019-04-21T09:51:06Z</time>
      </trkpt>
      <trkpt lat="45.06084" lon="5.36048">
        <ele>382.274</ele>
        <time>2019-04-21T09:51:07Z</time>
      </trkpt>
      <trkpt lat="45.06083" lon="5.36049">
        <ele>381.987</ele>
        <time>2019-04-21T09:51:09Z</time>
      </trkpt>
      <trkpt lat="45.06082" lon="5.3605">
        <ele>381.604</ele>
        <time>2019-04-21T09:51:10Z</time>
      </trkpt>
      <trkpt lat="45.06082" lon="5.3605">
        <ele>381.99</ele>
        <time>2019-04-21T09:51:11Z</time>
      </trkpt>
      <trkpt lat="45.06081" lon="5.36052">
        <ele>382.703</ele>
        <time>2019-04-21T09:51:13Z</time>
      </trkpt>
      <trkpt lat="45.06078" lon="5.36056">
        <ele>385.818</ele>
        <time>2019-04-21T09:51:17Z</time>
      </trkpt>
      <trkpt lat="45.06077" lon="5.36056">
        <ele>384.965</ele>
        <time>2019-04-21T09:51:18Z</time>
      </trkpt>
      <trkpt lat="45.06076" lon="5.36056">
        <ele>384.776</ele>
        <time>2019-04-21T09:51:19Z</time>
      </trkpt>
      <trkpt lat="45.06074" lon="5.36057">
        <ele>383.444</ele>
        <time>2019-04-21T09:51:22Z</time>
      </trkpt>
      <trkpt lat="45.06073" lon="5.36058">
        <ele>383.46</ele>
        <time>2019-04-21T09:51:24Z</time>
      </trkpt>
      <trkpt lat="45.06073" lon="5.36058">
        <ele>383.46</ele>
        <time>2019-04-21T09:51:24Z</time>
      </trkpt>
      <trkpt lat="45.06072" lon="5.36059">
        <ele>383.217</ele>
        <time>2019-04-21T09:51:25Z</time>
      </trkpt>
      <trkpt lat="45.06072" lon="5.36059">
        <ele>383.812</ele>
        <time>2019-04-21T09:51:26Z</time>
      </trkpt>
      <trkpt lat="45.0607" lon="5.36061">
        <ele>384.344</ele>
        <time>2019-04-21T09:51:28Z</time>
      </trkpt>
      <trkpt lat="45.06069" lon="5.36062">
        <ele>383.22</ele>
        <time>2019-04-21T09:51:32Z</time>
      </trkpt>
      <trkpt lat="45.06067" lon="5.36064">
        <ele>381.59</ele>
        <time>2019-04-21T09:51:36Z</time>
      </trkpt>
      <trkpt lat="45.06066" lon="5.36065">
        <ele>381.176</ele>
        <time>2019-04-21T09:51:38Z</time>
      </trkpt>
      <trkpt lat="45.06065" lon="5.3607">
        <ele>381.496</ele>
        <time>2019-04-21T09:51:43Z</time>
      </trkpt>
      <trkpt lat="45.06065" lon="5.3607">
        <ele>381.496</ele>
        <time>2019-04-21T09:51:43Z</time>
      </trkpt>
      <trkpt lat="45.06065" lon="5.3607">
        <ele>382.236</ele>
        <time>2019-04-21T09:51:44Z</time>
      </trkpt>
      <trkpt lat="45.06065" lon="5.3607">
        <ele>381.512</ele>
        <time>2019-04-21T09:51:45Z</time>
      </trkpt>
      <trkpt lat="45.06063" lon="5.36069">
        <ele>381.573</ele>
        <time>2019-04-21T09:51:50Z</time>
      </trkpt>
      <trkpt lat="45.06062" lon="5.3607">
        <ele>382.547</ele>
        <time>2019-04-21T09:51:52Z</time>
      </trkpt>
      <trkpt lat="45.06054" lon="5.36078">
        <ele>384.745</ele>
        <time>2019-04-21T09:52:02Z</time>
      </trkpt>
      <trkpt lat="45.06052" lon="5.3608">
        <ele>384.813</ele>
        <time>2019-04-21T09:52:05Z</time>
      </trkpt>
      <trkpt lat="45.06051" lon="5.36082">
        <ele>385.29</ele>
        <time>2019-04-21T09:52:06Z</time>
      </trkpt>
      <trkpt lat="45.06043" lon="5.36089">
        <ele>387.281</ele>
        <time>2019-04-21T09:52:14Z</time>
      </trkpt>
      <trkpt lat="45.06043" lon="5.36089">
        <ele>388.309</ele>
        <time>2019-04-21T09:52:15Z</time>
      </trkpt>
      <trkpt lat="45.06043" lon="5.36089">
        <ele>388.309</ele>
        <time>2019-04-21T09:52:15Z</time>
      </trkpt>
      <trkpt lat="45.06043" lon="5.36089">
        <ele>387.722</ele>
        <time>2019-04-21T09:52:16Z</time>
      </trkpt>
      <trkpt lat="45.06042" lon="5.36089">
        <ele>387.058</ele>
        <time>2019-04-21T09:52:17Z</time>
      </trkpt>
      <trkpt lat="45.06041" lon="5.3609">
        <ele>387.575</ele>
        <time>2019-04-21T09:52:18Z</time>
      </trkpt>
      <trkpt lat="45.06038" lon="5.36092">
        <ele>389.698</ele>
        <time>2019-04-21T09:52:21Z</time>
      </trkpt>
      <trkpt lat="45.06033" lon="5.361">
        <ele>390.115</ele>
        <time>2019-04-21T09:52:30Z</time>
      </trkpt>
      <trkpt lat="45.06033" lon="5.361">
        <ele>390.45</ele>
        <time>2019-04-21T09:52:33Z</time>
      </trkpt>
      <trkpt lat="45.06032" lon="5.36101">
        <ele>388.8</ele>
        <time>2019-04-21T09:52:35Z</time>
      </trkpt>
      <trkpt lat="45.06032" lon="5.36101">
        <ele>388.558</ele>
        <time>2019-04-21T09:52:36Z</time>
      </trkpt>
      <trkpt lat="45.0603" lon="5.36106">
        <ele>391.057</ele>
        <time>2019-04-21T09:52:39Z</time>
      </trkpt>
      <trkpt lat="45.06027" lon="5.36111">
        <ele>392.77</ele>
        <time>2019-04-21T09:52:41Z</time>
      </trkpt>
      <trkpt lat="45.06024" lon="5.36115">
        <ele>394.893</ele>
        <time>2019-04-21T09:52:43Z</time>
      </trkpt>
      <trkpt lat="45.06022" lon="5.36119">
        <ele>397.007</ele>
        <time>2019-04-21T09:52:45Z</time>
      </trkpt>
      <trkpt lat="45.0602" lon="5.36121">
        <ele>397.391</ele>
        <time>2019-04-21T09:52:46Z</time>
      </trkpt>
      <trkpt lat="45.06019" lon="5.36124">
        <ele>398.415</ele>
        <time>2019-04-21T09:52:49Z</time>
      </trkpt>
      <trkpt lat="45.06019" lon="5.36124">
        <ele>399.097</ele>
        <time>2019-04-21T09:53:10Z</time>
      </trkpt>
      <trkpt lat="45.06019" lon="5.36125">
        <ele>399.149</ele>
        <time>2019-04-21T09:53:11Z</time>
      </trkpt>
      <trkpt lat="45.06019" lon="5.36125">
        <ele>399.147</ele>
        <time>2019-04-21T09:53:12Z</time>
      </trkpt>
      <trkpt lat="45.06019" lon="5.36125">
        <ele>399.617</ele>
        <time>2019-04-21T09:53:19Z</time>
      </trkpt>
      <trkpt lat="45.06018" lon="5.36123">
        <ele>399.361</ele>
        <time>2019-04-21T09:53:20Z</time>
      </trkpt>
      <trkpt lat="45.06017" lon="5.36119">
        <ele>400.691</ele>
        <time>2019-04-21T09:53:24Z</time>
      </trkpt>
      <trkpt lat="45.06014" lon="5.36122">
        <ele>400.153</ele>
        <time>2019-04-21T09:53:30Z</time>
      </trkpt>
      <trkpt lat="45.06011" lon="5.36124">
        <ele>400.48</ele>
        <time>2019-04-21T09:53:34Z</time>
      </trkpt>
      <trkpt lat="45.06001" lon="5.36134">
        <ele>401.098</ele>
        <time>2019-04-21T09:53:44Z</time>
      </trkpt>
      <trkpt lat="45.05999" lon="5.36135">
        <ele>399.774</ele>
        <time>2019-04-21T09:53:48Z</time>
      </trkpt>
      <trkpt lat="45.05991" lon="5.36142">
        <ele>400.731</ele>
        <time>2019-04-21T09:53:58Z</time>
      </trkpt>
      <trkpt lat="45.05989" lon="5.36145">
        <ele>400.895</ele>
        <time>2019-04-21T09:54:02Z</time>
      </trkpt>
      <trkpt lat="45.05987" lon="5.36148">
        <ele>399.913</ele>
        <time>2019-04-21T09:54:07Z</time>
      </trkpt>
      <trkpt lat="45.05987" lon="5.36149">
        <ele>399.988</ele>
        <time>2019-04-21T09:54:09Z</time>
      </trkpt>
      <trkpt lat="45.05987" lon="5.36149">
        <ele>399.988</ele>
        <time>2019-04-21T09:54:09Z</time>
      </trkpt>
      <trkpt lat="45.05986" lon="5.36149">
        <ele>400.013</ele>
        <time>2019-04-21T09:54:10Z</time>
      </trkpt>
      <trkpt lat="45.05982" lon="5.36153">
        <ele>400.986</ele>
        <time>2019-04-21T09:54:14Z</time>
      </trkpt>
      <trkpt lat="45.0598" lon="5.36157">
        <ele>401.173</ele>
        <time>2019-04-21T09:54:18Z</time>
      </trkpt>
      <trkpt lat="45.05976" lon="5.36161">
        <ele>401.685</ele>
        <time>2019-04-21T09:54:24Z</time>
      </trkpt>
      <trkpt lat="45.05976" lon="5.36162">
        <ele>401.247</ele>
        <time>2019-04-21T09:54:25Z</time>
      </trkpt>
      <trkpt lat="45.05975" lon="5.36164">
        <ele>401.812</ele>
        <time>2019-04-21T09:54:28Z</time>
      </trkpt>
      <trkpt lat="45.05973" lon="5.36168">
        <ele>401.954</ele>
        <time>2019-04-21T09:54:34Z</time>
      </trkpt>
      <trkpt lat="45.05972" lon="5.36169">
        <ele>402.484</ele>
        <time>2019-04-21T09:54:35Z</time>
      </trkpt>
      <trkpt lat="45.05967" lon="5.36179">
        <ele>401.451</ele>
        <time>2019-04-21T09:54:48Z</time>
      </trkpt>
      <trkpt lat="45.05965" lon="5.3618">
        <ele>401.761</ele>
        <time>2019-04-21T09:54:50Z</time>
      </trkpt>
      <trkpt lat="45.05964" lon="5.36181">
        <ele>400.543</ele>
        <time>2019-04-21T09:54:53Z</time>
      </trkpt>
      <trkpt lat="45.05964" lon="5.36181">
        <ele>400.543</ele>
        <time>2019-04-21T09:54:53Z</time>
      </trkpt>
      <trkpt lat="45.05964" lon="5.36181">
        <ele>400.744</ele>
        <time>2019-04-21T09:54:54Z</time>
      </trkpt>
      <trkpt lat="45.05964" lon="5.36181">
        <ele>400.68</ele>
        <time>2019-04-21T09:54:55Z</time>
      </trkpt>
      <trkpt lat="45.05964" lon="5.36181">
        <ele>401.166</ele>
        <time>2019-04-21T09:54:57Z</time>
      </trkpt>
      <trkpt lat="45.05964" lon="5.36181">
        <ele>401.166</ele>
        <time>2019-04-21T09:54:57Z</time>
      </trkpt>
      <trkpt lat="45.05963" lon="5.36182">
        <ele>401.354</ele>
        <time>2019-04-21T09:54:58Z</time>
      </trkpt>
      <trkpt lat="45.05963" lon="5.36182">
        <ele>401.12</ele>
        <time>2019-04-21T09:54:59Z</time>
      </trkpt>
      <trkpt lat="45.05963" lon="5.36183">
        <ele>401.302</ele>
        <time>2019-04-21T09:55:00Z</time>
      </trkpt>
      <trkpt lat="45.05962" lon="5.36188">
        <ele>400.339</ele>
        <time>2019-04-21T09:55:04Z</time>
      </trkpt>
      <trkpt lat="45.05961" lon="5.36189">
        <ele>400.277</ele>
        <time>2019-04-21T09:55:05Z</time>
      </trkpt>
      <trkpt lat="45.05961" lon="5.36189">
        <ele>399.89</ele>
        <time>2019-04-21T09:55:06Z</time>
      </trkpt>
      <trkpt lat="45.05961" lon="5.36189">
        <ele>399.89</ele>
        <time>2019-04-21T09:55:06Z</time>
      </trkpt>
      <trkpt lat="45.0596" lon="5.3619">
        <ele>400.043</ele>
        <time>2019-04-21T09:55:07Z</time>
      </trkpt>
      <trkpt lat="45.0596" lon="5.36189">
        <ele>400.069</ele>
        <time>2019-04-21T09:55:11Z</time>
      </trkpt>
      <trkpt lat="45.0596" lon="5.36189">
        <ele>401.498</ele>
        <time>2019-04-21T09:55:12Z</time>
      </trkpt>
      <trkpt lat="45.0596" lon="5.36189">
        <ele>401.498</ele>
        <time>2019-04-21T09:55:12Z</time>
      </trkpt>
      <trkpt lat="45.0596" lon="5.36189">
        <ele>402.203</ele>
        <time>2019-04-21T09:55:13Z</time>
      </trkpt>
      <trkpt lat="45.05959" lon="5.36187">
        <ele>408.567</ele>
        <time>2019-04-21T09:55:19Z</time>
      </trkpt>
      <trkpt lat="45.05959" lon="5.36187">
        <ele>408.905</ele>
        <time>2019-04-21T09:55:20Z</time>
      </trkpt>
      <trkpt lat="45.05959" lon="5.36187">
        <ele>408.905</ele>
        <time>2019-04-21T09:55:20Z</time>
      </trkpt>
      <trkpt lat="45.05959" lon="5.36186">
        <ele>408.845</ele>
        <time>2019-04-21T09:55:21Z</time>
      </trkpt>
      <trkpt lat="45.0596" lon="5.36188">
        <ele>414.414</ele>
        <time>2019-04-21T09:55:25Z</time>
      </trkpt>
      <trkpt lat="45.0596" lon="5.36189">
        <ele>415.014</ele>
        <time>2019-04-21T09:55:28Z</time>
      </trkpt>
      <trkpt lat="45.0596" lon="5.36189">
        <ele>415.008</ele>
        <time>2019-04-21T09:55:35Z</time>
      </trkpt>
      <trkpt lat="45.0596" lon="5.36191">
        <ele>416.021</ele>
        <time>2019-04-21T09:55:36Z</time>
      </trkpt>
      <trkpt lat="45.0596" lon="5.36191">
        <ele>417.671</ele>
        <time>2019-04-21T09:55:38Z</time>
      </trkpt>
      <trkpt lat="45.0596" lon="5.36191">
        <ele>417.718</ele>
        <time>2019-04-21T09:55:44Z</time>
      </trkpt>
      <trkpt lat="45.05959" lon="5.3619">
        <ele>418.036</ele>
        <time>2019-04-21T09:55:45Z</time>
      </trkpt>
      <trkpt lat="45.05959" lon="5.3619">
        <ele>418.028</ele>
        <time>2019-04-21T09:55:46Z</time>
      </trkpt>
      <trkpt lat="45.05959" lon="5.3619">
        <ele>418.147</ele>
        <time>2019-04-21T09:56:05Z</time>
      </trkpt>
      <trkpt lat="45.05959" lon="5.3619">
        <ele>418.394</ele>
        <time>2019-04-21T09:56:06Z</time>
      </trkpt>
      <trkpt lat="45.05958" lon="5.3619">
        <ele>418.422</ele>
        <time>2019-04-21T09:56:07Z</time>
      </trkpt>
      <trkpt lat="45.05958" lon="5.3619">
        <ele>418.422</ele>
        <time>2019-04-21T09:56:07Z</time>
      </trkpt>
      <trkpt lat="45.05958" lon="5.3619">
        <ele>416.292</ele>
        <time>2019-04-21T09:56:08Z</time>
      </trkpt>
      <trkpt lat="45.05956" lon="5.36194">
        <ele>417.681</ele>
        <time>2019-04-21T09:56:13Z</time>
      </trkpt>
      <trkpt lat="45.05954" lon="5.36198">
        <ele>418.857</ele>
        <time>2019-04-21T09:56:18Z</time>
      </trkpt>
      <trkpt lat="45.05954" lon="5.36198">
        <ele>418.837</ele>
        <time>2019-04-21T09:56:19Z</time>
      </trkpt>
      <trkpt lat="45.05954" lon="5.36198">
        <ele>418.614</ele>
        <time>2019-04-21T09:56:28Z</time>
      </trkpt>
      <trkpt lat="45.05953" lon="5.36199">
        <ele>418.456</ele>
        <time>2019-04-21T09:56:29Z</time>
      </trkpt>
      <trkpt lat="45.05952" lon="5.36199">
        <ele>417.857</ele>
        <time>2019-04-21T09:56:30Z</time>
      </trkpt>
      <trkpt lat="45.05951" lon="5.362">
        <ele>417.206</ele>
        <time>2019-04-21T09:56:32Z</time>
      </trkpt>
      <trkpt lat="45.0595" lon="5.36203">
        <ele>416.441</ele>
        <time>2019-04-21T09:56:35Z</time>
      </trkpt>
      <trkpt lat="45.05947" lon="5.36206">
        <ele>417.001</ele>
        <time>2019-04-21T09:56:39Z</time>
      </trkpt>
      <trkpt lat="45.05947" lon="5.36207">
        <ele>416.941</ele>
        <time>2019-04-21T09:56:40Z</time>
      </trkpt>
      <trkpt lat="45.05947" lon="5.36207">
        <ele>416.92</ele>
        <time>2019-04-21T09:56:42Z</time>
      </trkpt>
      <trkpt lat="45.05947" lon="5.36207">
        <ele>416.92</ele>
        <time>2019-04-21T09:56:42Z</time>
      </trkpt>
      <trkpt lat="45.05946" lon="5.36208">
        <ele>416.98</ele>
        <time>2019-04-21T09:56:43Z</time>
      </trkpt>
      <trkpt lat="45.05945" lon="5.36208">
        <ele>416.602</ele>
        <time>2019-04-21T09:56:44Z</time>
      </trkpt>
      <trkpt lat="45.05943" lon="5.3621">
        <ele>417.575</ele>
        <time>2019-04-21T09:56:49Z</time>
      </trkpt>
      <trkpt lat="45.05943" lon="5.3621">
        <ele>417.575</ele>
        <time>2019-04-21T09:56:49Z</time>
      </trkpt>
      <trkpt lat="45.05943" lon="5.3621">
        <ele>417.805</ele>
        <time>2019-04-21T09:56:50Z</time>
      </trkpt>
      <trkpt lat="45.05941" lon="5.36212">
        <ele>417.947</ele>
        <time>2019-04-21T09:56:54Z</time>
      </trkpt>
      <trkpt lat="45.05941" lon="5.36212">
        <ele>417.947</ele>
        <time>2019-04-21T09:56:54Z</time>
      </trkpt>
      <trkpt lat="45.05941" lon="5.36213">
        <ele>418.603</ele>
        <time>2019-04-21T09:56:55Z</time>
      </trkpt>
      <trkpt lat="45.0594" lon="5.36213">
        <ele>418.862</ele>
        <time>2019-04-21T09:56:57Z</time>
      </trkpt>
      <trkpt lat="45.0594" lon="5.36213">
        <ele>419.216</ele>
        <time>2019-04-21T09:57:22Z</time>
      </trkpt>
      <trkpt lat="45.05938" lon="5.36216">
        <ele>419.816</ele>
        <time>2019-04-21T09:57:23Z</time>
      </trkpt>
      <trkpt lat="45.05937" lon="5.36217">
        <ele>420.095</ele>
        <time>2019-04-21T09:57:25Z</time>
      </trkpt>
      <trkpt lat="45.05937" lon="5.36218">
        <ele>420.84</ele>
        <time>2019-04-21T09:57:27Z</time>
      </trkpt>
      <trkpt lat="45.05936" lon="5.36218">
        <ele>418.011</ele>
        <time>2019-04-21T09:57:30Z</time>
      </trkpt>
      <trkpt lat="45.05936" lon="5.36218">
        <ele>418.011</ele>
        <time>2019-04-21T09:57:30Z</time>
      </trkpt>
      <trkpt lat="45.05936" lon="5.36219">
        <ele>418.445</ele>
        <time>2019-04-21T09:57:31Z</time>
      </trkpt>
      <trkpt lat="45.05937" lon="5.36219">
        <ele>418.917</ele>
        <time>2019-04-21T09:57:32Z</time>
      </trkpt>
      <trkpt lat="45.05937" lon="5.36219">
        <ele>419.106</ele>
        <time>2019-04-21T09:57:33Z</time>
      </trkpt>
      <trkpt lat="45.05937" lon="5.36219">
        <ele>419.106</ele>
        <time>2019-04-21T09:57:33Z</time>
      </trkpt>
      <trkpt lat="45.05936" lon="5.3622">
        <ele>419.032</ele>
        <time>2019-04-21T09:57:34Z</time>
      </trkpt>
      <trkpt lat="45.05936" lon="5.3622">
        <ele>419.251</ele>
        <time>2019-04-21T09:57:35Z</time>
      </trkpt>
      <trkpt lat="45.05934" lon="5.36221">
        <ele>418.31</ele>
        <time>2019-04-21T09:57:38Z</time>
      </trkpt>
      <trkpt lat="45.05934" lon="5.36221">
        <ele>418.31</ele>
        <time>2019-04-21T09:57:38Z</time>
      </trkpt>
      <trkpt lat="45.05934" lon="5.36222">
        <ele>418.691</ele>
        <time>2019-04-21T09:57:39Z</time>
      </trkpt>
      <trkpt lat="45.05934" lon="5.36222">
        <ele>419.007</ele>
        <time>2019-04-21T09:57:40Z</time>
      </trkpt>
      <trkpt lat="45.05934" lon="5.36222">
        <ele>418.234</ele>
        <time>2019-04-21T09:57:42Z</time>
      </trkpt>
      <trkpt lat="45.05932" lon="5.36224">
        <ele>417.235</ele>
        <time>2019-04-21T09:57:43Z</time>
      </trkpt>
      <trkpt lat="45.05931" lon="5.36225">
        <ele>416.904</ele>
        <time>2019-04-21T09:57:45Z</time>
      </trkpt>
      <trkpt lat="45.0593" lon="5.36225">
        <ele>416.545</ele>
        <time>2019-04-21T09:57:47Z</time>
      </trkpt>
      <trkpt lat="45.0593" lon="5.36225">
        <ele>416.545</ele>
        <time>2019-04-21T09:57:47Z</time>
      </trkpt>
      <trkpt lat="45.05929" lon="5.36225">
        <ele>416.233</ele>
        <time>2019-04-21T09:57:48Z</time>
      </trkpt>
      <trkpt lat="45.05928" lon="5.36226">
        <ele>416.387</ele>
        <time>2019-04-21T09:57:50Z</time>
      </trkpt>
      <trkpt lat="45.05927" lon="5.36227">
        <ele>417.473</ele>
        <time>2019-04-21T09:57:53Z</time>
      </trkpt>
      <trkpt lat="45.05927" lon="5.36227">
        <ele>417.473</ele>
        <time>2019-04-21T09:57:53Z</time>
      </trkpt>
      <trkpt lat="45.05925" lon="5.36228">
        <ele>417.871</ele>
        <time>2019-04-21T09:57:54Z</time>
      </trkpt>
      <trkpt lat="45.05922" lon="5.36231">
        <ele>418.015</ele>
        <time>2019-04-21T09:57:59Z</time>
      </trkpt>
      <trkpt lat="45.05922" lon="5.36231">
        <ele>417.718</ele>
        <time>2019-04-21T09:58:00Z</time>
      </trkpt>
      <trkpt lat="45.05922" lon="5.36231">
        <ele>417.718</ele>
        <time>2019-04-21T09:58:00Z</time>
      </trkpt>
      <trkpt lat="45.05921" lon="5.36232">
        <ele>417.67</ele>
        <time>2019-04-21T09:58:01Z</time>
      </trkpt>
      <trkpt lat="45.05919" lon="5.36234">
        <ele>418.767</ele>
        <time>2019-04-21T09:58:04Z</time>
      </trkpt>
      <trkpt lat="45.05918" lon="5.36235">
        <ele>418.263</ele>
        <time>2019-04-21T09:58:05Z</time>
      </trkpt>
      <trkpt lat="45.05918" lon="5.36236">
        <ele>418.284</ele>
        <time>2019-04-21T09:58:06Z</time>
      </trkpt>
      <trkpt lat="45.05915" lon="5.36239">
        <ele>418.157</ele>
        <time>2019-04-21T09:58:10Z</time>
      </trkpt>
      <trkpt lat="45.05914" lon="5.36239">
        <ele>418.379</ele>
        <time>2019-04-21T09:58:12Z</time>
      </trkpt>
      <trkpt lat="45.05914" lon="5.36239">
        <ele>418.379</ele>
        <time>2019-04-21T09:58:12Z</time>
      </trkpt>
      <trkpt lat="45.05913" lon="5.3624">
        <ele>418.855</ele>
        <time>2019-04-21T09:58:13Z</time>
      </trkpt>
      <trkpt lat="45.05912" lon="5.36241">
        <ele>418.9</ele>
        <time>2019-04-21T09:58:14Z</time>
      </trkpt>
      <trkpt lat="45.05911" lon="5.36242">
        <ele>419.792</ele>
        <time>2019-04-21T09:58:17Z</time>
      </trkpt>
      <trkpt lat="45.05911" lon="5.36242">
        <ele>419.792</ele>
        <time>2019-04-21T09:58:17Z</time>
      </trkpt>
      <trkpt lat="45.05911" lon="5.36243">
        <ele>419.639</ele>
        <time>2019-04-21T09:58:18Z</time>
      </trkpt>
      <trkpt lat="45.0591" lon="5.36243">
        <ele>419.604</ele>
        <time>2019-04-21T09:58:19Z</time>
      </trkpt>
      <trkpt lat="45.05908" lon="5.36243">
        <ele>419.949</ele>
        <time>2019-04-21T09:58:20Z</time>
      </trkpt>
      <trkpt lat="45.05908" lon="5.36243">
        <ele>420.421</ele>
        <time>2019-04-21T09:58:21Z</time>
      </trkpt>
      <trkpt lat="45.05907" lon="5.36243">
        <ele>421.023</ele>
        <time>2019-04-21T09:58:23Z</time>
      </trkpt>
      <trkpt lat="45.05907" lon="5.36243">
        <ele>421.195</ele>
        <time>2019-04-21T09:58:24Z</time>
      </trkpt>
      <trkpt lat="45.05907" lon="5.36245">
        <ele>421.194</ele>
        <time>2019-04-21T09:58:25Z</time>
      </trkpt>
      <trkpt lat="45.05907" lon="5.36246">
        <ele>421.455</ele>
        <time>2019-04-21T09:58:26Z</time>
      </trkpt>
      <trkpt lat="45.05905" lon="5.36249">
        <ele>421.999</ele>
        <time>2019-04-21T09:58:30Z</time>
      </trkpt>
      <trkpt lat="45.05904" lon="5.36249">
        <ele>422.119</ele>
        <time>2019-04-21T09:58:32Z</time>
      </trkpt>
      <trkpt lat="45.05904" lon="5.36249">
        <ele>421.593</ele>
        <time>2019-04-21T09:58:44Z</time>
      </trkpt>
      <trkpt lat="45.05903" lon="5.36252">
        <ele>422.492</ele>
        <time>2019-04-21T09:58:45Z</time>
      </trkpt>
      <trkpt lat="45.05901" lon="5.36256">
        <ele>423.417</ele>
        <time>2019-04-21T09:58:50Z</time>
      </trkpt>
      <trkpt lat="45.05898" lon="5.36259">
        <ele>424.55</ele>
        <time>2019-04-21T09:58:53Z</time>
      </trkpt>
      <trkpt lat="45.05895" lon="5.36264">
        <ele>426.823</ele>
        <time>2019-04-21T09:58:57Z</time>
      </trkpt>
      <trkpt lat="45.05891" lon="5.3627">
        <ele>427.383</ele>
        <time>2019-04-21T09:59:04Z</time>
      </trkpt>
      <trkpt lat="45.0589" lon="5.3627">
        <ele>427.67</ele>
        <time>2019-04-21T09:59:05Z</time>
      </trkpt>
      <trkpt lat="45.0589" lon="5.36271">
        <ele>427.588</ele>
        <time>2019-04-21T09:59:06Z</time>
      </trkpt>
      <trkpt lat="45.05887" lon="5.36275">
        <ele>429.404</ele>
        <time>2019-04-21T09:59:12Z</time>
      </trkpt>
      <trkpt lat="45.05887" lon="5.36275">
        <ele>429.718</ele>
        <time>2019-04-21T09:59:13Z</time>
      </trkpt>
      <trkpt lat="45.05887" lon="5.36275">
        <ele>429.718</ele>
        <time>2019-04-21T09:59:13Z</time>
      </trkpt>
      <trkpt lat="45.05886" lon="5.36275">
        <ele>429.654</ele>
        <time>2019-04-21T09:59:14Z</time>
      </trkpt>
      <trkpt lat="45.05886" lon="5.36277">
        <ele>430.834</ele>
        <time>2019-04-21T09:59:16Z</time>
      </trkpt>
      <trkpt lat="45.05884" lon="5.3628">
        <ele>431.751</ele>
        <time>2019-04-21T09:59:19Z</time>
      </trkpt>
      <trkpt lat="45.05884" lon="5.3628">
        <ele>431.751</ele>
        <time>2019-04-21T09:59:19Z</time>
      </trkpt>
      <trkpt lat="45.05884" lon="5.3628">
        <ele>431.777</ele>
        <time>2019-04-21T09:59:20Z</time>
      </trkpt>
      <trkpt lat="45.05884" lon="5.3628">
        <ele>431.777</ele>
        <time>2019-04-21T09:59:20Z</time>
      </trkpt>
      <trkpt lat="45.05884" lon="5.36281">
        <ele>431.382</ele>
        <time>2019-04-21T09:59:21Z</time>
      </trkpt>
      <trkpt lat="45.05882" lon="5.36283">
        <ele>431.768</ele>
        <time>2019-04-21T09:59:24Z</time>
      </trkpt>
      <trkpt lat="45.0588" lon="5.36285">
        <ele>431.533</ele>
        <time>2019-04-21T09:59:27Z</time>
      </trkpt>
      <trkpt lat="45.05877" lon="5.36286">
        <ele>431.084</ele>
        <time>2019-04-21T09:59:30Z</time>
      </trkpt>
      <trkpt lat="45.05876" lon="5.36287">
        <ele>432.367</ele>
        <time>2019-04-21T09:59:33Z</time>
      </trkpt>
      <trkpt lat="45.05876" lon="5.36287">
        <ele>433.235</ele>
        <time>2019-04-21T09:59:34Z</time>
      </trkpt>
      <trkpt lat="45.05874" lon="5.36288">
        <ele>433.663</ele>
        <time>2019-04-21T09:59:35Z</time>
      </trkpt>
      <trkpt lat="45.05874" lon="5.36289">
        <ele>434.039</ele>
        <time>2019-04-21T09:59:36Z</time>
      </trkpt>
      <trkpt lat="45.05868" lon="5.3629">
        <ele>434.287</ele>
        <time>2019-04-21T09:59:43Z</time>
      </trkpt>
      <trkpt lat="45.05868" lon="5.3629">
        <ele>434.287</ele>
        <time>2019-04-21T09:59:43Z</time>
      </trkpt>
      <trkpt lat="45.05866" lon="5.36288">
        <ele>434.416</ele>
        <time>2019-04-21T09:59:44Z</time>
      </trkpt>
      <trkpt lat="45.05864" lon="5.36286">
        <ele>434.585</ele>
        <time>2019-04-21T09:59:45Z</time>
      </trkpt>
      <trkpt lat="45.0586" lon="5.36285">
        <ele>433.706</ele>
        <time>2019-04-21T09:59:48Z</time>
      </trkpt>
      <trkpt lat="45.05857" lon="5.36287">
        <ele>432.874</ele>
        <time>2019-04-21T09:59:53Z</time>
      </trkpt>
      <trkpt lat="45.05857" lon="5.36288">
        <ele>433.375</ele>
        <time>2019-04-21T09:59:55Z</time>
      </trkpt>
      <trkpt lat="45.05857" lon="5.36288">
        <ele>433.564</ele>
        <time>2019-04-21T09:59:56Z</time>
      </trkpt>
      <trkpt lat="45.05856" lon="5.36287">
        <ele>433.785</ele>
        <time>2019-04-21T09:59:58Z</time>
      </trkpt>
      <trkpt lat="45.05856" lon="5.36287">
        <ele>433.785</ele>
        <time>2019-04-21T09:59:58Z</time>
      </trkpt>
      <trkpt lat="45.05856" lon="5.36286">
        <ele>433.559</ele>
        <time>2019-04-21T09:59:59Z</time>
      </trkpt>
      <trkpt lat="45.05856" lon="5.36284">
        <ele>433.355</ele>
        <time>2019-04-21T09:59:59Z</time>
      </trkpt>
      <trkpt lat="45.05858" lon="5.36285">
        <ele>433.803</ele>
        <time>2019-04-21T10:00:02Z</time>
      </trkpt>
      <trkpt lat="45.05858" lon="5.36286">
        <ele>433.919</ele>
        <time>2019-04-21T10:00:03Z</time>
      </trkpt>
      <trkpt lat="45.05858" lon="5.36286">
        <ele>434.04</ele>
        <time>2019-04-21T10:00:04Z</time>
      </trkpt>
      <trkpt lat="45.05857" lon="5.36287">
        <ele>434.449</ele>
        <time>2019-04-21T10:00:05Z</time>
      </trkpt>
      <trkpt lat="45.05857" lon="5.36287">
        <ele>434.338</ele>
        <time>2019-04-21T10:00:06Z</time>
      </trkpt>
      <trkpt lat="45.05857" lon="5.36287">
        <ele>433.844</ele>
        <time>2019-04-21T10:00:07Z</time>
      </trkpt>
      <trkpt lat="45.05857" lon="5.36287">
        <ele>433.844</ele>
        <time>2019-04-21T10:00:07Z</time>
      </trkpt>
      <trkpt lat="45.05857" lon="5.36287">
        <ele>433.697</ele>
        <time>2019-04-21T10:00:08Z</time>
      </trkpt>
      <trkpt lat="45.05857" lon="5.36286">
        <ele>433.745</ele>
        <time>2019-04-21T10:00:09Z</time>
      </trkpt>
      <trkpt lat="45.05858" lon="5.36284">
        <ele>434.102</ele>
        <time>2019-04-21T10:00:10Z</time>
      </trkpt>
      <trkpt lat="45.05859" lon="5.36282">
        <ele>434.286</ele>
        <time>2019-04-21T10:00:12Z</time>
      </trkpt>
      <trkpt lat="45.05859" lon="5.36282">
        <ele>434.286</ele>
        <time>2019-04-21T10:00:12Z</time>
      </trkpt>
      <trkpt lat="45.05859" lon="5.36282">
        <ele>433.761</ele>
        <time>2019-04-21T10:00:13Z</time>
      </trkpt>
      <trkpt lat="45.05859" lon="5.36282">
        <ele>433.737</ele>
        <time>2019-04-21T10:00:14Z</time>
      </trkpt>
      <trkpt lat="45.05859" lon="5.36282">
        <ele>433.737</ele>
        <time>2019-04-21T10:00:14Z</time>
      </trkpt>
      <trkpt lat="45.05859" lon="5.36283">
        <ele>433.82</ele>
        <time>2019-04-21T10:00:15Z</time>
      </trkpt>
      <trkpt lat="45.05858" lon="5.36283">
        <ele>433.872</ele>
        <time>2019-04-21T10:00:16Z</time>
      </trkpt>
      <trkpt lat="45.05858" lon="5.36283">
        <ele>432.949</ele>
        <time>2019-04-21T10:00:17Z</time>
      </trkpt>
      <trkpt lat="45.05858" lon="5.36283">
        <ele>432.949</ele>
        <time>2019-04-21T10:00:17Z</time>
      </trkpt>
      <trkpt lat="45.05858" lon="5.36284">
        <ele>433.568</ele>
        <time>2019-04-21T10:00:18Z</time>
      </trkpt>
      <trkpt lat="45.05858" lon="5.36286">
        <ele>433.325</ele>
        <time>2019-04-21T10:00:19Z</time>
      </trkpt>
      <trkpt lat="45.05858" lon="5.36286">
        <ele>433.193</ele>
        <time>2019-04-21T10:00:20Z</time>
      </trkpt>
      <trkpt lat="45.05858" lon="5.36286">
        <ele>433.193</ele>
        <time>2019-04-21T10:00:20Z</time>
      </trkpt>
      <trkpt lat="45.05858" lon="5.36286">
        <ele>432.345</ele>
        <time>2019-04-21T10:00:21Z</time>
      </trkpt>
      <trkpt lat="45.05858" lon="5.36286">
        <ele>434.943</ele>
        <time>2019-04-21T10:00:25Z</time>
      </trkpt>
      <trkpt lat="45.0586" lon="5.36287">
        <ele>435.659</ele>
        <time>2019-04-21T10:00:26Z</time>
      </trkpt>
      <trkpt lat="45.0586" lon="5.36292">
        <ele>437.106</ele>
        <time>2019-04-21T10:00:30Z</time>
      </trkpt>
      <trkpt lat="45.05859" lon="5.36302">
        <ele>438.692</ele>
        <time>2019-04-21T10:00:33Z</time>
      </trkpt>
      <trkpt lat="45.05859" lon="5.36306">
        <ele>438.236</ele>
        <time>2019-04-21T10:00:35Z</time>
      </trkpt>
      <trkpt lat="45.05861" lon="5.36299">
        <ele>438.936</ele>
        <time>2019-04-21T10:00:36Z</time>
      </trkpt>
      <trkpt lat="45.05861" lon="5.36299">
        <ele>438.849</ele>
        <time>2019-04-21T10:00:40Z</time>
      </trkpt>
      <trkpt lat="45.05862" lon="5.36294">
        <ele>438.948</ele>
        <time>2019-04-21T10:00:41Z</time>
      </trkpt>
      <trkpt lat="45.05861" lon="5.36288">
        <ele>439.184</ele>
        <time>2019-04-21T10:00:45Z</time>
      </trkpt>
      <trkpt lat="45.05861" lon="5.36288">
        <ele>439.328</ele>
        <time>2019-04-21T10:00:46Z</time>
      </trkpt>
      <trkpt lat="45.05861" lon="5.36288">
        <ele>438.339</ele>
        <time>2019-04-21T10:01:07Z</time>
      </trkpt>
      <trkpt lat="45.05859" lon="5.36287">
        <ele>438.214</ele>
        <time>2019-04-21T10:01:08Z</time>
      </trkpt>
      <trkpt lat="45.05858" lon="5.36287">
        <ele>437.025</ele>
        <time>2019-04-21T10:01:13Z</time>
      </trkpt>
      <trkpt lat="45.05858" lon="5.36288">
        <ele>437.372</ele>
        <time>2019-04-21T10:01:14Z</time>
      </trkpt>
      <trkpt lat="45.05857" lon="5.36289">
        <ele>437.642</ele>
        <time>2019-04-21T10:01:15Z</time>
      </trkpt>
      <trkpt lat="45.05854" lon="5.36291">
        <ele>435.956</ele>
        <time>2019-04-21T10:01:18Z</time>
      </trkpt>
      <trkpt lat="45.05852" lon="5.36292">
        <ele>436.162</ele>
        <time>2019-04-21T10:01:20Z</time>
      </trkpt>
      <trkpt lat="45.05849" lon="5.36295">
        <ele>437.454</ele>
        <time>2019-04-21T10:01:24Z</time>
      </trkpt>
      <trkpt lat="45.05849" lon="5.36295">
        <ele>437.775</ele>
        <time>2019-04-21T10:01:25Z</time>
      </trkpt>
      <trkpt lat="45.05849" lon="5.36294">
        <ele>437.208</ele>
        <time>2019-04-21T10:01:31Z</time>
      </trkpt>
      <trkpt lat="45.05849" lon="5.36294">
        <ele>437.113</ele>
        <time>2019-04-21T10:01:32Z</time>
      </trkpt>
      <trkpt lat="45.0585" lon="5.36294">
        <ele>437.394</ele>
        <time>2019-04-21T10:01:33Z</time>
      </trkpt>
      <trkpt lat="45.05851" lon="5.36295">
        <ele>437.709</ele>
        <time>2019-04-21T10:01:34Z</time>
      </trkpt>
      <trkpt lat="45.0585" lon="5.36299">
        <ele>437.059</ele>
        <time>2019-04-21T10:01:38Z</time>
      </trkpt>
      <trkpt lat="45.0585" lon="5.36298">
        <ele>436.413</ele>
        <time>2019-04-21T10:01:39Z</time>
      </trkpt>
      <trkpt lat="45.0585" lon="5.36298">
        <ele>436.212</ele>
        <time>2019-04-21T10:01:40Z</time>
      </trkpt>
      <trkpt lat="45.0585" lon="5.36298">
        <ele>436.212</ele>
        <time>2019-04-21T10:01:40Z</time>
      </trkpt>
      <trkpt lat="45.05849" lon="5.36295">
        <ele>436.406</ele>
        <time>2019-04-21T10:01:41Z</time>
      </trkpt>
      <trkpt lat="45.05848" lon="5.36292">
        <ele>437.005</ele>
        <time>2019-04-21T10:01:43Z</time>
      </trkpt>
      <trkpt lat="45.05849" lon="5.36288">
        <ele>437.56</ele>
        <time>2019-04-21T10:01:46Z</time>
      </trkpt>
      <trkpt lat="45.05849" lon="5.36289">
        <ele>437.928</ele>
        <time>2019-04-21T10:01:47Z</time>
      </trkpt>
      <trkpt lat="45.05849" lon="5.36289">
        <ele>437.928</ele>
        <time>2019-04-21T10:01:47Z</time>
      </trkpt>
      <trkpt lat="45.05849" lon="5.36289">
        <ele>438.205</ele>
        <time>2019-04-21T10:01:48Z</time>
      </trkpt>
      <trkpt lat="45.05845" lon="5.36292">
        <ele>434.262</ele>
        <time>2019-04-21T10:03:16Z</time>
      </trkpt>
      <trkpt lat="45.05845" lon="5.36292">
        <ele>431.725</ele>
        <time>2019-04-21T10:03:17Z</time>
      </trkpt>
      <trkpt lat="45.05842" lon="5.36296">
        <ele>431.859</ele>
        <time>2019-04-21T10:03:18Z</time>
      </trkpt>
      <trkpt lat="45.0584" lon="5.36301">
        <ele>431.795</ele>
        <time>2019-04-21T10:03:20Z</time>
      </trkpt>
      <trkpt lat="45.05839" lon="5.36305">
        <ele>432.56</ele>
        <time>2019-04-21T10:03:23Z</time>
      </trkpt>
      <trkpt lat="45.05838" lon="5.36307">
        <ele>432.785</ele>
        <time>2019-04-21T10:03:26Z</time>
      </trkpt>
      <trkpt lat="45.05838" lon="5.36307">
        <ele>432.785</ele>
        <time>2019-04-21T10:03:26Z</time>
      </trkpt>
      <trkpt lat="45.05837" lon="5.36308">
        <ele>433.645</ele>
        <time>2019-04-21T10:03:27Z</time>
      </trkpt>
      <trkpt lat="45.05837" lon="5.36311">
        <ele>435.47</ele>
        <time>2019-04-21T10:03:31Z</time>
      </trkpt>
      <trkpt lat="45.05836" lon="5.36317">
        <ele>435.9</ele>
        <time>2019-04-21T10:03:34Z</time>
      </trkpt>
      <trkpt lat="45.05831" lon="5.3632">
        <ele>435.215</ele>
        <time>2019-04-21T10:03:39Z</time>
      </trkpt>
      <trkpt lat="45.05831" lon="5.36321">
        <ele>434.861</ele>
        <time>2019-04-21T10:03:40Z</time>
      </trkpt>
      <trkpt lat="45.0583" lon="5.36323">
        <ele>434.144</ele>
        <time>2019-04-21T10:03:43Z</time>
      </trkpt>
      <trkpt lat="45.05829" lon="5.36324">
        <ele>432.811</ele>
        <time>2019-04-21T10:03:45Z</time>
      </trkpt>
      <trkpt lat="45.05828" lon="5.36327">
        <ele>431.626</ele>
        <time>2019-04-21T10:03:50Z</time>
      </trkpt>
      <trkpt lat="45.05828" lon="5.36327">
        <ele>431.837</ele>
        <time>2019-04-21T10:03:51Z</time>
      </trkpt>
      <trkpt lat="45.05823" lon="5.36334">
        <ele>431.943</ele>
        <time>2019-04-21T10:03:57Z</time>
      </trkpt>
      <trkpt lat="45.05817" lon="5.36347">
        <ele>434.101</ele>
        <time>2019-04-21T10:04:07Z</time>
      </trkpt>
      <trkpt lat="45.05812" lon="5.36356">
        <ele>434.711</ele>
        <time>2019-04-21T10:04:14Z</time>
      </trkpt>
      <trkpt lat="45.0581" lon="5.3636">
        <ele>435.087</ele>
        <time>2019-04-21T10:04:18Z</time>
      </trkpt>
      <trkpt lat="45.0581" lon="5.36362">
        <ele>434.842</ele>
        <time>2019-04-21T10:04:20Z</time>
      </trkpt>
      <trkpt lat="45.05811" lon="5.36366">
        <ele>434.1</ele>
        <time>2019-04-21T10:04:24Z</time>
      </trkpt>
      <trkpt lat="45.05811" lon="5.3637">
        <ele>433.032</ele>
        <time>2019-04-21T10:04:28Z</time>
      </trkpt>
      <trkpt lat="45.05809" lon="5.36383">
        <ele>435.055</ele>
        <time>2019-04-21T10:04:39Z</time>
      </trkpt>
      <trkpt lat="45.05808" lon="5.36385">
        <ele>434.993</ele>
        <time>2019-04-21T10:04:40Z</time>
      </trkpt>
      <trkpt lat="45.05807" lon="5.36388">
        <ele>435.163</ele>
        <time>2019-04-21T10:04:42Z</time>
      </trkpt>
      <trkpt lat="45.05804" lon="5.3639">
        <ele>435.755</ele>
        <time>2019-04-21T10:04:45Z</time>
      </trkpt>
      <trkpt lat="45.05799" lon="5.36396">
        <ele>435.821</ele>
        <time>2019-04-21T10:04:52Z</time>
      </trkpt>
      <trkpt lat="45.05797" lon="5.36396">
        <ele>435.734</ele>
        <time>2019-04-21T10:04:55Z</time>
      </trkpt>
      <trkpt lat="45.05795" lon="5.36397">
        <ele>436.005</ele>
        <time>2019-04-21T10:05:00Z</time>
      </trkpt>
      <trkpt lat="45.05792" lon="5.36402">
        <ele>436.791</ele>
        <time>2019-04-21T10:05:04Z</time>
      </trkpt>
      <trkpt lat="45.05788" lon="5.36403">
        <ele>436.862</ele>
        <time>2019-04-21T10:05:09Z</time>
      </trkpt>
      <trkpt lat="45.05782" lon="5.36399">
        <ele>437.505</ele>
        <time>2019-04-21T10:05:15Z</time>
      </trkpt>
      <trkpt lat="45.05782" lon="5.36399">
        <ele>437.403</ele>
        <time>2019-04-21T10:05:16Z</time>
      </trkpt>
      <trkpt lat="45.0578" lon="5.36398">
        <ele>437.145</ele>
        <time>2019-04-21T10:05:19Z</time>
      </trkpt>
      <trkpt lat="45.05779" lon="5.36398">
        <ele>437.725</ele>
        <time>2019-04-21T10:05:22Z</time>
      </trkpt>
      <trkpt lat="45.05779" lon="5.36396">
        <ele>437.335</ele>
        <time>2019-04-21T10:05:26Z</time>
      </trkpt>
      <trkpt lat="45.05778" lon="5.36396">
        <ele>437.472</ele>
        <time>2019-04-21T10:05:27Z</time>
      </trkpt>
      <trkpt lat="45.05775" lon="5.36396">
        <ele>437.844</ele>
        <time>2019-04-21T10:05:32Z</time>
      </trkpt>
      <trkpt lat="45.05772" lon="5.36393">
        <ele>437.782</ele>
        <time>2019-04-21T10:05:34Z</time>
      </trkpt>
      <trkpt lat="45.05769" lon="5.36394">
        <ele>438.634</ele>
        <time>2019-04-21T10:05:37Z</time>
      </trkpt>
      <trkpt lat="45.05766" lon="5.36393">
        <ele>438.201</ele>
        <time>2019-04-21T10:05:40Z</time>
      </trkpt>
      <trkpt lat="45.05765" lon="5.36392">
        <ele>438.142</ele>
        <time>2019-04-21T10:05:42Z</time>
      </trkpt>
      <trkpt lat="45.05764" lon="5.36396">
        <ele>438.484</ele>
        <time>2019-04-21T10:05:46Z</time>
      </trkpt>
      <trkpt lat="45.05761" lon="5.36395">
        <ele>438.682</ele>
        <time>2019-04-21T10:05:50Z</time>
      </trkpt>
      <trkpt lat="45.05757" lon="5.36389">
        <ele>439.769</ele>
        <time>2019-04-21T10:05:58Z</time>
      </trkpt>
      <trkpt lat="45.05755" lon="5.36387">
        <ele>439.605</ele>
        <time>2019-04-21T10:06:00Z</time>
      </trkpt>
      <trkpt lat="45.05753" lon="5.36387">
        <ele>439.562</ele>
        <time>2019-04-21T10:06:02Z</time>
      </trkpt>
      <trkpt lat="45.05753" lon="5.3639">
        <ele>440.526</ele>
        <time>2019-04-21T10:06:04Z</time>
      </trkpt>
      <trkpt lat="45.05752" lon="5.36392">
        <ele>440.512</ele>
        <time>2019-04-21T10:06:05Z</time>
      </trkpt>
      <trkpt lat="45.05749" lon="5.36393">
        <ele>440.992</ele>
        <time>2019-04-21T10:06:10Z</time>
      </trkpt>
      <trkpt lat="45.05746" lon="5.3639">
        <ele>441.984</ele>
        <time>2019-04-21T10:06:13Z</time>
      </trkpt>
      <trkpt lat="45.05744" lon="5.36386">
        <ele>442.142</ele>
        <time>2019-04-21T10:06:15Z</time>
      </trkpt>
      <trkpt lat="45.05741" lon="5.36388">
        <ele>443.662</ele>
        <time>2019-04-21T10:06:20Z</time>
      </trkpt>
      <trkpt lat="45.05739" lon="5.36391">
        <ele>444.161</ele>
        <time>2019-04-21T10:06:23Z</time>
      </trkpt>
      <trkpt lat="45.05736" lon="5.36391">
        <ele>443.99</ele>
        <time>2019-04-21T10:06:25Z</time>
      </trkpt>
      <trkpt lat="45.05731" lon="5.36391">
        <ele>444.391</ele>
        <time>2019-04-21T10:06:31Z</time>
      </trkpt>
      <trkpt lat="45.05728" lon="5.36393">
        <ele>444.824</ele>
        <time>2019-04-21T10:06:36Z</time>
      </trkpt>
      <trkpt lat="45.05725" lon="5.36392">
        <ele>444.965</ele>
        <time>2019-04-21T10:06:40Z</time>
      </trkpt>
      <trkpt lat="45.05724" lon="5.36389">
        <ele>445.693</ele>
        <time>2019-04-21T10:06:45Z</time>
      </trkpt>
      <trkpt lat="45.05722" lon="5.36387">
        <ele>446.769</ele>
        <time>2019-04-21T10:06:48Z</time>
      </trkpt>
      <trkpt lat="45.0572" lon="5.36387">
        <ele>447.831</ele>
        <time>2019-04-21T10:06:51Z</time>
      </trkpt>
      <trkpt lat="45.0572" lon="5.36388">
        <ele>449.078</ele>
        <time>2019-04-21T10:06:53Z</time>
      </trkpt>
      <trkpt lat="45.05721" lon="5.36393">
        <ele>449.943</ele>
        <time>2019-04-21T10:06:55Z</time>
      </trkpt>
      <trkpt lat="45.0572" lon="5.36398">
        <ele>450.498</ele>
        <time>2019-04-21T10:06:58Z</time>
      </trkpt>
      <trkpt lat="45.05717" lon="5.36395">
        <ele>451.063</ele>
        <time>2019-04-21T10:07:00Z</time>
      </trkpt>
      <trkpt lat="45.05715" lon="5.36393">
        <ele>454.352</ele>
        <time>2019-04-21T10:07:02Z</time>
      </trkpt>
      <trkpt lat="45.05708" lon="5.36386">
        <ele>456.887</ele>
        <time>2019-04-21T10:07:07Z</time>
      </trkpt>
      <trkpt lat="45.05706" lon="5.36382">
        <ele>457.203</ele>
        <time>2019-04-21T10:07:10Z</time>
      </trkpt>
      <trkpt lat="45.05706" lon="5.36382">
        <ele>457.333</ele>
        <time>2019-04-21T10:07:11Z</time>
      </trkpt>
      <trkpt lat="45.05706" lon="5.36382">
        <ele>456.642</ele>
        <time>2019-04-21T10:07:13Z</time>
      </trkpt>
      <trkpt lat="45.05708" lon="5.36385">
        <ele>455.938</ele>
        <time>2019-04-21T10:07:14Z</time>
      </trkpt>
      <trkpt lat="45.05708" lon="5.36385">
        <ele>455.938</ele>
        <time>2019-04-21T10:07:14Z</time>
      </trkpt>
      <trkpt lat="45.05707" lon="5.36385">
        <ele>456.037</ele>
        <time>2019-04-21T10:07:15Z</time>
      </trkpt>
      <trkpt lat="45.05706" lon="5.36383">
        <ele>456.811</ele>
        <time>2019-04-21T10:07:18Z</time>
      </trkpt>
      <trkpt lat="45.05705" lon="5.36382">
        <ele>457.546</ele>
        <time>2019-04-21T10:07:20Z</time>
      </trkpt>
      <trkpt lat="45.05702" lon="5.36382">
        <ele>457.637</ele>
        <time>2019-04-21T10:07:23Z</time>
      </trkpt>
      <trkpt lat="45.057" lon="5.36379">
        <ele>456.083</ele>
        <time>2019-04-21T10:07:26Z</time>
      </trkpt>
      <trkpt lat="45.05697" lon="5.36377">
        <ele>456.007</ele>
        <time>2019-04-21T10:07:29Z</time>
      </trkpt>
      <trkpt lat="45.05696" lon="5.36379">
        <ele>457.123</ele>
        <time>2019-04-21T10:07:32Z</time>
      </trkpt>
      <trkpt lat="45.05694" lon="5.3638">
        <ele>457.511</ele>
        <time>2019-04-21T10:07:35Z</time>
      </trkpt>
      <trkpt lat="45.0569" lon="5.36381">
        <ele>458.287</ele>
        <time>2019-04-21T10:07:40Z</time>
      </trkpt>
      <trkpt lat="45.05688" lon="5.36385">
        <ele>458.985</ele>
        <time>2019-04-21T10:07:45Z</time>
      </trkpt>
      <trkpt lat="45.05688" lon="5.36385">
        <ele>458.985</ele>
        <time>2019-04-21T10:07:45Z</time>
      </trkpt>
      <trkpt lat="45.05688" lon="5.36385">
        <ele>458.544</ele>
        <time>2019-04-21T10:07:46Z</time>
      </trkpt>
      <trkpt lat="45.05685" lon="5.36383">
        <ele>458.803</ele>
        <time>2019-04-21T10:07:50Z</time>
      </trkpt>
      <trkpt lat="45.05681" lon="5.36378">
        <ele>459.116</ele>
        <time>2019-04-21T10:07:55Z</time>
      </trkpt>
      <trkpt lat="45.05681" lon="5.3638">
        <ele>459.369</ele>
        <time>2019-04-21T10:07:57Z</time>
      </trkpt>
      <trkpt lat="45.05681" lon="5.3638">
        <ele>459.369</ele>
        <time>2019-04-21T10:07:57Z</time>
      </trkpt>
      <trkpt lat="45.0568" lon="5.3638">
        <ele>459.784</ele>
        <time>2019-04-21T10:07:58Z</time>
      </trkpt>
      <trkpt lat="45.05674" lon="5.36385">
        <ele>460.852</ele>
        <time>2019-04-21T10:08:02Z</time>
      </trkpt>
      <trkpt lat="45.05674" lon="5.36385">
        <ele>460.733</ele>
        <time>2019-04-21T10:08:03Z</time>
      </trkpt>
      <trkpt lat="45.05672" lon="5.36383">
        <ele>460.757</ele>
        <time>2019-04-21T10:08:05Z</time>
      </trkpt>
      <trkpt lat="45.0567" lon="5.36378">
        <ele>461.339</ele>
        <time>2019-04-21T10:08:08Z</time>
      </trkpt>
      <trkpt lat="45.05668" lon="5.36375">
        <ele>461.389</ele>
        <time>2019-04-21T10:08:10Z</time>
      </trkpt>
      <trkpt lat="45.05668" lon="5.36375">
        <ele>461.406</ele>
        <time>2019-04-21T10:08:11Z</time>
      </trkpt>
      <trkpt lat="45.05668" lon="5.36375">
        <ele>460.828</ele>
        <time>2019-04-21T10:08:16Z</time>
      </trkpt>
      <trkpt lat="45.05668" lon="5.3637">
        <ele>460.657</ele>
        <time>2019-04-21T10:08:17Z</time>
      </trkpt>
      <trkpt lat="45.05669" lon="5.36368">
        <ele>460.768</ele>
        <time>2019-04-21T10:08:19Z</time>
      </trkpt>
      <trkpt lat="45.05666" lon="5.36369">
        <ele>463.294</ele>
        <time>2019-04-21T10:08:24Z</time>
      </trkpt>
      <trkpt lat="45.05663" lon="5.36375">
        <ele>465.81</ele>
        <time>2019-04-21T10:08:28Z</time>
      </trkpt>
      <trkpt lat="45.05662" lon="5.36376">
        <ele>466.268</ele>
        <time>2019-04-21T10:08:30Z</time>
      </trkpt>
      <trkpt lat="45.0566" lon="5.36376">
        <ele>465.707</ele>
        <time>2019-04-21T10:08:33Z</time>
      </trkpt>
      <trkpt lat="45.05659" lon="5.36376">
        <ele>467.517</ele>
        <time>2019-04-21T10:08:34Z</time>
      </trkpt>
      <trkpt lat="45.05655" lon="5.36377">
        <ele>468.668</ele>
        <time>2019-04-21T10:08:37Z</time>
      </trkpt>
      <trkpt lat="45.05654" lon="5.36378">
        <ele>469.829</ele>
        <time>2019-04-21T10:08:40Z</time>
      </trkpt>
      <trkpt lat="45.05655" lon="5.36378">
        <ele>469.158</ele>
        <time>2019-04-21T10:08:41Z</time>
      </trkpt>
      <trkpt lat="45.05658" lon="5.36378">
        <ele>468.082</ele>
        <time>2019-04-21T10:08:43Z</time>
      </trkpt>
      <trkpt lat="45.05659" lon="5.36376">
        <ele>469.171</ele>
        <time>2019-04-21T10:08:45Z</time>
      </trkpt>
      <trkpt lat="45.05659" lon="5.36376">
        <ele>469.105</ele>
        <time>2019-04-21T10:08:46Z</time>
      </trkpt>
      <trkpt lat="45.05659" lon="5.36376">
        <ele>469.105</ele>
        <time>2019-04-21T10:08:46Z</time>
      </trkpt>
      <trkpt lat="45.05659" lon="5.36376">
        <ele>468.075</ele>
        <time>2019-04-21T10:08:47Z</time>
      </trkpt>
      <trkpt lat="45.05659" lon="5.36376">
        <ele>468.075</ele>
        <time>2019-04-21T10:08:47Z</time>
      </trkpt>
      <trkpt lat="45.05658" lon="5.36376">
        <ele>466.592</ele>
        <time>2019-04-21T10:08:48Z</time>
      </trkpt>
      <trkpt lat="45.05658" lon="5.36377">
        <ele>470.118</ele>
        <time>2019-04-21T10:08:49Z</time>
      </trkpt>
      <trkpt lat="45.05658" lon="5.36377">
        <ele>471.115</ele>
        <time>2019-04-21T10:08:50Z</time>
      </trkpt>
      <trkpt lat="45.05656" lon="5.36376">
        <ele>471.224</ele>
        <time>2019-04-21T10:08:51Z</time>
      </trkpt>
      <trkpt lat="45.05653" lon="5.36378">
        <ele>471.077</ele>
        <time>2019-04-21T10:08:54Z</time>
      </trkpt>
      <trkpt lat="45.05652" lon="5.36378">
        <ele>470.505</ele>
        <time>2019-04-21T10:08:55Z</time>
      </trkpt>
      <trkpt lat="45.05649" lon="5.36376">
        <ele>471.106</ele>
        <time>2019-04-21T10:08:57Z</time>
      </trkpt>
      <trkpt lat="45.05646" lon="5.36373">
        <ele>471.347</ele>
        <time>2019-04-21T10:09:00Z</time>
      </trkpt>
      <trkpt lat="45.05645" lon="5.36368">
        <ele>470.146</ele>
        <time>2019-04-21T10:09:03Z</time>
      </trkpt>
      <trkpt lat="45.05644" lon="5.3636">
        <ele>468.973</ele>
        <time>2019-04-21T10:09:08Z</time>
      </trkpt>
      <trkpt lat="45.05642" lon="5.36363">
        <ele>478.35</ele>
        <time>2019-04-21T10:09:12Z</time>
      </trkpt>
      <trkpt lat="45.05642" lon="5.36364">
        <ele>477.53</ele>
        <time>2019-04-21T10:09:13Z</time>
      </trkpt>
      <trkpt lat="45.05642" lon="5.36364">
        <ele>477.53</ele>
        <time>2019-04-21T10:09:13Z</time>
      </trkpt>
      <trkpt lat="45.05641" lon="5.36365">
        <ele>477.241</ele>
        <time>2019-04-21T10:09:14Z</time>
      </trkpt>
      <trkpt lat="45.05641" lon="5.36367">
        <ele>476.25</ele>
        <time>2019-04-21T10:09:15Z</time>
      </trkpt>
      <trkpt lat="45.05641" lon="5.36368">
        <ele>474.704</ele>
        <time>2019-04-21T10:09:16Z</time>
      </trkpt>
      <trkpt lat="45.05639" lon="5.36369">
        <ele>474.398</ele>
        <time>2019-04-21T10:09:18Z</time>
      </trkpt>
      <trkpt lat="45.05636" lon="5.36371">
        <ele>474.856</ele>
        <time>2019-04-21T10:09:20Z</time>
      </trkpt>
      <trkpt lat="45.05635" lon="5.36372">
        <ele>475.482</ele>
        <time>2019-04-21T10:09:23Z</time>
      </trkpt>
      <trkpt lat="45.05634" lon="5.36373">
        <ele>474.919</ele>
        <time>2019-04-21T10:09:25Z</time>
      </trkpt>
      <trkpt lat="45.05631" lon="5.36371">
        <ele>475.17</ele>
        <time>2019-04-21T10:09:28Z</time>
      </trkpt>
      <trkpt lat="45.0563" lon="5.36369">
        <ele>474.882</ele>
        <time>2019-04-21T10:09:30Z</time>
      </trkpt>
      <trkpt lat="45.0563" lon="5.36369">
        <ele>475.775</ele>
        <time>2019-04-21T10:09:31Z</time>
      </trkpt>
      <trkpt lat="45.05628" lon="5.36367">
        <ele>477.408</ele>
        <time>2019-04-21T10:09:34Z</time>
      </trkpt>
      <trkpt lat="45.05625" lon="5.36368">
        <ele>476.935</ele>
        <time>2019-04-21T10:09:37Z</time>
      </trkpt>
      <trkpt lat="45.05624" lon="5.36369">
        <ele>476.834</ele>
        <time>2019-04-21T10:09:38Z</time>
      </trkpt>
      <trkpt lat="45.05624" lon="5.36369">
        <ele>476.834</ele>
        <time>2019-04-21T10:09:38Z</time>
      </trkpt>
      <trkpt lat="45.05623" lon="5.3637">
        <ele>477.524</ele>
        <time>2019-04-21T10:09:39Z</time>
      </trkpt>
      <trkpt lat="45.05623" lon="5.36371">
        <ele>477.456</ele>
        <time>2019-04-21T10:09:40Z</time>
      </trkpt>
      <trkpt lat="45.05621" lon="5.36373">
        <ele>476.478</ele>
        <time>2019-04-21T10:09:43Z</time>
      </trkpt>
      <trkpt lat="45.0562" lon="5.36374">
        <ele>475.678</ele>
        <time>2019-04-21T10:09:44Z</time>
      </trkpt>
      <trkpt lat="45.05616" lon="5.36376">
        <ele>473.881</ele>
        <time>2019-04-21T10:09:50Z</time>
      </trkpt>
      <trkpt lat="45.05613" lon="5.36375">
        <ele>474.214</ele>
        <time>2019-04-21T10:09:55Z</time>
      </trkpt>
      <trkpt lat="45.05612" lon="5.36375">
        <ele>475.105</ele>
        <time>2019-04-21T10:09:56Z</time>
      </trkpt>
      <trkpt lat="45.05607" lon="5.36377">
        <ele>477.216</ele>
        <time>2019-04-21T10:10:03Z</time>
      </trkpt>
      <trkpt lat="45.05607" lon="5.36377">
        <ele>477.504</ele>
        <time>2019-04-21T10:10:04Z</time>
      </trkpt>
      <trkpt lat="45.05607" lon="5.36377">
        <ele>477.854</ele>
        <time>2019-04-21T10:10:05Z</time>
      </trkpt>
      <trkpt lat="45.05605" lon="5.36379">
        <ele>479.109</ele>
        <time>2019-04-21T10:10:08Z</time>
      </trkpt>
      <trkpt lat="45.05604" lon="5.36381">
        <ele>479.508</ele>
        <time>2019-04-21T10:10:11Z</time>
      </trkpt>
      <trkpt lat="45.05603" lon="5.36383">
        <ele>479.552</ele>
        <time>2019-04-21T10:10:14Z</time>
      </trkpt>
      <trkpt lat="45.056" lon="5.36384">
        <ele>478.673</ele>
        <time>2019-04-21T10:10:17Z</time>
      </trkpt>
      <trkpt lat="45.05596" lon="5.36386">
        <ele>478.969</ele>
        <time>2019-04-21T10:10:21Z</time>
      </trkpt>
      <trkpt lat="45.05593" lon="5.36389">
        <ele>478.848</ele>
        <time>2019-04-21T10:10:25Z</time>
      </trkpt>
      <trkpt lat="45.05589" lon="5.3639">
        <ele>478.841</ele>
        <time>2019-04-21T10:10:30Z</time>
      </trkpt>
      <trkpt lat="45.05589" lon="5.3639">
        <ele>478.841</ele>
        <time>2019-04-21T10:10:30Z</time>
      </trkpt>
      <trkpt lat="45.05589" lon="5.36391">
        <ele>478.662</ele>
        <time>2019-04-21T10:10:31Z</time>
      </trkpt>
      <trkpt lat="45.05589" lon="5.36395">
        <ele>478.165</ele>
        <time>2019-04-21T10:10:33Z</time>
      </trkpt>
      <trkpt lat="45.0559" lon="5.36397">
        <ele>477.824</ele>
        <time>2019-04-21T10:10:35Z</time>
      </trkpt>
      <trkpt lat="45.05588" lon="5.36393">
        <ele>478.855</ele>
        <time>2019-04-21T10:10:38Z</time>
      </trkpt>
      <trkpt lat="45.05588" lon="5.36393">
        <ele>478.386</ele>
        <time>2019-04-21T10:10:39Z</time>
      </trkpt>
      <trkpt lat="45.05588" lon="5.36393">
        <ele>476.563</ele>
        <time>2019-04-21T10:11:08Z</time>
      </trkpt>
      <trkpt lat="45.05586" lon="5.3639">
        <ele>476.497</ele>
        <time>2019-04-21T10:11:09Z</time>
      </trkpt>
      <trkpt lat="45.05584" lon="5.36393">
        <ele>478.777</ele>
        <time>2019-04-21T10:11:11Z</time>
      </trkpt>
      <trkpt lat="45.05581" lon="5.36394">
        <ele>479.215</ele>
        <time>2019-04-21T10:11:15Z</time>
      </trkpt>
      <trkpt lat="45.05578" lon="5.36397">
        <ele>480.793</ele>
        <time>2019-04-21T10:11:18Z</time>
      </trkpt>
      <trkpt lat="45.05577" lon="5.36401">
        <ele>481.329</ele>
        <time>2019-04-21T10:11:20Z</time>
      </trkpt>
      <trkpt lat="45.05575" lon="5.36403">
        <ele>482.043</ele>
        <time>2019-04-21T10:11:23Z</time>
      </trkpt>
      <trkpt lat="45.05571" lon="5.36401">
        <ele>482.408</ele>
        <time>2019-04-21T10:11:28Z</time>
      </trkpt>
      <trkpt lat="45.05565" lon="5.36394">
        <ele>482.636</ele>
        <time>2019-04-21T10:11:33Z</time>
      </trkpt>
      <trkpt lat="45.05564" lon="5.36392">
        <ele>481.752</ele>
        <time>2019-04-21T10:11:35Z</time>
      </trkpt>
      <trkpt lat="45.05561" lon="5.36388">
        <ele>484.125</ele>
        <time>2019-04-21T10:11:39Z</time>
      </trkpt>
      <trkpt lat="45.05559" lon="5.36386">
        <ele>484.919</ele>
        <time>2019-04-21T10:11:42Z</time>
      </trkpt>
      <trkpt lat="45.05558" lon="5.36386">
        <ele>485.008</ele>
        <time>2019-04-21T10:11:43Z</time>
      </trkpt>
      <trkpt lat="45.05556" lon="5.36382">
        <ele>483.971</ele>
        <time>2019-04-21T10:11:49Z</time>
      </trkpt>
      <trkpt lat="45.05555" lon="5.3638">
        <ele>485.84</ele>
        <time>2019-04-21T10:11:51Z</time>
      </trkpt>
      <trkpt lat="45.05553" lon="5.36378">
        <ele>486.646</ele>
        <time>2019-04-21T10:11:53Z</time>
      </trkpt>
      <trkpt lat="45.05551" lon="5.36377">
        <ele>486.188</ele>
        <time>2019-04-21T10:11:55Z</time>
      </trkpt>
      <trkpt lat="45.05551" lon="5.36381">
        <ele>485.212</ele>
        <time>2019-04-21T10:11:58Z</time>
      </trkpt>
      <trkpt lat="45.05551" lon="5.36385">
        <ele>484.563</ele>
        <time>2019-04-21T10:12:00Z</time>
      </trkpt>
      <trkpt lat="45.05551" lon="5.36387">
        <ele>483.144</ele>
        <time>2019-04-21T10:12:02Z</time>
      </trkpt>
      <trkpt lat="45.05551" lon="5.36389">
        <ele>485.003</ele>
        <time>2019-04-21T10:12:03Z</time>
      </trkpt>
      <trkpt lat="45.05548" lon="5.36389">
        <ele>485.494</ele>
        <time>2019-04-21T10:12:06Z</time>
      </trkpt>
      <trkpt lat="45.05541" lon="5.36389">
        <ele>486.099</ele>
        <time>2019-04-21T10:12:13Z</time>
      </trkpt>
      <trkpt lat="45.05538" lon="5.36391">
        <ele>486.156</ele>
        <time>2019-04-21T10:12:16Z</time>
      </trkpt>
      <trkpt lat="45.05535" lon="5.36394">
        <ele>486.059</ele>
        <time>2019-04-21T10:12:20Z</time>
      </trkpt>
      <trkpt lat="45.05531" lon="5.36396">
        <ele>486.742</ele>
        <time>2019-04-21T10:12:24Z</time>
      </trkpt>
      <trkpt lat="45.0553" lon="5.36396">
        <ele>487.169</ele>
        <time>2019-04-21T10:12:25Z</time>
      </trkpt>
      <trkpt lat="45.05525" lon="5.36395">
        <ele>488.261</ele>
        <time>2019-04-21T10:12:30Z</time>
      </trkpt>
      <trkpt lat="45.05524" lon="5.36396">
        <ele>489.134</ele>
        <time>2019-04-21T10:12:32Z</time>
      </trkpt>
      <trkpt lat="45.05523" lon="5.36395">
        <ele>489.432</ele>
        <time>2019-04-21T10:12:33Z</time>
      </trkpt>
      <trkpt lat="45.05523" lon="5.36395">
        <ele>489.432</ele>
        <time>2019-04-21T10:12:33Z</time>
      </trkpt>
      <trkpt lat="45.05523" lon="5.36395">
        <ele>489.704</ele>
        <time>2019-04-21T10:12:34Z</time>
      </trkpt>
      <trkpt lat="45.05523" lon="5.36395">
        <ele>489.904</ele>
        <time>2019-04-21T10:12:36Z</time>
      </trkpt>
      <trkpt lat="45.05522" lon="5.36394">
        <ele>489.778</ele>
        <time>2019-04-21T10:12:37Z</time>
      </trkpt>
      <trkpt lat="45.05521" lon="5.36393">
        <ele>489.74</ele>
        <time>2019-04-21T10:12:38Z</time>
      </trkpt>
      <trkpt lat="45.0552" lon="5.36394">
        <ele>490.557</ele>
        <time>2019-04-21T10:12:40Z</time>
      </trkpt>
      <trkpt lat="45.0552" lon="5.36395">
        <ele>490.75</ele>
        <time>2019-04-21T10:12:41Z</time>
      </trkpt>
      <trkpt lat="45.0552" lon="5.36395">
        <ele>490.97</ele>
        <time>2019-04-21T10:12:42Z</time>
      </trkpt>
      <trkpt lat="45.05517" lon="5.36397">
        <ele>491.467</ele>
        <time>2019-04-21T10:12:46Z</time>
      </trkpt>
      <trkpt lat="45.05516" lon="5.36398">
        <ele>491.951</ele>
        <time>2019-04-21T10:12:49Z</time>
      </trkpt>
      <trkpt lat="45.05511" lon="5.36401">
        <ele>491.901</ele>
        <time>2019-04-21T10:12:55Z</time>
      </trkpt>
      <trkpt lat="45.05509" lon="5.36398">
        <ele>492.13</ele>
        <time>2019-04-21T10:12:57Z</time>
      </trkpt>
      <trkpt lat="45.05506" lon="5.36396">
        <ele>492.919</ele>
        <time>2019-04-21T10:13:00Z</time>
      </trkpt>
      <trkpt lat="45.05503" lon="5.36395">
        <ele>492.66</ele>
        <time>2019-04-21T10:13:04Z</time>
      </trkpt>
      <trkpt lat="45.05502" lon="5.36395">
        <ele>492.928</ele>
        <time>2019-04-21T10:13:05Z</time>
      </trkpt>
      <trkpt lat="45.05499" lon="5.36397">
        <ele>493.546</ele>
        <time>2019-04-21T10:13:09Z</time>
      </trkpt>
      <trkpt lat="45.055" lon="5.36402">
        <ele>494.047</ele>
        <time>2019-04-21T10:13:11Z</time>
      </trkpt>
      <trkpt lat="45.05497" lon="5.36405">
        <ele>493.733</ele>
        <time>2019-04-21T10:13:15Z</time>
      </trkpt>
      <trkpt lat="45.05496" lon="5.36405">
        <ele>493.827</ele>
        <time>2019-04-21T10:13:18Z</time>
      </trkpt>
      <trkpt lat="45.05496" lon="5.36405">
        <ele>494.723</ele>
        <time>2019-04-21T10:13:23Z</time>
      </trkpt>
      <trkpt lat="45.05493" lon="5.36403">
        <ele>495.028</ele>
        <time>2019-04-21T10:13:24Z</time>
      </trkpt>
      <trkpt lat="45.05492" lon="5.36403">
        <ele>494.986</ele>
        <time>2019-04-21T10:13:25Z</time>
      </trkpt>
      <trkpt lat="45.05489" lon="5.36402">
        <ele>494.749</ele>
        <time>2019-04-21T10:13:29Z</time>
      </trkpt>
      <trkpt lat="45.05482" lon="5.36399">
        <ele>495.281</ele>
        <time>2019-04-21T10:13:41Z</time>
      </trkpt>
      <trkpt lat="45.05479" lon="5.36399">
        <ele>495.61</ele>
        <time>2019-04-21T10:13:44Z</time>
      </trkpt>
      <trkpt lat="45.05479" lon="5.36404">
        <ele>496.465</ele>
        <time>2019-04-21T10:13:46Z</time>
      </trkpt>
      <trkpt lat="45.05478" lon="5.36409">
        <ele>496.213</ele>
        <time>2019-04-21T10:13:49Z</time>
      </trkpt>
      <trkpt lat="45.05478" lon="5.36413">
        <ele>496.968</ele>
        <time>2019-04-21T10:13:52Z</time>
      </trkpt>
      <trkpt lat="45.05478" lon="5.36414">
        <ele>497.161</ele>
        <time>2019-04-21T10:13:54Z</time>
      </trkpt>
      <trkpt lat="45.05478" lon="5.36414">
        <ele>497.161</ele>
        <time>2019-04-21T10:13:54Z</time>
      </trkpt>
      <trkpt lat="45.05477" lon="5.36413">
        <ele>497.376</ele>
        <time>2019-04-21T10:13:55Z</time>
      </trkpt>
      <trkpt lat="45.05477" lon="5.36414">
        <ele>497.147</ele>
        <time>2019-04-21T10:13:56Z</time>
      </trkpt>
      <trkpt lat="45.05477" lon="5.36413">
        <ele>496.845</ele>
        <time>2019-04-21T10:13:57Z</time>
      </trkpt>
      <trkpt lat="45.05477" lon="5.36413">
        <ele>496.89</ele>
        <time>2019-04-21T10:13:58Z</time>
      </trkpt>
      <trkpt lat="45.05477" lon="5.36413">
        <ele>495.913</ele>
        <time>2019-04-21T10:14:07Z</time>
      </trkpt>
      <trkpt lat="45.05476" lon="5.36411">
        <ele>495.937</ele>
        <time>2019-04-21T10:14:08Z</time>
      </trkpt>
      <trkpt lat="45.05475" lon="5.36412">
        <ele>497.094</ele>
        <time>2019-04-21T10:14:11Z</time>
      </trkpt>
      <trkpt lat="45.05473" lon="5.36411">
        <ele>498.652</ele>
        <time>2019-04-21T10:14:14Z</time>
      </trkpt>
      <trkpt lat="45.05472" lon="5.36409">
        <ele>500.098</ele>
        <time>2019-04-21T10:14:16Z</time>
      </trkpt>
      <trkpt lat="45.05471" lon="5.36407">
        <ele>502.398</ele>
        <time>2019-04-21T10:14:18Z</time>
      </trkpt>
      <trkpt lat="45.05471" lon="5.36407">
        <ele>503.1</ele>
        <time>2019-04-21T10:14:19Z</time>
      </trkpt>
      <trkpt lat="45.05471" lon="5.36407">
        <ele>503.1</ele>
        <time>2019-04-21T10:14:19Z</time>
      </trkpt>
      <trkpt lat="45.05471" lon="5.36407">
        <ele>502.021</ele>
        <time>2019-04-21T10:14:20Z</time>
      </trkpt>
      <trkpt lat="45.05471" lon="5.36407">
        <ele>502.566</ele>
        <time>2019-04-21T10:14:21Z</time>
      </trkpt>
      <trkpt lat="45.05471" lon="5.36407">
        <ele>499.483</ele>
        <time>2019-04-21T10:14:51Z</time>
      </trkpt>
      <trkpt lat="45.0547" lon="5.36407">
        <ele>499.693</ele>
        <time>2019-04-21T10:14:52Z</time>
      </trkpt>
      <trkpt lat="45.0547" lon="5.36406">
        <ele>500.606</ele>
        <time>2019-04-21T10:14:53Z</time>
      </trkpt>
      <trkpt lat="45.05469" lon="5.36406">
        <ele>501.599</ele>
        <time>2019-04-21T10:14:54Z</time>
      </trkpt>
      <trkpt lat="45.05467" lon="5.36408">
        <ele>502.918</ele>
        <time>2019-04-21T10:14:56Z</time>
      </trkpt>
      <trkpt lat="45.05465" lon="5.36409">
        <ele>503.73</ele>
        <time>2019-04-21T10:14:57Z</time>
      </trkpt>
      <trkpt lat="45.05458" lon="5.36414">
        <ele>504.763</ele>
        <time>2019-04-21T10:15:01Z</time>
      </trkpt>
      <trkpt lat="45.05455" lon="5.36417">
        <ele>505.67</ele>
        <time>2019-04-21T10:15:09Z</time>
      </trkpt>
      <trkpt lat="45.05454" lon="5.36417">
        <ele>505.033</ele>
        <time>2019-04-21T10:15:11Z</time>
      </trkpt>
      <trkpt lat="45.05454" lon="5.36416">
        <ele>505.544</ele>
        <time>2019-04-21T10:15:12Z</time>
      </trkpt>
      <trkpt lat="45.05453" lon="5.36415">
        <ele>505.731</ele>
        <time>2019-04-21T10:15:13Z</time>
      </trkpt>
      <trkpt lat="45.05453" lon="5.36412">
        <ele>506.405</ele>
        <time>2019-04-21T10:15:15Z</time>
      </trkpt>
      <trkpt lat="45.05453" lon="5.36412">
        <ele>507.144</ele>
        <time>2019-04-21T10:15:16Z</time>
      </trkpt>
      <trkpt lat="45.05453" lon="5.36412">
        <ele>506.512</ele>
        <time>2019-04-21T10:15:18Z</time>
      </trkpt>
      <trkpt lat="45.05453" lon="5.36409">
        <ele>506.094</ele>
        <time>2019-04-21T10:15:19Z</time>
      </trkpt>
      <trkpt lat="45.05453" lon="5.36408">
        <ele>505.617</ele>
        <time>2019-04-21T10:15:20Z</time>
      </trkpt>
      <trkpt lat="45.05452" lon="5.36408">
        <ele>505.515</ele>
        <time>2019-04-21T10:15:21Z</time>
      </trkpt>
      <trkpt lat="45.0545" lon="5.36409">
        <ele>507.217</ele>
        <time>2019-04-21T10:15:26Z</time>
      </trkpt>
      <trkpt lat="45.05448" lon="5.36412">
        <ele>509.043</ele>
        <time>2019-04-21T10:15:30Z</time>
      </trkpt>
      <trkpt lat="45.05445" lon="5.36413">
        <ele>510.291</ele>
        <time>2019-04-21T10:15:33Z</time>
      </trkpt>
      <trkpt lat="45.05445" lon="5.36413">
        <ele>510.503</ele>
        <time>2019-04-21T10:15:34Z</time>
      </trkpt>
      <trkpt lat="45.05444" lon="5.36417">
        <ele>510.691</ele>
        <time>2019-04-21T10:15:36Z</time>
      </trkpt>
      <trkpt lat="45.05442" lon="5.36424">
        <ele>511.218</ele>
        <time>2019-04-21T10:15:39Z</time>
      </trkpt>
      <trkpt lat="45.05442" lon="5.36424">
        <ele>510.961</ele>
        <time>2019-04-21T10:15:40Z</time>
      </trkpt>
      <trkpt lat="45.05442" lon="5.36424">
        <ele>510.961</ele>
        <time>2019-04-21T10:15:40Z</time>
      </trkpt>
      <trkpt lat="45.05441" lon="5.36425">
        <ele>511.305</ele>
        <time>2019-04-21T10:15:41Z</time>
      </trkpt>
      <trkpt lat="45.0544" lon="5.36424">
        <ele>510.347</ele>
        <time>2019-04-21T10:15:42Z</time>
      </trkpt>
      <trkpt lat="45.05435" lon="5.36425">
        <ele>512.108</ele>
        <time>2019-04-21T10:15:46Z</time>
      </trkpt>
      <trkpt lat="45.05434" lon="5.36429">
        <ele>512.283</ele>
        <time>2019-04-21T10:15:49Z</time>
      </trkpt>
      <trkpt lat="45.05433" lon="5.36431">
        <ele>512.304</ele>
        <time>2019-04-21T10:15:51Z</time>
      </trkpt>
      <trkpt lat="45.05433" lon="5.36432">
        <ele>513.055</ele>
        <time>2019-04-21T10:15:54Z</time>
      </trkpt>
      <trkpt lat="45.05433" lon="5.36432">
        <ele>512.87</ele>
        <time>2019-04-21T10:15:57Z</time>
      </trkpt>
      <trkpt lat="45.05435" lon="5.36433">
        <ele>512.439</ele>
        <time>2019-04-21T10:15:58Z</time>
      </trkpt>
      <trkpt lat="45.05434" lon="5.36434">
        <ele>512.198</ele>
        <time>2019-04-21T10:15:59Z</time>
      </trkpt>
      <trkpt lat="45.05433" lon="5.36434">
        <ele>512.283</ele>
        <time>2019-04-21T10:16:00Z</time>
      </trkpt>
      <trkpt lat="45.05431" lon="5.36437">
        <ele>512.617</ele>
        <time>2019-04-21T10:16:04Z</time>
      </trkpt>
      <trkpt lat="45.0543" lon="5.36439">
        <ele>513.288</ele>
        <time>2019-04-21T10:16:06Z</time>
      </trkpt>
      <trkpt lat="45.0543" lon="5.3644">
        <ele>513.708</ele>
        <time>2019-04-21T10:16:07Z</time>
      </trkpt>
      <trkpt lat="45.05426" lon="5.36443">
        <ele>514.244</ele>
        <time>2019-04-21T10:16:14Z</time>
      </trkpt>
      <trkpt lat="45.05424" lon="5.36444">
        <ele>513.959</ele>
        <time>2019-04-21T10:16:16Z</time>
      </trkpt>
      <trkpt lat="45.05418" lon="5.36452">
        <ele>513.821</ele>
        <time>2019-04-21T10:16:25Z</time>
      </trkpt>
      <trkpt lat="45.05418" lon="5.36452">
        <ele>513.288</ele>
        <time>2019-04-21T10:16:26Z</time>
      </trkpt>
      <trkpt lat="45.05418" lon="5.36453">
        <ele>513.464</ele>
        <time>2019-04-21T10:16:30Z</time>
      </trkpt>
      <trkpt lat="45.05418" lon="5.36453">
        <ele>513.464</ele>
        <time>2019-04-21T10:16:30Z</time>
      </trkpt>
      <trkpt lat="45.05418" lon="5.36452">
        <ele>515.338</ele>
        <time>2019-04-21T10:16:31Z</time>
      </trkpt>
      <trkpt lat="45.05418" lon="5.36452">
        <ele>514.783</ele>
        <time>2019-04-21T10:16:32Z</time>
      </trkpt>
      <trkpt lat="45.05418" lon="5.36452">
        <ele>515.665</ele>
        <time>2019-04-21T10:16:33Z</time>
      </trkpt>
      <trkpt lat="45.05418" lon="5.36452">
        <ele>514.771</ele>
        <time>2019-04-21T10:16:44Z</time>
      </trkpt>
      <trkpt lat="45.05418" lon="5.36453">
        <ele>513.927</ele>
        <time>2019-04-21T10:16:45Z</time>
      </trkpt>
      <trkpt lat="45.05418" lon="5.36454">
        <ele>514.327</ele>
        <time>2019-04-21T10:16:46Z</time>
      </trkpt>
      <trkpt lat="45.05414" lon="5.3646">
        <ele>516.439</ele>
        <time>2019-04-21T10:16:52Z</time>
      </trkpt>
      <trkpt lat="45.05411" lon="5.36461">
        <ele>518.621</ele>
        <time>2019-04-21T10:16:54Z</time>
      </trkpt>
      <trkpt lat="45.05408" lon="5.3646">
        <ele>520.842</ele>
        <time>2019-04-21T10:16:56Z</time>
      </trkpt>
      <trkpt lat="45.05407" lon="5.36461">
        <ele>521.944</ele>
        <time>2019-04-21T10:16:58Z</time>
      </trkpt>
      <trkpt lat="45.05407" lon="5.36461">
        <ele>520.825</ele>
        <time>2019-04-21T10:17:04Z</time>
      </trkpt>
      <trkpt lat="45.05406" lon="5.36462">
        <ele>520.7</ele>
        <time>2019-04-21T10:17:05Z</time>
      </trkpt>
      <trkpt lat="45.05405" lon="5.36463">
        <ele>520.247</ele>
        <time>2019-04-21T10:17:06Z</time>
      </trkpt>
      <trkpt lat="45.05403" lon="5.36463">
        <ele>520.907</ele>
        <time>2019-04-21T10:17:11Z</time>
      </trkpt>
      <trkpt lat="45.05403" lon="5.36463">
        <ele>521.307</ele>
        <time>2019-04-21T10:17:12Z</time>
      </trkpt>
      <trkpt lat="45.05403" lon="5.36463">
        <ele>520.775</ele>
        <time>2019-04-21T10:17:13Z</time>
      </trkpt>
      <trkpt lat="45.05402" lon="5.36462">
        <ele>521.087</ele>
        <time>2019-04-21T10:17:14Z</time>
      </trkpt>
      <trkpt lat="45.05402" lon="5.36462">
        <ele>520.521</ele>
        <time>2019-04-21T10:17:15Z</time>
      </trkpt>
      <trkpt lat="45.05402" lon="5.36462">
        <ele>519.001</ele>
        <time>2019-04-21T10:17:19Z</time>
      </trkpt>
      <trkpt lat="45.05401" lon="5.36462">
        <ele>519.822</ele>
        <time>2019-04-21T10:17:20Z</time>
      </trkpt>
      <trkpt lat="45.05399" lon="5.36465">
        <ele>522.074</ele>
        <time>2019-04-21T10:17:24Z</time>
      </trkpt>
      <trkpt lat="45.05396" lon="5.36467">
        <ele>524.237</ele>
        <time>2019-04-21T10:17:27Z</time>
      </trkpt>
      <trkpt lat="45.05393" lon="5.36468">
        <ele>524.864</ele>
        <time>2019-04-21T10:17:29Z</time>
      </trkpt>
      <trkpt lat="45.05389" lon="5.3647">
        <ele>523.011</ele>
        <time>2019-04-21T10:17:33Z</time>
      </trkpt>
      <trkpt lat="45.05387" lon="5.36473">
        <ele>522.813</ele>
        <time>2019-04-21T10:17:36Z</time>
      </trkpt>
      <trkpt lat="45.05383" lon="5.36478">
        <ele>522.55</ele>
        <time>2019-04-21T10:17:45Z</time>
      </trkpt>
      <trkpt lat="45.05381" lon="5.36482">
        <ele>522.518</ele>
        <time>2019-04-21T10:17:48Z</time>
      </trkpt>
      <trkpt lat="45.05374" lon="5.36491">
        <ele>522.51</ele>
        <time>2019-04-21T10:17:57Z</time>
      </trkpt>
      <trkpt lat="45.05368" lon="5.36497">
        <ele>522.047</ele>
        <time>2019-04-21T10:18:02Z</time>
      </trkpt>
      <trkpt lat="45.05365" lon="5.36499">
        <ele>522.504</ele>
        <time>2019-04-21T10:18:05Z</time>
      </trkpt>
      <trkpt lat="45.05363" lon="5.36501">
        <ele>523.063</ele>
        <time>2019-04-21T10:18:10Z</time>
      </trkpt>
      <trkpt lat="45.05359" lon="5.36507">
        <ele>524.414</ele>
        <time>2019-04-21T10:18:16Z</time>
      </trkpt>
      <trkpt lat="45.05356" lon="5.36504">
        <ele>523.481</ele>
        <time>2019-04-21T10:18:21Z</time>
      </trkpt>
      <trkpt lat="45.05356" lon="5.36503">
        <ele>523.816</ele>
        <time>2019-04-21T10:18:23Z</time>
      </trkpt>
      <trkpt lat="45.05358" lon="5.36501">
        <ele>525.264</ele>
        <time>2019-04-21T10:18:27Z</time>
      </trkpt>
      <trkpt lat="45.05358" lon="5.365">
        <ele>526.357</ele>
        <time>2019-04-21T10:18:29Z</time>
      </trkpt>
      <trkpt lat="45.05358" lon="5.365">
        <ele>525.951</ele>
        <time>2019-04-21T10:19:18Z</time>
      </trkpt>
      <trkpt lat="45.0536" lon="5.36501">
        <ele>526.383</ele>
        <time>2019-04-21T10:19:19Z</time>
      </trkpt>
      <trkpt lat="45.0536" lon="5.36501">
        <ele>526.297</ele>
        <time>2019-04-21T10:19:20Z</time>
      </trkpt>
      <trkpt lat="45.0536" lon="5.36501">
        <ele>525.991</ele>
        <time>2019-04-21T10:19:21Z</time>
      </trkpt>
      <trkpt lat="45.0536" lon="5.36501">
        <ele>525.508</ele>
        <time>2019-04-21T10:19:22Z</time>
      </trkpt>
      <trkpt lat="45.0536" lon="5.36502">
        <ele>525.41</ele>
        <time>2019-04-21T10:19:23Z</time>
      </trkpt>
      <trkpt lat="45.05359" lon="5.36502">
        <ele>524.465</ele>
        <time>2019-04-21T10:19:24Z</time>
      </trkpt>
      <trkpt lat="45.05359" lon="5.36502">
        <ele>524.185</ele>
        <time>2019-04-21T10:19:25Z</time>
      </trkpt>
      <trkpt lat="45.05359" lon="5.36502">
        <ele>524.949</ele>
        <time>2019-04-21T10:20:12Z</time>
      </trkpt>
      <trkpt lat="45.05358" lon="5.36503">
        <ele>525.234</ele>
        <time>2019-04-21T10:20:13Z</time>
      </trkpt>
      <trkpt lat="45.05357" lon="5.36502">
        <ele>524.487</ele>
        <time>2019-04-21T10:20:16Z</time>
      </trkpt>
      <trkpt lat="45.05357" lon="5.36502">
        <ele>524.06</ele>
        <time>2019-04-21T10:20:17Z</time>
      </trkpt>
      <trkpt lat="45.05357" lon="5.36502">
        <ele>523.921</ele>
        <time>2019-04-21T10:22:01Z</time>
      </trkpt>
      <trkpt lat="45.05358" lon="5.36506">
        <ele>523.336</ele>
        <time>2019-04-21T10:22:02Z</time>
      </trkpt>
      <trkpt lat="45.05356" lon="5.36509">
        <ele>521.764</ele>
        <time>2019-04-21T10:22:04Z</time>
      </trkpt>
      <trkpt lat="45.05354" lon="5.36511">
        <ele>521.805</ele>
        <time>2019-04-21T10:22:06Z</time>
      </trkpt>
      <trkpt lat="45.05339" lon="5.3653">
        <ele>520.662</ele>
        <time>2019-04-21T10:22:25Z</time>
      </trkpt>
      <trkpt lat="45.05335" lon="5.36537">
        <ele>521.347</ele>
        <time>2019-04-21T10:22:32Z</time>
      </trkpt>
      <trkpt lat="45.05331" lon="5.36548">
        <ele>521.331</ele>
        <time>2019-04-21T10:22:42Z</time>
      </trkpt>
      <trkpt lat="45.05329" lon="5.36551">
        <ele>521.254</ele>
        <time>2019-04-21T10:22:46Z</time>
      </trkpt>
      <trkpt lat="45.05328" lon="5.36553">
        <ele>520.747</ele>
        <time>2019-04-21T10:22:48Z</time>
      </trkpt>
      <trkpt lat="45.05319" lon="5.36573">
        <ele>520.392</ele>
        <time>2019-04-21T10:23:08Z</time>
      </trkpt>
      <trkpt lat="45.05319" lon="5.36573">
        <ele>520.392</ele>
        <time>2019-04-21T10:23:08Z</time>
      </trkpt>
      <trkpt lat="45.05319" lon="5.36573">
        <ele>520.24</ele>
        <time>2019-04-21T10:23:09Z</time>
      </trkpt>
      <trkpt lat="45.05319" lon="5.36573">
        <ele>520.62</ele>
        <time>2019-04-21T10:23:12Z</time>
      </trkpt>
      <trkpt lat="45.05311" lon="5.3659">
        <ele>520.009</ele>
        <time>2019-04-21T10:23:30Z</time>
      </trkpt>
      <trkpt lat="45.05311" lon="5.3659">
        <ele>520.009</ele>
        <time>2019-04-21T10:23:30Z</time>
      </trkpt>
      <trkpt lat="45.05311" lon="5.3659">
        <ele>520.137</ele>
        <time>2019-04-21T10:23:31Z</time>
      </trkpt>
      <trkpt lat="45.05311" lon="5.3659">
        <ele>520.155</ele>
        <time>2019-04-21T10:23:32Z</time>
      </trkpt>
      <trkpt lat="45.05311" lon="5.3659">
        <ele>520.155</ele>
        <time>2019-04-21T10:23:32Z</time>
      </trkpt>
      <trkpt lat="45.05311" lon="5.3659">
        <ele>520.532</ele>
        <time>2019-04-21T10:23:33Z</time>
      </trkpt>
      <trkpt lat="45.05311" lon="5.3659">
        <ele>520.779</ele>
        <time>2019-04-21T10:23:34Z</time>
      </trkpt>
      <trkpt lat="45.05311" lon="5.3659">
        <ele>520.892</ele>
        <time>2019-04-21T10:23:35Z</time>
      </trkpt>
      <trkpt lat="45.05311" lon="5.3659">
        <ele>521.622</ele>
        <time>2019-04-21T10:23:56Z</time>
      </trkpt>
      <trkpt lat="45.05311" lon="5.3659">
        <ele>521.012</ele>
        <time>2019-04-21T10:23:57Z</time>
      </trkpt>
      <trkpt lat="45.05311" lon="5.3659">
        <ele>521.09</ele>
        <time>2019-04-21T10:23:59Z</time>
      </trkpt>
      <trkpt lat="45.05311" lon="5.3659">
        <ele>521.867</ele>
        <time>2019-04-21T10:24:01Z</time>
      </trkpt>
      <trkpt lat="45.05311" lon="5.36589">
        <ele>522.13</ele>
        <time>2019-04-21T10:24:02Z</time>
      </trkpt>
      <trkpt lat="45.05311" lon="5.36589">
        <ele>521.367</ele>
        <time>2019-04-21T10:24:03Z</time>
      </trkpt>
      <trkpt lat="45.05311" lon="5.36589">
        <ele>521.367</ele>
        <time>2019-04-21T10:24:03Z</time>
      </trkpt>
      <trkpt lat="45.05311" lon="5.36589">
        <ele>521.488</ele>
        <time>2019-04-21T10:24:04Z</time>
      </trkpt>
      <trkpt lat="45.0531" lon="5.36589">
        <ele>522.891</ele>
        <time>2019-04-21T10:24:08Z</time>
      </trkpt>
      <trkpt lat="45.0531" lon="5.36589">
        <ele>522.891</ele>
        <time>2019-04-21T10:24:08Z</time>
      </trkpt>
      <trkpt lat="45.0531" lon="5.3659">
        <ele>523.159</ele>
        <time>2019-04-21T10:24:09Z</time>
      </trkpt>
      <trkpt lat="45.0531" lon="5.3659">
        <ele>523.815</ele>
        <time>2019-04-21T10:24:10Z</time>
      </trkpt>
      <trkpt lat="45.0531" lon="5.3659">
        <ele>525.51</ele>
        <time>2019-04-21T10:24:12Z</time>
      </trkpt>
      <trkpt lat="45.05311" lon="5.36589">
        <ele>525.128</ele>
        <time>2019-04-21T10:24:13Z</time>
      </trkpt>
      <trkpt lat="45.05311" lon="5.36588">
        <ele>524.625</ele>
        <time>2019-04-21T10:24:15Z</time>
      </trkpt>
      <trkpt lat="45.0531" lon="5.36591">
        <ele>524.957</ele>
        <time>2019-04-21T10:24:17Z</time>
      </trkpt>
      <trkpt lat="45.05304" lon="5.36609">
        <ele>527.239</ele>
        <time>2019-04-21T10:24:26Z</time>
      </trkpt>
      <trkpt lat="45.05304" lon="5.36619">
        <ele>527.336</ele>
        <time>2019-04-21T10:24:31Z</time>
      </trkpt>
      <trkpt lat="45.05308" lon="5.36633">
        <ele>527.101</ele>
        <time>2019-04-21T10:24:43Z</time>
      </trkpt>
      <trkpt lat="45.05311" lon="5.36633">
        <ele>526.626</ele>
        <time>2019-04-21T10:24:47Z</time>
      </trkpt>
      <trkpt lat="45.05315" lon="5.36634">
        <ele>526.15</ele>
        <time>2019-04-21T10:24:53Z</time>
      </trkpt>
      <trkpt lat="45.05316" lon="5.36634">
        <ele>526.552</ele>
        <time>2019-04-21T10:24:54Z</time>
      </trkpt>
      <trkpt lat="45.05316" lon="5.36634">
        <ele>526.7</ele>
        <time>2019-04-21T10:24:55Z</time>
      </trkpt>
      <trkpt lat="45.05316" lon="5.36634">
        <ele>526.736</ele>
        <time>2019-04-21T10:24:57Z</time>
      </trkpt>
      <trkpt lat="45.05315" lon="5.36633">
        <ele>527.077</ele>
        <time>2019-04-21T10:24:58Z</time>
      </trkpt>
      <trkpt lat="45.05315" lon="5.36633">
        <ele>527.33</ele>
        <time>2019-04-21T10:24:59Z</time>
      </trkpt>
      <trkpt lat="45.05315" lon="5.36633">
        <ele>527.758</ele>
        <time>2019-04-21T10:25:00Z</time>
      </trkpt>
      <trkpt lat="45.05315" lon="5.36633">
        <ele>527.24</ele>
        <time>2019-04-21T10:25:28Z</time>
      </trkpt>
      <trkpt lat="45.05318" lon="5.36634">
        <ele>527.249</ele>
        <time>2019-04-21T10:25:29Z</time>
      </trkpt>
      <trkpt lat="45.05321" lon="5.36642">
        <ele>525.606</ele>
        <time>2019-04-21T10:25:36Z</time>
      </trkpt>
      <trkpt lat="45.05327" lon="5.36652">
        <ele>527.048</ele>
        <time>2019-04-21T10:25:45Z</time>
      </trkpt>
      <trkpt lat="45.0533" lon="5.36659">
        <ele>526.709</ele>
        <time>2019-04-21T10:25:52Z</time>
      </trkpt>
      <trkpt lat="45.05331" lon="5.36662">
        <ele>527.302</ele>
        <time>2019-04-21T10:25:55Z</time>
      </trkpt>
      <trkpt lat="45.05332" lon="5.36666">
        <ele>527.268</ele>
        <time>2019-04-21T10:25:58Z</time>
      </trkpt>
      <trkpt lat="45.05333" lon="5.36666">
        <ele>526.443</ele>
        <time>2019-04-21T10:25:59Z</time>
      </trkpt>
      <trkpt lat="45.05333" lon="5.36666">
        <ele>526.439</ele>
        <time>2019-04-21T10:26:00Z</time>
      </trkpt>
      <trkpt lat="45.05333" lon="5.36666">
        <ele>526.439</ele>
        <time>2019-04-21T10:26:00Z</time>
      </trkpt>
      <trkpt lat="45.05333" lon="5.36666">
        <ele>526.415</ele>
        <time>2019-04-21T10:26:01Z</time>
      </trkpt>
      <trkpt lat="45.05333" lon="5.36666">
        <ele>526.676</ele>
        <time>2019-04-21T10:26:11Z</time>
      </trkpt>
      <trkpt lat="45.05336" lon="5.36667">
        <ele>526.6</ele>
        <time>2019-04-21T10:26:12Z</time>
      </trkpt>
      <trkpt lat="45.05336" lon="5.36667">
        <ele>526.241</ele>
        <time>2019-04-21T10:26:13Z</time>
      </trkpt>
      <trkpt lat="45.05336" lon="5.36667">
        <ele>526.024</ele>
        <time>2019-04-21T10:26:17Z</time>
      </trkpt>
      <trkpt lat="45.05335" lon="5.36667">
        <ele>525.978</ele>
        <time>2019-04-21T10:26:18Z</time>
      </trkpt>
      <trkpt lat="45.05336" lon="5.36667">
        <ele>527.266</ele>
        <time>2019-04-21T10:26:21Z</time>
      </trkpt>
      <trkpt lat="45.05337" lon="5.36667">
        <ele>527.308</ele>
        <time>2019-04-21T10:26:24Z</time>
      </trkpt>
      <trkpt lat="45.05337" lon="5.36667">
        <ele>527.158</ele>
        <time>2019-04-21T10:26:27Z</time>
      </trkpt>
      <trkpt lat="45.05338" lon="5.36667">
        <ele>527.293</ele>
        <time>2019-04-21T10:26:28Z</time>
      </trkpt>
      <trkpt lat="45.05337" lon="5.36669">
        <ele>527.51</ele>
        <time>2019-04-21T10:26:30Z</time>
      </trkpt>
      <trkpt lat="45.05335" lon="5.36671">
        <ele>527.453</ele>
        <time>2019-04-21T10:26:35Z</time>
      </trkpt>
      <trkpt lat="45.05335" lon="5.36671">
        <ele>526.838</ele>
        <time>2019-04-21T10:27:23Z</time>
      </trkpt>
      <trkpt lat="45.05334" lon="5.36672">
        <ele>526.728</ele>
        <time>2019-04-21T10:27:24Z</time>
      </trkpt>
      <trkpt lat="45.05334" lon="5.36672">
        <ele>529.662</ele>
        <time>2019-04-21T10:27:25Z</time>
      </trkpt>
      <trkpt lat="45.05334" lon="5.36672">
        <ele>529.972</ele>
        <time>2019-04-21T10:27:26Z</time>
      </trkpt>
      <trkpt lat="45.05334" lon="5.36672">
        <ele>529.819</ele>
        <time>2019-04-21T10:27:43Z</time>
      </trkpt>
      <trkpt lat="45.05335" lon="5.36674">
        <ele>529.241</ele>
        <time>2019-04-21T10:27:44Z</time>
      </trkpt>
      <trkpt lat="45.05335" lon="5.36675">
        <ele>529.558</ele>
        <time>2019-04-21T10:27:45Z</time>
      </trkpt>
      <trkpt lat="45.05338" lon="5.36683">
        <ele>526.744</ele>
        <time>2019-04-21T10:27:54Z</time>
      </trkpt>
      <trkpt lat="45.05339" lon="5.36683">
        <ele>527.184</ele>
        <time>2019-04-21T10:27:55Z</time>
      </trkpt>
      <trkpt lat="45.05341" lon="5.36683">
        <ele>527.519</ele>
        <time>2019-04-21T10:27:58Z</time>
      </trkpt>
      <trkpt lat="45.05341" lon="5.36683">
        <ele>527.423</ele>
        <time>2019-04-21T10:28:06Z</time>
      </trkpt>
      <trkpt lat="45.05343" lon="5.36682">
        <ele>528.128</ele>
        <time>2019-04-21T10:28:07Z</time>
      </trkpt>
      <trkpt lat="45.05343" lon="5.36683">
        <ele>528.134</ele>
        <time>2019-04-21T10:28:08Z</time>
      </trkpt>
      <trkpt lat="45.05343" lon="5.36685">
        <ele>528.262</ele>
        <time>2019-04-21T10:28:09Z</time>
      </trkpt>
      <trkpt lat="45.05343" lon="5.367">
        <ele>527.023</ele>
        <time>2019-04-21T10:28:18Z</time>
      </trkpt>
      <trkpt lat="45.05342" lon="5.36703">
        <ele>526.484</ele>
        <time>2019-04-21T10:28:20Z</time>
      </trkpt>
      <trkpt lat="45.05341" lon="5.36707">
        <ele>526.06</ele>
        <time>2019-04-21T10:28:24Z</time>
      </trkpt>
      <trkpt lat="45.05341" lon="5.36708">
        <ele>525.426</ele>
        <time>2019-04-21T10:28:25Z</time>
      </trkpt>
      <trkpt lat="45.05341" lon="5.36709">
        <ele>526.887</ele>
        <time>2019-04-21T10:28:26Z</time>
      </trkpt>
      <trkpt lat="45.05342" lon="5.36712">
        <ele>527.828</ele>
        <time>2019-04-21T10:28:30Z</time>
      </trkpt>
      <trkpt lat="45.05342" lon="5.36713">
        <ele>527.726</ele>
        <time>2019-04-21T10:28:31Z</time>
      </trkpt>
      <trkpt lat="45.05343" lon="5.36717">
        <ele>530.718</ele>
        <time>2019-04-21T10:28:37Z</time>
      </trkpt>
      <trkpt lat="45.05343" lon="5.3672">
        <ele>529.96</ele>
        <time>2019-04-21T10:28:40Z</time>
      </trkpt>
      <trkpt lat="45.05343" lon="5.3672">
        <ele>529.109</ele>
        <time>2019-04-21T10:28:53Z</time>
      </trkpt>
      <trkpt lat="45.05343" lon="5.36722">
        <ele>528.044</ele>
        <time>2019-04-21T10:28:54Z</time>
      </trkpt>
      <trkpt lat="45.05342" lon="5.36723">
        <ele>528.276</ele>
        <time>2019-04-21T10:28:57Z</time>
      </trkpt>
      <trkpt lat="45.05342" lon="5.36723">
        <ele>527.824</ele>
        <time>2019-04-21T10:29:07Z</time>
      </trkpt>
      <trkpt lat="45.05343" lon="5.36724">
        <ele>527.742</ele>
        <time>2019-04-21T10:29:08Z</time>
      </trkpt>
      <trkpt lat="45.05343" lon="5.36724">
        <ele>527.318</ele>
        <time>2019-04-21T10:29:10Z</time>
      </trkpt>
      <trkpt lat="45.05343" lon="5.36724">
        <ele>527.282</ele>
        <time>2019-04-21T10:29:14Z</time>
      </trkpt>
      <trkpt lat="45.05342" lon="5.36724">
        <ele>527.71</ele>
        <time>2019-04-21T10:29:15Z</time>
      </trkpt>
      <trkpt lat="45.05342" lon="5.36728">
        <ele>530.803</ele>
        <time>2019-04-21T10:29:20Z</time>
      </trkpt>
      <trkpt lat="45.05342" lon="5.36729">
        <ele>530.49</ele>
        <time>2019-04-21T10:29:23Z</time>
      </trkpt>
      <trkpt lat="45.05342" lon="5.36729">
        <ele>530.416</ele>
        <time>2019-04-21T10:29:24Z</time>
      </trkpt>
      <trkpt lat="45.05342" lon="5.36729">
        <ele>529.587</ele>
        <time>2019-04-21T10:29:47Z</time>
      </trkpt>
      <trkpt lat="45.05341" lon="5.36732">
        <ele>529.934</ele>
        <time>2019-04-21T10:29:48Z</time>
      </trkpt>
      <trkpt lat="45.05341" lon="5.36733">
        <ele>530.611</ele>
        <time>2019-04-21T10:29:49Z</time>
      </trkpt>
      <trkpt lat="45.05342" lon="5.36734">
        <ele>528.458</ele>
        <time>2019-04-21T10:29:50Z</time>
      </trkpt>
      <trkpt lat="45.05342" lon="5.36736">
        <ele>529.524</ele>
        <time>2019-04-21T10:29:51Z</time>
      </trkpt>
      <trkpt lat="45.05341" lon="5.3674">
        <ele>529.76</ele>
        <time>2019-04-21T10:29:54Z</time>
      </trkpt>
      <trkpt lat="45.05341" lon="5.36742">
        <ele>527.766</ele>
        <time>2019-04-21T10:29:58Z</time>
      </trkpt>
      <trkpt lat="45.05341" lon="5.36742">
        <ele>527.987</ele>
        <time>2019-04-21T10:30:02Z</time>
      </trkpt>
      <trkpt lat="45.05343" lon="5.36742">
        <ele>528.065</ele>
        <time>2019-04-21T10:30:03Z</time>
      </trkpt>
      <trkpt lat="45.05343" lon="5.36744">
        <ele>527.916</ele>
        <time>2019-04-21T10:30:04Z</time>
      </trkpt>
      <trkpt lat="45.05343" lon="5.36744">
        <ele>527.851</ele>
        <time>2019-04-21T10:30:05Z</time>
      </trkpt>
      <trkpt lat="45.05343" lon="5.36744">
        <ele>527.851</ele>
        <time>2019-04-21T10:30:05Z</time>
      </trkpt>
      <trkpt lat="45.05343" lon="5.36744">
        <ele>527.718</ele>
        <time>2019-04-21T10:30:06Z</time>
      </trkpt>
      <trkpt lat="45.05343" lon="5.36746">
        <ele>527.21</ele>
        <time>2019-04-21T10:30:08Z</time>
      </trkpt>
      <trkpt lat="45.05342" lon="5.36751">
        <ele>526.281</ele>
        <time>2019-04-21T10:30:12Z</time>
      </trkpt>
      <trkpt lat="45.05341" lon="5.36757">
        <ele>525.865</ele>
        <time>2019-04-21T10:30:16Z</time>
      </trkpt>
      <trkpt lat="45.05344" lon="5.36763">
        <ele>524.491</ele>
        <time>2019-04-21T10:30:25Z</time>
      </trkpt>
      <trkpt lat="45.05344" lon="5.36763">
        <ele>524.823</ele>
        <time>2019-04-21T10:30:26Z</time>
      </trkpt>
      <trkpt lat="45.05348" lon="5.3677">
        <ele>524.877</ele>
        <time>2019-04-21T10:30:33Z</time>
      </trkpt>
      <trkpt lat="45.05348" lon="5.3677">
        <ele>524.877</ele>
        <time>2019-04-21T10:30:33Z</time>
      </trkpt>
      <trkpt lat="45.05349" lon="5.36771">
        <ele>525.492</ele>
        <time>2019-04-21T10:30:34Z</time>
      </trkpt>
      <trkpt lat="45.0535" lon="5.36772">
        <ele>526.279</ele>
        <time>2019-04-21T10:30:36Z</time>
      </trkpt>
      <trkpt lat="45.05352" lon="5.36777">
        <ele>526.761</ele>
        <time>2019-04-21T10:30:40Z</time>
      </trkpt>
      <trkpt lat="45.05353" lon="5.36779">
        <ele>526.369</ele>
        <time>2019-04-21T10:30:42Z</time>
      </trkpt>
      <trkpt lat="45.05354" lon="5.36781">
        <ele>526.16</ele>
        <time>2019-04-21T10:30:44Z</time>
      </trkpt>
      <trkpt lat="45.05357" lon="5.36784">
        <ele>527.475</ele>
        <time>2019-04-21T10:30:47Z</time>
      </trkpt>
      <trkpt lat="45.05359" lon="5.36786">
        <ele>526.583</ele>
        <time>2019-04-21T10:30:50Z</time>
      </trkpt>
      <trkpt lat="45.05362" lon="5.3679">
        <ele>526.459</ele>
        <time>2019-04-21T10:30:54Z</time>
      </trkpt>
      <trkpt lat="45.05368" lon="5.36806">
        <ele>525.137</ele>
        <time>2019-04-21T10:31:09Z</time>
      </trkpt>
      <trkpt lat="45.05369" lon="5.3681">
        <ele>525.163</ele>
        <time>2019-04-21T10:31:12Z</time>
      </trkpt>
      <trkpt lat="45.05372" lon="5.36825">
        <ele>526.488</ele>
        <time>2019-04-21T10:31:23Z</time>
      </trkpt>
      <trkpt lat="45.05372" lon="5.3683">
        <ele>526.555</ele>
        <time>2019-04-21T10:31:26Z</time>
      </trkpt>
      <trkpt lat="45.05372" lon="5.36834">
        <ele>526.239</ele>
        <time>2019-04-21T10:31:29Z</time>
      </trkpt>
      <trkpt lat="45.05376" lon="5.36852">
        <ele>524.98</ele>
        <time>2019-04-21T10:31:43Z</time>
      </trkpt>
      <trkpt lat="45.05387" lon="5.3688">
        <ele>524.53</ele>
        <time>2019-04-21T10:32:04Z</time>
      </trkpt>
      <trkpt lat="45.05387" lon="5.36881">
        <ele>524.625</ele>
        <time>2019-04-21T10:32:05Z</time>
      </trkpt>
      <trkpt lat="45.05389" lon="5.36885">
        <ele>524.925</ele>
        <time>2019-04-21T10:32:10Z</time>
      </trkpt>
      <trkpt lat="45.05391" lon="5.36888">
        <ele>524.513</ele>
        <time>2019-04-21T10:32:13Z</time>
      </trkpt>
      <trkpt lat="45.05399" lon="5.36899">
        <ele>524.153</ele>
        <time>2019-04-21T10:32:25Z</time>
      </trkpt>
      <trkpt lat="45.05399" lon="5.369">
        <ele>524.087</ele>
        <time>2019-04-21T10:32:26Z</time>
      </trkpt>
      <trkpt lat="45.05409" lon="5.36913">
        <ele>523.692</ele>
        <time>2019-04-21T10:32:39Z</time>
      </trkpt>
      <trkpt lat="45.0541" lon="5.36917">
        <ele>523.284</ele>
        <time>2019-04-21T10:32:44Z</time>
      </trkpt>
      <trkpt lat="45.05411" lon="5.36916">
        <ele>522.969</ele>
        <time>2019-04-21T10:32:46Z</time>
      </trkpt>
      <trkpt lat="45.05415" lon="5.36917">
        <ele>522.835</ele>
        <time>2019-04-21T10:32:50Z</time>
      </trkpt>
      <trkpt lat="45.05431" lon="5.36939">
        <ele>521.234</ele>
        <time>2019-04-21T10:33:17Z</time>
      </trkpt>
      <trkpt lat="45.05432" lon="5.36939">
        <ele>521.299</ele>
        <time>2019-04-21T10:33:18Z</time>
      </trkpt>
      <trkpt lat="45.05432" lon="5.36939">
        <ele>521.498</ele>
        <time>2019-04-21T10:33:19Z</time>
      </trkpt>
      <trkpt lat="45.05432" lon="5.36939">
        <ele>521.121</ele>
        <time>2019-04-21T10:33:20Z</time>
      </trkpt>
      <trkpt lat="45.05432" lon="5.36939">
        <ele>521.583</ele>
        <time>2019-04-21T10:33:36Z</time>
      </trkpt>
      <trkpt lat="45.05432" lon="5.3694">
        <ele>522.434</ele>
        <time>2019-04-21T10:33:37Z</time>
      </trkpt>
      <trkpt lat="45.05433" lon="5.36941">
        <ele>522.42</ele>
        <time>2019-04-21T10:33:38Z</time>
      </trkpt>
      <trkpt lat="45.05439" lon="5.36945">
        <ele>522.054</ele>
        <time>2019-04-21T10:33:45Z</time>
      </trkpt>
      <trkpt lat="45.05443" lon="5.36945">
        <ele>519.862</ele>
        <time>2019-04-21T10:33:50Z</time>
      </trkpt>
      <trkpt lat="45.05443" lon="5.36946">
        <ele>519.786</ele>
        <time>2019-04-21T10:33:53Z</time>
      </trkpt>
      <trkpt lat="45.05443" lon="5.36946">
        <ele>519.511</ele>
        <time>2019-04-21T10:33:54Z</time>
      </trkpt>
      <trkpt lat="45.05443" lon="5.36946">
        <ele>520.702</ele>
        <time>2019-04-21T10:35:07Z</time>
      </trkpt>
      <trkpt lat="45.05444" lon="5.36948">
        <ele>520.074</ele>
        <time>2019-04-21T10:35:08Z</time>
      </trkpt>
      <trkpt lat="45.05443" lon="5.36948">
        <ele>519.54</ele>
        <time>2019-04-21T10:35:10Z</time>
      </trkpt>
      <trkpt lat="45.05443" lon="5.36948">
        <ele>519.564</ele>
        <time>2019-04-21T10:35:11Z</time>
      </trkpt>
      <trkpt lat="45.05443" lon="5.36948">
        <ele>519.564</ele>
        <time>2019-04-21T10:35:11Z</time>
      </trkpt>
      <trkpt lat="45.05443" lon="5.36949">
        <ele>519.161</ele>
        <time>2019-04-21T10:35:12Z</time>
      </trkpt>
      <trkpt lat="45.05443" lon="5.36949">
        <ele>519.215</ele>
        <time>2019-04-21T10:35:13Z</time>
      </trkpt>
      <trkpt lat="45.05443" lon="5.36949">
        <ele>519.288</ele>
        <time>2019-04-21T10:35:56Z</time>
      </trkpt>
      <trkpt lat="45.05441" lon="5.36949">
        <ele>519.523</ele>
        <time>2019-04-21T10:35:57Z</time>
      </trkpt>
      <trkpt lat="45.05443" lon="5.3695">
        <ele>519.666</ele>
        <time>2019-04-21T10:36:01Z</time>
      </trkpt>
      <trkpt lat="45.05446" lon="5.36952">
        <ele>518.936</ele>
        <time>2019-04-21T10:36:04Z</time>
      </trkpt>
      <trkpt lat="45.0545" lon="5.36957">
        <ele>519.374</ele>
        <time>2019-04-21T10:36:09Z</time>
      </trkpt>
      <trkpt lat="45.05454" lon="5.36959">
        <ele>520.649</ele>
        <time>2019-04-21T10:36:13Z</time>
      </trkpt>
      <trkpt lat="45.05465" lon="5.36961">
        <ele>520.881</ele>
        <time>2019-04-21T10:36:25Z</time>
      </trkpt>
      <trkpt lat="45.05467" lon="5.3696">
        <ele>521.136</ele>
        <time>2019-04-21T10:36:27Z</time>
      </trkpt>
      <trkpt lat="45.05503" lon="5.36963">
        <ele>518.979</ele>
        <time>2019-04-21T10:37:05Z</time>
      </trkpt>
      <trkpt lat="45.05511" lon="5.36964">
        <ele>518.186</ele>
        <time>2019-04-21T10:37:14Z</time>
      </trkpt>
      <trkpt lat="45.05519" lon="5.36964">
        <ele>517.581</ele>
        <time>2019-04-21T10:37:22Z</time>
      </trkpt>
      <trkpt lat="45.05528" lon="5.36964">
        <ele>517.951</ele>
        <time>2019-04-21T10:37:31Z</time>
      </trkpt>
      <trkpt lat="45.05537" lon="5.36978">
        <ele>516.722</ele>
        <time>2019-04-21T10:37:47Z</time>
      </trkpt>
      <trkpt lat="45.0554" lon="5.36985">
        <ele>516.075</ele>
        <time>2019-04-21T10:37:52Z</time>
      </trkpt>
      <trkpt lat="45.05543" lon="5.36994">
        <ele>516.331</ele>
        <time>2019-04-21T10:38:01Z</time>
      </trkpt>
      <trkpt lat="45.05544" lon="5.36994">
        <ele>515.976</ele>
        <time>2019-04-21T10:38:02Z</time>
      </trkpt>
      <trkpt lat="45.05544" lon="5.36997">
        <ele>515.84</ele>
        <time>2019-04-21T10:38:04Z</time>
      </trkpt>
      <trkpt lat="45.05545" lon="5.37023">
        <ele>513.865</ele>
        <time>2019-04-21T10:38:25Z</time>
      </trkpt>
      <trkpt lat="45.05545" lon="5.37023">
        <ele>513.947</ele>
        <time>2019-04-21T10:38:26Z</time>
      </trkpt>
      <trkpt lat="45.05545" lon="5.37023">
        <ele>513.701</ele>
        <time>2019-04-21T10:38:28Z</time>
      </trkpt>
      <trkpt lat="45.05544" lon="5.37023">
        <ele>513.7</ele>
        <time>2019-04-21T10:38:29Z</time>
      </trkpt>
      <trkpt lat="45.05544" lon="5.37024">
        <ele>513.654</ele>
        <time>2019-04-21T10:38:30Z</time>
      </trkpt>
      <trkpt lat="45.05545" lon="5.37029">
        <ele>513.482</ele>
        <time>2019-04-21T10:38:34Z</time>
      </trkpt>
      <trkpt lat="45.05545" lon="5.37032">
        <ele>513.094</ele>
        <time>2019-04-21T10:38:37Z</time>
      </trkpt>
      <trkpt lat="45.05543" lon="5.37047">
        <ele>511.684</ele>
        <time>2019-04-21T10:38:49Z</time>
      </trkpt>
      <trkpt lat="45.05543" lon="5.37048">
        <ele>511.347</ele>
        <time>2019-04-21T10:38:50Z</time>
      </trkpt>
      <trkpt lat="45.0554" lon="5.37061">
        <ele>510.354</ele>
        <time>2019-04-21T10:39:01Z</time>
      </trkpt>
      <trkpt lat="45.0554" lon="5.37063">
        <ele>510.59</ele>
        <time>2019-04-21T10:39:05Z</time>
      </trkpt>
      <trkpt lat="45.05536" lon="5.37075">
        <ele>508.25</ele>
        <time>2019-04-21T10:39:14Z</time>
      </trkpt>
      <trkpt lat="45.05531" lon="5.37092">
        <ele>507.054</ele>
        <time>2019-04-21T10:39:28Z</time>
      </trkpt>
      <trkpt lat="45.05529" lon="5.37096">
        <ele>505.999</ele>
        <time>2019-04-21T10:39:31Z</time>
      </trkpt>
      <trkpt lat="45.05522" lon="5.37117">
        <ele>504.585</ele>
        <time>2019-04-21T10:39:46Z</time>
      </trkpt>
      <trkpt lat="45.05521" lon="5.3712">
        <ele>504.182</ele>
        <time>2019-04-21T10:39:50Z</time>
      </trkpt>
      <trkpt lat="45.05521" lon="5.3712">
        <ele>504.182</ele>
        <time>2019-04-21T10:39:50Z</time>
      </trkpt>
      <trkpt lat="45.05521" lon="5.37121">
        <ele>504.514</ele>
        <time>2019-04-21T10:39:51Z</time>
      </trkpt>
      <trkpt lat="45.0552" lon="5.37121">
        <ele>504.553</ele>
        <time>2019-04-21T10:39:52Z</time>
      </trkpt>
      <trkpt lat="45.0552" lon="5.37122">
        <ele>504.141</ele>
        <time>2019-04-21T10:39:55Z</time>
      </trkpt>
      <trkpt lat="45.0552" lon="5.37122">
        <ele>504.172</ele>
        <time>2019-04-21T10:39:58Z</time>
      </trkpt>
      <trkpt lat="45.05521" lon="5.37121">
        <ele>504.676</ele>
        <time>2019-04-21T10:39:59Z</time>
      </trkpt>
      <trkpt lat="45.05521" lon="5.37121">
        <ele>504.676</ele>
        <time>2019-04-21T10:39:59Z</time>
      </trkpt>
      <trkpt lat="45.05521" lon="5.37121">
        <ele>504.878</ele>
        <time>2019-04-21T10:40:00Z</time>
      </trkpt>
      <trkpt lat="45.05521" lon="5.37121">
        <ele>504.657</ele>
        <time>2019-04-21T10:40:14Z</time>
      </trkpt>
      <trkpt lat="45.05521" lon="5.37121">
        <ele>504.858</ele>
        <time>2019-04-21T10:40:15Z</time>
      </trkpt>
      <trkpt lat="45.05521" lon="5.37121">
        <ele>505.042</ele>
        <time>2019-04-21T10:40:16Z</time>
      </trkpt>
      <trkpt lat="45.05521" lon="5.37121">
        <ele>505.042</ele>
        <time>2019-04-21T10:40:16Z</time>
      </trkpt>
      <trkpt lat="45.05522" lon="5.37124">
        <ele>505.821</ele>
        <time>2019-04-21T10:40:17Z</time>
      </trkpt>
      <trkpt lat="45.05522" lon="5.37126">
        <ele>505.786</ele>
        <time>2019-04-21T10:40:18Z</time>
      </trkpt>
      <trkpt lat="45.05522" lon="5.37127">
        <ele>506.308</ele>
        <time>2019-04-21T10:40:20Z</time>
      </trkpt>
      <trkpt lat="45.05522" lon="5.37128">
        <ele>505.807</ele>
        <time>2019-04-21T10:40:21Z</time>
      </trkpt>
      <trkpt lat="45.05522" lon="5.37159">
        <ele>505.523</ele>
        <time>2019-04-21T10:40:43Z</time>
      </trkpt>
      <trkpt lat="45.05522" lon="5.37159">
        <ele>505.842</ele>
        <time>2019-04-21T10:40:44Z</time>
      </trkpt>
      <trkpt lat="45.05523" lon="5.3716">
        <ele>505.54</ele>
        <time>2019-04-21T10:40:45Z</time>
      </trkpt>
      <trkpt lat="45.05522" lon="5.37165">
        <ele>504.455</ele>
        <time>2019-04-21T10:40:49Z</time>
      </trkpt>
      <trkpt lat="45.05522" lon="5.3717">
        <ele>504.123</ele>
        <time>2019-04-21T10:40:52Z</time>
      </trkpt>
      <trkpt lat="45.05526" lon="5.37179">
        <ele>505.21</ele>
        <time>2019-04-21T10:40:59Z</time>
      </trkpt>
      <trkpt lat="45.0553" lon="5.37184">
        <ele>506.436</ele>
        <time>2019-04-21T10:41:07Z</time>
      </trkpt>
      <trkpt lat="45.0553" lon="5.37184">
        <ele>506.483</ele>
        <time>2019-04-21T10:41:09Z</time>
      </trkpt>
      <trkpt lat="45.05531" lon="5.37182">
        <ele>506.736</ele>
        <time>2019-04-21T10:41:10Z</time>
      </trkpt>
      <trkpt lat="45.05531" lon="5.37182">
        <ele>506.809</ele>
        <time>2019-04-21T10:41:11Z</time>
      </trkpt>
      <trkpt lat="45.05531" lon="5.37184">
        <ele>507.032</ele>
        <time>2019-04-21T10:41:13Z</time>
      </trkpt>
      <trkpt lat="45.05532" lon="5.37187">
        <ele>506.306</ele>
        <time>2019-04-21T10:41:15Z</time>
      </trkpt>
      <trkpt lat="45.05533" lon="5.37188">
        <ele>505.998</ele>
        <time>2019-04-21T10:41:16Z</time>
      </trkpt>
      <trkpt lat="45.05535" lon="5.37199">
        <ele>505.796</ele>
        <time>2019-04-21T10:41:24Z</time>
      </trkpt>
      <trkpt lat="45.05535" lon="5.37209">
        <ele>507.215</ele>
        <time>2019-04-21T10:41:31Z</time>
      </trkpt>
      <trkpt lat="45.05535" lon="5.3721">
        <ele>506.977</ele>
        <time>2019-04-21T10:41:32Z</time>
      </trkpt>
      <trkpt lat="45.05532" lon="5.37213">
        <ele>506.899</ele>
        <time>2019-04-21T10:41:34Z</time>
      </trkpt>
      <trkpt lat="45.05524" lon="5.37217">
        <ele>507.171</ele>
        <time>2019-04-21T10:41:38Z</time>
      </trkpt>
      <trkpt lat="45.05523" lon="5.37223">
        <ele>508.53</ele>
        <time>2019-04-21T10:41:47Z</time>
      </trkpt>
      <trkpt lat="45.0552" lon="5.37227">
        <ele>509.288</ele>
        <time>2019-04-21T10:41:52Z</time>
      </trkpt>
      <trkpt lat="45.05516" lon="5.37238">
        <ele>508.945</ele>
        <time>2019-04-21T10:42:03Z</time>
      </trkpt>
      <trkpt lat="45.05515" lon="5.37239">
        <ele>509.088</ele>
        <time>2019-04-21T10:42:04Z</time>
      </trkpt>
      <trkpt lat="45.05515" lon="5.37241">
        <ele>509.306</ele>
        <time>2019-04-21T10:42:06Z</time>
      </trkpt>
      <trkpt lat="45.05515" lon="5.37242">
        <ele>509.339</ele>
        <time>2019-04-21T10:42:07Z</time>
      </trkpt>
      <trkpt lat="45.05515" lon="5.37242">
        <ele>510.243</ele>
        <time>2019-04-21T10:42:10Z</time>
      </trkpt>
      <trkpt lat="45.05513" lon="5.37244">
        <ele>510.727</ele>
        <time>2019-04-21T10:42:34Z</time>
      </trkpt>
      <trkpt lat="45.05512" lon="5.37243">
        <ele>510.57</ele>
        <time>2019-04-21T10:42:35Z</time>
      </trkpt>
      <trkpt lat="45.05512" lon="5.37242">
        <ele>511.225</ele>
        <time>2019-04-21T10:42:38Z</time>
      </trkpt>
      <trkpt lat="45.05511" lon="5.37242">
        <ele>511.796</ele>
        <time>2019-04-21T10:42:40Z</time>
      </trkpt>
      <trkpt lat="45.05512" lon="5.37243">
        <ele>512.188</ele>
        <time>2019-04-21T10:42:41Z</time>
      </trkpt>
      <trkpt lat="45.05512" lon="5.37243">
        <ele>512.027</ele>
        <time>2019-04-21T10:42:42Z</time>
      </trkpt>
      <trkpt lat="45.05512" lon="5.37244">
        <ele>512.146</ele>
        <time>2019-04-21T10:42:43Z</time>
      </trkpt>
      <trkpt lat="45.05512" lon="5.37245">
        <ele>511.967</ele>
        <time>2019-04-21T10:42:44Z</time>
      </trkpt>
      <trkpt lat="45.05517" lon="5.37265">
        <ele>514.476</ele>
        <time>2019-04-21T10:42:53Z</time>
      </trkpt>
      <trkpt lat="45.05524" lon="5.37276">
        <ele>512.323</ele>
        <time>2019-04-21T10:43:01Z</time>
      </trkpt>
      <trkpt lat="45.05526" lon="5.37279">
        <ele>512.988</ele>
        <time>2019-04-21T10:43:05Z</time>
      </trkpt>
      <trkpt lat="45.05543" lon="5.37288">
        <ele>515.302</ele>
        <time>2019-04-21T10:43:20Z</time>
      </trkpt>
      <trkpt lat="45.05546" lon="5.37292">
        <ele>514.74</ele>
        <time>2019-04-21T10:43:25Z</time>
      </trkpt>
      <trkpt lat="45.05546" lon="5.37293">
        <ele>513.745</ele>
        <time>2019-04-21T10:43:27Z</time>
      </trkpt>
      <trkpt lat="45.05546" lon="5.37293">
        <ele>513.557</ele>
        <time>2019-04-21T10:43:30Z</time>
      </trkpt>
      <trkpt lat="45.05546" lon="5.37292">
        <ele>513.502</ele>
        <time>2019-04-21T10:43:31Z</time>
      </trkpt>
      <trkpt lat="45.05548" lon="5.37293">
        <ele>513.924</ele>
        <time>2019-04-21T10:43:33Z</time>
      </trkpt>
      <trkpt lat="45.05552" lon="5.37294">
        <ele>516.131</ele>
        <time>2019-04-21T10:43:37Z</time>
      </trkpt>
      <trkpt lat="45.05555" lon="5.37294">
        <ele>516.181</ele>
        <time>2019-04-21T10:43:42Z</time>
      </trkpt>
      <trkpt lat="45.05559" lon="5.37295">
        <ele>518.996</ele>
        <time>2019-04-21T10:43:48Z</time>
      </trkpt>
      <trkpt lat="45.05561" lon="5.37296">
        <ele>519.199</ele>
        <time>2019-04-21T10:43:50Z</time>
      </trkpt>
      <trkpt lat="45.05563" lon="5.37297">
        <ele>519.391</ele>
        <time>2019-04-21T10:43:54Z</time>
      </trkpt>
      <trkpt lat="45.05563" lon="5.37297">
        <ele>519.684</ele>
        <time>2019-04-21T10:43:56Z</time>
      </trkpt>
      <trkpt lat="45.05563" lon="5.37297">
        <ele>520.431</ele>
        <time>2019-04-21T10:43:58Z</time>
      </trkpt>
      <trkpt lat="45.05563" lon="5.37296">
        <ele>520.412</ele>
        <time>2019-04-21T10:43:59Z</time>
      </trkpt>
      <trkpt lat="45.05563" lon="5.37296">
        <ele>520.435</ele>
        <time>2019-04-21T10:44:00Z</time>
      </trkpt>
      <trkpt lat="45.05563" lon="5.37296">
        <ele>520.42</ele>
        <time>2019-04-21T10:44:04Z</time>
      </trkpt>
      <trkpt lat="45.05564" lon="5.37297">
        <ele>520.451</ele>
        <time>2019-04-21T10:44:05Z</time>
      </trkpt>
      <trkpt lat="45.05565" lon="5.37298">
        <ele>519.601</ele>
        <time>2019-04-21T10:44:08Z</time>
      </trkpt>
      <trkpt lat="45.05566" lon="5.37299">
        <ele>519.342</ele>
        <time>2019-04-21T10:44:09Z</time>
      </trkpt>
      <trkpt lat="45.05569" lon="5.37299">
        <ele>519.762</ele>
        <time>2019-04-21T10:44:13Z</time>
      </trkpt>
      <trkpt lat="45.05572" lon="5.373">
        <ele>521.735</ele>
        <time>2019-04-21T10:44:17Z</time>
      </trkpt>
      <trkpt lat="45.05575" lon="5.37301">
        <ele>522.803</ele>
        <time>2019-04-21T10:44:20Z</time>
      </trkpt>
      <trkpt lat="45.05581" lon="5.373">
        <ele>522.979</ele>
        <time>2019-04-21T10:44:28Z</time>
      </trkpt>
      <trkpt lat="45.05587" lon="5.37299">
        <ele>523.771</ele>
        <time>2019-04-21T10:44:35Z</time>
      </trkpt>
      <trkpt lat="45.056" lon="5.37295">
        <ele>522.343</ele>
        <time>2019-04-21T10:44:49Z</time>
      </trkpt>
      <trkpt lat="45.05607" lon="5.37291">
        <ele>521.815</ele>
        <time>2019-04-21T10:44:58Z</time>
      </trkpt>
      <trkpt lat="45.05607" lon="5.3729">
        <ele>521.475</ele>
        <time>2019-04-21T10:44:59Z</time>
      </trkpt>
      <trkpt lat="45.05609" lon="5.37289">
        <ele>521.179</ele>
        <time>2019-04-21T10:45:01Z</time>
      </trkpt>
      <trkpt lat="45.05624" lon="5.37287">
        <ele>520.656</ele>
        <time>2019-04-21T10:45:21Z</time>
      </trkpt>
      <trkpt lat="45.05627" lon="5.37287">
        <ele>520.781</ele>
        <time>2019-04-21T10:45:24Z</time>
      </trkpt>
      <trkpt lat="45.05629" lon="5.37289">
        <ele>520.582</ele>
        <time>2019-04-21T10:45:27Z</time>
      </trkpt>
      <trkpt lat="45.05633" lon="5.37292">
        <ele>521.349</ele>
        <time>2019-04-21T10:45:32Z</time>
      </trkpt>
      <trkpt lat="45.05634" lon="5.37296">
        <ele>521.146</ele>
        <time>2019-04-21T10:45:36Z</time>
      </trkpt>
      <trkpt lat="45.05634" lon="5.37302">
        <ele>520.65</ele>
        <time>2019-04-21T10:45:40Z</time>
      </trkpt>
      <trkpt lat="45.05637" lon="5.37303">
        <ele>521.169</ele>
        <time>2019-04-21T10:45:43Z</time>
      </trkpt>
      <trkpt lat="45.05639" lon="5.37303">
        <ele>521.668</ele>
        <time>2019-04-21T10:45:46Z</time>
      </trkpt>
      <trkpt lat="45.05639" lon="5.37303">
        <ele>521.668</ele>
        <time>2019-04-21T10:45:46Z</time>
      </trkpt>
      <trkpt lat="45.05639" lon="5.37303">
        <ele>521.595</ele>
        <time>2019-04-21T10:45:47Z</time>
      </trkpt>
      <trkpt lat="45.05639" lon="5.37303">
        <ele>521.383</ele>
        <time>2019-04-21T10:45:49Z</time>
      </trkpt>
      <trkpt lat="45.05639" lon="5.37303">
        <ele>521.547</ele>
        <time>2019-04-21T10:45:50Z</time>
      </trkpt>
      <trkpt lat="45.05639" lon="5.37304">
        <ele>521.23</ele>
        <time>2019-04-21T10:45:51Z</time>
      </trkpt>
      <trkpt lat="45.05639" lon="5.37304">
        <ele>521.697</ele>
        <time>2019-04-21T10:45:52Z</time>
      </trkpt>
      <trkpt lat="45.05639" lon="5.37304">
        <ele>522.353</ele>
        <time>2019-04-21T10:45:58Z</time>
      </trkpt>
      <trkpt lat="45.05638" lon="5.37305">
        <ele>522.245</ele>
        <time>2019-04-21T10:45:59Z</time>
      </trkpt>
      <trkpt lat="45.05638" lon="5.37305">
        <ele>522.412</ele>
        <time>2019-04-21T10:46:00Z</time>
      </trkpt>
      <trkpt lat="45.05638" lon="5.37305">
        <ele>522.558</ele>
        <time>2019-04-21T10:46:02Z</time>
      </trkpt>
      <trkpt lat="45.05639" lon="5.37304">
        <ele>522.451</ele>
        <time>2019-04-21T10:46:03Z</time>
      </trkpt>
      <trkpt lat="45.0564" lon="5.37304">
        <ele>522.221</ele>
        <time>2019-04-21T10:46:04Z</time>
      </trkpt>
      <trkpt lat="45.05641" lon="5.37305">
        <ele>522.454</ele>
        <time>2019-04-21T10:46:05Z</time>
      </trkpt>
      <trkpt lat="45.05642" lon="5.37305">
        <ele>522.487</ele>
        <time>2019-04-21T10:46:07Z</time>
      </trkpt>
      <trkpt lat="45.05642" lon="5.37305">
        <ele>522.585</ele>
        <time>2019-04-21T10:46:09Z</time>
      </trkpt>
      <trkpt lat="45.05642" lon="5.37305">
        <ele>522.585</ele>
        <time>2019-04-21T10:46:09Z</time>
      </trkpt>
      <trkpt lat="45.05643" lon="5.37304">
        <ele>523.116</ele>
        <time>2019-04-21T10:46:10Z</time>
      </trkpt>
      <trkpt lat="45.05643" lon="5.37304">
        <ele>523.882</ele>
        <time>2019-04-21T10:46:11Z</time>
      </trkpt>
      <trkpt lat="45.05644" lon="5.37305">
        <ele>520.782</ele>
        <time>2019-04-21T10:46:16Z</time>
      </trkpt>
      <trkpt lat="45.05644" lon="5.37305">
        <ele>520.782</ele>
        <time>2019-04-21T10:46:16Z</time>
      </trkpt>
      <trkpt lat="45.05643" lon="5.37305">
        <ele>520.276</ele>
        <time>2019-04-21T10:46:17Z</time>
      </trkpt>
      <trkpt lat="45.05643" lon="5.37307">
        <ele>522.431</ele>
        <time>2019-04-21T10:46:22Z</time>
      </trkpt>
      <trkpt lat="45.05643" lon="5.37307">
        <ele>522.093</ele>
        <time>2019-04-21T10:46:23Z</time>
      </trkpt>
      <trkpt lat="45.05644" lon="5.37307">
        <ele>522.909</ele>
        <time>2019-04-21T10:46:24Z</time>
      </trkpt>
      <trkpt lat="45.05644" lon="5.37307">
        <ele>522.994</ele>
        <time>2019-04-21T10:46:25Z</time>
      </trkpt>
      <trkpt lat="45.05644" lon="5.37307">
        <ele>524.079</ele>
        <time>2019-04-21T10:46:53Z</time>
      </trkpt>
      <trkpt lat="45.05644" lon="5.3731">
        <ele>524.18</ele>
        <time>2019-04-21T10:46:54Z</time>
      </trkpt>
      <trkpt lat="45.05645" lon="5.37311">
        <ele>524.418</ele>
        <time>2019-04-21T10:46:55Z</time>
      </trkpt>
      <trkpt lat="45.05646" lon="5.37323">
        <ele>524.681</ele>
        <time>2019-04-21T10:47:01Z</time>
      </trkpt>
      <trkpt lat="45.05647" lon="5.37334">
        <ele>526.117</ele>
        <time>2019-04-21T10:47:05Z</time>
      </trkpt>
      <trkpt lat="45.05649" lon="5.37338">
        <ele>524.847</ele>
        <time>2019-04-21T10:47:08Z</time>
      </trkpt>
      <trkpt lat="45.05652" lon="5.37348">
        <ele>525.959</ele>
        <time>2019-04-21T10:47:14Z</time>
      </trkpt>
      <trkpt lat="45.0566" lon="5.37373">
        <ele>527.379</ele>
        <time>2019-04-21T10:47:28Z</time>
      </trkpt>
      <trkpt lat="45.05662" lon="5.37375">
        <ele>527.377</ele>
        <time>2019-04-21T10:47:30Z</time>
      </trkpt>
      <trkpt lat="45.0567" lon="5.37378">
        <ele>528.261</ele>
        <time>2019-04-21T10:47:38Z</time>
      </trkpt>
      <trkpt lat="45.05676" lon="5.37387">
        <ele>529.582</ele>
        <time>2019-04-21T10:47:48Z</time>
      </trkpt>
      <trkpt lat="45.05677" lon="5.37387">
        <ele>530.288</ele>
        <time>2019-04-21T10:47:50Z</time>
      </trkpt>
      <trkpt lat="45.05676" lon="5.37387">
        <ele>528.773</ele>
        <time>2019-04-21T10:47:55Z</time>
      </trkpt>
      <trkpt lat="45.05676" lon="5.37387">
        <ele>529.046</ele>
        <time>2019-04-21T10:48:11Z</time>
      </trkpt>
      <trkpt lat="45.05674" lon="5.37387">
        <ele>529.929</ele>
        <time>2019-04-21T10:48:12Z</time>
      </trkpt>
      <trkpt lat="45.05674" lon="5.37386">
        <ele>529.561</ele>
        <time>2019-04-21T10:48:15Z</time>
      </trkpt>
      <trkpt lat="45.05674" lon="5.37386">
        <ele>529.427</ele>
        <time>2019-04-21T10:48:30Z</time>
      </trkpt>
      <trkpt lat="45.05672" lon="5.37385">
        <ele>529.324</ele>
        <time>2019-04-21T10:48:31Z</time>
      </trkpt>
      <trkpt lat="45.05673" lon="5.37385">
        <ele>529.437</ele>
        <time>2019-04-21T10:48:32Z</time>
      </trkpt>
      <trkpt lat="45.05676" lon="5.37385">
        <ele>529.237</ele>
        <time>2019-04-21T10:48:35Z</time>
      </trkpt>
      <trkpt lat="45.05678" lon="5.37387">
        <ele>528.354</ele>
        <time>2019-04-21T10:48:38Z</time>
      </trkpt>
      <trkpt lat="45.05686" lon="5.37394">
        <ele>528.762</ele>
        <time>2019-04-21T10:48:47Z</time>
      </trkpt>
      <trkpt lat="45.05691" lon="5.37401">
        <ele>529.636</ele>
        <time>2019-04-21T10:48:52Z</time>
      </trkpt>
      <trkpt lat="45.05701" lon="5.37408">
        <ele>531.745</ele>
        <time>2019-04-21T10:48:59Z</time>
      </trkpt>
      <trkpt lat="45.05705" lon="5.37408">
        <ele>531.314</ele>
        <time>2019-04-21T10:49:03Z</time>
      </trkpt>
      <trkpt lat="45.05711" lon="5.37406">
        <ele>532.82</ele>
        <time>2019-04-21T10:49:09Z</time>
      </trkpt>
      <trkpt lat="45.05718" lon="5.37395">
        <ele>534.419</ele>
        <time>2019-04-21T10:49:18Z</time>
      </trkpt>
      <trkpt lat="45.05729" lon="5.37363">
        <ele>533.101</ele>
        <time>2019-04-21T10:49:46Z</time>
      </trkpt>
      <trkpt lat="45.05729" lon="5.37359">
        <ele>531.481</ele>
        <time>2019-04-21T10:49:51Z</time>
      </trkpt>
      <trkpt lat="45.05729" lon="5.37359">
        <ele>531.421</ele>
        <time>2019-04-21T10:49:52Z</time>
      </trkpt>
      <trkpt lat="45.05734" lon="5.37351">
        <ele>532.203</ele>
        <time>2019-04-21T10:50:01Z</time>
      </trkpt>
      <trkpt lat="45.05736" lon="5.37348">
        <ele>532.625</ele>
        <time>2019-04-21T10:50:04Z</time>
      </trkpt>
      <trkpt lat="45.05739" lon="5.37345">
        <ele>532.1</ele>
        <time>2019-04-21T10:50:08Z</time>
      </trkpt>
      <trkpt lat="45.05749" lon="5.37328">
        <ele>532.829</ele>
        <time>2019-04-21T10:50:22Z</time>
      </trkpt>
      <trkpt lat="45.05762" lon="5.37317">
        <ele>532.116</ele>
        <time>2019-04-21T10:50:40Z</time>
      </trkpt>
      <trkpt lat="45.05761" lon="5.37316">
        <ele>531.555</ele>
        <time>2019-04-21T10:50:42Z</time>
      </trkpt>
      <trkpt lat="45.05761" lon="5.37316">
        <ele>531.248</ele>
        <time>2019-04-21T10:50:43Z</time>
      </trkpt>
      <trkpt lat="45.05761" lon="5.37316">
        <ele>531.248</ele>
        <time>2019-04-21T10:50:43Z</time>
      </trkpt>
      <trkpt lat="45.0576" lon="5.37317">
        <ele>531.48</ele>
        <time>2019-04-21T10:50:44Z</time>
      </trkpt>
      <trkpt lat="45.05759" lon="5.37317">
        <ele>531.959</ele>
        <time>2019-04-21T10:50:49Z</time>
      </trkpt>
      <trkpt lat="45.05759" lon="5.37317">
        <ele>532.793</ele>
        <time>2019-04-21T10:50:52Z</time>
      </trkpt>
      <trkpt lat="45.05759" lon="5.37318">
        <ele>532.658</ele>
        <time>2019-04-21T10:50:53Z</time>
      </trkpt>
      <trkpt lat="45.05759" lon="5.37318">
        <ele>532.686</ele>
        <time>2019-04-21T10:50:55Z</time>
      </trkpt>
      <trkpt lat="45.05759" lon="5.37318">
        <ele>532.689</ele>
        <time>2019-04-21T10:50:57Z</time>
      </trkpt>
      <trkpt lat="45.05757" lon="5.37319">
        <ele>532.758</ele>
        <time>2019-04-21T10:50:58Z</time>
      </trkpt>
      <trkpt lat="45.05757" lon="5.37319">
        <ele>532.756</ele>
        <time>2019-04-21T10:50:59Z</time>
      </trkpt>
      <trkpt lat="45.05757" lon="5.37319">
        <ele>532.756</ele>
        <time>2019-04-21T10:50:59Z</time>
      </trkpt>
      <trkpt lat="45.05757" lon="5.3732">
        <ele>532.611</ele>
        <time>2019-04-21T10:51:00Z</time>
      </trkpt>
      <trkpt lat="45.05758" lon="5.3732">
        <ele>531.973</ele>
        <time>2019-04-21T10:51:02Z</time>
      </trkpt>
      <trkpt lat="45.05758" lon="5.3732">
        <ele>531.782</ele>
        <time>2019-04-21T10:53:44Z</time>
      </trkpt>
      <trkpt lat="45.05758" lon="5.37319">
        <ele>531.998</ele>
        <time>2019-04-21T10:53:45Z</time>
      </trkpt>
      <trkpt lat="45.05758" lon="5.37319">
        <ele>531.998</ele>
        <time>2019-04-21T10:53:45Z</time>
      </trkpt>
      <trkpt lat="45.05758" lon="5.37319">
        <ele>531.866</ele>
        <time>2019-04-21T10:53:46Z</time>
      </trkpt>
      <trkpt lat="45.05758" lon="5.37319">
        <ele>531.854</ele>
        <time>2019-04-21T10:53:51Z</time>
      </trkpt>
      <trkpt lat="45.05758" lon="5.37319">
        <ele>531.704</ele>
        <time>2019-04-21T10:53:52Z</time>
      </trkpt>
      <trkpt lat="45.05758" lon="5.37319">
        <ele>531.622</ele>
        <time>2019-04-21T10:53:53Z</time>
      </trkpt>
      <trkpt lat="45.05758" lon="5.37319">
        <ele>531.634</ele>
        <time>2019-04-21T10:54:59Z</time>
      </trkpt>
      <trkpt lat="45.0576" lon="5.37319">
        <ele>531.515</ele>
        <time>2019-04-21T10:55:00Z</time>
      </trkpt>
      <trkpt lat="45.0576" lon="5.37319">
        <ele>531.469</ele>
        <time>2019-04-21T10:55:01Z</time>
      </trkpt>
      <trkpt lat="45.0576" lon="5.37319">
        <ele>532.011</ele>
        <time>2019-04-21T11:03:13Z</time>
      </trkpt>
      <trkpt lat="45.05759" lon="5.37318">
        <ele>532.058</ele>
        <time>2019-04-21T11:03:14Z</time>
      </trkpt>
      <trkpt lat="45.05759" lon="5.37318">
        <ele>532.088</ele>
        <time>2019-04-21T11:03:15Z</time>
      </trkpt>
      <trkpt lat="45.05759" lon="5.37318">
        <ele>532.191</ele>
        <time>2019-04-21T11:49:51Z</time>
      </trkpt>
      <trkpt lat="45.05759" lon="5.37317">
        <ele>532.297</ele>
        <time>2019-04-21T11:49:52Z</time>
      </trkpt>
      <trkpt lat="45.05759" lon="5.37317">
        <ele>532.263</ele>
        <time>2019-04-21T11:49:53Z</time>
      </trkpt>
      <trkpt lat="45.05759" lon="5.37317">
        <ele>532.257</ele>
        <time>2019-04-21T11:50:00Z</time>
      </trkpt>
      <trkpt lat="45.05758" lon="5.37317">
        <ele>532.401</ele>
        <time>2019-04-21T11:50:01Z</time>
      </trkpt>
      <trkpt lat="45.05758" lon="5.37317">
        <ele>532.368</ele>
        <time>2019-04-21T11:50:02Z</time>
      </trkpt>
      <trkpt lat="45.05758" lon="5.37317">
        <ele>532.181</ele>
        <time>2019-04-21T11:52:58Z</time>
      </trkpt>
      <trkpt lat="45.05758" lon="5.37317">
        <ele>532.144</ele>
        <time>2019-04-21T11:52:59Z</time>
      </trkpt>
      <trkpt lat="45.05758" lon="5.37317">
        <ele>532.192</ele>
        <time>2019-04-21T11:53:00Z</time>
      </trkpt>
      <trkpt lat="45.05758" lon="5.37317">
        <ele>532.208</ele>
        <time>2019-04-21T11:53:52Z</time>
      </trkpt>
      <trkpt lat="45.05759" lon="5.37318">
        <ele>532.04</ele>
        <time>2019-04-21T11:53:53Z</time>
      </trkpt>
      <trkpt lat="45.05759" lon="5.37318">
        <ele>532.004</ele>
        <time>2019-04-21T11:53:54Z</time>
      </trkpt>
      <trkpt lat="45.05759" lon="5.37318">
        <ele>532.013</ele>
        <time>2019-04-21T11:55:55Z</time>
      </trkpt>
      <trkpt lat="45.05759" lon="5.37318">
        <ele>531.998</ele>
        <time>2019-04-21T11:55:56Z</time>
      </trkpt>
      <trkpt lat="45.05759" lon="5.37317">
        <ele>531.693</ele>
        <time>2019-04-21T11:55:58Z</time>
      </trkpt>
      <trkpt lat="45.05759" lon="5.37317">
        <ele>531.693</ele>
        <time>2019-04-21T11:55:58Z</time>
      </trkpt>
      <trkpt lat="45.05759" lon="5.37317">
        <ele>531.703</ele>
        <time>2019-04-21T11:55:59Z</time>
      </trkpt>
      <trkpt lat="45.05759" lon="5.37317">
        <ele>531.477</ele>
        <time>2019-04-21T11:56:00Z</time>
      </trkpt>
      <trkpt lat="45.05759" lon="5.37317">
        <ele>531.471</ele>
        <time>2019-04-21T11:56:01Z</time>
      </trkpt>
      <trkpt lat="45.05759" lon="5.37317">
        <ele>531.553</ele>
        <time>2019-04-21T11:56:08Z</time>
      </trkpt>
      <trkpt lat="45.05758" lon="5.37318">
        <ele>531.464</ele>
        <time>2019-04-21T11:56:09Z</time>
      </trkpt>
      <trkpt lat="45.05758" lon="5.37318">
        <ele>531.464</ele>
        <time>2019-04-21T11:56:09Z</time>
      </trkpt>
      <trkpt lat="45.05758" lon="5.37318">
        <ele>531.488</ele>
        <time>2019-04-21T11:56:10Z</time>
      </trkpt>
      <trkpt lat="45.05758" lon="5.37318">
        <ele>531.438</ele>
        <time>2019-04-21T11:56:28Z</time>
      </trkpt>
      <trkpt lat="45.05759" lon="5.37318">
        <ele>531.342</ele>
        <time>2019-04-21T11:56:29Z</time>
      </trkpt>
      <trkpt lat="45.05759" lon="5.37318">
        <ele>531.282</ele>
        <time>2019-04-21T11:56:30Z</time>
      </trkpt>
      <trkpt lat="45.05759" lon="5.37318">
        <ele>531.282</ele>
        <time>2019-04-21T11:56:30Z</time>
      </trkpt>
      <trkpt lat="45.05759" lon="5.37318">
        <ele>531.178</ele>
        <time>2019-04-21T11:56:31Z</time>
      </trkpt>
      <trkpt lat="45.05759" lon="5.37318">
        <ele>531.157</ele>
        <time>2019-04-21T11:56:39Z</time>
      </trkpt>
      <trkpt lat="45.05759" lon="5.37318">
        <ele>530.368</ele>
        <time>2019-04-21T11:56:40Z</time>
      </trkpt>
      <trkpt lat="45.05759" lon="5.37318">
        <ele>530.368</ele>
        <time>2019-04-21T11:56:40Z</time>
      </trkpt>
      <trkpt lat="45.05759" lon="5.37318">
        <ele>529.995</ele>
        <time>2019-04-21T11:56:41Z</time>
      </trkpt>
      <trkpt lat="45.05759" lon="5.37318">
        <ele>529.647</ele>
        <time>2019-04-21T11:56:42Z</time>
      </trkpt>
      <trkpt lat="45.05759" lon="5.37318">
        <ele>529.283</ele>
        <time>2019-04-21T11:56:57Z</time>
      </trkpt>
      <trkpt lat="45.0576" lon="5.37319">
        <ele>529.187</ele>
        <time>2019-04-21T11:56:58Z</time>
      </trkpt>
      <trkpt lat="45.0576" lon="5.37321">
        <ele>528.087</ele>
        <time>2019-04-21T11:57:01Z</time>
      </trkpt>
      <trkpt lat="45.05761" lon="5.37322">
        <ele>527.846</ele>
        <time>2019-04-21T11:57:02Z</time>
      </trkpt>
      <trkpt lat="45.05761" lon="5.37323">
        <ele>527.399</ele>
        <time>2019-04-21T11:57:03Z</time>
      </trkpt>
      <trkpt lat="45.05761" lon="5.37323">
        <ele>526.963</ele>
        <time>2019-04-21T11:57:04Z</time>
      </trkpt>
      <trkpt lat="45.05761" lon="5.37323">
        <ele>526.963</ele>
        <time>2019-04-21T11:57:04Z</time>
      </trkpt>
      <trkpt lat="45.05762" lon="5.37324">
        <ele>526.28</ele>
        <time>2019-04-21T11:57:05Z</time>
      </trkpt>
      <trkpt lat="45.05762" lon="5.37324">
        <ele>526.211</ele>
        <time>2019-04-21T11:57:06Z</time>
      </trkpt>
      <trkpt lat="45.05764" lon="5.37324">
        <ele>524.866</ele>
        <time>2019-04-21T11:57:09Z</time>
      </trkpt>
      <trkpt lat="45.05764" lon="5.37323">
        <ele>524.239</ele>
        <time>2019-04-21T11:57:11Z</time>
      </trkpt>
      <trkpt lat="45.05764" lon="5.37323">
        <ele>523.721</ele>
        <time>2019-04-21T11:57:12Z</time>
      </trkpt>
      <trkpt lat="45.05764" lon="5.37323">
        <ele>523.696</ele>
        <time>2019-04-21T11:57:15Z</time>
      </trkpt>
      <trkpt lat="45.05764" lon="5.37323">
        <ele>523.548</ele>
        <time>2019-04-21T11:57:16Z</time>
      </trkpt>
      <trkpt lat="45.05765" lon="5.37323">
        <ele>523.83</ele>
        <time>2019-04-21T11:57:19Z</time>
      </trkpt>
      <trkpt lat="45.05766" lon="5.37322">
        <ele>523.721</ele>
        <time>2019-04-21T11:57:21Z</time>
      </trkpt>
      <trkpt lat="45.05767" lon="5.37321">
        <ele>523.084</ele>
        <time>2019-04-21T11:57:23Z</time>
      </trkpt>
      <trkpt lat="45.05769" lon="5.3732">
        <ele>523.818</ele>
        <time>2019-04-21T11:57:26Z</time>
      </trkpt>
      <trkpt lat="45.05772" lon="5.37318">
        <ele>522.385</ele>
        <time>2019-04-21T11:57:31Z</time>
      </trkpt>
      <trkpt lat="45.05796" lon="5.37318">
        <ele>524.522</ele>
        <time>2019-04-21T11:57:55Z</time>
      </trkpt>
      <trkpt lat="45.05808" lon="5.37313">
        <ele>524.431</ele>
        <time>2019-04-21T11:58:09Z</time>
      </trkpt>
      <trkpt lat="45.05808" lon="5.37313">
        <ele>524.073</ele>
        <time>2019-04-21T11:58:14Z</time>
      </trkpt>
      <trkpt lat="45.05808" lon="5.37312">
        <ele>524.198</ele>
        <time>2019-04-21T11:58:15Z</time>
      </trkpt>
      <trkpt lat="45.0581" lon="5.37311">
        <ele>524.103</ele>
        <time>2019-04-21T11:58:17Z</time>
      </trkpt>
      <trkpt lat="45.05811" lon="5.37311">
        <ele>524.187</ele>
        <time>2019-04-21T11:58:19Z</time>
      </trkpt>
      <trkpt lat="45.05811" lon="5.37311">
        <ele>524.328</ele>
        <time>2019-04-21T11:58:20Z</time>
      </trkpt>
      <trkpt lat="45.05811" lon="5.37311">
        <ele>524.197</ele>
        <time>2019-04-21T11:58:29Z</time>
      </trkpt>
      <trkpt lat="45.05812" lon="5.3731">
        <ele>524.107</ele>
        <time>2019-04-21T11:58:30Z</time>
      </trkpt>
      <trkpt lat="45.05813" lon="5.3731">
        <ele>524.265</ele>
        <time>2019-04-21T11:58:31Z</time>
      </trkpt>
      <trkpt lat="45.05817" lon="5.37308">
        <ele>523.965</ele>
        <time>2019-04-21T11:58:34Z</time>
      </trkpt>
      <trkpt lat="45.05821" lon="5.37307">
        <ele>522.264</ele>
        <time>2019-04-21T11:58:39Z</time>
      </trkpt>
      <trkpt lat="45.05821" lon="5.37307">
        <ele>522.012</ele>
        <time>2019-04-21T11:58:40Z</time>
      </trkpt>
      <trkpt lat="45.05821" lon="5.37307">
        <ele>521.761</ele>
        <time>2019-04-21T11:58:41Z</time>
      </trkpt>
      <trkpt lat="45.05821" lon="5.37307">
        <ele>521.761</ele>
        <time>2019-04-21T11:58:41Z</time>
      </trkpt>
      <trkpt lat="45.05821" lon="5.37308">
        <ele>521.967</ele>
        <time>2019-04-21T11:58:42Z</time>
      </trkpt>
      <trkpt lat="45.05821" lon="5.37308">
        <ele>521.967</ele>
        <time>2019-04-21T11:58:42Z</time>
      </trkpt>
      <trkpt lat="45.05821" lon="5.37308">
        <ele>522.084</ele>
        <time>2019-04-21T11:58:43Z</time>
      </trkpt>
      <trkpt lat="45.05821" lon="5.37308">
        <ele>522.699</ele>
        <time>2019-04-21T11:58:49Z</time>
      </trkpt>
      <trkpt lat="45.05824" lon="5.37308">
        <ele>522.958</ele>
        <time>2019-04-21T11:58:50Z</time>
      </trkpt>
      <trkpt lat="45.05824" lon="5.37308">
        <ele>523.148</ele>
        <time>2019-04-21T11:58:51Z</time>
      </trkpt>
      <trkpt lat="45.05826" lon="5.37309">
        <ele>521.978</ele>
        <time>2019-04-21T11:58:55Z</time>
      </trkpt>
      <trkpt lat="45.05827" lon="5.3731">
        <ele>519.479</ele>
        <time>2019-04-21T11:58:58Z</time>
      </trkpt>
      <trkpt lat="45.05827" lon="5.37309">
        <ele>519.385</ele>
        <time>2019-04-21T11:58:59Z</time>
      </trkpt>
      <trkpt lat="45.05827" lon="5.37309">
        <ele>519.035</ele>
        <time>2019-04-21T11:59:00Z</time>
      </trkpt>
      <trkpt lat="45.05828" lon="5.37309">
        <ele>519.27</ele>
        <time>2019-04-21T11:59:02Z</time>
      </trkpt>
      <trkpt lat="45.05835" lon="5.37311">
        <ele>518.497</ele>
        <time>2019-04-21T11:59:14Z</time>
      </trkpt>
      <trkpt lat="45.05838" lon="5.37309">
        <ele>518.893</ele>
        <time>2019-04-21T11:59:18Z</time>
      </trkpt>
      <trkpt lat="45.05838" lon="5.37309">
        <ele>519.049</ele>
        <time>2019-04-21T11:59:19Z</time>
      </trkpt>
      <trkpt lat="45.05838" lon="5.37309">
        <ele>519.215</ele>
        <time>2019-04-21T11:59:20Z</time>
      </trkpt>
      <trkpt lat="45.05838" lon="5.37309">
        <ele>519.215</ele>
        <time>2019-04-21T11:59:20Z</time>
      </trkpt>
      <trkpt lat="45.05839" lon="5.37309">
        <ele>519.18</ele>
        <time>2019-04-21T11:59:21Z</time>
      </trkpt>
      <trkpt lat="45.05839" lon="5.37309">
        <ele>519.238</ele>
        <time>2019-04-21T11:59:22Z</time>
      </trkpt>
      <trkpt lat="45.05839" lon="5.37309">
        <ele>519.263</ele>
        <time>2019-04-21T11:59:26Z</time>
      </trkpt>
      <trkpt lat="45.0584" lon="5.37309">
        <ele>519.118</ele>
        <time>2019-04-21T11:59:27Z</time>
      </trkpt>
      <trkpt lat="45.0584" lon="5.37309">
        <ele>519.212</ele>
        <time>2019-04-21T11:59:28Z</time>
      </trkpt>
      <trkpt lat="45.0584" lon="5.37309">
        <ele>519.047</ele>
        <time>2019-04-21T11:59:30Z</time>
      </trkpt>
      <trkpt lat="45.0584" lon="5.37309">
        <ele>519.053</ele>
        <time>2019-04-21T11:59:31Z</time>
      </trkpt>
      <trkpt lat="45.0584" lon="5.37309">
        <ele>519.036</ele>
        <time>2019-04-21T11:59:32Z</time>
      </trkpt>
      <trkpt lat="45.0584" lon="5.37309">
        <ele>519.036</ele>
        <time>2019-04-21T11:59:32Z</time>
      </trkpt>
      <trkpt lat="45.0584" lon="5.37309">
        <ele>518.865</ele>
        <time>2019-04-21T11:59:33Z</time>
      </trkpt>
      <trkpt lat="45.05841" lon="5.37309">
        <ele>518.909</ele>
        <time>2019-04-21T11:59:34Z</time>
      </trkpt>
      <trkpt lat="45.05844" lon="5.3731">
        <ele>518.908</ele>
        <time>2019-04-21T11:59:38Z</time>
      </trkpt>
      <trkpt lat="45.05851" lon="5.37313">
        <ele>519.518</ele>
        <time>2019-04-21T11:59:47Z</time>
      </trkpt>
      <trkpt lat="45.05853" lon="5.37313">
        <ele>519.462</ele>
        <time>2019-04-21T11:59:50Z</time>
      </trkpt>
      <trkpt lat="45.05855" lon="5.37314">
        <ele>519.882</ele>
        <time>2019-04-21T11:59:52Z</time>
      </trkpt>
      <trkpt lat="45.05856" lon="5.37315">
        <ele>520.246</ele>
        <time>2019-04-21T11:59:53Z</time>
      </trkpt>
      <trkpt lat="45.0586" lon="5.37315">
        <ele>519.951</ele>
        <time>2019-04-21T11:59:56Z</time>
      </trkpt>
      <trkpt lat="45.05874" lon="5.37313">
        <ele>518.95</ele>
        <time>2019-04-21T12:00:13Z</time>
      </trkpt>
      <trkpt lat="45.0589" lon="5.37336">
        <ele>519.456</ele>
        <time>2019-04-21T12:00:33Z</time>
      </trkpt>
      <trkpt lat="45.05891" lon="5.37335">
        <ele>519.559</ele>
        <time>2019-04-21T12:00:35Z</time>
      </trkpt>
      <trkpt lat="45.05891" lon="5.37335">
        <ele>519.353</ele>
        <time>2019-04-21T12:00:36Z</time>
      </trkpt>
      <trkpt lat="45.05891" lon="5.37335">
        <ele>519.599</ele>
        <time>2019-04-21T12:00:42Z</time>
      </trkpt>
      <trkpt lat="45.05892" lon="5.37332">
        <ele>519.725</ele>
        <time>2019-04-21T12:00:43Z</time>
      </trkpt>
      <trkpt lat="45.05893" lon="5.37331">
        <ele>520.18</ele>
        <time>2019-04-21T12:00:46Z</time>
      </trkpt>
      <trkpt lat="45.05894" lon="5.3733">
        <ele>520.072</ele>
        <time>2019-04-21T12:00:47Z</time>
      </trkpt>
      <trkpt lat="45.05896" lon="5.37321">
        <ele>518.515</ele>
        <time>2019-04-21T12:00:57Z</time>
      </trkpt>
      <trkpt lat="45.05896" lon="5.37321">
        <ele>518.859</ele>
        <time>2019-04-21T12:01:07Z</time>
      </trkpt>
      <trkpt lat="45.05897" lon="5.37321">
        <ele>519.021</ele>
        <time>2019-04-21T12:01:08Z</time>
      </trkpt>
      <trkpt lat="45.05898" lon="5.37316">
        <ele>518.148</ele>
        <time>2019-04-21T12:01:12Z</time>
      </trkpt>
      <trkpt lat="45.05898" lon="5.37311">
        <ele>516.921</ele>
        <time>2019-04-21T12:01:15Z</time>
      </trkpt>
      <trkpt lat="45.05897" lon="5.37302">
        <ele>516.237</ele>
        <time>2019-04-21T12:01:23Z</time>
      </trkpt>
      <trkpt lat="45.05897" lon="5.37301">
        <ele>516.548</ele>
        <time>2019-04-21T12:01:26Z</time>
      </trkpt>
      <trkpt lat="45.05897" lon="5.37301">
        <ele>516.548</ele>
        <time>2019-04-21T12:01:26Z</time>
      </trkpt>
      <trkpt lat="45.05897" lon="5.37301">
        <ele>516.564</ele>
        <time>2019-04-21T12:01:27Z</time>
      </trkpt>
      <trkpt lat="45.05897" lon="5.37301">
        <ele>517.058</ele>
        <time>2019-04-21T12:01:57Z</time>
      </trkpt>
      <trkpt lat="45.05897" lon="5.37299">
        <ele>517.116</ele>
        <time>2019-04-21T12:01:58Z</time>
      </trkpt>
      <trkpt lat="45.05898" lon="5.37299">
        <ele>517.621</ele>
        <time>2019-04-21T12:01:59Z</time>
      </trkpt>
      <trkpt lat="45.05898" lon="5.37299">
        <ele>517.621</ele>
        <time>2019-04-21T12:01:59Z</time>
      </trkpt>
      <trkpt lat="45.05898" lon="5.37298">
        <ele>517.902</ele>
        <time>2019-04-21T12:02:00Z</time>
      </trkpt>
      <trkpt lat="45.05899" lon="5.37292">
        <ele>515.287</ele>
        <time>2019-04-21T12:02:06Z</time>
      </trkpt>
      <trkpt lat="45.059" lon="5.37286">
        <ele>514.377</ele>
        <time>2019-04-21T12:02:11Z</time>
      </trkpt>
      <trkpt lat="45.059" lon="5.37284">
        <ele>513.862</ele>
        <time>2019-04-21T12:02:14Z</time>
      </trkpt>
      <trkpt lat="45.059" lon="5.37284">
        <ele>513.862</ele>
        <time>2019-04-21T12:02:14Z</time>
      </trkpt>
      <trkpt lat="45.059" lon="5.37284">
        <ele>514.113</ele>
        <time>2019-04-21T12:02:15Z</time>
      </trkpt>
      <trkpt lat="45.059" lon="5.37284">
        <ele>514.139</ele>
        <time>2019-04-21T12:02:18Z</time>
      </trkpt>
      <trkpt lat="45.059" lon="5.37283">
        <ele>514.053</ele>
        <time>2019-04-21T12:02:19Z</time>
      </trkpt>
      <trkpt lat="45.059" lon="5.37283">
        <ele>514.053</ele>
        <time>2019-04-21T12:02:19Z</time>
      </trkpt>
      <trkpt lat="45.059" lon="5.37283">
        <ele>514.116</ele>
        <time>2019-04-21T12:02:20Z</time>
      </trkpt>
      <trkpt lat="45.05899" lon="5.37275">
        <ele>512.657</ele>
        <time>2019-04-21T12:02:27Z</time>
      </trkpt>
      <trkpt lat="45.05899" lon="5.37274">
        <ele>512.478</ele>
        <time>2019-04-21T12:02:28Z</time>
      </trkpt>
      <trkpt lat="45.05899" lon="5.37274">
        <ele>512.478</ele>
        <time>2019-04-21T12:02:28Z</time>
      </trkpt>
      <trkpt lat="45.05899" lon="5.37274">
        <ele>512.529</ele>
        <time>2019-04-21T12:02:29Z</time>
      </trkpt>
      <trkpt lat="45.05898" lon="5.37272">
        <ele>512.102</ele>
        <time>2019-04-21T12:02:31Z</time>
      </trkpt>
      <trkpt lat="45.05897" lon="5.37271">
        <ele>511.131</ele>
        <time>2019-04-21T12:02:34Z</time>
      </trkpt>
      <trkpt lat="45.05897" lon="5.37271">
        <ele>511.182</ele>
        <time>2019-04-21T12:02:35Z</time>
      </trkpt>
      <trkpt lat="45.05897" lon="5.37271">
        <ele>511.182</ele>
        <time>2019-04-21T12:02:35Z</time>
      </trkpt>
      <trkpt lat="45.05897" lon="5.37271">
        <ele>511.372</ele>
        <time>2019-04-21T12:02:36Z</time>
      </trkpt>
      <trkpt lat="45.05897" lon="5.37271">
        <ele>511.433</ele>
        <time>2019-04-21T12:02:39Z</time>
      </trkpt>
      <trkpt lat="45.05897" lon="5.37271">
        <ele>511.368</ele>
        <time>2019-04-21T12:02:40Z</time>
      </trkpt>
      <trkpt lat="45.05897" lon="5.37271">
        <ele>511.368</ele>
        <time>2019-04-21T12:02:40Z</time>
      </trkpt>
      <trkpt lat="45.05897" lon="5.37271">
        <ele>511.344</ele>
        <time>2019-04-21T12:02:41Z</time>
      </trkpt>
      <trkpt lat="45.05897" lon="5.37271">
        <ele>511.09</ele>
        <time>2019-04-21T12:02:46Z</time>
      </trkpt>
      <trkpt lat="45.05897" lon="5.37273">
        <ele>510.656</ele>
        <time>2019-04-21T12:02:47Z</time>
      </trkpt>
      <trkpt lat="45.05899" lon="5.3728">
        <ele>511.092</ele>
        <time>2019-04-21T12:02:52Z</time>
      </trkpt>
      <trkpt lat="45.05898" lon="5.37286">
        <ele>511.595</ele>
        <time>2019-04-21T12:02:58Z</time>
      </trkpt>
      <trkpt lat="45.05898" lon="5.37286">
        <ele>511.361</ele>
        <time>2019-04-21T12:03:05Z</time>
      </trkpt>
      <trkpt lat="45.05898" lon="5.37288">
        <ele>510.09</ele>
        <time>2019-04-21T12:03:06Z</time>
      </trkpt>
      <trkpt lat="45.05897" lon="5.37289">
        <ele>509.974</ele>
        <time>2019-04-21T12:03:07Z</time>
      </trkpt>
      <trkpt lat="45.05897" lon="5.37293">
        <ele>511.503</ele>
        <time>2019-04-21T12:03:11Z</time>
      </trkpt>
      <trkpt lat="45.05898" lon="5.37298">
        <ele>511.573</ele>
        <time>2019-04-21T12:03:14Z</time>
      </trkpt>
      <trkpt lat="45.05898" lon="5.37306">
        <ele>513.223</ele>
        <time>2019-04-21T12:03:21Z</time>
      </trkpt>
      <trkpt lat="45.05897" lon="5.37315">
        <ele>513.263</ele>
        <time>2019-04-21T12:03:26Z</time>
      </trkpt>
      <trkpt lat="45.05895" lon="5.37324">
        <ele>514.747</ele>
        <time>2019-04-21T12:03:34Z</time>
      </trkpt>
      <trkpt lat="45.05895" lon="5.37324">
        <ele>514.747</ele>
        <time>2019-04-21T12:03:34Z</time>
      </trkpt>
      <trkpt lat="45.05895" lon="5.37324">
        <ele>514.803</ele>
        <time>2019-04-21T12:03:35Z</time>
      </trkpt>
      <trkpt lat="45.05895" lon="5.37324">
        <ele>514.803</ele>
        <time>2019-04-21T12:03:35Z</time>
      </trkpt>
      <trkpt lat="45.05896" lon="5.37324">
        <ele>514.442</ele>
        <time>2019-04-21T12:03:36Z</time>
      </trkpt>
      <trkpt lat="45.05896" lon="5.37324">
        <ele>514.442</ele>
        <time>2019-04-21T12:03:36Z</time>
      </trkpt>
      <trkpt lat="45.05896" lon="5.37324">
        <ele>514.402</ele>
        <time>2019-04-21T12:03:37Z</time>
      </trkpt>
      <trkpt lat="45.05896" lon="5.37324">
        <ele>514.323</ele>
        <time>2019-04-21T12:03:48Z</time>
      </trkpt>
      <trkpt lat="45.05895" lon="5.37323">
        <ele>514.84</ele>
        <time>2019-04-21T12:03:49Z</time>
      </trkpt>
      <trkpt lat="45.05896" lon="5.37323">
        <ele>514.76</ele>
        <time>2019-04-21T12:03:50Z</time>
      </trkpt>
      <trkpt lat="45.05896" lon="5.37323">
        <ele>514.234</ele>
        <time>2019-04-21T12:03:51Z</time>
      </trkpt>
      <trkpt lat="45.05896" lon="5.37322">
        <ele>514.3</ele>
        <time>2019-04-21T12:03:54Z</time>
      </trkpt>
      <trkpt lat="45.05896" lon="5.37321">
        <ele>514.904</ele>
        <time>2019-04-21T12:03:56Z</time>
      </trkpt>
      <trkpt lat="45.05896" lon="5.37321">
        <ele>514.904</ele>
        <time>2019-04-21T12:03:56Z</time>
      </trkpt>
      <trkpt lat="45.05896" lon="5.37321">
        <ele>514.887</ele>
        <time>2019-04-21T12:03:57Z</time>
      </trkpt>
      <trkpt lat="45.05896" lon="5.37321">
        <ele>514.615</ele>
        <time>2019-04-21T12:03:58Z</time>
      </trkpt>
      <trkpt lat="45.05896" lon="5.37321">
        <ele>514.467</ele>
        <time>2019-04-21T12:04:03Z</time>
      </trkpt>
      <trkpt lat="45.05896" lon="5.37319">
        <ele>514.493</ele>
        <time>2019-04-21T12:04:04Z</time>
      </trkpt>
      <trkpt lat="45.05896" lon="5.37318">
        <ele>514.455</ele>
        <time>2019-04-21T12:04:05Z</time>
      </trkpt>
      <trkpt lat="45.05896" lon="5.37313">
        <ele>516.138</ele>
        <time>2019-04-21T12:04:09Z</time>
      </trkpt>
      <trkpt lat="45.05896" lon="5.37313">
        <ele>515.732</ele>
        <time>2019-04-21T12:04:11Z</time>
      </trkpt>
      <trkpt lat="45.05895" lon="5.37313">
        <ele>515.988</ele>
        <time>2019-04-21T12:04:25Z</time>
      </trkpt>
      <trkpt lat="45.05895" lon="5.37313">
        <ele>516.231</ele>
        <time>2019-04-21T12:04:26Z</time>
      </trkpt>
      <trkpt lat="45.05895" lon="5.37313">
        <ele>516.081</ele>
        <time>2019-04-21T12:04:27Z</time>
      </trkpt>
      <trkpt lat="45.05895" lon="5.37313">
        <ele>516.121</ele>
        <time>2019-04-21T12:04:38Z</time>
      </trkpt>
      <trkpt lat="45.05895" lon="5.37312">
        <ele>515.634</ele>
        <time>2019-04-21T12:04:39Z</time>
      </trkpt>
      <trkpt lat="45.05895" lon="5.37312">
        <ele>515.087</ele>
        <time>2019-04-21T12:04:41Z</time>
      </trkpt>
      <trkpt lat="45.05895" lon="5.37312">
        <ele>515.087</ele>
        <time>2019-04-21T12:04:41Z</time>
      </trkpt>
      <trkpt lat="45.05895" lon="5.37312">
        <ele>514.653</ele>
        <time>2019-04-21T12:04:42Z</time>
      </trkpt>
      <trkpt lat="45.05895" lon="5.37312">
        <ele>514.734</ele>
        <time>2019-04-21T12:04:43Z</time>
      </trkpt>
      <trkpt lat="45.05894" lon="5.37312">
        <ele>514.76</ele>
        <time>2019-04-21T12:04:44Z</time>
      </trkpt>
      <trkpt lat="45.05893" lon="5.37313">
        <ele>515.069</ele>
        <time>2019-04-21T12:04:49Z</time>
      </trkpt>
      <trkpt lat="45.05893" lon="5.37313">
        <ele>514.601</ele>
        <time>2019-04-21T12:05:18Z</time>
      </trkpt>
      <trkpt lat="45.05894" lon="5.37313">
        <ele>514.573</ele>
        <time>2019-04-21T12:05:19Z</time>
      </trkpt>
      <trkpt lat="45.05894" lon="5.37312">
        <ele>514.79</ele>
        <time>2019-04-21T12:05:21Z</time>
      </trkpt>
      <trkpt lat="45.05894" lon="5.37312">
        <ele>514.698</ele>
        <time>2019-04-21T12:05:22Z</time>
      </trkpt>
      <trkpt lat="45.05894" lon="5.37312">
        <ele>514.724</ele>
        <time>2019-04-21T12:05:23Z</time>
      </trkpt>
      <trkpt lat="45.05894" lon="5.37312">
        <ele>514.735</ele>
        <time>2019-04-21T12:05:28Z</time>
      </trkpt>
      <trkpt lat="45.05895" lon="5.37311">
        <ele>513.427</ele>
        <time>2019-04-21T12:05:29Z</time>
      </trkpt>
      <trkpt lat="45.05895" lon="5.37311">
        <ele>513.427</ele>
        <time>2019-04-21T12:05:29Z</time>
      </trkpt>
      <trkpt lat="45.05895" lon="5.37311">
        <ele>512.989</ele>
        <time>2019-04-21T12:05:30Z</time>
      </trkpt>
      <trkpt lat="45.05895" lon="5.37311">
        <ele>512.501</ele>
        <time>2019-04-21T12:05:35Z</time>
      </trkpt>
      <trkpt lat="45.05895" lon="5.3731">
        <ele>512.824</ele>
        <time>2019-04-21T12:05:36Z</time>
      </trkpt>
      <trkpt lat="45.05894" lon="5.37311">
        <ele>512.682</ele>
        <time>2019-04-21T12:05:37Z</time>
      </trkpt>
      <trkpt lat="45.05893" lon="5.37312">
        <ele>512.824</ele>
        <time>2019-04-21T12:05:38Z</time>
      </trkpt>
      <trkpt lat="45.05892" lon="5.37314">
        <ele>514.015</ele>
        <time>2019-04-21T12:05:39Z</time>
      </trkpt>
      <trkpt lat="45.05893" lon="5.37324">
        <ele>513.593</ele>
        <time>2019-04-21T12:05:43Z</time>
      </trkpt>
      <trkpt lat="45.05896" lon="5.37337">
        <ele>515.071</ele>
        <time>2019-04-21T12:05:49Z</time>
      </trkpt>
      <trkpt lat="45.05915" lon="5.37369">
        <ele>517.562</ele>
        <time>2019-04-21T12:06:08Z</time>
      </trkpt>
      <trkpt lat="45.05925" lon="5.37391">
        <ele>517.021</ele>
        <time>2019-04-21T12:06:20Z</time>
      </trkpt>
      <trkpt lat="45.0593" lon="5.37401">
        <ele>517.435</ele>
        <time>2019-04-21T12:06:26Z</time>
      </trkpt>
      <trkpt lat="45.05933" lon="5.37406">
        <ele>516.453</ele>
        <time>2019-04-21T12:06:30Z</time>
      </trkpt>
      <trkpt lat="45.05951" lon="5.37426">
        <ele>518.655</ele>
        <time>2019-04-21T12:06:49Z</time>
      </trkpt>
      <trkpt lat="45.05958" lon="5.37435">
        <ele>517.85</ele>
        <time>2019-04-21T12:06:57Z</time>
      </trkpt>
      <trkpt lat="45.05963" lon="5.37438">
        <ele>517.945</ele>
        <time>2019-04-21T12:07:02Z</time>
      </trkpt>
      <trkpt lat="45.06017" lon="5.3749">
        <ele>515.998</ele>
        <time>2019-04-21T12:07:58Z</time>
      </trkpt>
      <trkpt lat="45.06042" lon="5.37497">
        <ele>514.825</ele>
        <time>2019-04-21T12:08:18Z</time>
      </trkpt>
      <trkpt lat="45.06062" lon="5.37498">
        <ele>512.78</ele>
        <time>2019-04-21T12:08:33Z</time>
      </trkpt>
      <trkpt lat="45.06078" lon="5.375">
        <ele>510.664</ele>
        <time>2019-04-21T12:08:46Z</time>
      </trkpt>
      <trkpt lat="45.06087" lon="5.37506">
        <ele>510.481</ele>
        <time>2019-04-21T12:08:53Z</time>
      </trkpt>
      <trkpt lat="45.06089" lon="5.37511">
        <ele>510.355</ele>
        <time>2019-04-21T12:08:57Z</time>
      </trkpt>
      <trkpt lat="45.06094" lon="5.37521">
        <ele>509.992</ele>
        <time>2019-04-21T12:09:04Z</time>
      </trkpt>
      <trkpt lat="45.06096" lon="5.37524">
        <ele>510.341</ele>
        <time>2019-04-21T12:09:07Z</time>
      </trkpt>
      <trkpt lat="45.06115" lon="5.37561">
        <ele>510.171</ele>
        <time>2019-04-21T12:09:33Z</time>
      </trkpt>
      <trkpt lat="45.06169" lon="5.37623">
        <ele>508.21</ele>
        <time>2019-04-21T12:10:36Z</time>
      </trkpt>
      <trkpt lat="45.06171" lon="5.37626">
        <ele>507.988</ele>
        <time>2019-04-21T12:10:39Z</time>
      </trkpt>
      <trkpt lat="45.06172" lon="5.3763">
        <ele>507.408</ele>
        <time>2019-04-21T12:10:42Z</time>
      </trkpt>
      <trkpt lat="45.06183" lon="5.37656">
        <ele>505.784</ele>
        <time>2019-04-21T12:10:59Z</time>
      </trkpt>
      <trkpt lat="45.06186" lon="5.37658">
        <ele>505.916</ele>
        <time>2019-04-21T12:11:02Z</time>
      </trkpt>
      <trkpt lat="45.06186" lon="5.37658">
        <ele>505.552</ele>
        <time>2019-04-21T12:11:03Z</time>
      </trkpt>
      <trkpt lat="45.06189" lon="5.37659">
        <ele>504.782</ele>
        <time>2019-04-21T12:11:07Z</time>
      </trkpt>
      <trkpt lat="45.06189" lon="5.37659">
        <ele>504.885</ele>
        <time>2019-04-21T12:11:08Z</time>
      </trkpt>
      <trkpt lat="45.06189" lon="5.37659">
        <ele>504.885</ele>
        <time>2019-04-21T12:11:08Z</time>
      </trkpt>
      <trkpt lat="45.06189" lon="5.37658">
        <ele>504.88</ele>
        <time>2019-04-21T12:11:09Z</time>
      </trkpt>
      <trkpt lat="45.06189" lon="5.37658">
        <ele>504.687</ele>
        <time>2019-04-21T12:11:11Z</time>
      </trkpt>
      <trkpt lat="45.06189" lon="5.37658">
        <ele>504.669</ele>
        <time>2019-04-21T12:11:27Z</time>
      </trkpt>
      <trkpt lat="45.0619" lon="5.37659">
        <ele>504.698</ele>
        <time>2019-04-21T12:11:28Z</time>
      </trkpt>
      <trkpt lat="45.06191" lon="5.37663">
        <ele>502.671</ele>
        <time>2019-04-21T12:11:31Z</time>
      </trkpt>
      <trkpt lat="45.06193" lon="5.37666">
        <ele>502.484</ele>
        <time>2019-04-21T12:11:33Z</time>
      </trkpt>
      <trkpt lat="45.06198" lon="5.37673">
        <ele>499.976</ele>
        <time>2019-04-21T12:11:37Z</time>
      </trkpt>
      <trkpt lat="45.06204" lon="5.37681">
        <ele>500.218</ele>
        <time>2019-04-21T12:11:43Z</time>
      </trkpt>
      <trkpt lat="45.0621" lon="5.37696">
        <ele>500.699</ele>
        <time>2019-04-21T12:11:50Z</time>
      </trkpt>
      <trkpt lat="45.0621" lon="5.37697">
        <ele>500.299</ele>
        <time>2019-04-21T12:11:51Z</time>
      </trkpt>
      <trkpt lat="45.06211" lon="5.37706">
        <ele>500.135</ele>
        <time>2019-04-21T12:11:57Z</time>
      </trkpt>
      <trkpt lat="45.0621" lon="5.37709">
        <ele>499.35</ele>
        <time>2019-04-21T12:12:00Z</time>
      </trkpt>
      <trkpt lat="45.06206" lon="5.37715">
        <ele>498.346</ele>
        <time>2019-04-21T12:12:04Z</time>
      </trkpt>
      <trkpt lat="45.06204" lon="5.37719">
        <ele>498.115</ele>
        <time>2019-04-21T12:12:07Z</time>
      </trkpt>
      <trkpt lat="45.062" lon="5.37728">
        <ele>498.185</ele>
        <time>2019-04-21T12:12:14Z</time>
      </trkpt>
      <trkpt lat="45.06185" lon="5.37751">
        <ele>497.709</ele>
        <time>2019-04-21T12:12:34Z</time>
      </trkpt>
      <trkpt lat="45.06167" lon="5.37795">
        <ele>496.833</ele>
        <time>2019-04-21T12:13:05Z</time>
      </trkpt>
      <trkpt lat="45.06165" lon="5.37799">
        <ele>496.825</ele>
        <time>2019-04-21T12:13:08Z</time>
      </trkpt>
      <trkpt lat="45.06162" lon="5.37808">
        <ele>496.745</ele>
        <time>2019-04-21T12:13:14Z</time>
      </trkpt>
      <trkpt lat="45.06161" lon="5.37812">
        <ele>496.852</ele>
        <time>2019-04-21T12:13:17Z</time>
      </trkpt>
      <trkpt lat="45.06153" lon="5.37848">
        <ele>495.977</ele>
        <time>2019-04-21T12:13:41Z</time>
      </trkpt>
      <trkpt lat="45.06156" lon="5.3786">
        <ele>494.978</ele>
        <time>2019-04-21T12:13:49Z</time>
      </trkpt>
      <trkpt lat="45.0618" lon="5.37907">
        <ele>493.925</ele>
        <time>2019-04-21T12:14:26Z</time>
      </trkpt>
      <trkpt lat="45.06183" lon="5.37919">
        <ele>493.3</ele>
        <time>2019-04-21T12:14:36Z</time>
      </trkpt>
      <trkpt lat="45.06183" lon="5.37928">
        <ele>492.127</ele>
        <time>2019-04-21T12:14:42Z</time>
      </trkpt>
      <trkpt lat="45.06181" lon="5.37947">
        <ele>490.884</ele>
        <time>2019-04-21T12:14:56Z</time>
      </trkpt>
      <trkpt lat="45.06181" lon="5.37947">
        <ele>491.186</ele>
        <time>2019-04-21T12:14:58Z</time>
      </trkpt>
      <trkpt lat="45.06181" lon="5.37947">
        <ele>490.609</ele>
        <time>2019-04-21T12:15:03Z</time>
      </trkpt>
      <trkpt lat="45.0618" lon="5.37949">
        <ele>490.794</ele>
        <time>2019-04-21T12:15:04Z</time>
      </trkpt>
      <trkpt lat="45.06179" lon="5.37951">
        <ele>491.228</ele>
        <time>2019-04-21T12:15:06Z</time>
      </trkpt>
      <trkpt lat="45.06179" lon="5.37964">
        <ele>488.933</ele>
        <time>2019-04-21T12:15:13Z</time>
      </trkpt>
      <trkpt lat="45.06173" lon="5.37986">
        <ele>490.162</ele>
        <time>2019-04-21T12:15:30Z</time>
      </trkpt>
      <trkpt lat="45.06168" lon="5.37999">
        <ele>488.617</ele>
        <time>2019-04-21T12:15:42Z</time>
      </trkpt>
      <trkpt lat="45.06165" lon="5.38005">
        <ele>488.384</ele>
        <time>2019-04-21T12:15:46Z</time>
      </trkpt>
      <trkpt lat="45.06162" lon="5.38009">
        <ele>487.987</ele>
        <time>2019-04-21T12:15:49Z</time>
      </trkpt>
      <trkpt lat="45.06157" lon="5.38016">
        <ele>488.422</ele>
        <time>2019-04-21T12:15:55Z</time>
      </trkpt>
      <trkpt lat="45.06149" lon="5.38024">
        <ele>488.619</ele>
        <time>2019-04-21T12:16:05Z</time>
      </trkpt>
      <trkpt lat="45.06148" lon="5.38025">
        <ele>488.545</ele>
        <time>2019-04-21T12:16:06Z</time>
      </trkpt>
      <trkpt lat="45.06135" lon="5.38042">
        <ele>488.034</ele>
        <time>2019-04-21T12:16:19Z</time>
      </trkpt>
      <trkpt lat="45.06135" lon="5.38043">
        <ele>487.843</ele>
        <time>2019-04-21T12:16:22Z</time>
      </trkpt>
      <trkpt lat="45.06135" lon="5.38043">
        <ele>487.387</ele>
        <time>2019-04-21T12:16:37Z</time>
      </trkpt>
      <trkpt lat="45.06136" lon="5.38044">
        <ele>486.972</ele>
        <time>2019-04-21T12:16:38Z</time>
      </trkpt>
      <trkpt lat="45.06136" lon="5.38044">
        <ele>486.719</ele>
        <time>2019-04-21T12:16:41Z</time>
      </trkpt>
      <trkpt lat="45.06136" lon="5.38046">
        <ele>486.022</ele>
        <time>2019-04-21T12:16:43Z</time>
      </trkpt>
      <trkpt lat="45.06134" lon="5.38051">
        <ele>484.636</ele>
        <time>2019-04-21T12:16:46Z</time>
      </trkpt>
      <trkpt lat="45.06125" lon="5.38075">
        <ele>486.79</ele>
        <time>2019-04-21T12:16:58Z</time>
      </trkpt>
      <trkpt lat="45.06126" lon="5.3809">
        <ele>488.197</ele>
        <time>2019-04-21T12:17:04Z</time>
      </trkpt>
      <trkpt lat="45.06126" lon="5.38101">
        <ele>489.068</ele>
        <time>2019-04-21T12:17:09Z</time>
      </trkpt>
      <trkpt lat="45.06124" lon="5.38119">
        <ele>487.922</ele>
        <time>2019-04-21T12:17:19Z</time>
      </trkpt>
      <trkpt lat="45.06128" lon="5.38127">
        <ele>487.483</ele>
        <time>2019-04-21T12:17:26Z</time>
      </trkpt>
      <trkpt lat="45.06136" lon="5.3814">
        <ele>487.401</ele>
        <time>2019-04-21T12:17:36Z</time>
      </trkpt>
      <trkpt lat="45.06148" lon="5.38151">
        <ele>485.986</ele>
        <time>2019-04-21T12:17:48Z</time>
      </trkpt>
      <trkpt lat="45.06151" lon="5.38154">
        <ele>485.015</ele>
        <time>2019-04-21T12:17:51Z</time>
      </trkpt>
      <trkpt lat="45.0617" lon="5.38178">
        <ele>482.925</ele>
        <time>2019-04-21T12:18:13Z</time>
      </trkpt>
      <trkpt lat="45.0618" lon="5.38189">
        <ele>480.638</ele>
        <time>2019-04-21T12:18:24Z</time>
      </trkpt>
      <trkpt lat="45.06186" lon="5.38198">
        <ele>479.414</ele>
        <time>2019-04-21T12:18:33Z</time>
      </trkpt>
      <trkpt lat="45.06194" lon="5.38211">
        <ele>477.85</ele>
        <time>2019-04-21T12:18:46Z</time>
      </trkpt>
      <trkpt lat="45.06218" lon="5.3824">
        <ele>478.799</ele>
        <time>2019-04-21T12:19:14Z</time>
      </trkpt>
      <trkpt lat="45.06222" lon="5.38247">
        <ele>478.677</ele>
        <time>2019-04-21T12:19:19Z</time>
      </trkpt>
      <trkpt lat="45.0623" lon="5.3826">
        <ele>478.86</ele>
        <time>2019-04-21T12:19:30Z</time>
      </trkpt>
      <trkpt lat="45.06238" lon="5.3828">
        <ele>478.815</ele>
        <time>2019-04-21T12:19:45Z</time>
      </trkpt>
      <trkpt lat="45.06243" lon="5.3829">
        <ele>478.256</ele>
        <time>2019-04-21T12:19:54Z</time>
      </trkpt>
      <trkpt lat="45.06244" lon="5.3829">
        <ele>478.381</ele>
        <time>2019-04-21T12:19:55Z</time>
      </trkpt>
      <trkpt lat="45.06245" lon="5.38295">
        <ele>478.09</ele>
        <time>2019-04-21T12:19:58Z</time>
      </trkpt>
      <trkpt lat="45.06246" lon="5.38299">
        <ele>478.004</ele>
        <time>2019-04-21T12:20:01Z</time>
      </trkpt>
      <trkpt lat="45.06254" lon="5.38311">
        <ele>475.948</ele>
        <time>2019-04-21T12:20:12Z</time>
      </trkpt>
      <trkpt lat="45.06275" lon="5.38332">
        <ele>474.429</ele>
        <time>2019-04-21T12:20:37Z</time>
      </trkpt>
      <trkpt lat="45.06275" lon="5.38333">
        <ele>474.474</ele>
        <time>2019-04-21T12:20:40Z</time>
      </trkpt>
      <trkpt lat="45.06275" lon="5.38333">
        <ele>474.155</ele>
        <time>2019-04-21T12:20:42Z</time>
      </trkpt>
      <trkpt lat="45.06275" lon="5.38333">
        <ele>474.166</ele>
        <time>2019-04-21T12:20:50Z</time>
      </trkpt>
      <trkpt lat="45.06275" lon="5.38334">
        <ele>474.074</ele>
        <time>2019-04-21T12:20:51Z</time>
      </trkpt>
      <trkpt lat="45.06275" lon="5.38333">
        <ele>474.884</ele>
        <time>2019-04-21T12:20:52Z</time>
      </trkpt>
      <trkpt lat="45.06275" lon="5.38332">
        <ele>474.907</ele>
        <time>2019-04-21T12:20:53Z</time>
      </trkpt>
      <trkpt lat="45.06275" lon="5.38332">
        <ele>474.883</ele>
        <time>2019-04-21T12:20:54Z</time>
      </trkpt>
      <trkpt lat="45.06275" lon="5.38332">
        <ele>474.883</ele>
        <time>2019-04-21T12:20:54Z</time>
      </trkpt>
      <trkpt lat="45.06275" lon="5.38332">
        <ele>474.617</ele>
        <time>2019-04-21T12:20:55Z</time>
      </trkpt>
      <trkpt lat="45.06275" lon="5.38332">
        <ele>474.381</ele>
        <time>2019-04-21T12:20:57Z</time>
      </trkpt>
      <trkpt lat="45.06276" lon="5.38332">
        <ele>474.642</ele>
        <time>2019-04-21T12:20:58Z</time>
      </trkpt>
      <trkpt lat="45.06279" lon="5.38334">
        <ele>471.862</ele>
        <time>2019-04-21T12:21:02Z</time>
      </trkpt>
      <trkpt lat="45.06282" lon="5.38339">
        <ele>471.319</ele>
        <time>2019-04-21T12:21:08Z</time>
      </trkpt>
      <trkpt lat="45.06282" lon="5.3834">
        <ele>471.607</ele>
        <time>2019-04-21T12:21:09Z</time>
      </trkpt>
      <trkpt lat="45.06282" lon="5.38341">
        <ele>471.564</ele>
        <time>2019-04-21T12:21:10Z</time>
      </trkpt>
      <trkpt lat="45.06282" lon="5.38341">
        <ele>471.258</ele>
        <time>2019-04-21T12:21:11Z</time>
      </trkpt>
      <trkpt lat="45.06281" lon="5.38342">
        <ele>471.175</ele>
        <time>2019-04-21T12:21:12Z</time>
      </trkpt>
      <trkpt lat="45.0628" lon="5.38343">
        <ele>470.58</ele>
        <time>2019-04-21T12:21:14Z</time>
      </trkpt>
      <trkpt lat="45.06278" lon="5.38345">
        <ele>470.08</ele>
        <time>2019-04-21T12:21:17Z</time>
      </trkpt>
      <trkpt lat="45.06277" lon="5.38347">
        <ele>470.093</ele>
        <time>2019-04-21T12:21:19Z</time>
      </trkpt>
      <trkpt lat="45.06275" lon="5.38343">
        <ele>469.122</ele>
        <time>2019-04-21T12:21:29Z</time>
      </trkpt>
      <trkpt lat="45.06274" lon="5.38342">
        <ele>468.667</ele>
        <time>2019-04-21T12:21:30Z</time>
      </trkpt>
      <trkpt lat="45.06274" lon="5.38342">
        <ele>468.667</ele>
        <time>2019-04-21T12:21:30Z</time>
      </trkpt>
      <trkpt lat="45.06274" lon="5.38342">
        <ele>468.822</ele>
        <time>2019-04-21T12:21:31Z</time>
      </trkpt>
      <trkpt lat="45.06274" lon="5.38342">
        <ele>467.542</ele>
        <time>2019-04-21T12:21:42Z</time>
      </trkpt>
      <trkpt lat="45.06272" lon="5.38339">
        <ele>467.74</ele>
        <time>2019-04-21T12:21:43Z</time>
      </trkpt>
      <trkpt lat="45.06272" lon="5.38339">
        <ele>468.625</ele>
        <time>2019-04-21T12:21:45Z</time>
      </trkpt>
      <trkpt lat="45.06272" lon="5.38339">
        <ele>468.412</ele>
        <time>2019-04-21T12:21:58Z</time>
      </trkpt>
      <trkpt lat="45.06272" lon="5.38338">
        <ele>467.859</ele>
        <time>2019-04-21T12:21:59Z</time>
      </trkpt>
      <trkpt lat="45.06272" lon="5.38338">
        <ele>468.006</ele>
        <time>2019-04-21T12:22:00Z</time>
      </trkpt>
      <trkpt lat="45.06272" lon="5.38338">
        <ele>467.754</ele>
        <time>2019-04-21T12:22:05Z</time>
      </trkpt>
      <trkpt lat="45.06272" lon="5.38338">
        <ele>467.337</ele>
        <time>2019-04-21T12:22:06Z</time>
      </trkpt>
      <trkpt lat="45.06271" lon="5.38339">
        <ele>466.978</ele>
        <time>2019-04-21T12:22:09Z</time>
      </trkpt>
      <trkpt lat="45.06271" lon="5.38339">
        <ele>466.978</ele>
        <time>2019-04-21T12:22:09Z</time>
      </trkpt>
      <trkpt lat="45.06272" lon="5.38339">
        <ele>467.336</ele>
        <time>2019-04-21T12:22:10Z</time>
      </trkpt>
      <trkpt lat="45.06272" lon="5.38339">
        <ele>467.23</ele>
        <time>2019-04-21T12:22:11Z</time>
      </trkpt>
      <trkpt lat="45.06272" lon="5.38339">
        <ele>467.23</ele>
        <time>2019-04-21T12:22:11Z</time>
      </trkpt>
      <trkpt lat="45.06272" lon="5.38339">
        <ele>466.571</ele>
        <time>2019-04-21T12:22:12Z</time>
      </trkpt>
      <trkpt lat="45.06273" lon="5.38339">
        <ele>466.841</ele>
        <time>2019-04-21T12:22:14Z</time>
      </trkpt>
      <trkpt lat="45.06278" lon="5.38339">
        <ele>464.323</ele>
        <time>2019-04-21T12:22:18Z</time>
      </trkpt>
      <trkpt lat="45.06281" lon="5.38341">
        <ele>462.058</ele>
        <time>2019-04-21T12:22:21Z</time>
      </trkpt>
      <trkpt lat="45.06281" lon="5.38338">
        <ele>463.41</ele>
        <time>2019-04-21T12:22:23Z</time>
      </trkpt>
      <trkpt lat="45.06272" lon="5.38335">
        <ele>462.328</ele>
        <time>2019-04-21T12:22:31Z</time>
      </trkpt>
      <trkpt lat="45.06271" lon="5.38335">
        <ele>462.725</ele>
        <time>2019-04-21T12:22:33Z</time>
      </trkpt>
      <trkpt lat="45.06271" lon="5.38335">
        <ele>462.403</ele>
        <time>2019-04-21T12:22:34Z</time>
      </trkpt>
      <trkpt lat="45.06272" lon="5.38337">
        <ele>462.983</ele>
        <time>2019-04-21T12:22:35Z</time>
      </trkpt>
      <trkpt lat="45.06272" lon="5.38337">
        <ele>462.983</ele>
        <time>2019-04-21T12:22:35Z</time>
      </trkpt>
      <trkpt lat="45.06272" lon="5.38337">
        <ele>462.88</ele>
        <time>2019-04-21T12:22:36Z</time>
      </trkpt>
      <trkpt lat="45.06272" lon="5.38337">
        <ele>463.135</ele>
        <time>2019-04-21T12:22:37Z</time>
      </trkpt>
      <trkpt lat="45.06272" lon="5.38338">
        <ele>463.391</ele>
        <time>2019-04-21T12:22:38Z</time>
      </trkpt>
      <trkpt lat="45.06273" lon="5.38338">
        <ele>463.852</ele>
        <time>2019-04-21T12:22:39Z</time>
      </trkpt>
      <trkpt lat="45.06276" lon="5.38339">
        <ele>463.798</ele>
        <time>2019-04-21T12:22:42Z</time>
      </trkpt>
      <trkpt lat="45.06283" lon="5.38344">
        <ele>465.298</ele>
        <time>2019-04-21T12:22:50Z</time>
      </trkpt>
      <trkpt lat="45.06283" lon="5.38344">
        <ele>464.809</ele>
        <time>2019-04-21T12:22:52Z</time>
      </trkpt>
      <trkpt lat="45.06283" lon="5.38342">
        <ele>464.61</ele>
        <time>2019-04-21T12:22:53Z</time>
      </trkpt>
      <trkpt lat="45.0628" lon="5.38342">
        <ele>465.501</ele>
        <time>2019-04-21T12:22:58Z</time>
      </trkpt>
      <trkpt lat="45.06276" lon="5.38342">
        <ele>465.125</ele>
        <time>2019-04-21T12:23:05Z</time>
      </trkpt>
      <trkpt lat="45.06276" lon="5.38342">
        <ele>465.125</ele>
        <time>2019-04-21T12:23:05Z</time>
      </trkpt>
      <trkpt lat="45.06276" lon="5.38342">
        <ele>465.158</ele>
        <time>2019-04-21T12:23:06Z</time>
      </trkpt>
      <trkpt lat="45.06276" lon="5.38342">
        <ele>465.151</ele>
        <time>2019-04-21T12:23:07Z</time>
      </trkpt>
      <trkpt lat="45.06276" lon="5.38342">
        <ele>465.151</ele>
        <time>2019-04-21T12:23:07Z</time>
      </trkpt>
      <trkpt lat="45.06276" lon="5.38342">
        <ele>465.391</ele>
        <time>2019-04-21T12:23:08Z</time>
      </trkpt>
      <trkpt lat="45.06276" lon="5.38342">
        <ele>465.713</ele>
        <time>2019-04-21T12:23:15Z</time>
      </trkpt>
      <trkpt lat="45.06277" lon="5.38342">
        <ele>465.653</ele>
        <time>2019-04-21T12:23:16Z</time>
      </trkpt>
      <trkpt lat="45.06278" lon="5.38342">
        <ele>465.317</ele>
        <time>2019-04-21T12:23:17Z</time>
      </trkpt>
      <trkpt lat="45.06279" lon="5.38341">
        <ele>465.726</ele>
        <time>2019-04-21T12:23:18Z</time>
      </trkpt>
      <trkpt lat="45.06283" lon="5.3834">
        <ele>464.689</ele>
        <time>2019-04-21T12:23:22Z</time>
      </trkpt>
      <trkpt lat="45.06284" lon="5.38339">
        <ele>464.448</ele>
        <time>2019-04-21T12:23:23Z</time>
      </trkpt>
      <trkpt lat="45.06284" lon="5.38339">
        <ele>464.448</ele>
        <time>2019-04-21T12:23:23Z</time>
      </trkpt>
      <trkpt lat="45.06284" lon="5.38339">
        <ele>464.504</ele>
        <time>2019-04-21T12:23:24Z</time>
      </trkpt>
      <trkpt lat="45.06288" lon="5.3834">
        <ele>464.136</ele>
        <time>2019-04-21T12:23:27Z</time>
      </trkpt>
      <trkpt lat="45.06299" lon="5.38341">
        <ele>464.543</ele>
        <time>2019-04-21T12:23:34Z</time>
      </trkpt>
      <trkpt lat="45.06305" lon="5.38342">
        <ele>464.423</ele>
        <time>2019-04-21T12:23:37Z</time>
      </trkpt>
      <trkpt lat="45.06312" lon="5.38348">
        <ele>465.29</ele>
        <time>2019-04-21T12:23:42Z</time>
      </trkpt>
      <trkpt lat="45.06325" lon="5.38357">
        <ele>465.226</ele>
        <time>2019-04-21T12:23:53Z</time>
      </trkpt>
      <trkpt lat="45.0633" lon="5.38367">
        <ele>464.889</ele>
        <time>2019-04-21T12:24:01Z</time>
      </trkpt>
      <trkpt lat="45.06331" lon="5.38381">
        <ele>464.999</ele>
        <time>2019-04-21T12:24:09Z</time>
      </trkpt>
      <trkpt lat="45.0633" lon="5.38397">
        <ele>464.97</ele>
        <time>2019-04-21T12:24:18Z</time>
      </trkpt>
      <trkpt lat="45.0633" lon="5.38402">
        <ele>464.497</ele>
        <time>2019-04-21T12:24:22Z</time>
      </trkpt>
      <trkpt lat="45.06333" lon="5.38413">
        <ele>465.155</ele>
        <time>2019-04-21T12:24:28Z</time>
      </trkpt>
      <trkpt lat="45.06335" lon="5.3842">
        <ele>464.926</ele>
        <time>2019-04-21T12:24:32Z</time>
      </trkpt>
      <trkpt lat="45.06333" lon="5.3842">
        <ele>465.638</ele>
        <time>2019-04-21T12:24:35Z</time>
      </trkpt>
      <trkpt lat="45.06333" lon="5.3842">
        <ele>465.545</ele>
        <time>2019-04-21T12:24:37Z</time>
      </trkpt>
      <trkpt lat="45.06333" lon="5.3842">
        <ele>465.502</ele>
        <time>2019-04-21T12:24:38Z</time>
      </trkpt>
      <trkpt lat="45.06333" lon="5.3842">
        <ele>464.682</ele>
        <time>2019-04-21T12:24:39Z</time>
      </trkpt>
      <trkpt lat="45.06333" lon="5.3842">
        <ele>465.432</ele>
        <time>2019-04-21T12:24:41Z</time>
      </trkpt>
      <trkpt lat="45.06331" lon="5.38419">
        <ele>464.947</ele>
        <time>2019-04-21T12:24:42Z</time>
      </trkpt>
      <trkpt lat="45.06331" lon="5.38419">
        <ele>464.992</ele>
        <time>2019-04-21T12:24:43Z</time>
      </trkpt>
      <trkpt lat="45.06331" lon="5.38419">
        <ele>464.802</ele>
        <time>2019-04-21T12:24:50Z</time>
      </trkpt>
      <trkpt lat="45.0633" lon="5.38419">
        <ele>465.169</ele>
        <time>2019-04-21T12:24:52Z</time>
      </trkpt>
      <trkpt lat="45.0633" lon="5.38423">
        <ele>464.741</ele>
        <time>2019-04-21T12:24:54Z</time>
      </trkpt>
      <trkpt lat="45.06329" lon="5.38427">
        <ele>464.206</ele>
        <time>2019-04-21T12:24:56Z</time>
      </trkpt>
      <trkpt lat="45.06329" lon="5.38434">
        <ele>462.698</ele>
        <time>2019-04-21T12:25:00Z</time>
      </trkpt>
      <trkpt lat="45.0633" lon="5.38449">
        <ele>463.256</ele>
        <time>2019-04-21T12:25:08Z</time>
      </trkpt>
      <trkpt lat="45.0633" lon="5.38466">
        <ele>464.731</ele>
        <time>2019-04-21T12:25:17Z</time>
      </trkpt>
      <trkpt lat="45.06331" lon="5.38475">
        <ele>464.162</ele>
        <time>2019-04-21T12:25:25Z</time>
      </trkpt>
      <trkpt lat="45.06331" lon="5.38475">
        <ele>464.135</ele>
        <time>2019-04-21T12:25:26Z</time>
      </trkpt>
      <trkpt lat="45.06331" lon="5.38474">
        <ele>464.616</ele>
        <time>2019-04-21T12:25:28Z</time>
      </trkpt>
      <trkpt lat="45.06333" lon="5.38473">
        <ele>464.051</ele>
        <time>2019-04-21T12:25:31Z</time>
      </trkpt>
      <trkpt lat="45.06333" lon="5.38473">
        <ele>464.089</ele>
        <time>2019-04-21T12:25:32Z</time>
      </trkpt>
      <trkpt lat="45.06333" lon="5.38473">
        <ele>464.001</ele>
        <time>2019-04-21T12:25:33Z</time>
      </trkpt>
      <trkpt lat="45.06333" lon="5.38473">
        <ele>464.001</ele>
        <time>2019-04-21T12:25:33Z</time>
      </trkpt>
      <trkpt lat="45.06333" lon="5.38473">
        <ele>464.122</ele>
        <time>2019-04-21T12:25:34Z</time>
      </trkpt>
      <trkpt lat="45.06331" lon="5.38473">
        <ele>464.162</ele>
        <time>2019-04-21T12:25:37Z</time>
      </trkpt>
      <trkpt lat="45.0633" lon="5.38473">
        <ele>463.994</ele>
        <time>2019-04-21T12:25:38Z</time>
      </trkpt>
      <trkpt lat="45.06329" lon="5.38473">
        <ele>463.742</ele>
        <time>2019-04-21T12:25:40Z</time>
      </trkpt>
      <trkpt lat="45.06329" lon="5.38473">
        <ele>463.742</ele>
        <time>2019-04-21T12:25:40Z</time>
      </trkpt>
      <trkpt lat="45.06329" lon="5.38472">
        <ele>463.814</ele>
        <time>2019-04-21T12:25:41Z</time>
      </trkpt>
      <trkpt lat="45.06328" lon="5.38473">
        <ele>463.459</ele>
        <time>2019-04-21T12:25:43Z</time>
      </trkpt>
      <trkpt lat="45.06328" lon="5.38474">
        <ele>463.614</ele>
        <time>2019-04-21T12:25:44Z</time>
      </trkpt>
      <trkpt lat="45.06328" lon="5.38479">
        <ele>463.355</ele>
        <time>2019-04-21T12:25:47Z</time>
      </trkpt>
      <trkpt lat="45.06328" lon="5.38483">
        <ele>463.085</ele>
        <time>2019-04-21T12:25:50Z</time>
      </trkpt>
      <trkpt lat="45.06328" lon="5.3849">
        <ele>462.541</ele>
        <time>2019-04-21T12:25:55Z</time>
      </trkpt>
      <trkpt lat="45.06327" lon="5.38501">
        <ele>463.289</ele>
        <time>2019-04-21T12:26:02Z</time>
      </trkpt>
      <trkpt lat="45.06326" lon="5.38507">
        <ele>463.357</ele>
        <time>2019-04-21T12:26:06Z</time>
      </trkpt>
      <trkpt lat="45.06319" lon="5.38531">
        <ele>463.796</ele>
        <time>2019-04-21T12:26:23Z</time>
      </trkpt>
      <trkpt lat="45.06317" lon="5.38537">
        <ele>463.932</ele>
        <time>2019-04-21T12:26:27Z</time>
      </trkpt>
      <trkpt lat="45.06302" lon="5.38575">
        <ele>463.778</ele>
        <time>2019-04-21T12:26:56Z</time>
      </trkpt>
      <trkpt lat="45.063" lon="5.38579">
        <ele>464.082</ele>
        <time>2019-04-21T12:26:59Z</time>
      </trkpt>
      <trkpt lat="45.063" lon="5.38579">
        <ele>464.219</ele>
        <time>2019-04-21T12:27:00Z</time>
      </trkpt>
      <trkpt lat="45.06299" lon="5.38581">
        <ele>464.379</ele>
        <time>2019-04-21T12:27:03Z</time>
      </trkpt>
      <trkpt lat="45.06299" lon="5.38581">
        <ele>464.071</ele>
        <time>2019-04-21T12:27:06Z</time>
      </trkpt>
      <trkpt lat="45.06299" lon="5.38579">
        <ele>463.882</ele>
        <time>2019-04-21T12:27:07Z</time>
      </trkpt>
      <trkpt lat="45.063" lon="5.38577">
        <ele>463.914</ele>
        <time>2019-04-21T12:27:10Z</time>
      </trkpt>
      <trkpt lat="45.063" lon="5.38577">
        <ele>464.15</ele>
        <time>2019-04-21T12:27:11Z</time>
      </trkpt>
      <trkpt lat="45.063" lon="5.38577">
        <ele>464.15</ele>
        <time>2019-04-21T12:27:11Z</time>
      </trkpt>
      <trkpt lat="45.06301" lon="5.38578">
        <ele>464.11</ele>
        <time>2019-04-21T12:27:12Z</time>
      </trkpt>
      <trkpt lat="45.06303" lon="5.38582">
        <ele>462.384</ele>
        <time>2019-04-21T12:27:17Z</time>
      </trkpt>
      <trkpt lat="45.06302" lon="5.38586">
        <ele>461.93</ele>
        <time>2019-04-21T12:27:19Z</time>
      </trkpt>
      <trkpt lat="45.06301" lon="5.38591">
        <ele>461.662</ele>
        <time>2019-04-21T12:27:22Z</time>
      </trkpt>
      <trkpt lat="45.063" lon="5.38595">
        <ele>462.717</ele>
        <time>2019-04-21T12:27:25Z</time>
      </trkpt>
      <trkpt lat="45.06299" lon="5.38599">
        <ele>462.51</ele>
        <time>2019-04-21T12:27:28Z</time>
      </trkpt>
      <trkpt lat="45.06297" lon="5.38604">
        <ele>464.119</ele>
        <time>2019-04-21T12:27:31Z</time>
      </trkpt>
      <trkpt lat="45.06297" lon="5.38616">
        <ele>464.458</ele>
        <time>2019-04-21T12:27:37Z</time>
      </trkpt>
      <trkpt lat="45.063" lon="5.38626">
        <ele>464.149</ele>
        <time>2019-04-21T12:27:44Z</time>
      </trkpt>
      <trkpt lat="45.06304" lon="5.38631">
        <ele>464.239</ele>
        <time>2019-04-21T12:27:48Z</time>
      </trkpt>
      <trkpt lat="45.06313" lon="5.38642">
        <ele>463.198</ele>
        <time>2019-04-21T12:27:59Z</time>
      </trkpt>
      <trkpt lat="45.06323" lon="5.38651">
        <ele>461.821</ele>
        <time>2019-04-21T12:28:09Z</time>
      </trkpt>
      <trkpt lat="45.06327" lon="5.38655">
        <ele>461.167</ele>
        <time>2019-04-21T12:28:14Z</time>
      </trkpt>
      <trkpt lat="45.06332" lon="5.38666">
        <ele>460.004</ele>
        <time>2019-04-21T12:28:23Z</time>
      </trkpt>
      <trkpt lat="45.06335" lon="5.3867">
        <ele>460.214</ele>
        <time>2019-04-21T12:28:27Z</time>
      </trkpt>
      <trkpt lat="45.06338" lon="5.38674">
        <ele>460.667</ele>
        <time>2019-04-21T12:28:30Z</time>
      </trkpt>
      <trkpt lat="45.06343" lon="5.38679">
        <ele>459.719</ele>
        <time>2019-04-21T12:28:36Z</time>
      </trkpt>
      <trkpt lat="45.06347" lon="5.38683">
        <ele>458.661</ele>
        <time>2019-04-21T12:28:40Z</time>
      </trkpt>
      <trkpt lat="45.06357" lon="5.38701">
        <ele>458.321</ele>
        <time>2019-04-21T12:28:53Z</time>
      </trkpt>
      <trkpt lat="45.0636" lon="5.38715">
        <ele>457.108</ele>
        <time>2019-04-21T12:29:01Z</time>
      </trkpt>
      <trkpt lat="45.06361" lon="5.38733">
        <ele>456.428</ele>
        <time>2019-04-21T12:29:12Z</time>
      </trkpt>
      <trkpt lat="45.06359" lon="5.38744">
        <ele>455.688</ele>
        <time>2019-04-21T12:29:19Z</time>
      </trkpt>
      <trkpt lat="45.06356" lon="5.3875">
        <ele>454.927</ele>
        <time>2019-04-21T12:29:24Z</time>
      </trkpt>
      <trkpt lat="45.06347" lon="5.38775">
        <ele>452.693</ele>
        <time>2019-04-21T12:29:43Z</time>
      </trkpt>
      <trkpt lat="45.06347" lon="5.38776">
        <ele>452.523</ele>
        <time>2019-04-21T12:29:44Z</time>
      </trkpt>
      <trkpt lat="45.06346" lon="5.38777">
        <ele>452.432</ele>
        <time>2019-04-21T12:29:45Z</time>
      </trkpt>
      <trkpt lat="45.0634" lon="5.38806">
        <ele>449.713</ele>
        <time>2019-04-21T12:30:04Z</time>
      </trkpt>
      <trkpt lat="45.06336" lon="5.38824">
        <ele>448.255</ele>
        <time>2019-04-21T12:30:16Z</time>
      </trkpt>
      <trkpt lat="45.06325" lon="5.38858">
        <ele>448.153</ele>
        <time>2019-04-21T12:30:41Z</time>
      </trkpt>
      <trkpt lat="45.06313" lon="5.38867">
        <ele>446.84</ele>
        <time>2019-04-21T12:30:55Z</time>
      </trkpt>
      <trkpt lat="45.06286" lon="5.38883">
        <ele>447.264</ele>
        <time>2019-04-21T12:31:21Z</time>
      </trkpt>
      <trkpt lat="45.06277" lon="5.38898">
        <ele>447.451</ele>
        <time>2019-04-21T12:31:32Z</time>
      </trkpt>
      <trkpt lat="45.06275" lon="5.38915">
        <ele>447.037</ele>
        <time>2019-04-21T12:31:42Z</time>
      </trkpt>
      <trkpt lat="45.06278" lon="5.38915">
        <ele>445.757</ele>
        <time>2019-04-21T12:31:45Z</time>
      </trkpt>
      <trkpt lat="45.06278" lon="5.38914">
        <ele>445.954</ele>
        <time>2019-04-21T12:31:48Z</time>
      </trkpt>
      <trkpt lat="45.06275" lon="5.38916">
        <ele>445.996</ele>
        <time>2019-04-21T12:31:51Z</time>
      </trkpt>
      <trkpt lat="45.06273" lon="5.38919">
        <ele>445.645</ele>
        <time>2019-04-21T12:31:53Z</time>
      </trkpt>
      <trkpt lat="45.06271" lon="5.38928">
        <ele>445.851</ele>
        <time>2019-04-21T12:31:57Z</time>
      </trkpt>
      <trkpt lat="45.06269" lon="5.38936">
        <ele>446.13</ele>
        <time>2019-04-21T12:32:01Z</time>
      </trkpt>
      <trkpt lat="45.06267" lon="5.3894">
        <ele>446.204</ele>
        <time>2019-04-21T12:32:05Z</time>
      </trkpt>
      <trkpt lat="45.06265" lon="5.38952">
        <ele>445.676</ele>
        <time>2019-04-21T12:32:12Z</time>
      </trkpt>
      <trkpt lat="45.06256" lon="5.38979">
        <ele>443.605</ele>
        <time>2019-04-21T12:32:29Z</time>
      </trkpt>
      <trkpt lat="45.0625" lon="5.38993">
        <ele>443.388</ele>
        <time>2019-04-21T12:32:38Z</time>
      </trkpt>
      <trkpt lat="45.06233" lon="5.39032">
        <ele>442.118</ele>
        <time>2019-04-21T12:33:09Z</time>
      </trkpt>
      <trkpt lat="45.06233" lon="5.39037">
        <ele>441.687</ele>
        <time>2019-04-21T12:33:14Z</time>
      </trkpt>
      <trkpt lat="45.06233" lon="5.39039">
        <ele>441.22</ele>
        <time>2019-04-21T12:33:16Z</time>
      </trkpt>
      <trkpt lat="45.06224" lon="5.39056">
        <ele>441.293</ele>
        <time>2019-04-21T12:33:30Z</time>
      </trkpt>
      <trkpt lat="45.06221" lon="5.39063">
        <ele>440.229</ele>
        <time>2019-04-21T12:33:35Z</time>
      </trkpt>
      <trkpt lat="45.06216" lon="5.39075">
        <ele>439.921</ele>
        <time>2019-04-21T12:33:43Z</time>
      </trkpt>
      <trkpt lat="45.06209" lon="5.39083">
        <ele>439.415</ele>
        <time>2019-04-21T12:33:52Z</time>
      </trkpt>
      <trkpt lat="45.06206" lon="5.39084">
        <ele>439.27</ele>
        <time>2019-04-21T12:33:55Z</time>
      </trkpt>
      <trkpt lat="45.06199" lon="5.39086">
        <ele>439.047</ele>
        <time>2019-04-21T12:34:01Z</time>
      </trkpt>
      <trkpt lat="45.06191" lon="5.39096">
        <ele>438.964</ele>
        <time>2019-04-21T12:34:10Z</time>
      </trkpt>
      <trkpt lat="45.06179" lon="5.39108">
        <ele>438.052</ele>
        <time>2019-04-21T12:34:25Z</time>
      </trkpt>
      <trkpt lat="45.06177" lon="5.39112">
        <ele>438.305</ele>
        <time>2019-04-21T12:34:27Z</time>
      </trkpt>
      <trkpt lat="45.06175" lon="5.39115">
        <ele>437.955</ele>
        <time>2019-04-21T12:34:30Z</time>
      </trkpt>
      <trkpt lat="45.06172" lon="5.39119">
        <ele>438.669</ele>
        <time>2019-04-21T12:34:32Z</time>
      </trkpt>
      <trkpt lat="45.06158" lon="5.39135">
        <ele>439.386</ele>
        <time>2019-04-21T12:34:48Z</time>
      </trkpt>
      <trkpt lat="45.06157" lon="5.39135">
        <ele>439.419</ele>
        <time>2019-04-21T12:34:49Z</time>
      </trkpt>
      <trkpt lat="45.0615" lon="5.39146">
        <ele>439.177</ele>
        <time>2019-04-21T12:34:59Z</time>
      </trkpt>
      <trkpt lat="45.0615" lon="5.39146">
        <ele>438.528</ele>
        <time>2019-04-21T12:35:01Z</time>
      </trkpt>
      <trkpt lat="45.0615" lon="5.39146">
        <ele>438.528</ele>
        <time>2019-04-21T12:35:01Z</time>
      </trkpt>
      <trkpt lat="45.0615" lon="5.39146">
        <ele>438.02</ele>
        <time>2019-04-21T12:35:02Z</time>
      </trkpt>
      <trkpt lat="45.0615" lon="5.39146">
        <ele>438.287</ele>
        <time>2019-04-21T12:35:03Z</time>
      </trkpt>
      <trkpt lat="45.0615" lon="5.39146">
        <ele>438.469</ele>
        <time>2019-04-21T12:35:04Z</time>
      </trkpt>
      <trkpt lat="45.0615" lon="5.39146">
        <ele>438.191</ele>
        <time>2019-04-21T12:35:05Z</time>
      </trkpt>
      <trkpt lat="45.0615" lon="5.39146">
        <ele>438.191</ele>
        <time>2019-04-21T12:35:05Z</time>
      </trkpt>
      <trkpt lat="45.06151" lon="5.39146">
        <ele>438.537</ele>
        <time>2019-04-21T12:35:06Z</time>
      </trkpt>
      <trkpt lat="45.06151" lon="5.39147">
        <ele>438.932</ele>
        <time>2019-04-21T12:35:08Z</time>
      </trkpt>
      <trkpt lat="45.06151" lon="5.39147">
        <ele>439.023</ele>
        <time>2019-04-21T12:35:09Z</time>
      </trkpt>
      <trkpt lat="45.06148" lon="5.39151">
        <ele>438.817</ele>
        <time>2019-04-21T12:35:14Z</time>
      </trkpt>
      <trkpt lat="45.06142" lon="5.3916">
        <ele>438.102</ele>
        <time>2019-04-21T12:35:24Z</time>
      </trkpt>
      <trkpt lat="45.0614" lon="5.39164">
        <ele>437.493</ele>
        <time>2019-04-21T12:35:29Z</time>
      </trkpt>
      <trkpt lat="45.06139" lon="5.39164">
        <ele>437.473</ele>
        <time>2019-04-21T12:35:30Z</time>
      </trkpt>
      <trkpt lat="45.06137" lon="5.39168">
        <ele>438.095</ele>
        <time>2019-04-21T12:35:34Z</time>
      </trkpt>
      <trkpt lat="45.06131" lon="5.39177">
        <ele>438.345</ele>
        <time>2019-04-21T12:35:41Z</time>
      </trkpt>
      <trkpt lat="45.0613" lon="5.39179">
        <ele>438.303</ele>
        <time>2019-04-21T12:35:43Z</time>
      </trkpt>
      <trkpt lat="45.06129" lon="5.39181">
        <ele>438.174</ele>
        <time>2019-04-21T12:35:45Z</time>
      </trkpt>
      <trkpt lat="45.06127" lon="5.39184">
        <ele>437.788</ele>
        <time>2019-04-21T12:35:48Z</time>
      </trkpt>
      <trkpt lat="45.06125" lon="5.39186">
        <ele>437.81</ele>
        <time>2019-04-21T12:35:50Z</time>
      </trkpt>
      <trkpt lat="45.06122" lon="5.39192">
        <ele>437.852</ele>
        <time>2019-04-21T12:35:54Z</time>
      </trkpt>
      <trkpt lat="45.06121" lon="5.39194">
        <ele>437.494</ele>
        <time>2019-04-21T12:35:56Z</time>
      </trkpt>
      <trkpt lat="45.06121" lon="5.39194">
        <ele>437.494</ele>
        <time>2019-04-21T12:35:56Z</time>
      </trkpt>
      <trkpt lat="45.06121" lon="5.39194">
        <ele>437.24</ele>
        <time>2019-04-21T12:35:57Z</time>
      </trkpt>
      <trkpt lat="45.06121" lon="5.39195">
        <ele>437.164</ele>
        <time>2019-04-21T12:35:58Z</time>
      </trkpt>
      <trkpt lat="45.0612" lon="5.39195">
        <ele>436.894</ele>
        <time>2019-04-21T12:35:59Z</time>
      </trkpt>
      <trkpt lat="45.06119" lon="5.39197">
        <ele>437.009</ele>
        <time>2019-04-21T12:36:01Z</time>
      </trkpt>
      <trkpt lat="45.06118" lon="5.39198">
        <ele>437.145</ele>
        <time>2019-04-21T12:36:02Z</time>
      </trkpt>
      <trkpt lat="45.06118" lon="5.39198">
        <ele>437.151</ele>
        <time>2019-04-21T12:36:03Z</time>
      </trkpt>
      <trkpt lat="45.06118" lon="5.39198">
        <ele>437.046</ele>
        <time>2019-04-21T12:36:04Z</time>
      </trkpt>
      <trkpt lat="45.06116" lon="5.392">
        <ele>437.271</ele>
        <time>2019-04-21T12:36:05Z</time>
      </trkpt>
      <trkpt lat="45.06116" lon="5.39203">
        <ele>437.28</ele>
        <time>2019-04-21T12:36:07Z</time>
      </trkpt>
      <trkpt lat="45.06115" lon="5.39207">
        <ele>437.569</ele>
        <time>2019-04-21T12:36:10Z</time>
      </trkpt>
      <trkpt lat="45.0611" lon="5.39219">
        <ele>435.911</ele>
        <time>2019-04-21T12:36:18Z</time>
      </trkpt>
      <trkpt lat="45.06111" lon="5.39225">
        <ele>434.781</ele>
        <time>2019-04-21T12:36:22Z</time>
      </trkpt>
      <trkpt lat="45.06111" lon="5.3923">
        <ele>434.336</ele>
        <time>2019-04-21T12:36:25Z</time>
      </trkpt>
      <trkpt lat="45.0611" lon="5.39239">
        <ele>433.695</ele>
        <time>2019-04-21T12:36:30Z</time>
      </trkpt>
      <trkpt lat="45.0611" lon="5.39243">
        <ele>432.849</ele>
        <time>2019-04-21T12:36:34Z</time>
      </trkpt>
      <trkpt lat="45.0611" lon="5.39251">
        <ele>431.318</ele>
        <time>2019-04-21T12:36:41Z</time>
      </trkpt>
      <trkpt lat="45.0611" lon="5.39253">
        <ele>431.496</ele>
        <time>2019-04-21T12:36:44Z</time>
      </trkpt>
      <trkpt lat="45.0611" lon="5.39254">
        <ele>431.217</ele>
        <time>2019-04-21T12:36:45Z</time>
      </trkpt>
      <trkpt lat="45.0611" lon="5.39254">
        <ele>431.184</ele>
        <time>2019-04-21T12:36:47Z</time>
      </trkpt>
      <trkpt lat="45.0611" lon="5.39254">
        <ele>431.209</ele>
        <time>2019-04-21T12:36:49Z</time>
      </trkpt>
      <trkpt lat="45.06112" lon="5.39253">
        <ele>431.002</ele>
        <time>2019-04-21T12:36:50Z</time>
      </trkpt>
      <trkpt lat="45.06112" lon="5.39253">
        <ele>431.008</ele>
        <time>2019-04-21T12:36:51Z</time>
      </trkpt>
      <trkpt lat="45.06112" lon="5.39253">
        <ele>431.607</ele>
        <time>2019-04-21T12:36:54Z</time>
      </trkpt>
      <trkpt lat="45.06113" lon="5.39253">
        <ele>431.202</ele>
        <time>2019-04-21T12:36:55Z</time>
      </trkpt>
      <trkpt lat="45.06113" lon="5.39253">
        <ele>431.134</ele>
        <time>2019-04-21T12:36:56Z</time>
      </trkpt>
      <trkpt lat="45.06113" lon="5.39253">
        <ele>430.512</ele>
        <time>2019-04-21T12:37:47Z</time>
      </trkpt>
      <trkpt lat="45.06115" lon="5.39254">
        <ele>430.297</ele>
        <time>2019-04-21T12:37:48Z</time>
      </trkpt>
      <trkpt lat="45.06115" lon="5.39258">
        <ele>428.542</ele>
        <time>2019-04-21T12:37:51Z</time>
      </trkpt>
      <trkpt lat="45.06114" lon="5.39264">
        <ele>426.277</ele>
        <time>2019-04-21T12:37:55Z</time>
      </trkpt>
      <trkpt lat="45.06117" lon="5.39277">
        <ele>425.943</ele>
        <time>2019-04-21T12:38:03Z</time>
      </trkpt>
      <trkpt lat="45.06116" lon="5.39294">
        <ele>425.579</ele>
        <time>2019-04-21T12:38:13Z</time>
      </trkpt>
      <trkpt lat="45.06117" lon="5.39297">
        <ele>425.803</ele>
        <time>2019-04-21T12:38:15Z</time>
      </trkpt>
      <trkpt lat="45.06121" lon="5.39306">
        <ele>425.77</ele>
        <time>2019-04-21T12:38:20Z</time>
      </trkpt>
      <trkpt lat="45.06122" lon="5.39316">
        <ele>425.183</ele>
        <time>2019-04-21T12:38:26Z</time>
      </trkpt>
      <trkpt lat="45.06122" lon="5.39324">
        <ele>425.337</ele>
        <time>2019-04-21T12:38:31Z</time>
      </trkpt>
      <trkpt lat="45.06124" lon="5.39329">
        <ele>425.873</ele>
        <time>2019-04-21T12:38:33Z</time>
      </trkpt>
      <trkpt lat="45.0613" lon="5.39342">
        <ele>425.956</ele>
        <time>2019-04-21T12:38:41Z</time>
      </trkpt>
      <trkpt lat="45.06132" lon="5.39349">
        <ele>426.847</ele>
        <time>2019-04-21T12:38:45Z</time>
      </trkpt>
      <trkpt lat="45.06133" lon="5.39353">
        <ele>427.306</ele>
        <time>2019-04-21T12:38:48Z</time>
      </trkpt>
      <trkpt lat="45.06131" lon="5.39357">
        <ele>427.378</ele>
        <time>2019-04-21T12:38:51Z</time>
      </trkpt>
      <trkpt lat="45.06132" lon="5.3937">
        <ele>427.073</ele>
        <time>2019-04-21T12:38:59Z</time>
      </trkpt>
      <trkpt lat="45.0614" lon="5.39402">
        <ele>425.534</ele>
        <time>2019-04-21T12:39:21Z</time>
      </trkpt>
      <trkpt lat="45.0614" lon="5.39409">
        <ele>425.097</ele>
        <time>2019-04-21T12:39:25Z</time>
      </trkpt>
      <trkpt lat="45.06141" lon="5.39416">
        <ele>424.685</ele>
        <time>2019-04-21T12:39:30Z</time>
      </trkpt>
      <trkpt lat="45.0614" lon="5.39421">
        <ele>424.567</ele>
        <time>2019-04-21T12:39:33Z</time>
      </trkpt>
      <trkpt lat="45.06141" lon="5.39425">
        <ele>424.108</ele>
        <time>2019-04-21T12:39:36Z</time>
      </trkpt>
      <trkpt lat="45.0614" lon="5.39429">
        <ele>423.309</ele>
        <time>2019-04-21T12:39:39Z</time>
      </trkpt>
      <trkpt lat="45.06141" lon="5.39435">
        <ele>422.811</ele>
        <time>2019-04-21T12:39:43Z</time>
      </trkpt>
      <trkpt lat="45.06136" lon="5.3948">
        <ele>422.647</ele>
        <time>2019-04-21T12:40:12Z</time>
      </trkpt>
      <trkpt lat="45.06129" lon="5.39496">
        <ele>420.435</ele>
        <time>2019-04-21T12:40:23Z</time>
      </trkpt>
      <trkpt lat="45.06125" lon="5.39502">
        <ele>419.78</ele>
        <time>2019-04-21T12:40:28Z</time>
      </trkpt>
      <trkpt lat="45.06091" lon="5.39534">
        <ele>420.343</ele>
        <time>2019-04-21T12:41:00Z</time>
      </trkpt>
      <trkpt lat="45.06064" lon="5.39566">
        <ele>419.486</ele>
        <time>2019-04-21T12:41:31Z</time>
      </trkpt>
      <trkpt lat="45.06021" lon="5.39591">
        <ele>417.213</ele>
        <time>2019-04-21T12:42:13Z</time>
      </trkpt>
      <trkpt lat="45.06014" lon="5.39593">
        <ele>416.198</ele>
        <time>2019-04-21T12:42:23Z</time>
      </trkpt>
      <trkpt lat="45.06008" lon="5.39594">
        <ele>416.859</ele>
        <time>2019-04-21T12:42:28Z</time>
      </trkpt>
      <trkpt lat="45.06001" lon="5.39599">
        <ele>415.933</ele>
        <time>2019-04-21T12:42:33Z</time>
      </trkpt>
      <trkpt lat="45.06" lon="5.39599">
        <ele>415.892</ele>
        <time>2019-04-21T12:42:34Z</time>
      </trkpt>
      <trkpt lat="45.05994" lon="5.39598">
        <ele>416.502</ele>
        <time>2019-04-21T12:42:38Z</time>
      </trkpt>
      <trkpt lat="45.05992" lon="5.39599">
        <ele>416.037</ele>
        <time>2019-04-21T12:42:40Z</time>
      </trkpt>
      <trkpt lat="45.05991" lon="5.39597">
        <ele>415.962</ele>
        <time>2019-04-21T12:42:42Z</time>
      </trkpt>
      <trkpt lat="45.05992" lon="5.39595">
        <ele>416.207</ele>
        <time>2019-04-21T12:42:45Z</time>
      </trkpt>
      <trkpt lat="45.05992" lon="5.39595">
        <ele>416.584</ele>
        <time>2019-04-21T12:42:48Z</time>
      </trkpt>
      <trkpt lat="45.05993" lon="5.39593">
        <ele>416.538</ele>
        <time>2019-04-21T12:42:49Z</time>
      </trkpt>
      <trkpt lat="45.05992" lon="5.39592">
        <ele>416.413</ele>
        <time>2019-04-21T12:42:50Z</time>
      </trkpt>
      <trkpt lat="45.05992" lon="5.39592">
        <ele>415.96</ele>
        <time>2019-04-21T12:42:51Z</time>
      </trkpt>
      <trkpt lat="45.0599" lon="5.3959">
        <ele>416.243</ele>
        <time>2019-04-21T12:42:54Z</time>
      </trkpt>
      <trkpt lat="45.05987" lon="5.39587">
        <ele>416.52</ele>
        <time>2019-04-21T12:42:58Z</time>
      </trkpt>
      <trkpt lat="45.05981" lon="5.39586">
        <ele>416.442</ele>
        <time>2019-04-21T12:43:05Z</time>
      </trkpt>
      <trkpt lat="45.05975" lon="5.39589">
        <ele>416.463</ele>
        <time>2019-04-21T12:43:09Z</time>
      </trkpt>
      <trkpt lat="45.05971" lon="5.39591">
        <ele>416.414</ele>
        <time>2019-04-21T12:43:13Z</time>
      </trkpt>
      <trkpt lat="45.05971" lon="5.39592">
        <ele>416.369</ele>
        <time>2019-04-21T12:43:15Z</time>
      </trkpt>
      <trkpt lat="45.05971" lon="5.39592">
        <ele>416.369</ele>
        <time>2019-04-21T12:43:15Z</time>
      </trkpt>
      <trkpt lat="45.0597" lon="5.39592">
        <ele>416.509</ele>
        <time>2019-04-21T12:43:16Z</time>
      </trkpt>
      <trkpt lat="45.05969" lon="5.39592">
        <ele>416.883</ele>
        <time>2019-04-21T12:43:17Z</time>
      </trkpt>
      <trkpt lat="45.05966" lon="5.39593">
        <ele>416.99</ele>
        <time>2019-04-21T12:43:20Z</time>
      </trkpt>
      <trkpt lat="45.05964" lon="5.39592">
        <ele>416.143</ele>
        <time>2019-04-21T12:43:25Z</time>
      </trkpt>
      <trkpt lat="45.05964" lon="5.39592">
        <ele>416.734</ele>
        <time>2019-04-21T12:43:27Z</time>
      </trkpt>
      <trkpt lat="45.05964" lon="5.39592">
        <ele>416.676</ele>
        <time>2019-04-21T12:43:28Z</time>
      </trkpt>
      <trkpt lat="45.05956" lon="5.39596">
        <ele>417.034</ele>
        <time>2019-04-21T12:43:34Z</time>
      </trkpt>
      <trkpt lat="45.05953" lon="5.39598">
        <ele>416.956</ele>
        <time>2019-04-21T12:43:37Z</time>
      </trkpt>
      <trkpt lat="45.05946" lon="5.39603">
        <ele>416.288</ele>
        <time>2019-04-21T12:43:41Z</time>
      </trkpt>
      <trkpt lat="45.05937" lon="5.39613">
        <ele>416.108</ele>
        <time>2019-04-21T12:43:48Z</time>
      </trkpt>
      <trkpt lat="45.05918" lon="5.39626">
        <ele>415.296</ele>
        <time>2019-04-21T12:44:12Z</time>
      </trkpt>
      <trkpt lat="45.05917" lon="5.39627">
        <ele>414.946</ele>
        <time>2019-04-21T12:44:13Z</time>
      </trkpt>
      <trkpt lat="45.05915" lon="5.39629">
        <ele>415.32</ele>
        <time>2019-04-21T12:44:15Z</time>
      </trkpt>
      <trkpt lat="45.0591" lon="5.39633">
        <ele>415.401</ele>
        <time>2019-04-21T12:44:19Z</time>
      </trkpt>
      <trkpt lat="45.05907" lon="5.39637">
        <ele>414.92</ele>
        <time>2019-04-21T12:44:22Z</time>
      </trkpt>
      <trkpt lat="45.05905" lon="5.39638">
        <ele>414.651</ele>
        <time>2019-04-21T12:44:25Z</time>
      </trkpt>
      <trkpt lat="45.05901" lon="5.39641">
        <ele>414.104</ele>
        <time>2019-04-21T12:44:28Z</time>
      </trkpt>
      <trkpt lat="45.05895" lon="5.39649">
        <ele>414.203</ele>
        <time>2019-04-21T12:44:35Z</time>
      </trkpt>
      <trkpt lat="45.05891" lon="5.39656">
        <ele>411.681</ele>
        <time>2019-04-21T12:44:41Z</time>
      </trkpt>
      <trkpt lat="45.05876" lon="5.39671">
        <ele>409.254</ele>
        <time>2019-04-21T12:44:57Z</time>
      </trkpt>
      <trkpt lat="45.05876" lon="5.39671">
        <ele>408.71</ele>
        <time>2019-04-21T12:44:58Z</time>
      </trkpt>
      <trkpt lat="45.05873" lon="5.39674">
        <ele>407.815</ele>
        <time>2019-04-21T12:45:03Z</time>
      </trkpt>
      <trkpt lat="45.0586" lon="5.39687">
        <ele>407.784</ele>
        <time>2019-04-21T12:45:17Z</time>
      </trkpt>
      <trkpt lat="45.05859" lon="5.39688">
        <ele>407.405</ele>
        <time>2019-04-21T12:45:18Z</time>
      </trkpt>
      <trkpt lat="45.05858" lon="5.39688">
        <ele>406.901</ele>
        <time>2019-04-21T12:45:19Z</time>
      </trkpt>
      <trkpt lat="45.05858" lon="5.39688">
        <ele>406.455</ele>
        <time>2019-04-21T12:45:20Z</time>
      </trkpt>
      <trkpt lat="45.05858" lon="5.39688">
        <ele>407.604</ele>
        <time>2019-04-21T12:45:37Z</time>
      </trkpt>
      <trkpt lat="45.05858" lon="5.39686">
        <ele>407.715</ele>
        <time>2019-04-21T12:45:38Z</time>
      </trkpt>
      <trkpt lat="45.05858" lon="5.39687">
        <ele>407.466</ele>
        <time>2019-04-21T12:45:40Z</time>
      </trkpt>
      <trkpt lat="45.05856" lon="5.39685">
        <ele>406.005</ele>
        <time>2019-04-21T12:45:45Z</time>
      </trkpt>
      <trkpt lat="45.05856" lon="5.39685">
        <ele>406.005</ele>
        <time>2019-04-21T12:45:45Z</time>
      </trkpt>
      <trkpt lat="45.05856" lon="5.39685">
        <ele>405.675</ele>
        <time>2019-04-21T12:45:46Z</time>
      </trkpt>
      <trkpt lat="45.05856" lon="5.39685">
        <ele>405.616</ele>
        <time>2019-04-21T12:47:15Z</time>
      </trkpt>
      <trkpt lat="45.05856" lon="5.39683">
        <ele>405.265</ele>
        <time>2019-04-21T12:47:16Z</time>
      </trkpt>
      <trkpt lat="45.05856" lon="5.39683">
        <ele>405.047</ele>
        <time>2019-04-21T12:47:17Z</time>
      </trkpt>
      <trkpt lat="45.05856" lon="5.39683">
        <ele>405.047</ele>
        <time>2019-04-21T12:47:17Z</time>
      </trkpt>
      <trkpt lat="45.05856" lon="5.39684">
        <ele>405.208</ele>
        <time>2019-04-21T12:47:18Z</time>
      </trkpt>
      <trkpt lat="45.05855" lon="5.39685">
        <ele>405.05</ele>
        <time>2019-04-21T12:47:22Z</time>
      </trkpt>
      <trkpt lat="45.05854" lon="5.39686">
        <ele>404.803</ele>
        <time>2019-04-21T12:47:23Z</time>
      </trkpt>
      <trkpt lat="45.05854" lon="5.39686">
        <ele>403.843</ele>
        <time>2019-04-21T12:47:24Z</time>
      </trkpt>
      <trkpt lat="45.05853" lon="5.39687">
        <ele>400.67</ele>
        <time>2019-04-21T12:47:27Z</time>
      </trkpt>
      <trkpt lat="45.05853" lon="5.39687">
        <ele>400.67</ele>
        <time>2019-04-21T12:47:27Z</time>
      </trkpt>
      <trkpt lat="45.05852" lon="5.39688">
        <ele>400.524</ele>
        <time>2019-04-21T12:47:28Z</time>
      </trkpt>
      <trkpt lat="45.05852" lon="5.39688">
        <ele>399.872</ele>
        <time>2019-04-21T12:47:29Z</time>
      </trkpt>
      <trkpt lat="45.05852" lon="5.39688">
        <ele>399.887</ele>
        <time>2019-04-21T12:47:30Z</time>
      </trkpt>
      <trkpt lat="45.05852" lon="5.39688">
        <ele>400.21</ele>
        <time>2019-04-21T12:47:46Z</time>
      </trkpt>
      <trkpt lat="45.0585" lon="5.39689">
        <ele>399.574</ele>
        <time>2019-04-21T12:47:47Z</time>
      </trkpt>
      <trkpt lat="45.05849" lon="5.39691">
        <ele>398.716</ele>
        <time>2019-04-21T12:47:50Z</time>
      </trkpt>
      <trkpt lat="45.05847" lon="5.39693">
        <ele>397.865</ele>
        <time>2019-04-21T12:47:53Z</time>
      </trkpt>
      <trkpt lat="45.05847" lon="5.39695">
        <ele>397.948</ele>
        <time>2019-04-21T12:47:55Z</time>
      </trkpt>
      <trkpt lat="45.05846" lon="5.39696">
        <ele>397.113</ele>
        <time>2019-04-21T12:47:57Z</time>
      </trkpt>
      <trkpt lat="45.05846" lon="5.39696">
        <ele>396.981</ele>
        <time>2019-04-21T12:48:02Z</time>
      </trkpt>
      <trkpt lat="45.05846" lon="5.39698">
        <ele>397.089</ele>
        <time>2019-04-21T12:48:03Z</time>
      </trkpt>
      <trkpt lat="45.05846" lon="5.39698">
        <ele>397.089</ele>
        <time>2019-04-21T12:48:03Z</time>
      </trkpt>
      <trkpt lat="45.05846" lon="5.39698">
        <ele>397.074</ele>
        <time>2019-04-21T12:48:04Z</time>
      </trkpt>
      <trkpt lat="45.05846" lon="5.39698">
        <ele>396.88</ele>
        <time>2019-04-21T12:48:06Z</time>
      </trkpt>
      <trkpt lat="45.05845" lon="5.39698">
        <ele>396.996</ele>
        <time>2019-04-21T12:48:07Z</time>
      </trkpt>
      <trkpt lat="45.05844" lon="5.39699">
        <ele>397.139</ele>
        <time>2019-04-21T12:48:08Z</time>
      </trkpt>
      <trkpt lat="45.05843" lon="5.397">
        <ele>396.784</ele>
        <time>2019-04-21T12:48:11Z</time>
      </trkpt>
      <trkpt lat="45.05843" lon="5.397">
        <ele>396.799</ele>
        <time>2019-04-21T12:48:12Z</time>
      </trkpt>
      <trkpt lat="45.05843" lon="5.397">
        <ele>396.667</ele>
        <time>2019-04-21T12:48:13Z</time>
      </trkpt>
      <trkpt lat="45.05843" lon="5.397">
        <ele>396.568</ele>
        <time>2019-04-21T12:48:14Z</time>
      </trkpt>
      <trkpt lat="45.05843" lon="5.397">
        <ele>396.956</ele>
        <time>2019-04-21T12:48:21Z</time>
      </trkpt>
      <trkpt lat="45.05843" lon="5.39702">
        <ele>397.711</ele>
        <time>2019-04-21T12:48:22Z</time>
      </trkpt>
      <trkpt lat="45.05843" lon="5.39703">
        <ele>397.89</ele>
        <time>2019-04-21T12:48:23Z</time>
      </trkpt>
      <trkpt lat="45.05842" lon="5.39705">
        <ele>398.083</ele>
        <time>2019-04-21T12:48:25Z</time>
      </trkpt>
      <trkpt lat="45.05839" lon="5.39706">
        <ele>398.564</ele>
        <time>2019-04-21T12:48:29Z</time>
      </trkpt>
      <trkpt lat="45.05835" lon="5.39711">
        <ele>398.491</ele>
        <time>2019-04-21T12:48:36Z</time>
      </trkpt>
      <trkpt lat="45.05824" lon="5.39726">
        <ele>400.544</ele>
        <time>2019-04-21T12:48:47Z</time>
      </trkpt>
      <trkpt lat="45.05807" lon="5.39753">
        <ele>398.851</ele>
        <time>2019-04-21T12:49:17Z</time>
      </trkpt>
      <trkpt lat="45.058" lon="5.39764">
        <ele>399.366</ele>
        <time>2019-04-21T12:49:27Z</time>
      </trkpt>
      <trkpt lat="45.058" lon="5.39764">
        <ele>399.538</ele>
        <time>2019-04-21T12:49:28Z</time>
      </trkpt>
      <trkpt lat="45.05794" lon="5.39776">
        <ele>400.398</ele>
        <time>2019-04-21T12:49:38Z</time>
      </trkpt>
      <trkpt lat="45.05792" lon="5.39781">
        <ele>400.632</ele>
        <time>2019-04-21T12:49:41Z</time>
      </trkpt>
      <trkpt lat="45.05781" lon="5.39798">
        <ele>399.49</ele>
        <time>2019-04-21T12:49:55Z</time>
      </trkpt>
      <trkpt lat="45.05781" lon="5.39812">
        <ele>398.903</ele>
        <time>2019-04-21T12:50:06Z</time>
      </trkpt>
      <trkpt lat="45.05783" lon="5.39821">
        <ele>397.792</ele>
        <time>2019-04-21T12:50:15Z</time>
      </trkpt>
      <trkpt lat="45.05783" lon="5.39822">
        <ele>398.063</ele>
        <time>2019-04-21T12:50:16Z</time>
      </trkpt>
      <trkpt lat="45.05784" lon="5.39831">
        <ele>396.03</ele>
        <time>2019-04-21T12:50:22Z</time>
      </trkpt>
      <trkpt lat="45.05785" lon="5.39842">
        <ele>395.864</ele>
        <time>2019-04-21T12:50:32Z</time>
      </trkpt>
      <trkpt lat="45.05784" lon="5.39864">
        <ele>395.971</ele>
        <time>2019-04-21T12:50:47Z</time>
      </trkpt>
      <trkpt lat="45.05786" lon="5.39872">
        <ele>395.369</ele>
        <time>2019-04-21T12:50:52Z</time>
      </trkpt>
      <trkpt lat="45.05785" lon="5.39883">
        <ele>393.194</ele>
        <time>2019-04-21T12:51:01Z</time>
      </trkpt>
      <trkpt lat="45.05786" lon="5.39884">
        <ele>392.262</ele>
        <time>2019-04-21T12:51:03Z</time>
      </trkpt>
      <trkpt lat="45.05786" lon="5.39884">
        <ele>390.898</ele>
        <time>2019-04-21T12:51:05Z</time>
      </trkpt>
      <trkpt lat="45.05786" lon="5.39884">
        <ele>390.263</ele>
        <time>2019-04-21T12:51:06Z</time>
      </trkpt>
      <trkpt lat="45.05786" lon="5.39884">
        <ele>390.263</ele>
        <time>2019-04-21T12:51:06Z</time>
      </trkpt>
      <trkpt lat="45.05786" lon="5.39883">
        <ele>389.811</ele>
        <time>2019-04-21T12:51:07Z</time>
      </trkpt>
      <trkpt lat="45.05786" lon="5.39883">
        <ele>389.371</ele>
        <time>2019-04-21T12:51:08Z</time>
      </trkpt>
      <trkpt lat="45.05786" lon="5.39883">
        <ele>389.638</ele>
        <time>2019-04-21T12:51:10Z</time>
      </trkpt>
      <trkpt lat="45.05786" lon="5.39884">
        <ele>389.323</ele>
        <time>2019-04-21T12:51:11Z</time>
      </trkpt>
      <trkpt lat="45.05786" lon="5.39884">
        <ele>389.084</ele>
        <time>2019-04-21T12:51:12Z</time>
      </trkpt>
      <trkpt lat="45.05786" lon="5.39884">
        <ele>389.682</ele>
        <time>2019-04-21T12:51:19Z</time>
      </trkpt>
      <trkpt lat="45.05785" lon="5.39884">
        <ele>389.242</ele>
        <time>2019-04-21T12:51:20Z</time>
      </trkpt>
      <trkpt lat="45.05785" lon="5.39886">
        <ele>389.316</ele>
        <time>2019-04-21T12:51:21Z</time>
      </trkpt>
      <trkpt lat="45.05785" lon="5.39893">
        <ele>387.271</ele>
        <time>2019-04-21T12:51:26Z</time>
      </trkpt>
      <trkpt lat="45.05783" lon="5.39901">
        <ele>386.281</ele>
        <time>2019-04-21T12:51:32Z</time>
      </trkpt>
      <trkpt lat="45.05776" lon="5.39946">
        <ele>384.11</ele>
        <time>2019-04-21T12:52:03Z</time>
      </trkpt>
      <trkpt lat="45.05775" lon="5.39953">
        <ele>383.762</ele>
        <time>2019-04-21T12:52:08Z</time>
      </trkpt>
      <trkpt lat="45.05767" lon="5.39992">
        <ele>381.536</ele>
        <time>2019-04-21T12:52:38Z</time>
      </trkpt>
      <trkpt lat="45.05767" lon="5.39998">
        <ele>382.053</ele>
        <time>2019-04-21T12:52:43Z</time>
      </trkpt>
      <trkpt lat="45.05765" lon="5.40002">
        <ele>382.641</ele>
        <time>2019-04-21T12:52:46Z</time>
      </trkpt>
      <trkpt lat="45.05759" lon="5.40044">
        <ele>381.81</ele>
        <time>2019-04-21T12:53:16Z</time>
      </trkpt>
      <trkpt lat="45.05761" lon="5.40071">
        <ele>380.508</ele>
        <time>2019-04-21T12:53:33Z</time>
      </trkpt>
      <trkpt lat="45.05764" lon="5.40087">
        <ele>380.64</ele>
        <time>2019-04-21T12:53:45Z</time>
      </trkpt>
      <trkpt lat="45.05766" lon="5.401">
        <ele>380.743</ele>
        <time>2019-04-21T12:53:53Z</time>
      </trkpt>
      <trkpt lat="45.05778" lon="5.40125">
        <ele>378.838</ele>
        <time>2019-04-21T12:54:13Z</time>
      </trkpt>
      <trkpt lat="45.05784" lon="5.40131">
        <ele>377.43</ele>
        <time>2019-04-21T12:54:21Z</time>
      </trkpt>
      <trkpt lat="45.05784" lon="5.40131">
        <ele>376.928</ele>
        <time>2019-04-21T12:54:22Z</time>
      </trkpt>
      <trkpt lat="45.05786" lon="5.40132">
        <ele>376.622</ele>
        <time>2019-04-21T12:54:25Z</time>
      </trkpt>
      <trkpt lat="45.05786" lon="5.40132">
        <ele>376.505</ele>
        <time>2019-04-21T12:54:26Z</time>
      </trkpt>
      <trkpt lat="45.05786" lon="5.40132">
        <ele>376.268</ele>
        <time>2019-04-21T12:54:27Z</time>
      </trkpt>
      <trkpt lat="45.05785" lon="5.40134">
        <ele>375.212</ele>
        <time>2019-04-21T12:54:31Z</time>
      </trkpt>
      <trkpt lat="45.05785" lon="5.40134">
        <ele>375.212</ele>
        <time>2019-04-21T12:54:31Z</time>
      </trkpt>
      <trkpt lat="45.05785" lon="5.40134">
        <ele>374.699</ele>
        <time>2019-04-21T12:54:32Z</time>
      </trkpt>
      <trkpt lat="45.05785" lon="5.40134">
        <ele>374.699</ele>
        <time>2019-04-21T12:54:32Z</time>
      </trkpt>
      <trkpt lat="45.05785" lon="5.40134">
        <ele>374.455</ele>
        <time>2019-04-21T12:54:33Z</time>
      </trkpt>
      <trkpt lat="45.05785" lon="5.40134">
        <ele>374.455</ele>
        <time>2019-04-21T12:54:33Z</time>
      </trkpt>
      <trkpt lat="45.05785" lon="5.40135">
        <ele>374.456</ele>
        <time>2019-04-21T12:54:34Z</time>
      </trkpt>
      <trkpt lat="45.05785" lon="5.40135">
        <ele>374.456</ele>
        <time>2019-04-21T12:54:34Z</time>
      </trkpt>
      <trkpt lat="45.05785" lon="5.40136">
        <ele>374.56</ele>
        <time>2019-04-21T12:54:35Z</time>
      </trkpt>
      <trkpt lat="45.05784" lon="5.40149">
        <ele>374.818</ele>
        <time>2019-04-21T12:54:45Z</time>
      </trkpt>
      <trkpt lat="45.05784" lon="5.40153">
        <ele>374.544</ele>
        <time>2019-04-21T12:54:50Z</time>
      </trkpt>
      <trkpt lat="45.0578" lon="5.40167">
        <ele>374.467</ele>
        <time>2019-04-21T12:55:01Z</time>
      </trkpt>
      <trkpt lat="45.0578" lon="5.40168">
        <ele>373.156</ele>
        <time>2019-04-21T12:55:02Z</time>
      </trkpt>
      <trkpt lat="45.05777" lon="5.40176">
        <ele>372.991</ele>
        <time>2019-04-21T12:55:07Z</time>
      </trkpt>
      <trkpt lat="45.05775" lon="5.40182">
        <ele>373.477</ele>
        <time>2019-04-21T12:55:13Z</time>
      </trkpt>
      <trkpt lat="45.05776" lon="5.40187">
        <ele>373.355</ele>
        <time>2019-04-21T12:55:19Z</time>
      </trkpt>
      <trkpt lat="45.05777" lon="5.40192">
        <ele>372.898</ele>
        <time>2019-04-21T12:55:22Z</time>
      </trkpt>
      <trkpt lat="45.05779" lon="5.40204">
        <ele>371.805</ele>
        <time>2019-04-21T12:55:30Z</time>
      </trkpt>
      <trkpt lat="45.05781" lon="5.40208">
        <ele>371.761</ele>
        <time>2019-04-21T12:55:34Z</time>
      </trkpt>
      <trkpt lat="45.05788" lon="5.40214">
        <ele>369.672</ele>
        <time>2019-04-21T12:55:42Z</time>
      </trkpt>
      <trkpt lat="45.0579" lon="5.40215">
        <ele>368.887</ele>
        <time>2019-04-21T12:55:46Z</time>
      </trkpt>
      <trkpt lat="45.0579" lon="5.40215">
        <ele>368.893</ele>
        <time>2019-04-21T12:55:47Z</time>
      </trkpt>
      <trkpt lat="45.0579" lon="5.40215">
        <ele>368.239</ele>
        <time>2019-04-21T12:55:50Z</time>
      </trkpt>
      <trkpt lat="45.05791" lon="5.40215">
        <ele>368.198</ele>
        <time>2019-04-21T12:55:51Z</time>
      </trkpt>
      <trkpt lat="45.05791" lon="5.40216">
        <ele>368.508</ele>
        <time>2019-04-21T12:55:52Z</time>
      </trkpt>
      <trkpt lat="45.05797" lon="5.40222">
        <ele>365.995</ele>
        <time>2019-04-21T12:56:01Z</time>
      </trkpt>
      <trkpt lat="45.05798" lon="5.40225">
        <ele>365.432</ele>
        <time>2019-04-21T12:56:05Z</time>
      </trkpt>
      <trkpt lat="45.05798" lon="5.40226">
        <ele>365.563</ele>
        <time>2019-04-21T12:56:06Z</time>
      </trkpt>
      <trkpt lat="45.05799" lon="5.40227">
        <ele>364.569</ele>
        <time>2019-04-21T12:56:08Z</time>
      </trkpt>
      <trkpt lat="45.05801" lon="5.40228">
        <ele>363.809</ele>
        <time>2019-04-21T12:56:10Z</time>
      </trkpt>
      <trkpt lat="45.05804" lon="5.40229">
        <ele>362.647</ele>
        <time>2019-04-21T12:56:14Z</time>
      </trkpt>
      <trkpt lat="45.05804" lon="5.4023">
        <ele>362.576</ele>
        <time>2019-04-21T12:56:15Z</time>
      </trkpt>
      <trkpt lat="45.05804" lon="5.4023">
        <ele>363.019</ele>
        <time>2019-04-21T12:56:16Z</time>
      </trkpt>
      <trkpt lat="45.05804" lon="5.4023">
        <ele>363.019</ele>
        <time>2019-04-21T12:56:16Z</time>
      </trkpt>
      <trkpt lat="45.05804" lon="5.40231">
        <ele>362.927</ele>
        <time>2019-04-21T12:56:17Z</time>
      </trkpt>
      <trkpt lat="45.05804" lon="5.40231">
        <ele>362.992</ele>
        <time>2019-04-21T12:56:18Z</time>
      </trkpt>
      <trkpt lat="45.05804" lon="5.40231">
        <ele>362.992</ele>
        <time>2019-04-21T12:56:18Z</time>
      </trkpt>
      <trkpt lat="45.05805" lon="5.40231">
        <ele>362.508</ele>
        <time>2019-04-21T12:56:19Z</time>
      </trkpt>
      <trkpt lat="45.05805" lon="5.40231">
        <ele>362.423</ele>
        <time>2019-04-21T12:56:20Z</time>
      </trkpt>
      <trkpt lat="45.05805" lon="5.40231">
        <ele>362.134</ele>
        <time>2019-04-21T12:56:45Z</time>
      </trkpt>
      <trkpt lat="45.05806" lon="5.40233">
        <ele>361.381</ele>
        <time>2019-04-21T12:56:46Z</time>
      </trkpt>
      <trkpt lat="45.05807" lon="5.40236">
        <ele>358.856</ele>
        <time>2019-04-21T12:56:50Z</time>
      </trkpt>
      <trkpt lat="45.05809" lon="5.40237">
        <ele>358.587</ele>
        <time>2019-04-21T12:56:54Z</time>
      </trkpt>
      <trkpt lat="45.0581" lon="5.40237">
        <ele>359.316</ele>
        <time>2019-04-21T12:56:55Z</time>
      </trkpt>
      <trkpt lat="45.0581" lon="5.40237">
        <ele>359.751</ele>
        <time>2019-04-21T12:56:56Z</time>
      </trkpt>
      <trkpt lat="45.0581" lon="5.40237">
        <ele>358.93</ele>
        <time>2019-04-21T12:56:59Z</time>
      </trkpt>
      <trkpt lat="45.05808" lon="5.40235">
        <ele>359.069</ele>
        <time>2019-04-21T12:57:00Z</time>
      </trkpt>
      <trkpt lat="45.05808" lon="5.40235">
        <ele>359.065</ele>
        <time>2019-04-21T12:57:01Z</time>
      </trkpt>
      <trkpt lat="45.05808" lon="5.40235">
        <ele>359.737</ele>
        <time>2019-04-21T12:57:21Z</time>
      </trkpt>
      <trkpt lat="45.05807" lon="5.40235">
        <ele>359.704</ele>
        <time>2019-04-21T12:57:22Z</time>
      </trkpt>
      <trkpt lat="45.05808" lon="5.40236">
        <ele>359.28</ele>
        <time>2019-04-21T12:57:24Z</time>
      </trkpt>
      <trkpt lat="45.05813" lon="5.40238">
        <ele>358.767</ele>
        <time>2019-04-21T12:57:28Z</time>
      </trkpt>
      <trkpt lat="45.05815" lon="5.4024">
        <ele>357.459</ele>
        <time>2019-04-21T12:57:31Z</time>
      </trkpt>
      <trkpt lat="45.05825" lon="5.40249">
        <ele>355.948</ele>
        <time>2019-04-21T12:57:41Z</time>
      </trkpt>
      <trkpt lat="45.05828" lon="5.40251">
        <ele>355.199</ele>
        <time>2019-04-21T12:57:44Z</time>
      </trkpt>
      <trkpt lat="45.05846" lon="5.4027">
        <ele>353.909</ele>
        <time>2019-04-21T12:58:06Z</time>
      </trkpt>
      <trkpt lat="45.05847" lon="5.40271">
        <ele>354.106</ele>
        <time>2019-04-21T12:58:07Z</time>
      </trkpt>
      <trkpt lat="45.05851" lon="5.40276">
        <ele>353.81</ele>
        <time>2019-04-21T12:58:14Z</time>
      </trkpt>
      <trkpt lat="45.05855" lon="5.4028">
        <ele>352.463</ele>
        <time>2019-04-21T12:58:20Z</time>
      </trkpt>
      <trkpt lat="45.0586" lon="5.40283">
        <ele>352.224</ele>
        <time>2019-04-21T12:58:25Z</time>
      </trkpt>
      <trkpt lat="45.05864" lon="5.40285">
        <ele>352.316</ele>
        <time>2019-04-21T12:58:28Z</time>
      </trkpt>
      <trkpt lat="45.05866" lon="5.40287">
        <ele>351.766</ele>
        <time>2019-04-21T12:58:31Z</time>
      </trkpt>
      <trkpt lat="45.05868" lon="5.40291">
        <ele>352.092</ele>
        <time>2019-04-21T12:58:35Z</time>
      </trkpt>
      <trkpt lat="45.05872" lon="5.40293">
        <ele>351.809</ele>
        <time>2019-04-21T12:58:39Z</time>
      </trkpt>
      <trkpt lat="45.05873" lon="5.40293">
        <ele>352.139</ele>
        <time>2019-04-21T12:58:41Z</time>
      </trkpt>
      <trkpt lat="45.05874" lon="5.40292">
        <ele>351.937</ele>
        <time>2019-04-21T12:58:44Z</time>
      </trkpt>
      <trkpt lat="45.05876" lon="5.40292">
        <ele>352.271</ele>
        <time>2019-04-21T12:58:48Z</time>
      </trkpt>
      <trkpt lat="45.05876" lon="5.40292">
        <ele>352.271</ele>
        <time>2019-04-21T12:58:48Z</time>
      </trkpt>
      <trkpt lat="45.05876" lon="5.40291">
        <ele>352.249</ele>
        <time>2019-04-21T12:58:49Z</time>
      </trkpt>
      <trkpt lat="45.05876" lon="5.40291">
        <ele>352.079</ele>
        <time>2019-04-21T12:58:50Z</time>
      </trkpt>
      <trkpt lat="45.05876" lon="5.40291">
        <ele>351.971</ele>
        <time>2019-04-21T12:58:51Z</time>
      </trkpt>
      <trkpt lat="45.05876" lon="5.40291">
        <ele>352.209</ele>
        <time>2019-04-21T12:59:01Z</time>
      </trkpt>
      <trkpt lat="45.05874" lon="5.40291">
        <ele>352.391</ele>
        <time>2019-04-21T12:59:02Z</time>
      </trkpt>
      <trkpt lat="45.05874" lon="5.40291">
        <ele>352.608</ele>
        <time>2019-04-21T12:59:03Z</time>
      </trkpt>
      <trkpt lat="45.05874" lon="5.40291">
        <ele>352.28</ele>
        <time>2019-04-21T12:59:10Z</time>
      </trkpt>
      <trkpt lat="45.05875" lon="5.4029">
        <ele>352.151</ele>
        <time>2019-04-21T12:59:11Z</time>
      </trkpt>
      <trkpt lat="45.05876" lon="5.40292">
        <ele>351.745</ele>
        <time>2019-04-21T12:59:14Z</time>
      </trkpt>
      <trkpt lat="45.05874" lon="5.40296">
        <ele>351.008</ele>
        <time>2019-04-21T12:59:18Z</time>
      </trkpt>
      <trkpt lat="45.05874" lon="5.40296">
        <ele>351.008</ele>
        <time>2019-04-21T12:59:18Z</time>
      </trkpt>
      <trkpt lat="45.05874" lon="5.40296">
        <ele>350.408</ele>
        <time>2019-04-21T12:59:19Z</time>
      </trkpt>
      <trkpt lat="45.05874" lon="5.40296">
        <ele>350.408</ele>
        <time>2019-04-21T12:59:19Z</time>
      </trkpt>
      <trkpt lat="45.05873" lon="5.40296">
        <ele>350.115</ele>
        <time>2019-04-21T12:59:20Z</time>
      </trkpt>
      <trkpt lat="45.05873" lon="5.40296">
        <ele>350.115</ele>
        <time>2019-04-21T12:59:20Z</time>
      </trkpt>
      <trkpt lat="45.05872" lon="5.40296">
        <ele>350.437</ele>
        <time>2019-04-21T12:59:21Z</time>
      </trkpt>
      <trkpt lat="45.05871" lon="5.40296">
        <ele>350.239</ele>
        <time>2019-04-21T12:59:23Z</time>
      </trkpt>
      <trkpt lat="45.05871" lon="5.40296">
        <ele>350.239</ele>
        <time>2019-04-21T12:59:23Z</time>
      </trkpt>
      <trkpt lat="45.05871" lon="5.40297">
        <ele>349.903</ele>
        <time>2019-04-21T12:59:24Z</time>
      </trkpt>
      <trkpt lat="45.05872" lon="5.40298">
        <ele>349.395</ele>
        <time>2019-04-21T12:59:26Z</time>
      </trkpt>
      <trkpt lat="45.05876" lon="5.40301">
        <ele>349.943</ele>
        <time>2019-04-21T12:59:31Z</time>
      </trkpt>
      <trkpt lat="45.05877" lon="5.40302">
        <ele>349.585</ele>
        <time>2019-04-21T12:59:32Z</time>
      </trkpt>
      <trkpt lat="45.05879" lon="5.40303">
        <ele>350.195</ele>
        <time>2019-04-21T12:59:34Z</time>
      </trkpt>
      <trkpt lat="45.05879" lon="5.40303">
        <ele>350.594</ele>
        <time>2019-04-21T12:59:36Z</time>
      </trkpt>
      <trkpt lat="45.05879" lon="5.40303">
        <ele>348.743</ele>
        <time>2019-04-21T12:59:40Z</time>
      </trkpt>
      <trkpt lat="45.05881" lon="5.40303">
        <ele>347.868</ele>
        <time>2019-04-21T12:59:41Z</time>
      </trkpt>
      <trkpt lat="45.05882" lon="5.40303">
        <ele>347.426</ele>
        <time>2019-04-21T12:59:42Z</time>
      </trkpt>
      <trkpt lat="45.05885" lon="5.40303">
        <ele>347.646</ele>
        <time>2019-04-21T12:59:44Z</time>
      </trkpt>
      <trkpt lat="45.05892" lon="5.40305">
        <ele>347.649</ele>
        <time>2019-04-21T12:59:50Z</time>
      </trkpt>
      <trkpt lat="45.05893" lon="5.40305">
        <ele>347.886</ele>
        <time>2019-04-21T12:59:51Z</time>
      </trkpt>
      <trkpt lat="45.05893" lon="5.403">
        <ele>344.36</ele>
        <time>2019-04-21T12:59:55Z</time>
      </trkpt>
      <trkpt lat="45.05891" lon="5.40297">
        <ele>343.121</ele>
        <time>2019-04-21T12:59:57Z</time>
      </trkpt>
      <trkpt lat="45.05889" lon="5.40294">
        <ele>342.393</ele>
        <time>2019-04-21T12:59:59Z</time>
      </trkpt>
      <trkpt lat="45.05885" lon="5.4029">
        <ele>343.053</ele>
        <time>2019-04-21T13:00:03Z</time>
      </trkpt>
      <trkpt lat="45.05885" lon="5.4029">
        <ele>343.038</ele>
        <time>2019-04-21T13:00:04Z</time>
      </trkpt>
      <trkpt lat="45.05884" lon="5.4029">
        <ele>342.95</ele>
        <time>2019-04-21T13:00:05Z</time>
      </trkpt>
      <trkpt lat="45.05886" lon="5.4029">
        <ele>342.613</ele>
        <time>2019-04-21T13:00:06Z</time>
      </trkpt>
      <trkpt lat="45.05887" lon="5.40289">
        <ele>342.914</ele>
        <time>2019-04-21T13:00:07Z</time>
      </trkpt>
      <trkpt lat="45.05888" lon="5.40289">
        <ele>342.937</ele>
        <time>2019-04-21T13:00:09Z</time>
      </trkpt>
      <trkpt lat="45.05888" lon="5.40289">
        <ele>342.795</ele>
        <time>2019-04-21T13:00:10Z</time>
      </trkpt>
      <trkpt lat="45.05889" lon="5.40289">
        <ele>342.951</ele>
        <time>2019-04-21T13:00:11Z</time>
      </trkpt>
      <trkpt lat="45.05889" lon="5.40289">
        <ele>342.951</ele>
        <time>2019-04-21T13:00:11Z</time>
      </trkpt>
      <trkpt lat="45.05889" lon="5.40289">
        <ele>343.099</ele>
        <time>2019-04-21T13:00:12Z</time>
      </trkpt>
      <trkpt lat="45.05889" lon="5.40289">
        <ele>343.099</ele>
        <time>2019-04-21T13:00:12Z</time>
      </trkpt>
      <trkpt lat="45.05889" lon="5.40289">
        <ele>343.82</ele>
        <time>2019-04-21T13:00:13Z</time>
      </trkpt>
      <trkpt lat="45.0589" lon="5.40288">
        <ele>344.847</ele>
        <time>2019-04-21T13:00:14Z</time>
      </trkpt>
      <trkpt lat="45.0589" lon="5.40288">
        <ele>344.857</ele>
        <time>2019-04-21T13:00:15Z</time>
      </trkpt>
      <trkpt lat="45.0589" lon="5.40286">
        <ele>345.491</ele>
        <time>2019-04-21T13:00:18Z</time>
      </trkpt>
      <trkpt lat="45.0589" lon="5.40286">
        <ele>345.825</ele>
        <time>2019-04-21T13:00:31Z</time>
      </trkpt>
      <trkpt lat="45.05888" lon="5.40285">
        <ele>345.357</ele>
        <time>2019-04-21T13:00:32Z</time>
      </trkpt>
      <trkpt lat="45.05888" lon="5.40285">
        <ele>345.357</ele>
        <time>2019-04-21T13:00:32Z</time>
      </trkpt>
      <trkpt lat="45.05888" lon="5.40285">
        <ele>345.781</ele>
        <time>2019-04-21T13:00:33Z</time>
      </trkpt>
      <trkpt lat="45.05888" lon="5.40285">
        <ele>345.781</ele>
        <time>2019-04-21T13:00:33Z</time>
      </trkpt>
      <trkpt lat="45.05888" lon="5.40284">
        <ele>346.097</ele>
        <time>2019-04-21T13:00:34Z</time>
      </trkpt>
      <trkpt lat="45.05888" lon="5.40284">
        <ele>346.097</ele>
        <time>2019-04-21T13:00:34Z</time>
      </trkpt>
      <trkpt lat="45.05888" lon="5.40284">
        <ele>345.959</ele>
        <time>2019-04-21T13:00:35Z</time>
      </trkpt>
      <trkpt lat="45.05888" lon="5.40284">
        <ele>345.177</ele>
        <time>2019-04-21T13:01:37Z</time>
      </trkpt>
      <trkpt lat="45.05885" lon="5.40284">
        <ele>344.34</ele>
        <time>2019-04-21T13:01:38Z</time>
      </trkpt>
      <trkpt lat="45.05887" lon="5.40284">
        <ele>344.763</ele>
        <time>2019-04-21T13:01:44Z</time>
      </trkpt>
      <trkpt lat="45.05888" lon="5.40283">
        <ele>345.136</ele>
        <time>2019-04-21T13:01:45Z</time>
      </trkpt>
      <trkpt lat="45.05889" lon="5.40282">
        <ele>345.583</ele>
        <time>2019-04-21T13:01:47Z</time>
      </trkpt>
      <trkpt lat="45.05889" lon="5.40282">
        <ele>345.399</ele>
        <time>2019-04-21T13:02:01Z</time>
      </trkpt>
      <trkpt lat="45.05888" lon="5.4028">
        <ele>345.947</ele>
        <time>2019-04-21T13:02:02Z</time>
      </trkpt>
      <trkpt lat="45.05887" lon="5.4028">
        <ele>345.829</ele>
        <time>2019-04-21T13:02:03Z</time>
      </trkpt>
      <trkpt lat="45.05886" lon="5.4028">
        <ele>346.158</ele>
        <time>2019-04-21T13:02:04Z</time>
      </trkpt>
      <trkpt lat="45.05886" lon="5.4028">
        <ele>345.383</ele>
        <time>2019-04-21T13:02:05Z</time>
      </trkpt>
      <trkpt lat="45.05886" lon="5.4028">
        <ele>345.383</ele>
        <time>2019-04-21T13:02:05Z</time>
      </trkpt>
      <trkpt lat="45.05886" lon="5.4028">
        <ele>344.374</ele>
        <time>2019-04-21T13:02:06Z</time>
      </trkpt>
      <trkpt lat="45.05886" lon="5.4028">
        <ele>344.374</ele>
        <time>2019-04-21T13:02:06Z</time>
      </trkpt>
      <trkpt lat="45.05884" lon="5.40279">
        <ele>344.657</ele>
        <time>2019-04-21T13:02:07Z</time>
      </trkpt>
      <trkpt lat="45.05883" lon="5.40279">
        <ele>344.831</ele>
        <time>2019-04-21T13:02:09Z</time>
      </trkpt>
      <trkpt lat="45.05881" lon="5.40278">
        <ele>345.311</ele>
        <time>2019-04-21T13:02:13Z</time>
      </trkpt>
      <trkpt lat="45.0588" lon="5.40278">
        <ele>344.838</ele>
        <time>2019-04-21T13:02:19Z</time>
      </trkpt>
      <trkpt lat="45.05878" lon="5.40279">
        <ele>344.426</ele>
        <time>2019-04-21T13:02:24Z</time>
      </trkpt>
      <trkpt lat="45.05878" lon="5.40279">
        <ele>344.942</ele>
        <time>2019-04-21T13:02:26Z</time>
      </trkpt>
      <trkpt lat="45.05878" lon="5.40279">
        <ele>345.378</ele>
        <time>2019-04-21T13:02:27Z</time>
      </trkpt>
      <trkpt lat="45.05878" lon="5.40279">
        <ele>345.063</ele>
        <time>2019-04-21T13:02:28Z</time>
      </trkpt>
      <trkpt lat="45.05877" lon="5.40279">
        <ele>345.335</ele>
        <time>2019-04-21T13:02:29Z</time>
      </trkpt>
      <trkpt lat="45.05875" lon="5.40279">
        <ele>344.311</ele>
        <time>2019-04-21T13:02:32Z</time>
      </trkpt>
      <trkpt lat="45.05875" lon="5.40279">
        <ele>344.311</ele>
        <time>2019-04-21T13:02:32Z</time>
      </trkpt>
      <trkpt lat="45.05874" lon="5.40279">
        <ele>343.949</ele>
        <time>2019-04-21T13:02:33Z</time>
      </trkpt>
      <trkpt lat="45.05873" lon="5.4028">
        <ele>344.455</ele>
        <time>2019-04-21T13:02:35Z</time>
      </trkpt>
      <trkpt lat="45.05873" lon="5.4028">
        <ele>344.863</ele>
        <time>2019-04-21T13:02:37Z</time>
      </trkpt>
      <trkpt lat="45.05873" lon="5.4028">
        <ele>344.294</ele>
        <time>2019-04-21T13:02:38Z</time>
      </trkpt>
      <trkpt lat="45.05873" lon="5.4028">
        <ele>344.924</ele>
        <time>2019-04-21T13:02:39Z</time>
      </trkpt>
      <trkpt lat="45.05873" lon="5.4028">
        <ele>344.835</ele>
        <time>2019-04-21T13:15:41Z</time>
      </trkpt>
      <trkpt lat="45.05871" lon="5.40277">
        <ele>345.344</ele>
        <time>2019-04-21T13:15:42Z</time>
      </trkpt>
      <trkpt lat="45.05869" lon="5.4028">
        <ele>347.819</ele>
        <time>2019-04-21T13:15:47Z</time>
      </trkpt>
      <trkpt lat="45.05869" lon="5.4028">
        <ele>349.08</ele>
        <time>2019-04-21T13:15:48Z</time>
      </trkpt>
      <trkpt lat="45.05867" lon="5.40285">
        <ele>349.395</ele>
        <time>2019-04-21T13:15:52Z</time>
      </trkpt>
      <trkpt lat="45.05863" lon="5.40287">
        <ele>349.177</ele>
        <time>2019-04-21T13:15:58Z</time>
      </trkpt>
      <trkpt lat="45.0586" lon="5.40284">
        <ele>348.634</ele>
        <time>2019-04-21T13:16:04Z</time>
      </trkpt>
      <trkpt lat="45.05855" lon="5.40279">
        <ele>348.245</ele>
        <time>2019-04-21T13:16:12Z</time>
      </trkpt>
      <trkpt lat="45.0585" lon="5.40276">
        <ele>348.732</ele>
        <time>2019-04-21T13:16:19Z</time>
      </trkpt>
      <trkpt lat="45.05848" lon="5.40273">
        <ele>348.34</ele>
        <time>2019-04-21T13:16:23Z</time>
      </trkpt>
      <trkpt lat="45.05832" lon="5.40254">
        <ele>350.38</ele>
        <time>2019-04-21T13:16:47Z</time>
      </trkpt>
      <trkpt lat="45.05824" lon="5.40245">
        <ele>352.446</ele>
        <time>2019-04-21T13:16:59Z</time>
      </trkpt>
      <trkpt lat="45.05821" lon="5.40243">
        <ele>352.623</ele>
        <time>2019-04-21T13:17:03Z</time>
      </trkpt>
      <trkpt lat="45.05813" lon="5.40235">
        <ele>353.609</ele>
        <time>2019-04-21T13:17:15Z</time>
      </trkpt>
      <trkpt lat="45.05805" lon="5.40226">
        <ele>355.112</ele>
        <time>2019-04-21T13:17:26Z</time>
      </trkpt>
      <trkpt lat="45.05801" lon="5.4022">
        <ele>356.453</ele>
        <time>2019-04-21T13:17:35Z</time>
      </trkpt>
      <trkpt lat="45.05791" lon="5.40215">
        <ele>357.363</ele>
        <time>2019-04-21T13:17:48Z</time>
      </trkpt>
      <trkpt lat="45.05789" lon="5.40217">
        <ele>357.579</ele>
        <time>2019-04-21T13:17:52Z</time>
      </trkpt>
      <trkpt lat="45.05783" lon="5.40225">
        <ele>358.155</ele>
        <time>2019-04-21T13:18:04Z</time>
      </trkpt>
      <trkpt lat="45.05781" lon="5.40228">
        <ele>358.26</ele>
        <time>2019-04-21T13:18:08Z</time>
      </trkpt>
      <trkpt lat="45.05779" lon="5.4023">
        <ele>358.336</ele>
        <time>2019-04-21T13:18:11Z</time>
      </trkpt>
      <trkpt lat="45.05779" lon="5.40231">
        <ele>358.408</ele>
        <time>2019-04-21T13:18:13Z</time>
      </trkpt>
      <trkpt lat="45.05779" lon="5.40232">
        <ele>358.726</ele>
        <time>2019-04-21T13:18:14Z</time>
      </trkpt>
      <trkpt lat="45.05779" lon="5.40232">
        <ele>358.676</ele>
        <time>2019-04-21T13:18:15Z</time>
      </trkpt>
      <trkpt lat="45.05779" lon="5.40232">
        <ele>358.673</ele>
        <time>2019-04-21T13:18:16Z</time>
      </trkpt>
      <trkpt lat="45.05779" lon="5.40232">
        <ele>358.673</ele>
        <time>2019-04-21T13:18:16Z</time>
      </trkpt>
      <trkpt lat="45.05779" lon="5.40233">
        <ele>358.46</ele>
        <time>2019-04-21T13:18:17Z</time>
      </trkpt>
      <trkpt lat="45.05779" lon="5.40234">
        <ele>358.497</ele>
        <time>2019-04-21T13:18:20Z</time>
      </trkpt>
      <trkpt lat="45.05779" lon="5.40234">
        <ele>358.489</ele>
        <time>2019-04-21T13:18:21Z</time>
      </trkpt>
      <trkpt lat="45.05779" lon="5.40234">
        <ele>358.491</ele>
        <time>2019-04-21T13:18:30Z</time>
      </trkpt>
      <trkpt lat="45.05779" lon="5.40233">
        <ele>358.113</ele>
        <time>2019-04-21T13:18:31Z</time>
      </trkpt>
      <trkpt lat="45.05778" lon="5.40231">
        <ele>358.387</ele>
        <time>2019-04-21T13:18:33Z</time>
      </trkpt>
      <trkpt lat="45.05778" lon="5.40231">
        <ele>358.387</ele>
        <time>2019-04-21T13:18:33Z</time>
      </trkpt>
      <trkpt lat="45.05778" lon="5.40231">
        <ele>358.482</ele>
        <time>2019-04-21T13:18:34Z</time>
      </trkpt>
      <trkpt lat="45.05778" lon="5.40231">
        <ele>358.482</ele>
        <time>2019-04-21T13:18:34Z</time>
      </trkpt>
      <trkpt lat="45.05778" lon="5.40231">
        <ele>358.254</ele>
        <time>2019-04-21T13:18:35Z</time>
      </trkpt>
      <trkpt lat="45.05778" lon="5.40231">
        <ele>358.254</ele>
        <time>2019-04-21T13:18:35Z</time>
      </trkpt>
      <trkpt lat="45.05779" lon="5.40231">
        <ele>358.052</ele>
        <time>2019-04-21T13:18:36Z</time>
      </trkpt>
      <trkpt lat="45.05779" lon="5.40232">
        <ele>358.035</ele>
        <time>2019-04-21T13:18:39Z</time>
      </trkpt>
      <trkpt lat="45.05778" lon="5.40233">
        <ele>358.222</ele>
        <time>2019-04-21T13:18:42Z</time>
      </trkpt>
      <trkpt lat="45.05777" lon="5.40233">
        <ele>358.296</ele>
        <time>2019-04-21T13:18:45Z</time>
      </trkpt>
      <trkpt lat="45.05776" lon="5.40233">
        <ele>358.331</ele>
        <time>2019-04-21T13:18:46Z</time>
      </trkpt>
      <trkpt lat="45.05776" lon="5.40234">
        <ele>358.567</ele>
        <time>2019-04-21T13:18:49Z</time>
      </trkpt>
      <trkpt lat="45.05776" lon="5.40234">
        <ele>358.567</ele>
        <time>2019-04-21T13:18:50Z</time>
      </trkpt>
      <trkpt lat="45.05776" lon="5.40234">
        <ele>358.519</ele>
        <time>2019-04-21T13:18:51Z</time>
      </trkpt>
      <trkpt lat="45.05776" lon="5.40234">
        <ele>358.519</ele>
        <time>2019-04-21T13:18:51Z</time>
      </trkpt>
      <trkpt lat="45.05776" lon="5.40234">
        <ele>358.537</ele>
        <time>2019-04-21T13:18:52Z</time>
      </trkpt>
      <trkpt lat="45.05776" lon="5.40234">
        <ele>358.35</ele>
        <time>2019-04-21T13:19:45Z</time>
      </trkpt>
      <trkpt lat="45.05775" lon="5.40234">
        <ele>358.191</ele>
        <time>2019-04-21T13:19:46Z</time>
      </trkpt>
      <trkpt lat="45.05776" lon="5.40234">
        <ele>358.503</ele>
        <time>2019-04-21T13:19:47Z</time>
      </trkpt>
      <trkpt lat="45.05775" lon="5.40234">
        <ele>357.823</ele>
        <time>2019-04-21T13:19:48Z</time>
      </trkpt>
      <trkpt lat="45.05775" lon="5.40234">
        <ele>357.196</ele>
        <time>2019-04-21T13:19:49Z</time>
      </trkpt>
      <trkpt lat="45.05775" lon="5.40234">
        <ele>357.054</ele>
        <time>2019-04-21T13:19:58Z</time>
      </trkpt>
      <trkpt lat="45.05772" lon="5.40234">
        <ele>357.059</ele>
        <time>2019-04-21T13:19:59Z</time>
      </trkpt>
      <trkpt lat="45.05772" lon="5.40234">
        <ele>357.14</ele>
        <time>2019-04-21T13:20:00Z</time>
      </trkpt>
      <trkpt lat="45.05772" lon="5.40234">
        <ele>357.125</ele>
        <time>2019-04-21T13:20:12Z</time>
      </trkpt>
      <trkpt lat="45.05771" lon="5.40234">
        <ele>356.67</ele>
        <time>2019-04-21T13:20:13Z</time>
      </trkpt>
      <trkpt lat="45.05771" lon="5.40234">
        <ele>356.683</ele>
        <time>2019-04-21T13:20:14Z</time>
      </trkpt>
      <trkpt lat="45.05771" lon="5.40234">
        <ele>356.648</ele>
        <time>2019-04-21T13:20:15Z</time>
      </trkpt>
      <trkpt lat="45.05771" lon="5.40234">
        <ele>356.606</ele>
        <time>2019-04-21T13:21:16Z</time>
      </trkpt>
      <trkpt lat="45.05771" lon="5.40234">
        <ele>356.358</ele>
        <time>2019-04-21T13:21:17Z</time>
      </trkpt>
      <trkpt lat="45.05771" lon="5.40234">
        <ele>356.346</ele>
        <time>2019-04-21T13:21:18Z</time>
      </trkpt>
      <trkpt lat="45.05771" lon="5.40234">
        <ele>356.256</ele>
        <time>2019-04-21T13:21:46Z</time>
      </trkpt>
      <trkpt lat="45.05771" lon="5.40234">
        <ele>356.24</ele>
        <time>2019-04-21T13:21:47Z</time>
      </trkpt>
      <trkpt lat="45.05771" lon="5.40234">
        <ele>356.08</ele>
        <time>2019-04-21T13:21:48Z</time>
      </trkpt>
      <trkpt lat="45.05771" lon="5.40234">
        <ele>355.358</ele>
        <time>2019-04-21T13:25:22Z</time>
      </trkpt>
      <trkpt lat="45.05772" lon="5.40233">
        <ele>355.524</ele>
        <time>2019-04-21T13:25:23Z</time>
      </trkpt>
      <trkpt lat="45.05772" lon="5.40233">
        <ele>355.608</ele>
        <time>2019-04-21T13:25:24Z</time>
      </trkpt>
      <trkpt lat="45.05772" lon="5.40233">
        <ele>355.661</ele>
        <time>2019-04-21T13:26:56Z</time>
      </trkpt>
      <trkpt lat="45.05771" lon="5.40233">
        <ele>355.739</ele>
        <time>2019-04-21T13:26:57Z</time>
      </trkpt>
      <trkpt lat="45.05771" lon="5.40233">
        <ele>355.739</ele>
        <time>2019-04-21T13:26:57Z</time>
      </trkpt>
      <trkpt lat="45.05771" lon="5.40233">
        <ele>355.744</ele>
        <time>2019-04-21T13:26:58Z</time>
      </trkpt>
      <trkpt lat="45.05771" lon="5.40233">
        <ele>355.721</ele>
        <time>2019-04-21T13:27:00Z</time>
      </trkpt>
      <trkpt lat="45.05771" lon="5.40233">
        <ele>355.462</ele>
        <time>2019-04-21T13:27:01Z</time>
      </trkpt>
      <trkpt lat="45.05771" lon="5.40233">
        <ele>355.458</ele>
        <time>2019-04-21T13:27:02Z</time>
      </trkpt>
      <trkpt lat="45.05771" lon="5.40233">
        <ele>356.11</ele>
        <time>2019-04-21T13:28:00Z</time>
      </trkpt>
      <trkpt lat="45.0577" lon="5.40234">
        <ele>356.43</ele>
        <time>2019-04-21T13:28:01Z</time>
      </trkpt>
      <trkpt lat="45.0577" lon="5.40234">
        <ele>356.121</ele>
        <time>2019-04-21T13:28:02Z</time>
      </trkpt>
      <trkpt lat="45.0577" lon="5.40235">
        <ele>356.188</ele>
        <time>2019-04-21T13:28:03Z</time>
      </trkpt>
      <trkpt lat="45.0577" lon="5.40235">
        <ele>356.136</ele>
        <time>2019-04-21T13:28:04Z</time>
      </trkpt>
      <trkpt lat="45.0577" lon="5.40235">
        <ele>355.725</ele>
        <time>2019-04-21T13:28:39Z</time>
      </trkpt>
      <trkpt lat="45.05768" lon="5.40233">
        <ele>355.381</ele>
        <time>2019-04-21T13:28:40Z</time>
      </trkpt>
      <trkpt lat="45.05768" lon="5.40233">
        <ele>354.796</ele>
        <time>2019-04-21T13:28:41Z</time>
      </trkpt>
      <trkpt lat="45.05768" lon="5.40233">
        <ele>354.709</ele>
        <time>2019-04-21T13:28:42Z</time>
      </trkpt>
      <trkpt lat="45.05768" lon="5.40233">
        <ele>354.633</ele>
        <time>2019-04-21T13:29:14Z</time>
      </trkpt>
      <trkpt lat="45.05768" lon="5.40233">
        <ele>354.531</ele>
        <time>2019-04-21T13:29:15Z</time>
      </trkpt>
      <trkpt lat="45.05768" lon="5.40233">
        <ele>354.475</ele>
        <time>2019-04-21T13:29:16Z</time>
      </trkpt>
      <trkpt lat="45.05768" lon="5.40233">
        <ele>355.342</ele>
        <time>2019-04-21T13:29:24Z</time>
      </trkpt>
      <trkpt lat="45.05768" lon="5.40233">
        <ele>355.264</ele>
        <time>2019-04-21T13:29:25Z</time>
      </trkpt>
      <trkpt lat="45.05768" lon="5.40233">
        <ele>355.457</ele>
        <time>2019-04-21T13:29:26Z</time>
      </trkpt>
      <trkpt lat="45.05768" lon="5.40233">
        <ele>355.201</ele>
        <time>2019-04-21T13:30:18Z</time>
      </trkpt>
      <trkpt lat="45.05768" lon="5.40233">
        <ele>355.052</ele>
        <time>2019-04-21T13:30:19Z</time>
      </trkpt>
      <trkpt lat="45.05768" lon="5.40233">
        <ele>355.052</ele>
        <time>2019-04-21T13:30:19Z</time>
      </trkpt>
      <trkpt lat="45.05768" lon="5.40233">
        <ele>354.621</ele>
        <time>2019-04-21T13:30:20Z</time>
      </trkpt>
      <trkpt lat="45.05768" lon="5.40233">
        <ele>354.654</ele>
        <time>2019-04-21T13:30:21Z</time>
      </trkpt>
      <trkpt lat="45.05768" lon="5.40233">
        <ele>354.544</ele>
        <time>2019-04-21T13:32:43Z</time>
      </trkpt>
      <trkpt lat="45.05767" lon="5.40234">
        <ele>354.924</ele>
        <time>2019-04-21T13:32:44Z</time>
      </trkpt>
      <trkpt lat="45.05767" lon="5.40234">
        <ele>354.536</ele>
        <time>2019-04-21T13:32:45Z</time>
      </trkpt>
      <trkpt lat="45.05767" lon="5.40234">
        <ele>354.54</ele>
        <time>2019-04-21T13:32:46Z</time>
      </trkpt>
      <trkpt lat="45.05767" lon="5.40234">
        <ele>356.02</ele>
        <time>2019-04-21T13:33:16Z</time>
      </trkpt>
      <trkpt lat="45.05769" lon="5.40235">
        <ele>356.11</ele>
        <time>2019-04-21T13:33:17Z</time>
      </trkpt>
      <trkpt lat="45.05767" lon="5.40235">
        <ele>356.929</ele>
        <time>2019-04-21T13:33:19Z</time>
      </trkpt>
      <trkpt lat="45.05766" lon="5.40234">
        <ele>357.068</ele>
        <time>2019-04-21T13:33:22Z</time>
      </trkpt>
      <trkpt lat="45.05766" lon="5.40234">
        <ele>356.997</ele>
        <time>2019-04-21T13:33:23Z</time>
      </trkpt>
      <trkpt lat="45.05767" lon="5.40234">
        <ele>357.192</ele>
        <time>2019-04-21T13:33:24Z</time>
      </trkpt>
      <trkpt lat="45.05768" lon="5.40234">
        <ele>356.732</ele>
        <time>2019-04-21T13:33:26Z</time>
      </trkpt>
      <trkpt lat="45.05768" lon="5.40234">
        <ele>356.732</ele>
        <time>2019-04-21T13:33:26Z</time>
      </trkpt>
      <trkpt lat="45.05769" lon="5.40234">
        <ele>356.804</ele>
        <time>2019-04-21T13:33:27Z</time>
      </trkpt>
      <trkpt lat="45.05769" lon="5.40235">
        <ele>356.395</ele>
        <time>2019-04-21T13:33:30Z</time>
      </trkpt>
      <trkpt lat="45.05769" lon="5.40235">
        <ele>356.412</ele>
        <time>2019-04-21T13:33:31Z</time>
      </trkpt>
      <trkpt lat="45.05769" lon="5.40235">
        <ele>356.036</ele>
        <time>2019-04-21T13:33:49Z</time>
      </trkpt>
      <trkpt lat="45.05771" lon="5.40235">
        <ele>356.278</ele>
        <time>2019-04-21T13:33:49Z</time>
      </trkpt>
      <trkpt lat="45.05773" lon="5.40236">
        <ele>355.772</ele>
        <time>2019-04-21T13:33:52Z</time>
      </trkpt>
      <trkpt lat="45.05773" lon="5.40236">
        <ele>356.156</ele>
        <time>2019-04-21T13:33:55Z</time>
      </trkpt>
      <trkpt lat="45.05774" lon="5.40237">
        <ele>356.235</ele>
        <time>2019-04-21T13:33:56Z</time>
      </trkpt>
      <trkpt lat="45.05775" lon="5.40237">
        <ele>356.207</ele>
        <time>2019-04-21T13:33:57Z</time>
      </trkpt>
      <trkpt lat="45.05775" lon="5.40237">
        <ele>357.125</ele>
        <time>2019-04-21T13:33:58Z</time>
      </trkpt>
      <trkpt lat="45.05776" lon="5.40237">
        <ele>357.235</ele>
        <time>2019-04-21T13:33:59Z</time>
      </trkpt>
      <trkpt lat="45.05777" lon="5.40238">
        <ele>357.346</ele>
        <time>2019-04-21T13:34:01Z</time>
      </trkpt>
      <trkpt lat="45.05777" lon="5.40238">
        <ele>357.741</ele>
        <time>2019-04-21T13:34:07Z</time>
      </trkpt>
      <trkpt lat="45.05778" lon="5.40239">
        <ele>358.311</ele>
        <time>2019-04-21T13:34:08Z</time>
      </trkpt>
      <trkpt lat="45.05778" lon="5.40239">
        <ele>358.088</ele>
        <time>2019-04-21T13:34:09Z</time>
      </trkpt>
      <trkpt lat="45.05779" lon="5.40239">
        <ele>358.072</ele>
        <time>2019-04-21T13:34:10Z</time>
      </trkpt>
      <trkpt lat="45.05779" lon="5.40238">
        <ele>357.469</ele>
        <time>2019-04-21T13:34:11Z</time>
      </trkpt>
      <trkpt lat="45.05779" lon="5.40238">
        <ele>356.941</ele>
        <time>2019-04-21T13:34:12Z</time>
      </trkpt>
      <trkpt lat="45.05776" lon="5.40238">
        <ele>357.431</ele>
        <time>2019-04-21T13:34:15Z</time>
      </trkpt>
      <trkpt lat="45.05774" lon="5.40238">
        <ele>357.155</ele>
        <time>2019-04-21T13:34:18Z</time>
      </trkpt>
      <trkpt lat="45.05774" lon="5.40238">
        <ele>357.276</ele>
        <time>2019-04-21T13:34:36Z</time>
      </trkpt>
      <trkpt lat="45.05774" lon="5.40239">
        <ele>357.224</ele>
        <time>2019-04-21T13:34:37Z</time>
      </trkpt>
      <trkpt lat="45.05774" lon="5.40239">
        <ele>357.224</ele>
        <time>2019-04-21T13:34:37Z</time>
      </trkpt>
      <trkpt lat="45.05774" lon="5.40239">
        <ele>357.241</ele>
        <time>2019-04-21T13:34:38Z</time>
      </trkpt>
      <trkpt lat="45.05774" lon="5.40239">
        <ele>356.698</ele>
        <time>2019-04-21T13:34:47Z</time>
      </trkpt>
      <trkpt lat="45.05773" lon="5.40239">
        <ele>356.339</ele>
        <time>2019-04-21T13:34:48Z</time>
      </trkpt>
      <trkpt lat="45.05773" lon="5.40239">
        <ele>356.598</ele>
        <time>2019-04-21T13:34:49Z</time>
      </trkpt>
      <trkpt lat="45.05773" lon="5.40239">
        <ele>356.598</ele>
        <time>2019-04-21T13:34:49Z</time>
      </trkpt>
      <trkpt lat="45.05773" lon="5.40238">
        <ele>356.154</ele>
        <time>2019-04-21T13:34:50Z</time>
      </trkpt>
      <trkpt lat="45.05773" lon="5.40238">
        <ele>356.063</ele>
        <time>2019-04-21T13:34:51Z</time>
      </trkpt>
      <trkpt lat="45.05773" lon="5.40238">
        <ele>356.679</ele>
        <time>2019-04-21T13:35:02Z</time>
      </trkpt>
      <trkpt lat="45.05774" lon="5.40239">
        <ele>357.234</ele>
        <time>2019-04-21T13:35:03Z</time>
      </trkpt>
      <trkpt lat="45.05774" lon="5.40239">
        <ele>357.309</ele>
        <time>2019-04-21T13:35:04Z</time>
      </trkpt>
      <trkpt lat="45.05774" lon="5.40239">
        <ele>357.597</ele>
        <time>2019-04-21T13:35:58Z</time>
      </trkpt>
      <trkpt lat="45.05775" lon="5.40237">
        <ele>357.262</ele>
        <time>2019-04-21T13:35:59Z</time>
      </trkpt>
      <trkpt lat="45.05775" lon="5.40237">
        <ele>357.085</ele>
        <time>2019-04-21T13:36:00Z</time>
      </trkpt>
      <trkpt lat="45.05775" lon="5.40237">
        <ele>358.124</ele>
        <time>2019-04-21T13:37:22Z</time>
      </trkpt>
      <trkpt lat="45.05775" lon="5.40236">
        <ele>358.312</ele>
        <time>2019-04-21T13:37:23Z</time>
      </trkpt>
      <trkpt lat="45.05775" lon="5.40234">
        <ele>359.106</ele>
        <time>2019-04-21T13:37:25Z</time>
      </trkpt>
      <trkpt lat="45.05776" lon="5.40233">
        <ele>359.275</ele>
        <time>2019-04-21T13:37:28Z</time>
      </trkpt>
      <trkpt lat="45.05777" lon="5.40231">
        <ele>359.031</ele>
        <time>2019-04-21T13:37:31Z</time>
      </trkpt>
      <trkpt lat="45.05777" lon="5.40231">
        <ele>359.036</ele>
        <time>2019-04-21T13:37:33Z</time>
      </trkpt>
      <trkpt lat="45.05778" lon="5.40231">
        <ele>359.173</ele>
        <time>2019-04-21T13:37:34Z</time>
      </trkpt>
      <trkpt lat="45.05778" lon="5.40231">
        <ele>359.276</ele>
        <time>2019-04-21T13:37:35Z</time>
      </trkpt>
      <trkpt lat="45.05778" lon="5.40231">
        <ele>358.498</ele>
        <time>2019-04-21T13:38:52Z</time>
      </trkpt>
      <trkpt lat="45.05779" lon="5.40228">
        <ele>358.581</ele>
        <time>2019-04-21T13:38:53Z</time>
      </trkpt>
      <trkpt lat="45.05781" lon="5.40223">
        <ele>357.179</ele>
        <time>2019-04-21T13:38:58Z</time>
      </trkpt>
      <trkpt lat="45.05783" lon="5.40219">
        <ele>357.981</ele>
        <time>2019-04-21T13:39:02Z</time>
      </trkpt>
      <trkpt lat="45.05783" lon="5.40219">
        <ele>358.661</ele>
        <time>2019-04-21T13:39:03Z</time>
      </trkpt>
      <trkpt lat="45.05783" lon="5.40218">
        <ele>358.202</ele>
        <time>2019-04-21T13:39:06Z</time>
      </trkpt>
      <trkpt lat="45.05783" lon="5.40218">
        <ele>358.202</ele>
        <time>2019-04-21T13:39:06Z</time>
      </trkpt>
      <trkpt lat="45.05783" lon="5.40218">
        <ele>358.423</ele>
        <time>2019-04-21T13:39:07Z</time>
      </trkpt>
      <trkpt lat="45.05783" lon="5.40217">
        <ele>357.966</ele>
        <time>2019-04-21T13:39:08Z</time>
      </trkpt>
      <trkpt lat="45.05783" lon="5.40211">
        <ele>358.869</ele>
        <time>2019-04-21T13:39:13Z</time>
      </trkpt>
      <trkpt lat="45.05783" lon="5.40211">
        <ele>358.869</ele>
        <time>2019-04-21T13:39:13Z</time>
      </trkpt>
      <trkpt lat="45.05782" lon="5.40209">
        <ele>359.522</ele>
        <time>2019-04-21T13:39:14Z</time>
      </trkpt>
      <trkpt lat="45.05779" lon="5.40208">
        <ele>360.957</ele>
        <time>2019-04-21T13:39:19Z</time>
      </trkpt>
      <trkpt lat="45.05776" lon="5.40205">
        <ele>361.403</ele>
        <time>2019-04-21T13:39:24Z</time>
      </trkpt>
      <trkpt lat="45.05776" lon="5.40202">
        <ele>361.768</ele>
        <time>2019-04-21T13:39:29Z</time>
      </trkpt>
      <trkpt lat="45.05776" lon="5.40202">
        <ele>361.768</ele>
        <time>2019-04-21T13:39:29Z</time>
      </trkpt>
      <trkpt lat="45.05776" lon="5.40202">
        <ele>361.772</ele>
        <time>2019-04-21T13:39:30Z</time>
      </trkpt>
      <trkpt lat="45.05776" lon="5.40202">
        <ele>361.765</ele>
        <time>2019-04-21T13:39:33Z</time>
      </trkpt>
      <trkpt lat="45.05777" lon="5.40202">
        <ele>361.859</ele>
        <time>2019-04-21T13:39:34Z</time>
      </trkpt>
      <trkpt lat="45.05776" lon="5.40201">
        <ele>361.989</ele>
        <time>2019-04-21T13:39:35Z</time>
      </trkpt>
      <trkpt lat="45.05774" lon="5.40198">
        <ele>362.458</ele>
        <time>2019-04-21T13:39:39Z</time>
      </trkpt>
      <trkpt lat="45.05772" lon="5.40194">
        <ele>362.291</ele>
        <time>2019-04-21T13:39:42Z</time>
      </trkpt>
      <trkpt lat="45.05772" lon="5.4019">
        <ele>362.012</ele>
        <time>2019-04-21T13:39:45Z</time>
      </trkpt>
      <trkpt lat="45.05772" lon="5.40186">
        <ele>362.003</ele>
        <time>2019-04-21T13:39:49Z</time>
      </trkpt>
      <trkpt lat="45.05772" lon="5.40183">
        <ele>361.763</ele>
        <time>2019-04-21T13:39:52Z</time>
      </trkpt>
      <trkpt lat="45.05777" lon="5.40157">
        <ele>361.914</ele>
        <time>2019-04-21T13:40:17Z</time>
      </trkpt>
      <trkpt lat="45.05778" lon="5.40154">
        <ele>362.196</ele>
        <time>2019-04-21T13:40:22Z</time>
      </trkpt>
      <trkpt lat="45.05778" lon="5.40153">
        <ele>362.21</ele>
        <time>2019-04-21T13:40:24Z</time>
      </trkpt>
      <trkpt lat="45.05779" lon="5.40137">
        <ele>362.775</ele>
        <time>2019-04-21T13:40:39Z</time>
      </trkpt>
      <trkpt lat="45.05778" lon="5.4013">
        <ele>363.447</ele>
        <time>2019-04-21T13:40:45Z</time>
      </trkpt>
      <trkpt lat="45.05777" lon="5.40127">
        <ele>363.461</ele>
        <time>2019-04-21T13:40:49Z</time>
      </trkpt>
      <trkpt lat="45.05778" lon="5.40126">
        <ele>363.793</ele>
        <time>2019-04-21T13:40:51Z</time>
      </trkpt>
      <trkpt lat="45.05778" lon="5.40125">
        <ele>363.85</ele>
        <time>2019-04-21T13:40:52Z</time>
      </trkpt>
      <trkpt lat="45.05779" lon="5.40121">
        <ele>363.97</ele>
        <time>2019-04-21T13:40:56Z</time>
      </trkpt>
      <trkpt lat="45.0578" lon="5.40119">
        <ele>363.951</ele>
        <time>2019-04-21T13:40:58Z</time>
      </trkpt>
      <trkpt lat="45.05782" lon="5.40113">
        <ele>363.453</ele>
        <time>2019-04-21T13:41:05Z</time>
      </trkpt>
      <trkpt lat="45.05785" lon="5.40106">
        <ele>362.946</ele>
        <time>2019-04-21T13:41:11Z</time>
      </trkpt>
      <trkpt lat="45.05784" lon="5.40097">
        <ele>362.816</ele>
        <time>2019-04-21T13:41:17Z</time>
      </trkpt>
      <trkpt lat="45.05783" lon="5.40092">
        <ele>362.316</ele>
        <time>2019-04-21T13:41:20Z</time>
      </trkpt>
      <trkpt lat="45.05781" lon="5.40062">
        <ele>362.203</ele>
        <time>2019-04-21T13:41:47Z</time>
      </trkpt>
      <trkpt lat="45.05784" lon="5.40049">
        <ele>362.464</ele>
        <time>2019-04-21T13:42:00Z</time>
      </trkpt>
      <trkpt lat="45.05789" lon="5.40043">
        <ele>361.627</ele>
        <time>2019-04-21T13:42:07Z</time>
      </trkpt>
      <trkpt lat="45.05802" lon="5.40031">
        <ele>359.681</ele>
        <time>2019-04-21T13:42:24Z</time>
      </trkpt>
      <trkpt lat="45.05823" lon="5.40018">
        <ele>357.615</ele>
        <time>2019-04-21T13:42:47Z</time>
      </trkpt>
      <trkpt lat="45.05839" lon="5.40009">
        <ele>355.536</ele>
        <time>2019-04-21T13:43:05Z</time>
      </trkpt>
      <trkpt lat="45.05853" lon="5.39996">
        <ele>353.437</ele>
        <time>2019-04-21T13:43:21Z</time>
      </trkpt>
      <trkpt lat="45.05878" lon="5.39968">
        <ele>351.268</ele>
        <time>2019-04-21T13:43:53Z</time>
      </trkpt>
      <trkpt lat="45.05892" lon="5.39949">
        <ele>349.256</ele>
        <time>2019-04-21T13:44:12Z</time>
      </trkpt>
      <trkpt lat="45.05901" lon="5.39932">
        <ele>348.585</ele>
        <time>2019-04-21T13:44:27Z</time>
      </trkpt>
      <trkpt lat="45.05912" lon="5.399">
        <ele>349.132</ele>
        <time>2019-04-21T13:44:57Z</time>
      </trkpt>
      <trkpt lat="45.0592" lon="5.39895">
        <ele>348.776</ele>
        <time>2019-04-21T13:45:06Z</time>
      </trkpt>
      <trkpt lat="45.05924" lon="5.39895">
        <ele>348.304</ele>
        <time>2019-04-21T13:45:11Z</time>
      </trkpt>
      <trkpt lat="45.05928" lon="5.39895">
        <ele>348.241</ele>
        <time>2019-04-21T13:45:15Z</time>
      </trkpt>
      <trkpt lat="45.05935" lon="5.39894">
        <ele>347.626</ele>
        <time>2019-04-21T13:45:22Z</time>
      </trkpt>
      <trkpt lat="45.05954" lon="5.39891">
        <ele>345.518</ele>
        <time>2019-04-21T13:45:41Z</time>
      </trkpt>
      <trkpt lat="45.05966" lon="5.3989">
        <ele>343.485</ele>
        <time>2019-04-21T13:45:53Z</time>
      </trkpt>
      <trkpt lat="45.05979" lon="5.39887">
        <ele>341.453</ele>
        <time>2019-04-21T13:46:06Z</time>
      </trkpt>
      <trkpt lat="45.05992" lon="5.39878">
        <ele>339.234</ele>
        <time>2019-04-21T13:46:19Z</time>
      </trkpt>
      <trkpt lat="45.0601" lon="5.39861">
        <ele>337.183</ele>
        <time>2019-04-21T13:46:40Z</time>
      </trkpt>
      <trkpt lat="45.06022" lon="5.39846">
        <ele>335.109</ele>
        <time>2019-04-21T13:46:55Z</time>
      </trkpt>
      <trkpt lat="45.06026" lon="5.39843">
        <ele>335.252</ele>
        <time>2019-04-21T13:46:59Z</time>
      </trkpt>
      <trkpt lat="45.0604" lon="5.39838">
        <ele>333.376</ele>
        <time>2019-04-21T13:47:13Z</time>
      </trkpt>
      <trkpt lat="45.06061" lon="5.39833">
        <ele>330.901</ele>
        <time>2019-04-21T13:47:31Z</time>
      </trkpt>
      <trkpt lat="45.06067" lon="5.39829">
        <ele>330.375</ele>
        <time>2019-04-21T13:47:37Z</time>
      </trkpt>
      <trkpt lat="45.0608" lon="5.39816">
        <ele>328.225</ele>
        <time>2019-04-21T13:47:52Z</time>
      </trkpt>
      <trkpt lat="45.06091" lon="5.39805">
        <ele>326.191</ele>
        <time>2019-04-21T13:48:05Z</time>
      </trkpt>
      <trkpt lat="45.06109" lon="5.39784">
        <ele>324.016</ele>
        <time>2019-04-21T13:48:26Z</time>
      </trkpt>
      <trkpt lat="45.06125" lon="5.39762">
        <ele>321.986</ele>
        <time>2019-04-21T13:48:46Z</time>
      </trkpt>
      <trkpt lat="45.0615" lon="5.39733">
        <ele>319.884</ele>
        <time>2019-04-21T13:49:17Z</time>
      </trkpt>
      <trkpt lat="45.06175" lon="5.39718">
        <ele>317.637</ele>
        <time>2019-04-21T13:49:40Z</time>
      </trkpt>
      <trkpt lat="45.0619" lon="5.39706">
        <ele>315.563</ele>
        <time>2019-04-21T13:49:57Z</time>
      </trkpt>
      <trkpt lat="45.06231" lon="5.39679">
        <ele>313.324</ele>
        <time>2019-04-21T13:50:44Z</time>
      </trkpt>
      <trkpt lat="45.06233" lon="5.39677">
        <ele>312.925</ele>
        <time>2019-04-21T13:50:48Z</time>
      </trkpt>
      <trkpt lat="45.06234" lon="5.39676">
        <ele>312.772</ele>
        <time>2019-04-21T13:50:52Z</time>
      </trkpt>
      <trkpt lat="45.06235" lon="5.39676">
        <ele>312.534</ele>
        <time>2019-04-21T13:50:54Z</time>
      </trkpt>
      <trkpt lat="45.06236" lon="5.39674">
        <ele>312.423</ele>
        <time>2019-04-21T13:50:56Z</time>
      </trkpt>
      <trkpt lat="45.06261" lon="5.39664">
        <ele>310.241</ele>
        <time>2019-04-21T13:51:17Z</time>
      </trkpt>
      <trkpt lat="45.06278" lon="5.39656">
        <ele>308.141</ele>
        <time>2019-04-21T13:51:33Z</time>
      </trkpt>
      <trkpt lat="45.06289" lon="5.39651">
        <ele>306.817</ele>
        <time>2019-04-21T13:51:43Z</time>
      </trkpt>
      <trkpt lat="45.06303" lon="5.39635">
        <ele>304.719</ele>
        <time>2019-04-21T13:52:01Z</time>
      </trkpt>
      <trkpt lat="45.06304" lon="5.39635">
        <ele>304.647</ele>
        <time>2019-04-21T13:52:02Z</time>
      </trkpt>
      <trkpt lat="45.06305" lon="5.39634">
        <ele>304.408</ele>
        <time>2019-04-21T13:52:07Z</time>
      </trkpt>
      <trkpt lat="45.06305" lon="5.39633">
        <ele>304.192</ele>
        <time>2019-04-21T13:52:08Z</time>
      </trkpt>
      <trkpt lat="45.06322" lon="5.39615">
        <ele>302.161</ele>
        <time>2019-04-21T13:52:28Z</time>
      </trkpt>
      <trkpt lat="45.06334" lon="5.39584">
        <ele>301.245</ele>
        <time>2019-04-21T13:52:53Z</time>
      </trkpt>
      <trkpt lat="45.06339" lon="5.39568">
        <ele>301.566</ele>
        <time>2019-04-21T13:53:04Z</time>
      </trkpt>
      <trkpt lat="45.06351" lon="5.39552">
        <ele>299.519</ele>
        <time>2019-04-21T13:53:19Z</time>
      </trkpt>
      <trkpt lat="45.06354" lon="5.3955">
        <ele>297.439</ele>
        <time>2019-04-21T13:53:21Z</time>
      </trkpt>
      <trkpt lat="45.06367" lon="5.39544">
        <ele>295.396</ele>
        <time>2019-04-21T13:53:31Z</time>
      </trkpt>
      <trkpt lat="45.06377" lon="5.39539">
        <ele>293.362</ele>
        <time>2019-04-21T13:53:41Z</time>
      </trkpt>
      <trkpt lat="45.06384" lon="5.39533">
        <ele>292.83</ele>
        <time>2019-04-21T13:53:48Z</time>
      </trkpt>
      <trkpt lat="45.06387" lon="5.39529">
        <ele>292.47</ele>
        <time>2019-04-21T13:53:53Z</time>
      </trkpt>
      <trkpt lat="45.06387" lon="5.39529">
        <ele>291.761</ele>
        <time>2019-04-21T13:54:00Z</time>
      </trkpt>
      <trkpt lat="45.06389" lon="5.39528">
        <ele>291.753</ele>
        <time>2019-04-21T13:54:01Z</time>
      </trkpt>
      <trkpt lat="45.06389" lon="5.39527">
        <ele>291.687</ele>
        <time>2019-04-21T13:54:02Z</time>
      </trkpt>
      <trkpt lat="45.06405" lon="5.39494">
        <ele>291.169</ele>
        <time>2019-04-21T13:54:30Z</time>
      </trkpt>
      <trkpt lat="45.06406" lon="5.39487">
        <ele>291.444</ele>
        <time>2019-04-21T13:54:35Z</time>
      </trkpt>
      <trkpt lat="45.06407" lon="5.39473">
        <ele>289.359</ele>
        <time>2019-04-21T13:54:43Z</time>
      </trkpt>
      <trkpt lat="45.06411" lon="5.3945">
        <ele>287.888</ele>
        <time>2019-04-21T13:54:58Z</time>
      </trkpt>
      <trkpt lat="45.06411" lon="5.3945">
        <ele>287.898</ele>
        <time>2019-04-21T13:55:02Z</time>
      </trkpt>
      <trkpt lat="45.06412" lon="5.3945">
        <ele>287.792</ele>
        <time>2019-04-21T13:55:03Z</time>
      </trkpt>
      <trkpt lat="45.06429" lon="5.39396">
        <ele>288.481</ele>
        <time>2019-04-21T13:55:39Z</time>
      </trkpt>
      <trkpt lat="45.06434" lon="5.39391">
        <ele>288.59</ele>
        <time>2019-04-21T13:55:44Z</time>
      </trkpt>
      <trkpt lat="45.06436" lon="5.39387">
        <ele>288.207</ele>
        <time>2019-04-21T13:55:47Z</time>
      </trkpt>
      <trkpt lat="45.06439" lon="5.39382">
        <ele>287.593</ele>
        <time>2019-04-21T13:55:51Z</time>
      </trkpt>
      <trkpt lat="45.06444" lon="5.39376">
        <ele>287.853</ele>
        <time>2019-04-21T13:55:56Z</time>
      </trkpt>
      <trkpt lat="45.06446" lon="5.39371">
        <ele>287.905</ele>
        <time>2019-04-21T13:56:00Z</time>
      </trkpt>
      <trkpt lat="45.06454" lon="5.39338">
        <ele>285.846</ele>
        <time>2019-04-21T13:56:20Z</time>
      </trkpt>
      <trkpt lat="45.06464" lon="5.39319">
        <ele>283.79</ele>
        <time>2019-04-21T13:56:34Z</time>
      </trkpt>
      <trkpt lat="45.06473" lon="5.39301">
        <ele>281.54</ele>
        <time>2019-04-21T13:56:46Z</time>
      </trkpt>
      <trkpt lat="45.06477" lon="5.39293">
        <ele>280.938</ele>
        <time>2019-04-21T13:56:51Z</time>
      </trkpt>
      <trkpt lat="45.06479" lon="5.3929">
        <ele>280.452</ele>
        <time>2019-04-21T13:56:53Z</time>
      </trkpt>
      <trkpt lat="45.06489" lon="5.3927">
        <ele>278.282</ele>
        <time>2019-04-21T13:57:07Z</time>
      </trkpt>
      <trkpt lat="45.06497" lon="5.39252">
        <ele>277.451</ele>
        <time>2019-04-21T13:57:19Z</time>
      </trkpt>
      <trkpt lat="45.06498" lon="5.39243">
        <ele>277.428</ele>
        <time>2019-04-21T13:57:25Z</time>
      </trkpt>
      <trkpt lat="45.06507" lon="5.39227">
        <ele>276.987</ele>
        <time>2019-04-21T13:57:37Z</time>
      </trkpt>
      <trkpt lat="45.06507" lon="5.39221">
        <ele>276.948</ele>
        <time>2019-04-21T13:57:41Z</time>
      </trkpt>
      <trkpt lat="45.06507" lon="5.39219">
        <ele>277.027</ele>
        <time>2019-04-21T13:57:44Z</time>
      </trkpt>
      <trkpt lat="45.06508" lon="5.39218">
        <ele>276.626</ele>
        <time>2019-04-21T13:57:46Z</time>
      </trkpt>
      <trkpt lat="45.06508" lon="5.39218">
        <ele>276.677</ele>
        <time>2019-04-21T13:57:48Z</time>
      </trkpt>
      <trkpt lat="45.06508" lon="5.39218">
        <ele>276.747</ele>
        <time>2019-04-21T13:57:52Z</time>
      </trkpt>
      <trkpt lat="45.06509" lon="5.39218">
        <ele>276.616</ele>
        <time>2019-04-21T13:57:53Z</time>
      </trkpt>
      <trkpt lat="45.06509" lon="5.39217">
        <ele>276.148</ele>
        <time>2019-04-21T13:57:56Z</time>
      </trkpt>
      <trkpt lat="45.06509" lon="5.39217">
        <ele>276.148</ele>
        <time>2019-04-21T13:57:56Z</time>
      </trkpt>
      <trkpt lat="45.06509" lon="5.39216">
        <ele>275.95</ele>
        <time>2019-04-21T13:57:57Z</time>
      </trkpt>
      <trkpt lat="45.06509" lon="5.39215">
        <ele>276.065</ele>
        <time>2019-04-21T13:57:58Z</time>
      </trkpt>
      <trkpt lat="45.06511" lon="5.3921">
        <ele>275.602</ele>
        <time>2019-04-21T13:58:02Z</time>
      </trkpt>
      <trkpt lat="45.0652" lon="5.39197">
        <ele>272.364</ele>
        <time>2019-04-21T13:58:13Z</time>
      </trkpt>
      <trkpt lat="45.0652" lon="5.39197">
        <ele>270.325</ele>
        <time>2019-04-21T13:58:14Z</time>
      </trkpt>
      <trkpt lat="45.0652" lon="5.39197">
        <ele>270.325</ele>
        <time>2019-04-21T13:58:14Z</time>
      </trkpt>
      <trkpt lat="45.06521" lon="5.39194">
        <ele>268.644</ele>
        <time>2019-04-21T13:58:15Z</time>
      </trkpt>
      <trkpt lat="45.06521" lon="5.39194">
        <ele>268.493</ele>
        <time>2019-04-21T13:58:16Z</time>
      </trkpt>
      <trkpt lat="45.06521" lon="5.39194">
        <ele>269.236</ele>
        <time>2019-04-21T13:58:17Z</time>
      </trkpt>
      <trkpt lat="45.06522" lon="5.39193">
        <ele>268.768</ele>
        <time>2019-04-21T13:58:18Z</time>
      </trkpt>
      <trkpt lat="45.06522" lon="5.39193">
        <ele>268.768</ele>
        <time>2019-04-21T13:58:18Z</time>
      </trkpt>
      <trkpt lat="45.06523" lon="5.39193">
        <ele>268.803</ele>
        <time>2019-04-21T13:58:19Z</time>
      </trkpt>
      <trkpt lat="45.06523" lon="5.39192">
        <ele>268.883</ele>
        <time>2019-04-21T13:58:20Z</time>
      </trkpt>
      <trkpt lat="45.06525" lon="5.39189">
        <ele>268.911</ele>
        <time>2019-04-21T13:58:22Z</time>
      </trkpt>
      <trkpt lat="45.06533" lon="5.39175">
        <ele>268.696</ele>
        <time>2019-04-21T13:58:34Z</time>
      </trkpt>
      <trkpt lat="45.06539" lon="5.39165">
        <ele>269.285</ele>
        <time>2019-04-21T13:58:43Z</time>
      </trkpt>
      <trkpt lat="45.06541" lon="5.3916">
        <ele>269.928</ele>
        <time>2019-04-21T13:58:47Z</time>
      </trkpt>
      <trkpt lat="45.06541" lon="5.39159">
        <ele>268</ele>
        <time>2019-04-21T13:58:49Z</time>
      </trkpt>
      <trkpt lat="45.06541" lon="5.39159">
        <ele>268.437</ele>
        <time>2019-04-21T13:58:53Z</time>
      </trkpt>
      <trkpt lat="45.06537" lon="5.39155">
        <ele>268.508</ele>
        <time>2019-04-21T13:58:54Z</time>
      </trkpt>
      <trkpt lat="45.06536" lon="5.39146">
        <ele>268.629</ele>
        <time>2019-04-21T13:59:00Z</time>
      </trkpt>
      <trkpt lat="45.06537" lon="5.39134">
        <ele>269.093</ele>
        <time>2019-04-21T13:59:10Z</time>
      </trkpt>
      <trkpt lat="45.06537" lon="5.39133">
        <ele>268.958</ele>
        <time>2019-04-21T13:59:11Z</time>
      </trkpt>
      <trkpt lat="45.06537" lon="5.39133">
        <ele>269.044</ele>
        <time>2019-04-21T13:59:12Z</time>
      </trkpt>
      <trkpt lat="45.06537" lon="5.39133">
        <ele>269.044</ele>
        <time>2019-04-21T13:59:12Z</time>
      </trkpt>
      <trkpt lat="45.06537" lon="5.39132">
        <ele>269.065</ele>
        <time>2019-04-21T13:59:13Z</time>
      </trkpt>
      <trkpt lat="45.06538" lon="5.39132">
        <ele>269.206</ele>
        <time>2019-04-21T13:59:16Z</time>
      </trkpt>
      <trkpt lat="45.06539" lon="5.39132">
        <ele>269.39</ele>
        <time>2019-04-21T13:59:18Z</time>
      </trkpt>
      <trkpt lat="45.06539" lon="5.39132">
        <ele>269.645</ele>
        <time>2019-04-21T13:59:20Z</time>
      </trkpt>
      <trkpt lat="45.06539" lon="5.39131">
        <ele>269.693</ele>
        <time>2019-04-21T13:59:21Z</time>
      </trkpt>
      <trkpt lat="45.06539" lon="5.3913">
        <ele>269.792</ele>
        <time>2019-04-21T13:59:22Z</time>
      </trkpt>
      <trkpt lat="45.0654" lon="5.39128">
        <ele>270.207</ele>
        <time>2019-04-21T13:59:26Z</time>
      </trkpt>
      <trkpt lat="45.0654" lon="5.39128">
        <ele>270.16</ele>
        <time>2019-04-21T13:59:28Z</time>
      </trkpt>
      <trkpt lat="45.06539" lon="5.39124">
        <ele>268.252</ele>
        <time>2019-04-21T13:59:31Z</time>
      </trkpt>
      <trkpt lat="45.06537" lon="5.3912">
        <ele>268.499</ele>
        <time>2019-04-21T13:59:34Z</time>
      </trkpt>
      <trkpt lat="45.06537" lon="5.39115">
        <ele>268.318</ele>
        <time>2019-04-21T13:59:37Z</time>
      </trkpt>
      <trkpt lat="45.06537" lon="5.39105">
        <ele>268.62</ele>
        <time>2019-04-21T13:59:45Z</time>
      </trkpt>
      <trkpt lat="45.0654" lon="5.39102">
        <ele>268.688</ele>
        <time>2019-04-21T13:59:48Z</time>
      </trkpt>
      <trkpt lat="45.0654" lon="5.39098">
        <ele>268.987</ele>
        <time>2019-04-21T13:59:51Z</time>
      </trkpt>
      <trkpt lat="45.0654" lon="5.39091">
        <ele>269.043</ele>
        <time>2019-04-21T13:59:56Z</time>
      </trkpt>
      <trkpt lat="45.06543" lon="5.39086">
        <ele>269.114</ele>
        <time>2019-04-21T14:00:00Z</time>
      </trkpt>
      <trkpt lat="45.06544" lon="5.39082">
        <ele>269.095</ele>
        <time>2019-04-21T14:00:03Z</time>
      </trkpt>
      <trkpt lat="45.06546" lon="5.39077">
        <ele>269.334</ele>
        <time>2019-04-21T14:00:07Z</time>
      </trkpt>
      <trkpt lat="45.06544" lon="5.39071">
        <ele>269.51</ele>
        <time>2019-04-21T14:00:11Z</time>
      </trkpt>
      <trkpt lat="45.06542" lon="5.39067">
        <ele>269.887</ele>
        <time>2019-04-21T14:00:13Z</time>
      </trkpt>
      <trkpt lat="45.0654" lon="5.39063">
        <ele>270.124</ele>
        <time>2019-04-21T14:00:15Z</time>
      </trkpt>
      <trkpt lat="45.06537" lon="5.3905">
        <ele>270.957</ele>
        <time>2019-04-21T14:00:23Z</time>
      </trkpt>
      <trkpt lat="45.06537" lon="5.39045">
        <ele>271.384</ele>
        <time>2019-04-21T14:00:26Z</time>
      </trkpt>
      <trkpt lat="45.06535" lon="5.39036">
        <ele>272.533</ele>
        <time>2019-04-21T14:00:33Z</time>
      </trkpt>
      <trkpt lat="45.06536" lon="5.39031">
        <ele>272.895</ele>
        <time>2019-04-21T14:00:36Z</time>
      </trkpt>
      <trkpt lat="45.06537" lon="5.39026">
        <ele>273.431</ele>
        <time>2019-04-21T14:00:40Z</time>
      </trkpt>
      <trkpt lat="45.06537" lon="5.39021">
        <ele>274.114</ele>
        <time>2019-04-21T14:00:43Z</time>
      </trkpt>
      <trkpt lat="45.0654" lon="5.39018">
        <ele>274.455</ele>
        <time>2019-04-21T14:00:46Z</time>
      </trkpt>
      <trkpt lat="45.06551" lon="5.39004">
        <ele>274.152</ele>
        <time>2019-04-21T14:00:59Z</time>
      </trkpt>
      <trkpt lat="45.06552" lon="5.39">
        <ele>274.243</ele>
        <time>2019-04-21T14:01:04Z</time>
      </trkpt>
      <trkpt lat="45.06551" lon="5.38995">
        <ele>274.334</ele>
        <time>2019-04-21T14:01:07Z</time>
      </trkpt>
      <trkpt lat="45.0655" lon="5.3899">
        <ele>274.949</ele>
        <time>2019-04-21T14:01:11Z</time>
      </trkpt>
      <trkpt lat="45.06549" lon="5.38982">
        <ele>275.424</ele>
        <time>2019-04-21T14:01:16Z</time>
      </trkpt>
      <trkpt lat="45.0655" lon="5.38975">
        <ele>276.22</ele>
        <time>2019-04-21T14:01:23Z</time>
      </trkpt>
      <trkpt lat="45.06549" lon="5.38968">
        <ele>275.716</ele>
        <time>2019-04-21T14:01:29Z</time>
      </trkpt>
      <trkpt lat="45.06549" lon="5.38965">
        <ele>275.49</ele>
        <time>2019-04-21T14:01:31Z</time>
      </trkpt>
      <trkpt lat="45.0655" lon="5.38953">
        <ele>275.048</ele>
        <time>2019-04-21T14:01:39Z</time>
      </trkpt>
      <trkpt lat="45.06553" lon="5.38951">
        <ele>275.172</ele>
        <time>2019-04-21T14:01:42Z</time>
      </trkpt>
      <trkpt lat="45.06556" lon="5.38947">
        <ele>274.877</ele>
        <time>2019-04-21T14:01:45Z</time>
      </trkpt>
      <trkpt lat="45.06558" lon="5.38943">
        <ele>275.918</ele>
        <time>2019-04-21T14:01:49Z</time>
      </trkpt>
      <trkpt lat="45.06566" lon="5.38929">
        <ele>276.017</ele>
        <time>2019-04-21T14:02:01Z</time>
      </trkpt>
      <trkpt lat="45.06565" lon="5.38927">
        <ele>276.275</ele>
        <time>2019-04-21T14:02:02Z</time>
      </trkpt>
      <trkpt lat="45.06565" lon="5.38927">
        <ele>276.607</ele>
        <time>2019-04-21T14:02:04Z</time>
      </trkpt>
      <trkpt lat="45.06565" lon="5.38927">
        <ele>277.321</ele>
        <time>2019-04-21T14:02:09Z</time>
      </trkpt>
      <trkpt lat="45.06564" lon="5.38924">
        <ele>277.325</ele>
        <time>2019-04-21T14:02:10Z</time>
      </trkpt>
      <trkpt lat="45.06564" lon="5.38924">
        <ele>277.16</ele>
        <time>2019-04-21T14:02:11Z</time>
      </trkpt>
      <trkpt lat="45.06564" lon="5.38924">
        <ele>276.797</ele>
        <time>2019-04-21T14:02:28Z</time>
      </trkpt>
      <trkpt lat="45.06563" lon="5.3892">
        <ele>276.444</ele>
        <time>2019-04-21T14:02:29Z</time>
      </trkpt>
      <trkpt lat="45.06563" lon="5.3892">
        <ele>276.113</ele>
        <time>2019-04-21T14:02:30Z</time>
      </trkpt>
      <trkpt lat="45.06563" lon="5.38917">
        <ele>276.058</ele>
        <time>2019-04-21T14:02:33Z</time>
      </trkpt>
      <trkpt lat="45.06563" lon="5.38915">
        <ele>275.772</ele>
        <time>2019-04-21T14:02:34Z</time>
      </trkpt>
      <trkpt lat="45.06563" lon="5.38915">
        <ele>275.82</ele>
        <time>2019-04-21T14:02:35Z</time>
      </trkpt>
      <trkpt lat="45.06563" lon="5.38915">
        <ele>275.82</ele>
        <time>2019-04-21T14:02:35Z</time>
      </trkpt>
      <trkpt lat="45.0656" lon="5.38912">
        <ele>276.251</ele>
        <time>2019-04-21T14:02:36Z</time>
      </trkpt>
      <trkpt lat="45.0656" lon="5.3891">
        <ele>275.031</ele>
        <time>2019-04-21T14:02:38Z</time>
      </trkpt>
      <trkpt lat="45.0656" lon="5.38909">
        <ele>275.291</ele>
        <time>2019-04-21T14:02:39Z</time>
      </trkpt>
      <trkpt lat="45.0656" lon="5.38909">
        <ele>275.446</ele>
        <time>2019-04-21T14:02:40Z</time>
      </trkpt>
      <trkpt lat="45.0656" lon="5.38909">
        <ele>275.446</ele>
        <time>2019-04-21T14:02:40Z</time>
      </trkpt>
      <trkpt lat="45.0656" lon="5.38908">
        <ele>276.072</ele>
        <time>2019-04-21T14:02:41Z</time>
      </trkpt>
      <trkpt lat="45.06563" lon="5.38906">
        <ele>276.328</ele>
        <time>2019-04-21T14:02:44Z</time>
      </trkpt>
      <trkpt lat="45.06571" lon="5.38904">
        <ele>274.182</ele>
        <time>2019-04-21T14:02:49Z</time>
      </trkpt>
      <trkpt lat="45.06572" lon="5.38901">
        <ele>274.424</ele>
        <time>2019-04-21T14:02:52Z</time>
      </trkpt>
      <trkpt lat="45.06572" lon="5.38901">
        <ele>275.075</ele>
        <time>2019-04-21T14:02:53Z</time>
      </trkpt>
      <trkpt lat="45.06572" lon="5.38901">
        <ele>275.761</ele>
        <time>2019-04-21T14:02:54Z</time>
      </trkpt>
      <trkpt lat="45.06573" lon="5.389">
        <ele>275.567</ele>
        <time>2019-04-21T14:02:55Z</time>
      </trkpt>
      <trkpt lat="45.06573" lon="5.389">
        <ele>275.584</ele>
        <time>2019-04-21T14:02:56Z</time>
      </trkpt>
      <trkpt lat="45.06573" lon="5.389">
        <ele>275.584</ele>
        <time>2019-04-21T14:02:56Z</time>
      </trkpt>
      <trkpt lat="45.06573" lon="5.389">
        <ele>275.188</ele>
        <time>2019-04-21T14:02:57Z</time>
      </trkpt>
      <trkpt lat="45.06574" lon="5.38899">
        <ele>275.19</ele>
        <time>2019-04-21T14:02:58Z</time>
      </trkpt>
      <trkpt lat="45.06574" lon="5.38898">
        <ele>275.776</ele>
        <time>2019-04-21T14:02:59Z</time>
      </trkpt>
      <trkpt lat="45.06575" lon="5.38894">
        <ele>276.641</ele>
        <time>2019-04-21T14:03:02Z</time>
      </trkpt>
      <trkpt lat="45.06575" lon="5.38893">
        <ele>275.571</ele>
        <time>2019-04-21T14:03:04Z</time>
      </trkpt>
      <trkpt lat="45.06575" lon="5.38892">
        <ele>274.31</ele>
        <time>2019-04-21T14:03:05Z</time>
      </trkpt>
      <trkpt lat="45.06575" lon="5.38891">
        <ele>273.856</ele>
        <time>2019-04-21T14:03:06Z</time>
      </trkpt>
      <trkpt lat="45.06575" lon="5.3889">
        <ele>274.11</ele>
        <time>2019-04-21T14:03:07Z</time>
      </trkpt>
      <trkpt lat="45.06574" lon="5.38886">
        <ele>274.795</ele>
        <time>2019-04-21T14:03:10Z</time>
      </trkpt>
      <trkpt lat="45.06576" lon="5.38882">
        <ele>273.943</ele>
        <time>2019-04-21T14:03:12Z</time>
      </trkpt>
      <trkpt lat="45.06576" lon="5.38881">
        <ele>274.023</ele>
        <time>2019-04-21T14:03:15Z</time>
      </trkpt>
      <trkpt lat="45.06575" lon="5.3888">
        <ele>272.59</ele>
        <time>2019-04-21T14:03:17Z</time>
      </trkpt>
      <trkpt lat="45.06575" lon="5.3888">
        <ele>272.454</ele>
        <time>2019-04-21T14:03:18Z</time>
      </trkpt>
      <trkpt lat="45.06575" lon="5.38878">
        <ele>271.825</ele>
        <time>2019-04-21T14:03:19Z</time>
      </trkpt>
      <trkpt lat="45.06575" lon="5.38878">
        <ele>271.825</ele>
        <time>2019-04-21T14:03:19Z</time>
      </trkpt>
      <trkpt lat="45.06575" lon="5.38878">
        <ele>271.943</ele>
        <time>2019-04-21T14:03:20Z</time>
      </trkpt>
      <trkpt lat="45.06575" lon="5.38878">
        <ele>271.764</ele>
        <time>2019-04-21T14:03:26Z</time>
      </trkpt>
      <trkpt lat="45.06578" lon="5.38875">
        <ele>271.109</ele>
        <time>2019-04-21T14:03:27Z</time>
      </trkpt>
      <trkpt lat="45.0658" lon="5.38874">
        <ele>271.137</ele>
        <time>2019-04-21T14:03:29Z</time>
      </trkpt>
      <trkpt lat="45.0658" lon="5.38874">
        <ele>271.051</ele>
        <time>2019-04-21T14:03:30Z</time>
      </trkpt>
      <trkpt lat="45.0658" lon="5.38874">
        <ele>271.186</ele>
        <time>2019-04-21T14:03:33Z</time>
      </trkpt>
      <trkpt lat="45.06579" lon="5.38871">
        <ele>271.178</ele>
        <time>2019-04-21T14:03:34Z</time>
      </trkpt>
      <trkpt lat="45.06579" lon="5.38871">
        <ele>270.298</ele>
        <time>2019-04-21T14:03:36Z</time>
      </trkpt>
      <trkpt lat="45.06579" lon="5.38871">
        <ele>272.519</ele>
        <time>2019-04-21T14:03:57Z</time>
      </trkpt>
      <trkpt lat="45.06577" lon="5.38871">
        <ele>271.324</ele>
        <time>2019-04-21T14:03:58Z</time>
      </trkpt>
      <trkpt lat="45.06577" lon="5.38871">
        <ele>271.324</ele>
        <time>2019-04-21T14:03:58Z</time>
      </trkpt>
      <trkpt lat="45.06576" lon="5.38871">
        <ele>271.853</ele>
        <time>2019-04-21T14:03:59Z</time>
      </trkpt>
      <trkpt lat="45.06576" lon="5.38871">
        <ele>270.817</ele>
        <time>2019-04-21T14:04:00Z</time>
      </trkpt>
      <trkpt lat="45.06576" lon="5.38871">
        <ele>270.817</ele>
        <time>2019-04-21T14:04:00Z</time>
      </trkpt>
      <trkpt lat="45.06576" lon="5.38871">
        <ele>270.438</ele>
        <time>2019-04-21T14:04:01Z</time>
      </trkpt>
      <trkpt lat="45.06576" lon="5.3887">
        <ele>269.545</ele>
        <time>2019-04-21T14:04:03Z</time>
      </trkpt>
      <trkpt lat="45.0658" lon="5.38868">
        <ele>267.787</ele>
        <time>2019-04-21T14:04:06Z</time>
      </trkpt>
      <trkpt lat="45.06584" lon="5.38868">
        <ele>267.908</ele>
        <time>2019-04-21T14:04:07Z</time>
      </trkpt>
      <trkpt lat="45.06587" lon="5.38868">
        <ele>267.731</ele>
        <time>2019-04-21T14:04:08Z</time>
      </trkpt>
      <trkpt lat="45.06596" lon="5.38869">
        <ele>267.962</ele>
        <time>2019-04-21T14:04:13Z</time>
      </trkpt>
      <trkpt lat="45.06598" lon="5.38865">
        <ele>269.402</ele>
        <time>2019-04-21T14:04:17Z</time>
      </trkpt>
      <trkpt lat="45.066" lon="5.38864">
        <ele>269.898</ele>
        <time>2019-04-21T14:04:20Z</time>
      </trkpt>
      <trkpt lat="45.066" lon="5.38862">
        <ele>268.636</ele>
        <time>2019-04-21T14:04:23Z</time>
      </trkpt>
      <trkpt lat="45.066" lon="5.38862">
        <ele>268.617</ele>
        <time>2019-04-21T14:04:24Z</time>
      </trkpt>
      <trkpt lat="45.066" lon="5.38862">
        <ele>268.617</ele>
        <time>2019-04-21T14:04:24Z</time>
      </trkpt>
      <trkpt lat="45.06599" lon="5.3886">
        <ele>268.312</ele>
        <time>2019-04-21T14:04:25Z</time>
      </trkpt>
      <trkpt lat="45.06597" lon="5.38859">
        <ele>267.303</ele>
        <time>2019-04-21T14:04:27Z</time>
      </trkpt>
      <trkpt lat="45.06594" lon="5.38854">
        <ele>266.956</ele>
        <time>2019-04-21T14:04:31Z</time>
      </trkpt>
      <trkpt lat="45.06594" lon="5.38854">
        <ele>266.961</ele>
        <time>2019-04-21T14:04:32Z</time>
      </trkpt>
      <trkpt lat="45.06593" lon="5.38853">
        <ele>266.44</ele>
        <time>2019-04-21T14:04:33Z</time>
      </trkpt>
      <trkpt lat="45.06593" lon="5.38852">
        <ele>266.391</ele>
        <time>2019-04-21T14:04:34Z</time>
      </trkpt>
      <trkpt lat="45.06593" lon="5.38852">
        <ele>266.534</ele>
        <time>2019-04-21T14:04:35Z</time>
      </trkpt>
      <trkpt lat="45.06593" lon="5.38852">
        <ele>266.522</ele>
        <time>2019-04-21T14:04:42Z</time>
      </trkpt>
      <trkpt lat="45.06592" lon="5.38851">
        <ele>266.682</ele>
        <time>2019-04-21T14:04:43Z</time>
      </trkpt>
      <trkpt lat="45.06592" lon="5.3885">
        <ele>266.824</ele>
        <time>2019-04-21T14:04:44Z</time>
      </trkpt>
      <trkpt lat="45.06594" lon="5.38849">
        <ele>267.445</ele>
        <time>2019-04-21T14:04:46Z</time>
      </trkpt>
      <trkpt lat="45.06598" lon="5.38848">
        <ele>268.476</ele>
        <time>2019-04-21T14:04:49Z</time>
      </trkpt>
      <trkpt lat="45.06603" lon="5.38848">
        <ele>267.564</ele>
        <time>2019-04-21T14:04:52Z</time>
      </trkpt>
      <trkpt lat="45.06612" lon="5.38847">
        <ele>269.45</ele>
        <time>2019-04-21T14:05:01Z</time>
      </trkpt>
      <trkpt lat="45.06613" lon="5.38841">
        <ele>269.965</ele>
        <time>2019-04-21T14:05:07Z</time>
      </trkpt>
      <trkpt lat="45.06614" lon="5.3884">
        <ele>270.237</ele>
        <time>2019-04-21T14:05:08Z</time>
      </trkpt>
      <trkpt lat="45.06615" lon="5.38838">
        <ele>270.987</ele>
        <time>2019-04-21T14:05:11Z</time>
      </trkpt>
      <trkpt lat="45.06618" lon="5.38836">
        <ele>271.309</ele>
        <time>2019-04-21T14:05:13Z</time>
      </trkpt>
      <trkpt lat="45.06628" lon="5.38826">
        <ele>271.919</ele>
        <time>2019-04-21T14:05:22Z</time>
      </trkpt>
      <trkpt lat="45.06629" lon="5.38818">
        <ele>271.006</ele>
        <time>2019-04-21T14:05:30Z</time>
      </trkpt>
      <trkpt lat="45.06629" lon="5.38815">
        <ele>271.372</ele>
        <time>2019-04-21T14:05:33Z</time>
      </trkpt>
      <trkpt lat="45.06632" lon="5.38807">
        <ele>270.78</ele>
        <time>2019-04-21T14:05:39Z</time>
      </trkpt>
      <trkpt lat="45.06631" lon="5.38805">
        <ele>270.379</ele>
        <time>2019-04-21T14:05:41Z</time>
      </trkpt>
      <trkpt lat="45.06632" lon="5.38802">
        <ele>270.828</ele>
        <time>2019-04-21T14:05:43Z</time>
      </trkpt>
      <trkpt lat="45.06639" lon="5.38792">
        <ele>271.793</ele>
        <time>2019-04-21T14:05:51Z</time>
      </trkpt>
      <trkpt lat="45.06641" lon="5.38792">
        <ele>271.141</ele>
        <time>2019-04-21T14:05:53Z</time>
      </trkpt>
      <trkpt lat="45.06641" lon="5.38791">
        <ele>271.401</ele>
        <time>2019-04-21T14:05:54Z</time>
      </trkpt>
      <trkpt lat="45.06641" lon="5.38789">
        <ele>271.482</ele>
        <time>2019-04-21T14:05:56Z</time>
      </trkpt>
      <trkpt lat="45.06642" lon="5.38784">
        <ele>271.247</ele>
        <time>2019-04-21T14:05:59Z</time>
      </trkpt>
      <trkpt lat="45.06642" lon="5.3878">
        <ele>271.792</ele>
        <time>2019-04-21T14:06:02Z</time>
      </trkpt>
      <trkpt lat="45.06643" lon="5.38776">
        <ele>271.961</ele>
        <time>2019-04-21T14:06:06Z</time>
      </trkpt>
      <trkpt lat="45.06646" lon="5.38772">
        <ele>271.933</ele>
        <time>2019-04-21T14:06:09Z</time>
      </trkpt>
      <trkpt lat="45.06649" lon="5.38762">
        <ele>271.75</ele>
        <time>2019-04-21T14:06:17Z</time>
      </trkpt>
      <trkpt lat="45.0665" lon="5.3876">
        <ele>271.775</ele>
        <time>2019-04-21T14:06:19Z</time>
      </trkpt>
      <trkpt lat="45.06659" lon="5.38749">
        <ele>272.079</ele>
        <time>2019-04-21T14:06:28Z</time>
      </trkpt>
      <trkpt lat="45.06661" lon="5.38745">
        <ele>272.245</ele>
        <time>2019-04-21T14:06:33Z</time>
      </trkpt>
      <trkpt lat="45.06662" lon="5.38742">
        <ele>272.512</ele>
        <time>2019-04-21T14:06:36Z</time>
      </trkpt>
      <trkpt lat="45.06665" lon="5.38728">
        <ele>271.359</ele>
        <time>2019-04-21T14:06:46Z</time>
      </trkpt>
      <trkpt lat="45.06669" lon="5.38723">
        <ele>270.372</ele>
        <time>2019-04-21T14:06:49Z</time>
      </trkpt>
      <trkpt lat="45.06676" lon="5.38714">
        <ele>270.933</ele>
        <time>2019-04-21T14:06:56Z</time>
      </trkpt>
      <trkpt lat="45.06676" lon="5.38709">
        <ele>272.151</ele>
        <time>2019-04-21T14:07:00Z</time>
      </trkpt>
      <trkpt lat="45.06674" lon="5.38705">
        <ele>272.319</ele>
        <time>2019-04-21T14:07:02Z</time>
      </trkpt>
      <trkpt lat="45.06672" lon="5.38702">
        <ele>272.55</ele>
        <time>2019-04-21T14:07:04Z</time>
      </trkpt>
      <trkpt lat="45.06671" lon="5.387">
        <ele>272.289</ele>
        <time>2019-04-21T14:07:05Z</time>
      </trkpt>
      <trkpt lat="45.06671" lon="5.38699">
        <ele>272.332</ele>
        <time>2019-04-21T14:07:07Z</time>
      </trkpt>
      <trkpt lat="45.06673" lon="5.38695">
        <ele>271.546</ele>
        <time>2019-04-21T14:07:10Z</time>
      </trkpt>
      <trkpt lat="45.06677" lon="5.38686">
        <ele>273.633</ele>
        <time>2019-04-21T14:07:19Z</time>
      </trkpt>
      <trkpt lat="45.06682" lon="5.38683">
        <ele>273.821</ele>
        <time>2019-04-21T14:07:24Z</time>
      </trkpt>
      <trkpt lat="45.06682" lon="5.38682">
        <ele>274.001</ele>
        <time>2019-04-21T14:07:27Z</time>
      </trkpt>
      <trkpt lat="45.06678" lon="5.38678">
        <ele>273.954</ele>
        <time>2019-04-21T14:07:29Z</time>
      </trkpt>
      <trkpt lat="45.06678" lon="5.38678">
        <ele>274.852</ele>
        <time>2019-04-21T14:07:34Z</time>
      </trkpt>
      <trkpt lat="45.06676" lon="5.38675">
        <ele>274.615</ele>
        <time>2019-04-21T14:07:35Z</time>
      </trkpt>
      <trkpt lat="45.06676" lon="5.38675">
        <ele>274.615</ele>
        <time>2019-04-21T14:07:35Z</time>
      </trkpt>
      <trkpt lat="45.06676" lon="5.38675">
        <ele>274.606</ele>
        <time>2019-04-21T14:07:36Z</time>
      </trkpt>
      <trkpt lat="45.06676" lon="5.38675">
        <ele>274.606</ele>
        <time>2019-04-21T14:07:36Z</time>
      </trkpt>
      <trkpt lat="45.06675" lon="5.38674">
        <ele>274.527</ele>
        <time>2019-04-21T14:07:37Z</time>
      </trkpt>
      <trkpt lat="45.06675" lon="5.38674">
        <ele>274.527</ele>
        <time>2019-04-21T14:07:37Z</time>
      </trkpt>
      <trkpt lat="45.06674" lon="5.38674">
        <ele>274.534</ele>
        <time>2019-04-21T14:07:38Z</time>
      </trkpt>
      <trkpt lat="45.06673" lon="5.38673">
        <ele>274.357</ele>
        <time>2019-04-21T14:07:39Z</time>
      </trkpt>
      <trkpt lat="45.06673" lon="5.38673">
        <ele>274.198</ele>
        <time>2019-04-21T14:07:40Z</time>
      </trkpt>
      <trkpt lat="45.06672" lon="5.38672">
        <ele>273.488</ele>
        <time>2019-04-21T14:07:41Z</time>
      </trkpt>
      <trkpt lat="45.06673" lon="5.38672">
        <ele>273.474</ele>
        <time>2019-04-21T14:07:43Z</time>
      </trkpt>
      <trkpt lat="45.06674" lon="5.38672">
        <ele>273.395</ele>
        <time>2019-04-21T14:07:46Z</time>
      </trkpt>
      <trkpt lat="45.06674" lon="5.38673">
        <ele>273.287</ele>
        <time>2019-04-21T14:07:48Z</time>
      </trkpt>
      <trkpt lat="45.06672" lon="5.38677">
        <ele>274.422</ele>
        <time>2019-04-21T14:07:58Z</time>
      </trkpt>
      <trkpt lat="45.06671" lon="5.38678">
        <ele>274.871</ele>
        <time>2019-04-21T14:07:59Z</time>
      </trkpt>
      <trkpt lat="45.06671" lon="5.38682">
        <ele>275.302</ele>
        <time>2019-04-21T14:08:04Z</time>
      </trkpt>
      <trkpt lat="45.06673" lon="5.3869">
        <ele>273.283</ele>
        <time>2019-04-21T14:08:15Z</time>
      </trkpt>
      <trkpt lat="45.06672" lon="5.38691">
        <ele>272.809</ele>
        <time>2019-04-21T14:08:18Z</time>
      </trkpt>
      <trkpt lat="45.06671" lon="5.3869">
        <ele>271.72</ele>
        <time>2019-04-21T14:08:23Z</time>
      </trkpt>
      <trkpt lat="45.06671" lon="5.38689">
        <ele>271.561</ele>
        <time>2019-04-21T14:08:24Z</time>
      </trkpt>
      <trkpt lat="45.06671" lon="5.38689">
        <ele>271.481</ele>
        <time>2019-04-21T14:08:25Z</time>
      </trkpt>
      <trkpt lat="45.06671" lon="5.38688">
        <ele>271.906</ele>
        <time>2019-04-21T14:08:28Z</time>
      </trkpt>
      <trkpt lat="45.06671" lon="5.38688">
        <ele>271.431</ele>
        <time>2019-04-21T14:08:29Z</time>
      </trkpt>
      <trkpt lat="45.06671" lon="5.38688">
        <ele>271.421</ele>
        <time>2019-04-21T14:08:30Z</time>
      </trkpt>
      <trkpt lat="45.06671" lon="5.38688">
        <ele>271.449</ele>
        <time>2019-04-21T14:08:31Z</time>
      </trkpt>
      <trkpt lat="45.06671" lon="5.38687">
        <ele>271.483</ele>
        <time>2019-04-21T14:08:32Z</time>
      </trkpt>
      <trkpt lat="45.06671" lon="5.38687">
        <ele>271.516</ele>
        <time>2019-04-21T14:08:33Z</time>
      </trkpt>
      <trkpt lat="45.06671" lon="5.38687">
        <ele>271.651</ele>
        <time>2019-04-21T14:08:35Z</time>
      </trkpt>
      <trkpt lat="45.06671" lon="5.38685">
        <ele>271.75</ele>
        <time>2019-04-21T14:08:38Z</time>
      </trkpt>
      <trkpt lat="45.0667" lon="5.38685">
        <ele>272.068</ele>
        <time>2019-04-21T14:08:39Z</time>
      </trkpt>
      <trkpt lat="45.06671" lon="5.38683">
        <ele>271.651</ele>
        <time>2019-04-21T14:08:44Z</time>
      </trkpt>
      <trkpt lat="45.06674" lon="5.38681">
        <ele>271.377</ele>
        <time>2019-04-21T14:08:48Z</time>
      </trkpt>
      <trkpt lat="45.06675" lon="5.3868">
        <ele>271.259</ele>
        <time>2019-04-21T14:08:49Z</time>
      </trkpt>
      <trkpt lat="45.06678" lon="5.38678">
        <ele>270.032</ele>
        <time>2019-04-21T14:08:52Z</time>
      </trkpt>
      <trkpt lat="45.0668" lon="5.38675">
        <ele>269.269</ele>
        <time>2019-04-21T14:08:55Z</time>
      </trkpt>
      <trkpt lat="45.06687" lon="5.38659">
        <ele>267.231</ele>
        <time>2019-04-21T14:09:11Z</time>
      </trkpt>
      <trkpt lat="45.06688" lon="5.38657">
        <ele>266.896</ele>
        <time>2019-04-21T14:09:13Z</time>
      </trkpt>
      <trkpt lat="45.06691" lon="5.38655">
        <ele>266.154</ele>
        <time>2019-04-21T14:09:17Z</time>
      </trkpt>
      <trkpt lat="45.06691" lon="5.38653">
        <ele>264.454</ele>
        <time>2019-04-21T14:09:20Z</time>
      </trkpt>
      <trkpt lat="45.06691" lon="5.38653">
        <ele>264.454</ele>
        <time>2019-04-21T14:09:20Z</time>
      </trkpt>
      <trkpt lat="45.06692" lon="5.38652">
        <ele>264.268</ele>
        <time>2019-04-21T14:09:21Z</time>
      </trkpt>
      <trkpt lat="45.06695" lon="5.38647">
        <ele>264.762</ele>
        <time>2019-04-21T14:09:27Z</time>
      </trkpt>
      <trkpt lat="45.06696" lon="5.38646">
        <ele>264.2</ele>
        <time>2019-04-21T14:09:29Z</time>
      </trkpt>
      <trkpt lat="45.06698" lon="5.38646">
        <ele>264.469</ele>
        <time>2019-04-21T14:09:30Z</time>
      </trkpt>
      <trkpt lat="45.06699" lon="5.38645">
        <ele>263.751</ele>
        <time>2019-04-21T14:09:32Z</time>
      </trkpt>
      <trkpt lat="45.06699" lon="5.38644">
        <ele>263.477</ele>
        <time>2019-04-21T14:09:34Z</time>
      </trkpt>
      <trkpt lat="45.06699" lon="5.38644">
        <ele>263.479</ele>
        <time>2019-04-21T14:09:35Z</time>
      </trkpt>
      <trkpt lat="45.06699" lon="5.38644">
        <ele>263.422</ele>
        <time>2019-04-21T14:09:47Z</time>
      </trkpt>
      <trkpt lat="45.06699" lon="5.38643">
        <ele>263.334</ele>
        <time>2019-04-21T14:09:48Z</time>
      </trkpt>
      <trkpt lat="45.06699" lon="5.38643">
        <ele>262.353</ele>
        <time>2019-04-21T14:09:51Z</time>
      </trkpt>
      <trkpt lat="45.06699" lon="5.38643">
        <ele>262.353</ele>
        <time>2019-04-21T14:09:51Z</time>
      </trkpt>
      <trkpt lat="45.067" lon="5.38644">
        <ele>261.887</ele>
        <time>2019-04-21T14:09:52Z</time>
      </trkpt>
      <trkpt lat="45.067" lon="5.38644">
        <ele>261.913</ele>
        <time>2019-04-21T14:09:53Z</time>
      </trkpt>
      <trkpt lat="45.067" lon="5.38644">
        <ele>258.385</ele>
        <time>2019-04-21T14:21:40Z</time>
      </trkpt>
      <trkpt lat="45.06702" lon="5.38641">
        <ele>258.18</ele>
        <time>2019-04-21T14:21:41Z</time>
      </trkpt>
      <trkpt lat="45.06702" lon="5.38641">
        <ele>258.168</ele>
        <time>2019-04-21T14:21:42Z</time>
      </trkpt>
      <trkpt lat="45.06702" lon="5.38641">
        <ele>257.909</ele>
        <time>2019-04-21T14:42:23Z</time>
      </trkpt>
      <trkpt lat="45.06702" lon="5.3864">
        <ele>258.065</ele>
        <time>2019-04-21T14:42:24Z</time>
      </trkpt>
      <trkpt lat="45.06702" lon="5.3864">
        <ele>258.035</ele>
        <time>2019-04-21T14:42:25Z</time>
      </trkpt>
      <trkpt lat="45.06702" lon="5.3864">
        <ele>257.814</ele>
        <time>2019-04-21T14:42:56Z</time>
      </trkpt>
      <trkpt lat="45.06702" lon="5.3864">
        <ele>257.683</ele>
        <time>2019-04-21T14:42:57Z</time>
      </trkpt>
      <trkpt lat="45.067" lon="5.3864">
        <ele>256.973</ele>
        <time>2019-04-21T14:42:59Z</time>
      </trkpt>
      <trkpt lat="45.067" lon="5.3864">
        <ele>256.596</ele>
        <time>2019-04-21T14:43:01Z</time>
      </trkpt>
      <trkpt lat="45.067" lon="5.3864">
        <ele>256.566</ele>
        <time>2019-04-21T14:43:11Z</time>
      </trkpt>
      <trkpt lat="45.06699" lon="5.3864">
        <ele>256.137</ele>
        <time>2019-04-21T14:43:12Z</time>
      </trkpt>
      <trkpt lat="45.06699" lon="5.3864">
        <ele>256.214</ele>
        <time>2019-04-21T14:43:13Z</time>
      </trkpt>
      <trkpt lat="45.06699" lon="5.3864">
        <ele>256.236</ele>
        <time>2019-04-21T14:43:14Z</time>
      </trkpt>
      <trkpt lat="45.06699" lon="5.3864">
        <ele>256.083</ele>
        <time>2019-04-21T14:43:15Z</time>
      </trkpt>
      <trkpt lat="45.06699" lon="5.3864">
        <ele>256.528</ele>
        <time>2019-04-21T14:43:17Z</time>
      </trkpt>
      <trkpt lat="45.06699" lon="5.3864">
        <ele>256.528</ele>
        <time>2019-04-21T14:43:17Z</time>
      </trkpt>
      <trkpt lat="45.06699" lon="5.38641">
        <ele>256.665</ele>
        <time>2019-04-21T14:43:18Z</time>
      </trkpt>
      <trkpt lat="45.06699" lon="5.38641">
        <ele>256.665</ele>
        <time>2019-04-21T14:43:18Z</time>
      </trkpt>
      <trkpt lat="45.06699" lon="5.38641">
        <ele>256.608</ele>
        <time>2019-04-21T14:43:19Z</time>
      </trkpt>
      <trkpt lat="45.06699" lon="5.38641">
        <ele>256.608</ele>
        <time>2019-04-21T14:43:19Z</time>
      </trkpt>
      <trkpt lat="45.06698" lon="5.38641">
        <ele>256.579</ele>
        <time>2019-04-21T14:43:20Z</time>
      </trkpt>
      <trkpt lat="45.06698" lon="5.38641">
        <ele>256.579</ele>
        <time>2019-04-21T14:43:20Z</time>
      </trkpt>
      <trkpt lat="45.06698" lon="5.38641">
        <ele>256.551</ele>
        <time>2019-04-21T14:43:21Z</time>
      </trkpt>
      <trkpt lat="45.06698" lon="5.38641">
        <ele>256.317</ele>
        <time>2019-04-21T14:43:50Z</time>
      </trkpt>
      <trkpt lat="45.06698" lon="5.38641">
        <ele>256.543</ele>
        <time>2019-04-21T14:43:51Z</time>
      </trkpt>
      <trkpt lat="45.06698" lon="5.38641">
        <ele>256.543</ele>
        <time>2019-04-21T14:43:51Z</time>
      </trkpt>
      <trkpt lat="45.06698" lon="5.38641">
        <ele>256.584</ele>
        <time>2019-04-21T14:43:52Z</time>
      </trkpt>
      <trkpt lat="45.06698" lon="5.38641">
        <ele>256.584</ele>
        <time>2019-04-21T14:43:52Z</time>
      </trkpt>
      <trkpt lat="45.06698" lon="5.38641">
        <ele>256.513</ele>
        <time>2019-04-21T14:43:53Z</time>
      </trkpt>
      <trkpt lat="45.06698" lon="5.3864">
        <ele>256.59</ele>
        <time>2019-04-21T14:43:54Z</time>
      </trkpt>
      <trkpt lat="45.06698" lon="5.38641">
        <ele>256.594</ele>
        <time>2019-04-21T14:43:55Z</time>
      </trkpt>
      <trkpt lat="45.06696" lon="5.38641">
        <ele>256.583</ele>
        <time>2019-04-21T14:44:00Z</time>
      </trkpt>
      <trkpt lat="45.06696" lon="5.38641">
        <ele>256.583</ele>
        <time>2019-04-21T14:44:00Z</time>
      </trkpt>
      <trkpt lat="45.06696" lon="5.38641">
        <ele>256.648</ele>
        <time>2019-04-21T14:44:01Z</time>
      </trkpt>
      <trkpt lat="45.06696" lon="5.38641">
        <ele>256.827</ele>
        <time>2019-04-21T14:44:03Z</time>
      </trkpt>
      <trkpt lat="45.06697" lon="5.38641">
        <ele>257.015</ele>
        <time>2019-04-21T14:44:04Z</time>
      </trkpt>
      <trkpt lat="45.06696" lon="5.38642">
        <ele>257.334</ele>
        <time>2019-04-21T14:44:05Z</time>
      </trkpt>
      <trkpt lat="45.06695" lon="5.38647">
        <ele>257.907</ele>
        <time>2019-04-21T14:44:09Z</time>
      </trkpt>
      <trkpt lat="45.06692" lon="5.3865">
        <ele>259.712</ele>
        <time>2019-04-21T14:44:14Z</time>
      </trkpt>
      <trkpt lat="45.0669" lon="5.38651">
        <ele>260.063</ele>
        <time>2019-04-21T14:44:20Z</time>
      </trkpt>
      <trkpt lat="45.0669" lon="5.38651">
        <ele>260.178</ele>
        <time>2019-04-21T14:44:23Z</time>
      </trkpt>
      <trkpt lat="45.0669" lon="5.38651">
        <ele>259.676</ele>
        <time>2019-04-21T14:44:24Z</time>
      </trkpt>
      <trkpt lat="45.06689" lon="5.38652">
        <ele>260.519</ele>
        <time>2019-04-21T14:44:26Z</time>
      </trkpt>
      <trkpt lat="45.06688" lon="5.38653">
        <ele>260.022</ele>
        <time>2019-04-21T14:44:28Z</time>
      </trkpt>
      <trkpt lat="45.06688" lon="5.38653">
        <ele>263.751</ele>
        <time>2019-04-21T14:44:30Z</time>
      </trkpt>
      <trkpt lat="45.06688" lon="5.38653">
        <ele>263.751</ele>
        <time>2019-04-21T14:44:30Z</time>
      </trkpt>
      <trkpt lat="45.06688" lon="5.38653">
        <ele>263.909</ele>
        <time>2019-04-21T14:44:31Z</time>
      </trkpt>
      <trkpt lat="45.06687" lon="5.38654">
        <ele>263.461</ele>
        <time>2019-04-21T14:44:33Z</time>
      </trkpt>
      <trkpt lat="45.06687" lon="5.38654">
        <ele>263.479</ele>
        <time>2019-04-21T14:44:34Z</time>
      </trkpt>
      <trkpt lat="45.06683" lon="5.38659">
        <ele>262.569</ele>
        <time>2019-04-21T14:44:41Z</time>
      </trkpt>
      <trkpt lat="45.0668" lon="5.38661">
        <ele>261.308</ele>
        <time>2019-04-21T14:44:44Z</time>
      </trkpt>
      <trkpt lat="45.06677" lon="5.38665">
        <ele>260.878</ele>
        <time>2019-04-21T14:44:48Z</time>
      </trkpt>
      <trkpt lat="45.0667" lon="5.38673">
        <ele>261.743</ele>
        <time>2019-04-21T14:45:00Z</time>
      </trkpt>
      <trkpt lat="45.06669" lon="5.38673">
        <ele>262.682</ele>
        <time>2019-04-21T14:45:04Z</time>
      </trkpt>
      <trkpt lat="45.06669" lon="5.38673">
        <ele>262.682</ele>
        <time>2019-04-21T14:45:04Z</time>
      </trkpt>
      <trkpt lat="45.06668" lon="5.38673">
        <ele>262.697</ele>
        <time>2019-04-21T14:45:05Z</time>
      </trkpt>
      <trkpt lat="45.06667" lon="5.38674">
        <ele>263.238</ele>
        <time>2019-04-21T14:45:09Z</time>
      </trkpt>
      <trkpt lat="45.06666" lon="5.38674">
        <ele>263.84</ele>
        <time>2019-04-21T14:45:10Z</time>
      </trkpt>
      <trkpt lat="45.06664" lon="5.38676">
        <ele>264.533</ele>
        <time>2019-04-21T14:45:15Z</time>
      </trkpt>
      <trkpt lat="45.06664" lon="5.38676">
        <ele>264.533</ele>
        <time>2019-04-21T14:45:15Z</time>
      </trkpt>
      <trkpt lat="45.06664" lon="5.38677">
        <ele>264.248</ele>
        <time>2019-04-21T14:45:16Z</time>
      </trkpt>
      <trkpt lat="45.0666" lon="5.38684">
        <ele>263.939</ele>
        <time>2019-04-21T14:45:24Z</time>
      </trkpt>
      <trkpt lat="45.06657" lon="5.38685">
        <ele>263.271</ele>
        <time>2019-04-21T14:45:34Z</time>
      </trkpt>
      <trkpt lat="45.06657" lon="5.38685">
        <ele>263.307</ele>
        <time>2019-04-21T14:45:35Z</time>
      </trkpt>
      <trkpt lat="45.0666" lon="5.38685">
        <ele>263.234</ele>
        <time>2019-04-21T14:45:39Z</time>
      </trkpt>
      <trkpt lat="45.06661" lon="5.38685">
        <ele>263.088</ele>
        <time>2019-04-21T14:45:42Z</time>
      </trkpt>
      <trkpt lat="45.06661" lon="5.38685">
        <ele>263.33</ele>
        <time>2019-04-21T14:45:44Z</time>
      </trkpt>
      <trkpt lat="45.06661" lon="5.38685">
        <ele>263.663</ele>
        <time>2019-04-21T14:45:46Z</time>
      </trkpt>
      <trkpt lat="45.06661" lon="5.38684">
        <ele>263.144</ele>
        <time>2019-04-21T14:45:49Z</time>
      </trkpt>
      <trkpt lat="45.06661" lon="5.38683">
        <ele>263.404</ele>
        <time>2019-04-21T14:45:52Z</time>
      </trkpt>
      <trkpt lat="45.06661" lon="5.38683">
        <ele>263.673</ele>
        <time>2019-04-21T14:45:53Z</time>
      </trkpt>
      <trkpt lat="45.0666" lon="5.38682">
        <ele>263.768</ele>
        <time>2019-04-21T14:45:54Z</time>
      </trkpt>
      <trkpt lat="45.0666" lon="5.38682">
        <ele>263.812</ele>
        <time>2019-04-21T14:45:55Z</time>
      </trkpt>
      <trkpt lat="45.06659" lon="5.38682">
        <ele>263.563</ele>
        <time>2019-04-21T14:45:57Z</time>
      </trkpt>
      <trkpt lat="45.06659" lon="5.38682">
        <ele>263.563</ele>
        <time>2019-04-21T14:45:57Z</time>
      </trkpt>
      <trkpt lat="45.06659" lon="5.38683">
        <ele>263.557</ele>
        <time>2019-04-21T14:45:58Z</time>
      </trkpt>
      <trkpt lat="45.06659" lon="5.38683">
        <ele>263.371</ele>
        <time>2019-04-21T14:45:59Z</time>
      </trkpt>
      <trkpt lat="45.0666" lon="5.38683">
        <ele>263.897</ele>
        <time>2019-04-21T14:46:01Z</time>
      </trkpt>
      <trkpt lat="45.0666" lon="5.38683">
        <ele>264.11</ele>
        <time>2019-04-21T14:46:02Z</time>
      </trkpt>
      <trkpt lat="45.06659" lon="5.38681">
        <ele>264.417</ele>
        <time>2019-04-21T14:46:05Z</time>
      </trkpt>
      <trkpt lat="45.0666" lon="5.3868">
        <ele>264.265</ele>
        <time>2019-04-21T14:46:06Z</time>
      </trkpt>
      <trkpt lat="45.0666" lon="5.3868">
        <ele>264.33</ele>
        <time>2019-04-21T14:46:06Z</time>
      </trkpt>
      <trkpt lat="45.0666" lon="5.3868">
        <ele>264.33</ele>
        <time>2019-04-21T14:46:06Z</time>
      </trkpt>
      <trkpt lat="45.0666" lon="5.3868">
        <ele>264.318</ele>
        <time>2019-04-21T14:46:07Z</time>
      </trkpt>
      <trkpt lat="45.0666" lon="5.38679">
        <ele>264.441</ele>
        <time>2019-04-21T14:46:08Z</time>
      </trkpt>
      <trkpt lat="45.0666" lon="5.38678">
        <ele>264.777</ele>
        <time>2019-04-21T14:46:10Z</time>
      </trkpt>
      <trkpt lat="45.0666" lon="5.38678">
        <ele>265.04</ele>
        <time>2019-04-21T14:46:11Z</time>
      </trkpt>
      <trkpt lat="45.0666" lon="5.38678">
        <ele>265.159</ele>
        <time>2019-04-21T14:46:14Z</time>
      </trkpt>
      <trkpt lat="45.0666" lon="5.38678">
        <ele>265.31</ele>
        <time>2019-04-21T14:46:15Z</time>
      </trkpt>
      <trkpt lat="45.06661" lon="5.38678">
        <ele>265.612</ele>
        <time>2019-04-21T14:46:18Z</time>
      </trkpt>
      <trkpt lat="45.06662" lon="5.38676">
        <ele>267.314</ele>
        <time>2019-04-21T14:46:23Z</time>
      </trkpt>
      <trkpt lat="45.06663" lon="5.38672">
        <ele>266.432</ele>
        <time>2019-04-21T14:46:28Z</time>
      </trkpt>
      <trkpt lat="45.06665" lon="5.38669">
        <ele>266.124</ele>
        <time>2019-04-21T14:46:32Z</time>
      </trkpt>
      <trkpt lat="45.06665" lon="5.38669">
        <ele>266.124</ele>
        <time>2019-04-21T14:46:32Z</time>
      </trkpt>
      <trkpt lat="45.06665" lon="5.38669">
        <ele>265.869</ele>
        <time>2019-04-21T14:46:33Z</time>
      </trkpt>
      <trkpt lat="45.06665" lon="5.38669">
        <ele>265.356</ele>
        <time>2019-04-21T14:46:42Z</time>
      </trkpt>
      <trkpt lat="45.06665" lon="5.38668">
        <ele>265.999</ele>
        <time>2019-04-21T14:46:43Z</time>
      </trkpt>
      <trkpt lat="45.06665" lon="5.38668">
        <ele>266.304</ele>
        <time>2019-04-21T14:46:44Z</time>
      </trkpt>
      <trkpt lat="45.06666" lon="5.38667">
        <ele>267.494</ele>
        <time>2019-04-21T14:46:48Z</time>
      </trkpt>
      <trkpt lat="45.06667" lon="5.38664">
        <ele>268.338</ele>
        <time>2019-04-21T14:46:53Z</time>
      </trkpt>
      <trkpt lat="45.06668" lon="5.38663">
        <ele>269.437</ele>
        <time>2019-04-21T14:46:55Z</time>
      </trkpt>
      <trkpt lat="45.06669" lon="5.3866">
        <ele>267.217</ele>
        <time>2019-04-21T14:46:58Z</time>
      </trkpt>
      <trkpt lat="45.06669" lon="5.3866">
        <ele>267.062</ele>
        <time>2019-04-21T14:46:59Z</time>
      </trkpt>
      <trkpt lat="45.06669" lon="5.3866">
        <ele>267.062</ele>
        <time>2019-04-21T14:46:59Z</time>
      </trkpt>
      <trkpt lat="45.06669" lon="5.38658">
        <ele>267.632</ele>
        <time>2019-04-21T14:47:00Z</time>
      </trkpt>
      <trkpt lat="45.0667" lon="5.38654">
        <ele>268.4</ele>
        <time>2019-04-21T14:47:04Z</time>
      </trkpt>
      <trkpt lat="45.0667" lon="5.38653">
        <ele>269.266</ele>
        <time>2019-04-21T14:47:06Z</time>
      </trkpt>
      <trkpt lat="45.06669" lon="5.38652">
        <ele>269.078</ele>
        <time>2019-04-21T14:47:09Z</time>
      </trkpt>
      <trkpt lat="45.06669" lon="5.38649">
        <ele>271.114</ele>
        <time>2019-04-21T14:47:13Z</time>
      </trkpt>
      <trkpt lat="45.06669" lon="5.38647">
        <ele>271.835</ele>
        <time>2019-04-21T14:47:15Z</time>
      </trkpt>
      <trkpt lat="45.06671" lon="5.38642">
        <ele>274.496</ele>
        <time>2019-04-21T14:47:21Z</time>
      </trkpt>
      <trkpt lat="45.06671" lon="5.3864">
        <ele>275.146</ele>
        <time>2019-04-21T14:47:23Z</time>
      </trkpt>
      <trkpt lat="45.06671" lon="5.38639">
        <ele>275.117</ele>
        <time>2019-04-21T14:47:24Z</time>
      </trkpt>
      <trkpt lat="45.06671" lon="5.38634">
        <ele>275.633</ele>
        <time>2019-04-21T14:47:28Z</time>
      </trkpt>
      <trkpt lat="45.06673" lon="5.38631">
        <ele>274.36</ele>
        <time>2019-04-21T14:47:32Z</time>
      </trkpt>
      <trkpt lat="45.06674" lon="5.38627">
        <ele>274.125</ele>
        <time>2019-04-21T14:47:35Z</time>
      </trkpt>
      <trkpt lat="45.06675" lon="5.38625">
        <ele>274.371</ele>
        <time>2019-04-21T14:47:38Z</time>
      </trkpt>
      <trkpt lat="45.06675" lon="5.38625">
        <ele>274.371</ele>
        <time>2019-04-21T14:47:38Z</time>
      </trkpt>
      <trkpt lat="45.06675" lon="5.38623">
        <ele>274.714</ele>
        <time>2019-04-21T14:47:39Z</time>
      </trkpt>
      <trkpt lat="45.06675" lon="5.38622">
        <ele>274.683</ele>
        <time>2019-04-21T14:47:40Z</time>
      </trkpt>
      <trkpt lat="45.06675" lon="5.38622">
        <ele>275.351</ele>
        <time>2019-04-21T14:47:41Z</time>
      </trkpt>
      <trkpt lat="45.06675" lon="5.3862">
        <ele>275.624</ele>
        <time>2019-04-21T14:47:43Z</time>
      </trkpt>
      <trkpt lat="45.06678" lon="5.38613">
        <ele>274.608</ele>
        <time>2019-04-21T14:47:50Z</time>
      </trkpt>
      <trkpt lat="45.06678" lon="5.38609">
        <ele>276.259</ele>
        <time>2019-04-21T14:47:53Z</time>
      </trkpt>
      <trkpt lat="45.0668" lon="5.38603">
        <ele>278.696</ele>
        <time>2019-04-21T14:47:59Z</time>
      </trkpt>
      <trkpt lat="45.0668" lon="5.386">
        <ele>280.441</ele>
        <time>2019-04-21T14:48:01Z</time>
      </trkpt>
      <trkpt lat="45.06681" lon="5.38598">
        <ele>279.423</ele>
        <time>2019-04-21T14:48:04Z</time>
      </trkpt>
      <trkpt lat="45.06683" lon="5.38585">
        <ele>281.805</ele>
        <time>2019-04-21T14:48:12Z</time>
      </trkpt>
      <trkpt lat="45.06687" lon="5.38576">
        <ele>282.027</ele>
        <time>2019-04-21T14:48:20Z</time>
      </trkpt>
      <trkpt lat="45.06691" lon="5.38574">
        <ele>281.267</ele>
        <time>2019-04-21T14:48:25Z</time>
      </trkpt>
      <trkpt lat="45.06692" lon="5.38573">
        <ele>282.02</ele>
        <time>2019-04-21T14:48:26Z</time>
      </trkpt>
      <trkpt lat="45.06692" lon="5.38573">
        <ele>282.565</ele>
        <time>2019-04-21T14:48:27Z</time>
      </trkpt>
      <trkpt lat="45.06695" lon="5.38569">
        <ele>280.671</ele>
        <time>2019-04-21T14:48:32Z</time>
      </trkpt>
      <trkpt lat="45.06696" lon="5.38565">
        <ele>281.687</ele>
        <time>2019-04-21T14:48:36Z</time>
      </trkpt>
      <trkpt lat="45.06699" lon="5.38562">
        <ele>281.019</ele>
        <time>2019-04-21T14:48:39Z</time>
      </trkpt>
      <trkpt lat="45.067" lon="5.38558">
        <ele>281.647</ele>
        <time>2019-04-21T14:48:43Z</time>
      </trkpt>
      <trkpt lat="45.067" lon="5.38553">
        <ele>281.569</ele>
        <time>2019-04-21T14:48:47Z</time>
      </trkpt>
      <trkpt lat="45.067" lon="5.38552">
        <ele>280.981</ele>
        <time>2019-04-21T14:48:48Z</time>
      </trkpt>
      <trkpt lat="45.06699" lon="5.38551">
        <ele>281.454</ele>
        <time>2019-04-21T14:48:49Z</time>
      </trkpt>
      <trkpt lat="45.06699" lon="5.38546">
        <ele>281.801</ele>
        <time>2019-04-21T14:48:52Z</time>
      </trkpt>
      <trkpt lat="45.067" lon="5.38536">
        <ele>281.348</ele>
        <time>2019-04-21T14:48:59Z</time>
      </trkpt>
      <trkpt lat="45.06701" lon="5.38532">
        <ele>282.349</ele>
        <time>2019-04-21T14:49:02Z</time>
      </trkpt>
      <trkpt lat="45.06702" lon="5.3853">
        <ele>282.284</ele>
        <time>2019-04-21T14:49:04Z</time>
      </trkpt>
      <trkpt lat="45.06704" lon="5.38527">
        <ele>282.356</ele>
        <time>2019-04-21T14:49:07Z</time>
      </trkpt>
      <trkpt lat="45.06709" lon="5.38517">
        <ele>283.912</ele>
        <time>2019-04-21T14:49:18Z</time>
      </trkpt>
      <trkpt lat="45.0671" lon="5.38514">
        <ele>283.599</ele>
        <time>2019-04-21T14:49:21Z</time>
      </trkpt>
      <trkpt lat="45.06711" lon="5.38513">
        <ele>283.33</ele>
        <time>2019-04-21T14:49:22Z</time>
      </trkpt>
      <trkpt lat="45.06712" lon="5.38511">
        <ele>283.828</ele>
        <time>2019-04-21T14:49:24Z</time>
      </trkpt>
      <trkpt lat="45.06711" lon="5.3851">
        <ele>283.884</ele>
        <time>2019-04-21T14:49:25Z</time>
      </trkpt>
      <trkpt lat="45.06711" lon="5.38507">
        <ele>282.181</ele>
        <time>2019-04-21T14:49:27Z</time>
      </trkpt>
      <trkpt lat="45.0671" lon="5.38493">
        <ele>281.146</ele>
        <time>2019-04-21T14:49:34Z</time>
      </trkpt>
      <trkpt lat="45.0671" lon="5.3849">
        <ele>281.795</ele>
        <time>2019-04-21T14:49:36Z</time>
      </trkpt>
      <trkpt lat="45.0671" lon="5.3849">
        <ele>281.795</ele>
        <time>2019-04-21T14:49:36Z</time>
      </trkpt>
      <trkpt lat="45.0671" lon="5.38489">
        <ele>281.817</ele>
        <time>2019-04-21T14:49:37Z</time>
      </trkpt>
      <trkpt lat="45.0671" lon="5.38487">
        <ele>282.433</ele>
        <time>2019-04-21T14:49:38Z</time>
      </trkpt>
      <trkpt lat="45.0671" lon="5.38486">
        <ele>283.692</ele>
        <time>2019-04-21T14:49:39Z</time>
      </trkpt>
      <trkpt lat="45.0671" lon="5.38483">
        <ele>285.618</ele>
        <time>2019-04-21T14:49:42Z</time>
      </trkpt>
      <trkpt lat="45.06714" lon="5.38481">
        <ele>286.241</ele>
        <time>2019-04-21T14:49:47Z</time>
      </trkpt>
      <trkpt lat="45.06714" lon="5.38479">
        <ele>286.096</ele>
        <time>2019-04-21T14:49:48Z</time>
      </trkpt>
      <trkpt lat="45.06714" lon="5.38475">
        <ele>282.898</ele>
        <time>2019-04-21T14:49:50Z</time>
      </trkpt>
      <trkpt lat="45.06715" lon="5.38474">
        <ele>282.981</ele>
        <time>2019-04-21T14:49:51Z</time>
      </trkpt>
      <trkpt lat="45.06715" lon="5.38472">
        <ele>283.086</ele>
        <time>2019-04-21T14:49:52Z</time>
      </trkpt>
      <trkpt lat="45.06717" lon="5.38466">
        <ele>282.796</ele>
        <time>2019-04-21T14:49:56Z</time>
      </trkpt>
      <trkpt lat="45.06717" lon="5.3846">
        <ele>282.065</ele>
        <time>2019-04-21T14:49:59Z</time>
      </trkpt>
      <trkpt lat="45.06718" lon="5.38457">
        <ele>283.033</ele>
        <time>2019-04-21T14:50:01Z</time>
      </trkpt>
      <trkpt lat="45.06719" lon="5.38455">
        <ele>283.297</ele>
        <time>2019-04-21T14:50:02Z</time>
      </trkpt>
      <trkpt lat="45.0672" lon="5.38452">
        <ele>282.805</ele>
        <time>2019-04-21T14:50:04Z</time>
      </trkpt>
      <trkpt lat="45.06721" lon="5.38447">
        <ele>280.013</ele>
        <time>2019-04-21T14:50:07Z</time>
      </trkpt>
      <trkpt lat="45.06721" lon="5.3844">
        <ele>280.196</ele>
        <time>2019-04-21T14:50:12Z</time>
      </trkpt>
      <trkpt lat="45.0672" lon="5.38436">
        <ele>280.403</ele>
        <time>2019-04-21T14:50:14Z</time>
      </trkpt>
      <trkpt lat="45.06719" lon="5.38427">
        <ele>280.293</ele>
        <time>2019-04-21T14:50:20Z</time>
      </trkpt>
      <trkpt lat="45.06719" lon="5.38424">
        <ele>279.708</ele>
        <time>2019-04-21T14:50:22Z</time>
      </trkpt>
      <trkpt lat="45.0672" lon="5.38419">
        <ele>278.998</ele>
        <time>2019-04-21T14:50:26Z</time>
      </trkpt>
      <trkpt lat="45.06719" lon="5.38416">
        <ele>278.48</ele>
        <time>2019-04-21T14:50:28Z</time>
      </trkpt>
      <trkpt lat="45.06719" lon="5.38412">
        <ele>278.551</ele>
        <time>2019-04-21T14:50:31Z</time>
      </trkpt>
      <trkpt lat="45.06719" lon="5.38411">
        <ele>278.415</ele>
        <time>2019-04-21T14:50:32Z</time>
      </trkpt>
      <trkpt lat="45.06717" lon="5.38404">
        <ele>277.151</ele>
        <time>2019-04-21T14:50:37Z</time>
      </trkpt>
      <trkpt lat="45.06716" lon="5.38401">
        <ele>277.293</ele>
        <time>2019-04-21T14:50:39Z</time>
      </trkpt>
      <trkpt lat="45.06716" lon="5.38401">
        <ele>277.293</ele>
        <time>2019-04-21T14:50:39Z</time>
      </trkpt>
      <trkpt lat="45.06716" lon="5.384">
        <ele>276.928</ele>
        <time>2019-04-21T14:50:40Z</time>
      </trkpt>
      <trkpt lat="45.06717" lon="5.38397">
        <ele>276.389</ele>
        <time>2019-04-21T14:50:42Z</time>
      </trkpt>
      <trkpt lat="45.06719" lon="5.38392">
        <ele>277.313</ele>
        <time>2019-04-21T14:50:46Z</time>
      </trkpt>
      <trkpt lat="45.06719" lon="5.38391">
        <ele>277.185</ele>
        <time>2019-04-21T14:50:47Z</time>
      </trkpt>
      <trkpt lat="45.06719" lon="5.38389">
        <ele>276.996</ele>
        <time>2019-04-21T14:50:48Z</time>
      </trkpt>
      <trkpt lat="45.06719" lon="5.38379">
        <ele>277.248</ele>
        <time>2019-04-21T14:50:55Z</time>
      </trkpt>
      <trkpt lat="45.06718" lon="5.38377">
        <ele>277.161</ele>
        <time>2019-04-21T14:50:57Z</time>
      </trkpt>
      <trkpt lat="45.06716" lon="5.38372">
        <ele>277.08</ele>
        <time>2019-04-21T14:51:01Z</time>
      </trkpt>
      <trkpt lat="45.06715" lon="5.38372">
        <ele>276.204</ele>
        <time>2019-04-21T14:51:02Z</time>
      </trkpt>
      <trkpt lat="45.06714" lon="5.38369">
        <ele>276.621</ele>
        <time>2019-04-21T14:51:05Z</time>
      </trkpt>
      <trkpt lat="45.06713" lon="5.38367">
        <ele>276.865</ele>
        <time>2019-04-21T14:51:07Z</time>
      </trkpt>
      <trkpt lat="45.06711" lon="5.38363">
        <ele>276.141</ele>
        <time>2019-04-21T14:51:11Z</time>
      </trkpt>
      <trkpt lat="45.06711" lon="5.38362">
        <ele>276.572</ele>
        <time>2019-04-21T14:51:12Z</time>
      </trkpt>
      <trkpt lat="45.0671" lon="5.38361">
        <ele>276.467</ele>
        <time>2019-04-21T14:51:13Z</time>
      </trkpt>
      <trkpt lat="45.0671" lon="5.3836">
        <ele>276.512</ele>
        <time>2019-04-21T14:51:14Z</time>
      </trkpt>
      <trkpt lat="45.06708" lon="5.38358">
        <ele>276.222</ele>
        <time>2019-04-21T14:51:17Z</time>
      </trkpt>
      <trkpt lat="45.06705" lon="5.38353">
        <ele>275.464</ele>
        <time>2019-04-21T14:51:22Z</time>
      </trkpt>
      <trkpt lat="45.06704" lon="5.38351">
        <ele>275.482</ele>
        <time>2019-04-21T14:51:23Z</time>
      </trkpt>
      <trkpt lat="45.06705" lon="5.38347">
        <ele>275.827</ele>
        <time>2019-04-21T14:51:26Z</time>
      </trkpt>
      <trkpt lat="45.06705" lon="5.38341">
        <ele>274.834</ele>
        <time>2019-04-21T14:51:30Z</time>
      </trkpt>
      <trkpt lat="45.06698" lon="5.38333">
        <ele>273.993</ele>
        <time>2019-04-21T14:51:37Z</time>
      </trkpt>
      <trkpt lat="45.06697" lon="5.38333">
        <ele>273.735</ele>
        <time>2019-04-21T14:51:38Z</time>
      </trkpt>
      <trkpt lat="45.06695" lon="5.3833">
        <ele>273.522</ele>
        <time>2019-04-21T14:51:41Z</time>
      </trkpt>
      <trkpt lat="45.06694" lon="5.38329">
        <ele>273.092</ele>
        <time>2019-04-21T14:51:42Z</time>
      </trkpt>
      <trkpt lat="45.06693" lon="5.38326">
        <ele>273.907</ele>
        <time>2019-04-21T14:51:45Z</time>
      </trkpt>
      <trkpt lat="45.06691" lon="5.38322">
        <ele>274.38</ele>
        <time>2019-04-21T14:51:49Z</time>
      </trkpt>
      <trkpt lat="45.0669" lon="5.38318">
        <ele>273.968</ele>
        <time>2019-04-21T14:51:52Z</time>
      </trkpt>
      <trkpt lat="45.0669" lon="5.38312">
        <ele>274.329</ele>
        <time>2019-04-21T14:51:56Z</time>
      </trkpt>
      <trkpt lat="45.06688" lon="5.38308">
        <ele>274.388</ele>
        <time>2019-04-21T14:51:59Z</time>
      </trkpt>
      <trkpt lat="45.06687" lon="5.38304">
        <ele>274.808</ele>
        <time>2019-04-21T14:52:02Z</time>
      </trkpt>
      <trkpt lat="45.06686" lon="5.38298">
        <ele>275.119</ele>
        <time>2019-04-21T14:52:07Z</time>
      </trkpt>
      <trkpt lat="45.06682" lon="5.38289">
        <ele>274.924</ele>
        <time>2019-04-21T14:52:15Z</time>
      </trkpt>
      <trkpt lat="45.06681" lon="5.38287">
        <ele>275.011</ele>
        <time>2019-04-21T14:52:17Z</time>
      </trkpt>
      <trkpt lat="45.0668" lon="5.38282">
        <ele>275.711</ele>
        <time>2019-04-21T14:52:21Z</time>
      </trkpt>
      <trkpt lat="45.0668" lon="5.3828">
        <ele>275.849</ele>
        <time>2019-04-21T14:52:22Z</time>
      </trkpt>
      <trkpt lat="45.0668" lon="5.38279">
        <ele>276.177</ele>
        <time>2019-04-21T14:52:23Z</time>
      </trkpt>
      <trkpt lat="45.06681" lon="5.38274">
        <ele>275.915</ele>
        <time>2019-04-21T14:52:27Z</time>
      </trkpt>
      <trkpt lat="45.06681" lon="5.3827">
        <ele>275.412</ele>
        <time>2019-04-21T14:52:30Z</time>
      </trkpt>
      <trkpt lat="45.06681" lon="5.38268">
        <ele>274.947</ele>
        <time>2019-04-21T14:52:32Z</time>
      </trkpt>
      <trkpt lat="45.0668" lon="5.38258">
        <ele>274.866</ele>
        <time>2019-04-21T14:52:42Z</time>
      </trkpt>
      <trkpt lat="45.0668" lon="5.38254">
        <ele>275.117</ele>
        <time>2019-04-21T14:52:45Z</time>
      </trkpt>
      <trkpt lat="45.06681" lon="5.38249">
        <ele>274.954</ele>
        <time>2019-04-21T14:52:49Z</time>
      </trkpt>
      <trkpt lat="45.06681" lon="5.38248">
        <ele>275.014</ele>
        <time>2019-04-21T14:52:50Z</time>
      </trkpt>
      <trkpt lat="45.06681" lon="5.38247">
        <ele>275.464</ele>
        <time>2019-04-21T14:52:51Z</time>
      </trkpt>
      <trkpt lat="45.06681" lon="5.38246">
        <ele>275.12</ele>
        <time>2019-04-21T14:52:52Z</time>
      </trkpt>
      <trkpt lat="45.06682" lon="5.38242">
        <ele>275.154</ele>
        <time>2019-04-21T14:52:54Z</time>
      </trkpt>
      <trkpt lat="45.06679" lon="5.3823">
        <ele>273.931</ele>
        <time>2019-04-21T14:53:01Z</time>
      </trkpt>
      <trkpt lat="45.06678" lon="5.38229">
        <ele>273.755</ele>
        <time>2019-04-21T14:53:02Z</time>
      </trkpt>
      <trkpt lat="45.06675" lon="5.38196">
        <ele>273.396</ele>
        <time>2019-04-21T14:53:25Z</time>
      </trkpt>
      <trkpt lat="45.06676" lon="5.38194">
        <ele>273.714</ele>
        <time>2019-04-21T14:53:27Z</time>
      </trkpt>
      <trkpt lat="45.06678" lon="5.3819">
        <ele>273.398</ele>
        <time>2019-04-21T14:53:31Z</time>
      </trkpt>
      <trkpt lat="45.06677" lon="5.38184">
        <ele>273.785</ele>
        <time>2019-04-21T14:53:37Z</time>
      </trkpt>
      <trkpt lat="45.06677" lon="5.38181">
        <ele>274.807</ele>
        <time>2019-04-21T14:53:39Z</time>
      </trkpt>
      <trkpt lat="45.06679" lon="5.38174">
        <ele>276.911</ele>
        <time>2019-04-21T14:53:46Z</time>
      </trkpt>
      <trkpt lat="45.06677" lon="5.38168">
        <ele>277.232</ele>
        <time>2019-04-21T14:53:51Z</time>
      </trkpt>
      <trkpt lat="45.06677" lon="5.38165">
        <ele>277.527</ele>
        <time>2019-04-21T14:53:53Z</time>
      </trkpt>
      <trkpt lat="45.06678" lon="5.38162">
        <ele>276.649</ele>
        <time>2019-04-21T14:53:55Z</time>
      </trkpt>
      <trkpt lat="45.06675" lon="5.38153">
        <ele>278.178</ele>
        <time>2019-04-21T14:54:01Z</time>
      </trkpt>
      <trkpt lat="45.06675" lon="5.38152">
        <ele>277.966</ele>
        <time>2019-04-21T14:54:02Z</time>
      </trkpt>
      <trkpt lat="45.06674" lon="5.38148">
        <ele>275.986</ele>
        <time>2019-04-21T14:54:05Z</time>
      </trkpt>
      <trkpt lat="45.06674" lon="5.3814">
        <ele>277.107</ele>
        <time>2019-04-21T14:54:11Z</time>
      </trkpt>
      <trkpt lat="45.06673" lon="5.38139">
        <ele>277.833</ele>
        <time>2019-04-21T14:54:13Z</time>
      </trkpt>
      <trkpt lat="45.06673" lon="5.38138">
        <ele>277.696</ele>
        <time>2019-04-21T14:54:14Z</time>
      </trkpt>
      <trkpt lat="45.06674" lon="5.38136">
        <ele>277.722</ele>
        <time>2019-04-21T14:54:16Z</time>
      </trkpt>
      <trkpt lat="45.06674" lon="5.38132">
        <ele>276.056</ele>
        <time>2019-04-21T14:54:19Z</time>
      </trkpt>
      <trkpt lat="45.06673" lon="5.38129">
        <ele>276.082</ele>
        <time>2019-04-21T14:54:21Z</time>
      </trkpt>
      <trkpt lat="45.06673" lon="5.38128">
        <ele>276.036</ele>
        <time>2019-04-21T14:54:22Z</time>
      </trkpt>
      <trkpt lat="45.06673" lon="5.38118">
        <ele>276.388</ele>
        <time>2019-04-21T14:54:30Z</time>
      </trkpt>
      <trkpt lat="45.06673" lon="5.38117">
        <ele>276.65</ele>
        <time>2019-04-21T14:54:31Z</time>
      </trkpt>
      <trkpt lat="45.06672" lon="5.38114">
        <ele>277.178</ele>
        <time>2019-04-21T14:54:34Z</time>
      </trkpt>
      <trkpt lat="45.06672" lon="5.38112">
        <ele>277.73</ele>
        <time>2019-04-21T14:54:36Z</time>
      </trkpt>
      <trkpt lat="45.06671" lon="5.38111">
        <ele>277.506</ele>
        <time>2019-04-21T14:54:37Z</time>
      </trkpt>
      <trkpt lat="45.06671" lon="5.38111">
        <ele>277.506</ele>
        <time>2019-04-21T14:54:37Z</time>
      </trkpt>
      <trkpt lat="45.06671" lon="5.38111">
        <ele>277.47</ele>
        <time>2019-04-21T14:54:38Z</time>
      </trkpt>
      <trkpt lat="45.06671" lon="5.38111">
        <ele>277.47</ele>
        <time>2019-04-21T14:54:38Z</time>
      </trkpt>
      <trkpt lat="45.06671" lon="5.3811">
        <ele>277.418</ele>
        <time>2019-04-21T14:54:39Z</time>
      </trkpt>
      <trkpt lat="45.06671" lon="5.3811">
        <ele>277.368</ele>
        <time>2019-04-21T14:54:40Z</time>
      </trkpt>
      <trkpt lat="45.06671" lon="5.3811">
        <ele>278.629</ele>
        <time>2019-04-21T14:54:44Z</time>
      </trkpt>
      <trkpt lat="45.06668" lon="5.38106">
        <ele>278.754</ele>
        <time>2019-04-21T14:54:45Z</time>
      </trkpt>
      <trkpt lat="45.06668" lon="5.38104">
        <ele>278.325</ele>
        <time>2019-04-21T14:54:47Z</time>
      </trkpt>
      <trkpt lat="45.06667" lon="5.38103">
        <ele>277.83</ele>
        <time>2019-04-21T14:54:48Z</time>
      </trkpt>
      <trkpt lat="45.06667" lon="5.38103">
        <ele>278.082</ele>
        <time>2019-04-21T14:54:49Z</time>
      </trkpt>
      <trkpt lat="45.06666" lon="5.381">
        <ele>279.124</ele>
        <time>2019-04-21T14:54:52Z</time>
      </trkpt>
      <trkpt lat="45.06666" lon="5.381">
        <ele>279.18</ele>
        <time>2019-04-21T14:54:53Z</time>
      </trkpt>
      <trkpt lat="45.06665" lon="5.38097">
        <ele>279.527</ele>
        <time>2019-04-21T14:54:57Z</time>
      </trkpt>
      <trkpt lat="45.06665" lon="5.38095">
        <ele>278.814</ele>
        <time>2019-04-21T14:54:59Z</time>
      </trkpt>
      <trkpt lat="45.06665" lon="5.38093">
        <ele>277.837</ele>
        <time>2019-04-21T14:55:01Z</time>
      </trkpt>
      <trkpt lat="45.06665" lon="5.38092">
        <ele>277.528</ele>
        <time>2019-04-21T14:55:02Z</time>
      </trkpt>
      <trkpt lat="45.06667" lon="5.38088">
        <ele>277.432</ele>
        <time>2019-04-21T14:55:06Z</time>
      </trkpt>
      <trkpt lat="45.06667" lon="5.38087">
        <ele>277.249</ele>
        <time>2019-04-21T14:55:07Z</time>
      </trkpt>
      <trkpt lat="45.0667" lon="5.3808">
        <ele>278.71</ele>
        <time>2019-04-21T14:55:14Z</time>
      </trkpt>
      <trkpt lat="45.0667" lon="5.38078">
        <ele>279.08</ele>
        <time>2019-04-21T14:55:16Z</time>
      </trkpt>
      <trkpt lat="45.06671" lon="5.38073">
        <ele>280.177</ele>
        <time>2019-04-21T14:55:21Z</time>
      </trkpt>
      <trkpt lat="45.06671" lon="5.38072">
        <ele>280.992</ele>
        <time>2019-04-21T14:55:23Z</time>
      </trkpt>
      <trkpt lat="45.06669" lon="5.38066">
        <ele>281.607</ele>
        <time>2019-04-21T14:55:29Z</time>
      </trkpt>
      <trkpt lat="45.06669" lon="5.38059">
        <ele>282.485</ele>
        <time>2019-04-21T14:55:34Z</time>
      </trkpt>
      <trkpt lat="45.06669" lon="5.38057">
        <ele>282.88</ele>
        <time>2019-04-21T14:55:35Z</time>
      </trkpt>
      <trkpt lat="45.06669" lon="5.38056">
        <ele>282.713</ele>
        <time>2019-04-21T14:55:36Z</time>
      </trkpt>
      <trkpt lat="45.06669" lon="5.38055">
        <ele>282.844</ele>
        <time>2019-04-21T14:55:37Z</time>
      </trkpt>
      <trkpt lat="45.06669" lon="5.38054">
        <ele>282.381</ele>
        <time>2019-04-21T14:55:38Z</time>
      </trkpt>
      <trkpt lat="45.06669" lon="5.38053">
        <ele>279.178</ele>
        <time>2019-04-21T14:55:39Z</time>
      </trkpt>
      <trkpt lat="45.06669" lon="5.38053">
        <ele>279.178</ele>
        <time>2019-04-21T14:55:39Z</time>
      </trkpt>
      <trkpt lat="45.06669" lon="5.38052">
        <ele>279.597</ele>
        <time>2019-04-21T14:55:40Z</time>
      </trkpt>
      <trkpt lat="45.06669" lon="5.38051">
        <ele>278.951</ele>
        <time>2019-04-21T14:55:41Z</time>
      </trkpt>
      <trkpt lat="45.06668" lon="5.38049">
        <ele>278.797</ele>
        <time>2019-04-21T14:55:44Z</time>
      </trkpt>
      <trkpt lat="45.06667" lon="5.38047">
        <ele>279.046</ele>
        <time>2019-04-21T14:55:46Z</time>
      </trkpt>
      <trkpt lat="45.06666" lon="5.38044">
        <ele>278.614</ele>
        <time>2019-04-21T14:55:49Z</time>
      </trkpt>
      <trkpt lat="45.06666" lon="5.38042">
        <ele>278.491</ele>
        <time>2019-04-21T14:55:51Z</time>
      </trkpt>
      <trkpt lat="45.06665" lon="5.3804">
        <ele>278.04</ele>
        <time>2019-04-21T14:55:53Z</time>
      </trkpt>
      <trkpt lat="45.0666" lon="5.38034">
        <ele>276.818</ele>
        <time>2019-04-21T14:56:01Z</time>
      </trkpt>
      <trkpt lat="45.06658" lon="5.3803">
        <ele>276.641</ele>
        <time>2019-04-21T14:56:04Z</time>
      </trkpt>
      <trkpt lat="45.06657" lon="5.38028">
        <ele>276.483</ele>
        <time>2019-04-21T14:56:06Z</time>
      </trkpt>
      <trkpt lat="45.06656" lon="5.38028">
        <ele>276.386</ele>
        <time>2019-04-21T14:56:07Z</time>
      </trkpt>
      <trkpt lat="45.06649" lon="5.38005">
        <ele>275.436</ele>
        <time>2019-04-21T14:56:24Z</time>
      </trkpt>
      <trkpt lat="45.06649" lon="5.38003">
        <ele>275.573</ele>
        <time>2019-04-21T14:56:26Z</time>
      </trkpt>
      <trkpt lat="45.06649" lon="5.37996">
        <ele>275.345</ele>
        <time>2019-04-21T14:56:31Z</time>
      </trkpt>
      <trkpt lat="45.06651" lon="5.37994">
        <ele>275.068</ele>
        <time>2019-04-21T14:56:36Z</time>
      </trkpt>
      <trkpt lat="45.06653" lon="5.3799">
        <ele>277.291</ele>
        <time>2019-04-21T14:56:41Z</time>
      </trkpt>
      <trkpt lat="45.06657" lon="5.37986">
        <ele>278.468</ele>
        <time>2019-04-21T14:56:47Z</time>
      </trkpt>
      <trkpt lat="45.06661" lon="5.37978">
        <ele>279.48</ele>
        <time>2019-04-21T14:56:55Z</time>
      </trkpt>
      <trkpt lat="45.06661" lon="5.37974">
        <ele>279.399</ele>
        <time>2019-04-21T14:56:58Z</time>
      </trkpt>
      <trkpt lat="45.0666" lon="5.37968">
        <ele>277.188</ele>
        <time>2019-04-21T14:57:02Z</time>
      </trkpt>
      <trkpt lat="45.06658" lon="5.37952">
        <ele>274.828</ele>
        <time>2019-04-21T14:57:15Z</time>
      </trkpt>
      <trkpt lat="45.06657" lon="5.37933">
        <ele>275.68</ele>
        <time>2019-04-21T14:57:31Z</time>
      </trkpt>
      <trkpt lat="45.06657" lon="5.37929">
        <ele>276.44</ele>
        <time>2019-04-21T14:57:34Z</time>
      </trkpt>
      <trkpt lat="45.06658" lon="5.37914">
        <ele>275.423</ele>
        <time>2019-04-21T14:57:48Z</time>
      </trkpt>
      <trkpt lat="45.06659" lon="5.3791">
        <ele>275.96</ele>
        <time>2019-04-21T14:57:51Z</time>
      </trkpt>
      <trkpt lat="45.06658" lon="5.37904">
        <ele>275.435</ele>
        <time>2019-04-21T14:57:55Z</time>
      </trkpt>
      <trkpt lat="45.06658" lon="5.37899">
        <ele>275.249</ele>
        <time>2019-04-21T14:57:58Z</time>
      </trkpt>
      <trkpt lat="45.06657" lon="5.37879">
        <ele>275.404</ele>
        <time>2019-04-21T14:58:11Z</time>
      </trkpt>
      <trkpt lat="45.06659" lon="5.37875">
        <ele>275.576</ele>
        <time>2019-04-21T14:58:14Z</time>
      </trkpt>
      <trkpt lat="45.06659" lon="5.37858">
        <ele>275.068</ele>
        <time>2019-04-21T14:58:27Z</time>
      </trkpt>
      <trkpt lat="45.06661" lon="5.37854">
        <ele>275.191</ele>
        <time>2019-04-21T14:58:30Z</time>
      </trkpt>
      <trkpt lat="45.06661" lon="5.37853">
        <ele>274.87</ele>
        <time>2019-04-21T14:58:31Z</time>
      </trkpt>
      <trkpt lat="45.0666" lon="5.37852">
        <ele>274.754</ele>
        <time>2019-04-21T14:58:32Z</time>
      </trkpt>
      <trkpt lat="45.06658" lon="5.37847">
        <ele>274.335</ele>
        <time>2019-04-21T14:58:36Z</time>
      </trkpt>
      <trkpt lat="45.06655" lon="5.3784">
        <ele>274.906</ele>
        <time>2019-04-21T14:58:41Z</time>
      </trkpt>
      <trkpt lat="45.06654" lon="5.37835">
        <ele>274.867</ele>
        <time>2019-04-21T14:58:45Z</time>
      </trkpt>
      <trkpt lat="45.06655" lon="5.3783">
        <ele>274.46</ele>
        <time>2019-04-21T14:58:48Z</time>
      </trkpt>
      <trkpt lat="45.06655" lon="5.37825">
        <ele>274.245</ele>
        <time>2019-04-21T14:58:51Z</time>
      </trkpt>
      <trkpt lat="45.06654" lon="5.37824">
        <ele>274.49</ele>
        <time>2019-04-21T14:58:52Z</time>
      </trkpt>
      <trkpt lat="45.06653" lon="5.37805">
        <ele>274.038</ele>
        <time>2019-04-21T14:59:06Z</time>
      </trkpt>
      <trkpt lat="45.0665" lon="5.37793">
        <ele>271.95</ele>
        <time>2019-04-21T14:59:14Z</time>
      </trkpt>
      <trkpt lat="45.06649" lon="5.37789">
        <ele>272.208</ele>
        <time>2019-04-21T14:59:17Z</time>
      </trkpt>
      <trkpt lat="45.06647" lon="5.37785">
        <ele>272.061</ele>
        <time>2019-04-21T14:59:20Z</time>
      </trkpt>
      <trkpt lat="45.06645" lon="5.37777">
        <ele>272.527</ele>
        <time>2019-04-21T14:59:26Z</time>
      </trkpt>
      <trkpt lat="45.06639" lon="5.3775">
        <ele>271.317</ele>
        <time>2019-04-21T14:59:44Z</time>
      </trkpt>
      <trkpt lat="45.06638" lon="5.37744">
        <ele>272.432</ele>
        <time>2019-04-21T14:59:48Z</time>
      </trkpt>
      <trkpt lat="45.06637" lon="5.3774">
        <ele>272.301</ele>
        <time>2019-04-21T14:59:51Z</time>
      </trkpt>
      <trkpt lat="45.06635" lon="5.37737">
        <ele>271.788</ele>
        <time>2019-04-21T14:59:54Z</time>
      </trkpt>
      <trkpt lat="45.06632" lon="5.37729">
        <ele>270.844</ele>
        <time>2019-04-21T15:00:00Z</time>
      </trkpt>
      <trkpt lat="45.06631" lon="5.37722">
        <ele>270.721</ele>
        <time>2019-04-21T15:00:05Z</time>
      </trkpt>
      <trkpt lat="45.06631" lon="5.37718">
        <ele>270.246</ele>
        <time>2019-04-21T15:00:08Z</time>
      </trkpt>
      <trkpt lat="45.06629" lon="5.37714">
        <ele>270.444</ele>
        <time>2019-04-21T15:00:11Z</time>
      </trkpt>
      <trkpt lat="45.06627" lon="5.3771">
        <ele>270.22</ele>
        <time>2019-04-21T15:00:14Z</time>
      </trkpt>
      <trkpt lat="45.06625" lon="5.37707">
        <ele>270.107</ele>
        <time>2019-04-21T15:00:17Z</time>
      </trkpt>
      <trkpt lat="45.06621" lon="5.37702">
        <ele>269.457</ele>
        <time>2019-04-21T15:00:20Z</time>
      </trkpt>
      <trkpt lat="45.06621" lon="5.37701">
        <ele>269.562</ele>
        <time>2019-04-21T15:00:21Z</time>
      </trkpt>
      <trkpt lat="45.06617" lon="5.37696">
        <ele>269.328</ele>
        <time>2019-04-21T15:00:27Z</time>
      </trkpt>
      <trkpt lat="45.06614" lon="5.37695">
        <ele>269.191</ele>
        <time>2019-04-21T15:00:30Z</time>
      </trkpt>
      <trkpt lat="45.0661" lon="5.37695">
        <ele>269.469</ele>
        <time>2019-04-21T15:00:32Z</time>
      </trkpt>
      <trkpt lat="45.06608" lon="5.37695">
        <ele>269.641</ele>
        <time>2019-04-21T15:00:36Z</time>
      </trkpt>
      <trkpt lat="45.06608" lon="5.37695">
        <ele>269.664</ele>
        <time>2019-04-21T15:00:37Z</time>
      </trkpt>
      <trkpt lat="45.06606" lon="5.37695">
        <ele>269.348</ele>
        <time>2019-04-21T15:00:38Z</time>
      </trkpt>
      <trkpt lat="45.06604" lon="5.37695">
        <ele>269.223</ele>
        <time>2019-04-21T15:00:42Z</time>
      </trkpt>
      <trkpt lat="45.06604" lon="5.37695">
        <ele>269.223</ele>
        <time>2019-04-21T15:00:42Z</time>
      </trkpt>
      <trkpt lat="45.06603" lon="5.37695">
        <ele>269.149</ele>
        <time>2019-04-21T15:00:43Z</time>
      </trkpt>
      <trkpt lat="45.06603" lon="5.37695">
        <ele>269.149</ele>
        <time>2019-04-21T15:00:43Z</time>
      </trkpt>
      <trkpt lat="45.06603" lon="5.37695">
        <ele>269.134</ele>
        <time>2019-04-21T15:00:44Z</time>
      </trkpt>
      <trkpt lat="45.06603" lon="5.37695">
        <ele>269.162</ele>
        <time>2019-04-21T15:00:45Z</time>
      </trkpt>
      <trkpt lat="45.06602" lon="5.37695">
        <ele>269.116</ele>
        <time>2019-04-21T15:00:46Z</time>
      </trkpt>
      <trkpt lat="45.06602" lon="5.37695">
        <ele>269.13</ele>
        <time>2019-04-21T15:00:47Z</time>
      </trkpt>
      <trkpt lat="45.06602" lon="5.37695">
        <ele>269.163</ele>
        <time>2019-04-21T15:00:50Z</time>
      </trkpt>
      <trkpt lat="45.06601" lon="5.37695">
        <ele>269.36</ele>
        <time>2019-04-21T15:00:51Z</time>
      </trkpt>
      <trkpt lat="45.06601" lon="5.37694">
        <ele>268.672</ele>
        <time>2019-04-21T15:00:53Z</time>
      </trkpt>
      <trkpt lat="45.06601" lon="5.37694">
        <ele>268.671</ele>
        <time>2019-04-21T15:01:54Z</time>
      </trkpt>
      <trkpt lat="45.06602" lon="5.37693">
        <ele>268.587</ele>
        <time>2019-04-21T15:01:55Z</time>
      </trkpt>
      <trkpt lat="45.06602" lon="5.37693">
        <ele>268.588</ele>
        <time>2019-04-21T15:01:56Z</time>
      </trkpt>
      <trkpt lat="45.06602" lon="5.37693">
        <ele>268.586</ele>
        <time>2019-04-21T15:01:57Z</time>
      </trkpt>
      <trkpt lat="45.06602" lon="5.37693">
        <ele>268.736</ele>
        <time>2019-04-21T15:01:58Z</time>
      </trkpt>
      <trkpt lat="45.06601" lon="5.37693">
        <ele>268.768</ele>
        <time>2019-04-21T15:02:00Z</time>
      </trkpt>
      <trkpt lat="45.06601" lon="5.37693">
        <ele>268.802</ele>
        <time>2019-04-21T15:02:02Z</time>
      </trkpt>
      <trkpt lat="45.066" lon="5.37693">
        <ele>268.22</ele>
        <time>2019-04-21T15:02:03Z</time>
      </trkpt>
      <trkpt lat="45.066" lon="5.37692">
        <ele>268.195</ele>
        <time>2019-04-21T15:02:05Z</time>
      </trkpt>
      <trkpt lat="45.06601" lon="5.37688">
        <ele>269.093</ele>
        <time>2019-04-21T15:02:09Z</time>
      </trkpt>
      <trkpt lat="45.06603" lon="5.37684">
        <ele>269.765</ele>
        <time>2019-04-21T15:02:14Z</time>
      </trkpt>
      <trkpt lat="45.06603" lon="5.37683">
        <ele>269.516</ele>
        <time>2019-04-21T15:02:15Z</time>
      </trkpt>
      <trkpt lat="45.06602" lon="5.37678">
        <ele>269.765</ele>
        <time>2019-04-21T15:02:19Z</time>
      </trkpt>
      <trkpt lat="45.06601" lon="5.37674">
        <ele>270.471</ele>
        <time>2019-04-21T15:02:22Z</time>
      </trkpt>
      <trkpt lat="45.06601" lon="5.3767">
        <ele>269.79</ele>
        <time>2019-04-21T15:02:25Z</time>
      </trkpt>
      <trkpt lat="45.066" lon="5.37666">
        <ele>269.764</ele>
        <time>2019-04-21T15:02:28Z</time>
      </trkpt>
      <trkpt lat="45.06597" lon="5.37662">
        <ele>270.705</ele>
        <time>2019-04-21T15:02:31Z</time>
      </trkpt>
      <trkpt lat="45.06593" lon="5.37659">
        <ele>270.603</ele>
        <time>2019-04-21T15:02:33Z</time>
      </trkpt>
      <trkpt lat="45.06591" lon="5.37654">
        <ele>270.579</ele>
        <time>2019-04-21T15:02:36Z</time>
      </trkpt>
      <trkpt lat="45.06585" lon="5.37647">
        <ele>269.779</ele>
        <time>2019-04-21T15:02:41Z</time>
      </trkpt>
      <trkpt lat="45.06583" lon="5.37641">
        <ele>269.286</ele>
        <time>2019-04-21T15:02:45Z</time>
      </trkpt>
      <trkpt lat="45.06582" lon="5.37637">
        <ele>269.028</ele>
        <time>2019-04-21T15:02:48Z</time>
      </trkpt>
      <trkpt lat="45.0658" lon="5.37632">
        <ele>269.522</ele>
        <time>2019-04-21T15:02:51Z</time>
      </trkpt>
      <trkpt lat="45.06574" lon="5.37624">
        <ele>268.809</ele>
        <time>2019-04-21T15:02:57Z</time>
      </trkpt>
      <trkpt lat="45.06571" lon="5.37619">
        <ele>268.675</ele>
        <time>2019-04-21T15:03:01Z</time>
      </trkpt>
      <trkpt lat="45.06568" lon="5.37616">
        <ele>268.223</ele>
        <time>2019-04-21T15:03:04Z</time>
      </trkpt>
      <trkpt lat="45.06564" lon="5.37613">
        <ele>268.187</ele>
        <time>2019-04-21T15:03:06Z</time>
      </trkpt>
      <trkpt lat="45.06547" lon="5.37595">
        <ele>268.625</ele>
        <time>2019-04-21T15:03:18Z</time>
      </trkpt>
      <trkpt lat="45.06546" lon="5.37594">
        <ele>268.561</ele>
        <time>2019-04-21T15:03:19Z</time>
      </trkpt>
      <trkpt lat="45.06544" lon="5.3759">
        <ele>268.794</ele>
        <time>2019-04-21T15:03:22Z</time>
      </trkpt>
      <trkpt lat="45.06541" lon="5.37584">
        <ele>269.178</ele>
        <time>2019-04-21T15:03:26Z</time>
      </trkpt>
      <trkpt lat="45.06532" lon="5.37574">
        <ele>268.974</ele>
        <time>2019-04-21T15:03:34Z</time>
      </trkpt>
      <trkpt lat="45.06529" lon="5.37568">
        <ele>268.797</ele>
        <time>2019-04-21T15:03:39Z</time>
      </trkpt>
      <trkpt lat="45.0653" lon="5.37564">
        <ele>269.37</ele>
        <time>2019-04-21T15:03:42Z</time>
      </trkpt>
      <trkpt lat="45.06528" lon="5.37559">
        <ele>269.325</ele>
        <time>2019-04-21T15:03:45Z</time>
      </trkpt>
      <trkpt lat="45.06525" lon="5.37556">
        <ele>268.827</ele>
        <time>2019-04-21T15:03:47Z</time>
      </trkpt>
      <trkpt lat="45.06518" lon="5.37552">
        <ele>268.892</ele>
        <time>2019-04-21T15:03:51Z</time>
      </trkpt>
      <trkpt lat="45.06516" lon="5.37548">
        <ele>269.013</ele>
        <time>2019-04-21T15:03:54Z</time>
      </trkpt>
      <trkpt lat="45.06513" lon="5.37534">
        <ele>268.692</ele>
        <time>2019-04-21T15:04:03Z</time>
      </trkpt>
      <trkpt lat="45.06508" lon="5.37525">
        <ele>268.6</ele>
        <time>2019-04-21T15:04:09Z</time>
      </trkpt>
      <trkpt lat="45.06504" lon="5.37521">
        <ele>268.802</ele>
        <time>2019-04-21T15:04:12Z</time>
      </trkpt>
      <trkpt lat="45.06502" lon="5.37516">
        <ele>268.527</ele>
        <time>2019-04-21T15:04:15Z</time>
      </trkpt>
      <trkpt lat="45.06499" lon="5.37509">
        <ele>268.645</ele>
        <time>2019-04-21T15:04:19Z</time>
      </trkpt>
      <trkpt lat="45.06496" lon="5.37503">
        <ele>268.266</ele>
        <time>2019-04-21T15:04:23Z</time>
      </trkpt>
      <trkpt lat="45.06494" lon="5.375">
        <ele>268.697</ele>
        <time>2019-04-21T15:04:25Z</time>
      </trkpt>
      <trkpt lat="45.06494" lon="5.37494">
        <ele>269.043</ele>
        <time>2019-04-21T15:04:28Z</time>
      </trkpt>
      <trkpt lat="45.06493" lon="5.37489">
        <ele>269.881</ele>
        <time>2019-04-21T15:04:31Z</time>
      </trkpt>
      <trkpt lat="45.06491" lon="5.37485">
        <ele>270.227</ele>
        <time>2019-04-21T15:04:33Z</time>
      </trkpt>
      <trkpt lat="45.0648" lon="5.37474">
        <ele>269.14</ele>
        <time>2019-04-21T15:04:40Z</time>
      </trkpt>
      <trkpt lat="45.06477" lon="5.37472">
        <ele>268.97</ele>
        <time>2019-04-21T15:04:42Z</time>
      </trkpt>
      <trkpt lat="45.06473" lon="5.37468">
        <ele>268.991</ele>
        <time>2019-04-21T15:04:45Z</time>
      </trkpt>
      <trkpt lat="45.06467" lon="5.37462">
        <ele>268.904</ele>
        <time>2019-04-21T15:04:49Z</time>
      </trkpt>
      <trkpt lat="45.06466" lon="5.37459">
        <ele>268.55</ele>
        <time>2019-04-21T15:04:51Z</time>
      </trkpt>
      <trkpt lat="45.06463" lon="5.37454">
        <ele>268.676</ele>
        <time>2019-04-21T15:04:54Z</time>
      </trkpt>
      <trkpt lat="45.06458" lon="5.3745">
        <ele>268.689</ele>
        <time>2019-04-21T15:04:57Z</time>
      </trkpt>
      <trkpt lat="45.06456" lon="5.37449">
        <ele>268.299</ele>
        <time>2019-04-21T15:04:59Z</time>
      </trkpt>
      <trkpt lat="45.06453" lon="5.37447">
        <ele>268.158</ele>
        <time>2019-04-21T15:05:03Z</time>
      </trkpt>
      <trkpt lat="45.06451" lon="5.37444">
        <ele>268.01</ele>
        <time>2019-04-21T15:05:05Z</time>
      </trkpt>
      <trkpt lat="45.0645" lon="5.37443">
        <ele>267.998</ele>
        <time>2019-04-21T15:05:06Z</time>
      </trkpt>
      <trkpt lat="45.06436" lon="5.37432">
        <ele>267.557</ele>
        <time>2019-04-21T15:05:18Z</time>
      </trkpt>
      <trkpt lat="45.06431" lon="5.37425">
        <ele>267.636</ele>
        <time>2019-04-21T15:05:23Z</time>
      </trkpt>
      <trkpt lat="45.06421" lon="5.37415">
        <ele>268.862</ele>
        <time>2019-04-21T15:05:31Z</time>
      </trkpt>
      <trkpt lat="45.06421" lon="5.37411">
        <ele>268.518</ele>
        <time>2019-04-21T15:05:34Z</time>
      </trkpt>
      <trkpt lat="45.0642" lon="5.37407">
        <ele>268.675</ele>
        <time>2019-04-21T15:05:37Z</time>
      </trkpt>
      <trkpt lat="45.0642" lon="5.37403">
        <ele>269.317</ele>
        <time>2019-04-21T15:05:40Z</time>
      </trkpt>
      <trkpt lat="45.06421" lon="5.37395">
        <ele>268.714</ele>
        <time>2019-04-21T15:05:45Z</time>
      </trkpt>
      <trkpt lat="45.06419" lon="5.3739">
        <ele>268.718</ele>
        <time>2019-04-21T15:05:48Z</time>
      </trkpt>
      <trkpt lat="45.06409" lon="5.37378">
        <ele>268.27</ele>
        <time>2019-04-21T15:05:56Z</time>
      </trkpt>
      <trkpt lat="45.064" lon="5.37372">
        <ele>267.958</ele>
        <time>2019-04-21T15:06:02Z</time>
      </trkpt>
      <trkpt lat="45.06397" lon="5.37368">
        <ele>267.937</ele>
        <time>2019-04-21T15:06:05Z</time>
      </trkpt>
      <trkpt lat="45.06394" lon="5.37361">
        <ele>269.275</ele>
        <time>2019-04-21T15:06:11Z</time>
      </trkpt>
      <trkpt lat="45.06391" lon="5.37357">
        <ele>268.654</ele>
        <time>2019-04-21T15:06:14Z</time>
      </trkpt>
      <trkpt lat="45.06384" lon="5.37353">
        <ele>267.832</ele>
        <time>2019-04-21T15:06:19Z</time>
      </trkpt>
      <trkpt lat="45.06379" lon="5.37351">
        <ele>267.292</ele>
        <time>2019-04-21T15:06:22Z</time>
      </trkpt>
      <trkpt lat="45.06377" lon="5.37349">
        <ele>267.095</ele>
        <time>2019-04-21T15:06:25Z</time>
      </trkpt>
      <trkpt lat="45.06375" lon="5.37345">
        <ele>267.493</ele>
        <time>2019-04-21T15:06:28Z</time>
      </trkpt>
      <trkpt lat="45.06374" lon="5.37343">
        <ele>267.818</ele>
        <time>2019-04-21T15:06:29Z</time>
      </trkpt>
      <trkpt lat="45.06374" lon="5.37342">
        <ele>267.869</ele>
        <time>2019-04-21T15:06:30Z</time>
      </trkpt>
      <trkpt lat="45.06372" lon="5.37338">
        <ele>267.449</ele>
        <time>2019-04-21T15:06:33Z</time>
      </trkpt>
      <trkpt lat="45.06372" lon="5.37336">
        <ele>267.193</ele>
        <time>2019-04-21T15:06:34Z</time>
      </trkpt>
      <trkpt lat="45.06373" lon="5.37328">
        <ele>266.356</ele>
        <time>2019-04-21T15:06:38Z</time>
      </trkpt>
      <trkpt lat="45.06374" lon="5.37319">
        <ele>266.126</ele>
        <time>2019-04-21T15:06:41Z</time>
      </trkpt>
      <trkpt lat="45.06373" lon="5.37311">
        <ele>266.24</ele>
        <time>2019-04-21T15:06:44Z</time>
      </trkpt>
      <trkpt lat="45.06374" lon="5.37303">
        <ele>266.609</ele>
        <time>2019-04-21T15:06:47Z</time>
      </trkpt>
      <trkpt lat="45.06373" lon="5.37298">
        <ele>266.807</ele>
        <time>2019-04-21T15:06:49Z</time>
      </trkpt>
      <trkpt lat="45.0636" lon="5.37263">
        <ele>266.411</ele>
        <time>2019-04-21T15:07:07Z</time>
      </trkpt>
      <trkpt lat="45.06359" lon="5.37252">
        <ele>266.75</ele>
        <time>2019-04-21T15:07:14Z</time>
      </trkpt>
      <trkpt lat="45.06358" lon="5.37231">
        <ele>265.622</ele>
        <time>2019-04-21T15:07:22Z</time>
      </trkpt>
      <trkpt lat="45.06357" lon="5.37214">
        <ele>264.741</ele>
        <time>2019-04-21T15:07:35Z</time>
      </trkpt>
      <trkpt lat="45.06358" lon="5.37207">
        <ele>264.817</ele>
        <time>2019-04-21T15:07:42Z</time>
      </trkpt>
      <trkpt lat="45.06358" lon="5.37207">
        <ele>264.817</ele>
        <time>2019-04-21T15:07:42Z</time>
      </trkpt>
      <trkpt lat="45.06357" lon="5.37206">
        <ele>264.637</ele>
        <time>2019-04-21T15:07:43Z</time>
      </trkpt>
      <trkpt lat="45.06358" lon="5.37202">
        <ele>264.982</ele>
        <time>2019-04-21T15:07:48Z</time>
      </trkpt>
      <trkpt lat="45.06358" lon="5.37198">
        <ele>265.054</ele>
        <time>2019-04-21T15:07:53Z</time>
      </trkpt>
      <trkpt lat="45.06358" lon="5.37197">
        <ele>265.036</ele>
        <time>2019-04-21T15:07:54Z</time>
      </trkpt>
      <trkpt lat="45.06358" lon="5.37196">
        <ele>264.959</ele>
        <time>2019-04-21T15:07:55Z</time>
      </trkpt>
      <trkpt lat="45.06358" lon="5.37195">
        <ele>264.819</ele>
        <time>2019-04-21T15:07:56Z</time>
      </trkpt>
      <trkpt lat="45.06362" lon="5.37184">
        <ele>264.685</ele>
        <time>2019-04-21T15:08:02Z</time>
      </trkpt>
      <trkpt lat="45.06364" lon="5.37173">
        <ele>264.404</ele>
        <time>2019-04-21T15:08:08Z</time>
      </trkpt>
      <trkpt lat="45.06364" lon="5.37166">
        <ele>263.424</ele>
        <time>2019-04-21T15:08:12Z</time>
      </trkpt>
      <trkpt lat="45.06365" lon="5.37149">
        <ele>263.46</ele>
        <time>2019-04-21T15:08:20Z</time>
      </trkpt>
      <trkpt lat="45.06362" lon="5.371">
        <ele>262.443</ele>
        <time>2019-04-21T15:08:46Z</time>
      </trkpt>
      <trkpt lat="45.06366" lon="5.37085">
        <ele>262.502</ele>
        <time>2019-04-21T15:08:58Z</time>
      </trkpt>
      <trkpt lat="45.06377" lon="5.37067">
        <ele>262.807</ele>
        <time>2019-04-21T15:09:13Z</time>
      </trkpt>
      <trkpt lat="45.06383" lon="5.37056">
        <ele>262.415</ele>
        <time>2019-04-21T15:09:23Z</time>
      </trkpt>
      <trkpt lat="45.06391" lon="5.37041">
        <ele>262.244</ele>
        <time>2019-04-21T15:09:35Z</time>
      </trkpt>
      <trkpt lat="45.06393" lon="5.37036">
        <ele>262.06</ele>
        <time>2019-04-21T15:09:38Z</time>
      </trkpt>
      <trkpt lat="45.06394" lon="5.37025">
        <ele>260.056</ele>
        <time>2019-04-21T15:09:43Z</time>
      </trkpt>
      <trkpt lat="45.06394" lon="5.37018">
        <ele>260.157</ele>
        <time>2019-04-21T15:09:46Z</time>
      </trkpt>
      <trkpt lat="45.06394" lon="5.37015">
        <ele>260.101</ele>
        <time>2019-04-21T15:09:48Z</time>
      </trkpt>
      <trkpt lat="45.06394" lon="5.37013">
        <ele>260.309</ele>
        <time>2019-04-21T15:09:49Z</time>
      </trkpt>
      <trkpt lat="45.06394" lon="5.37009">
        <ele>260.088</ele>
        <time>2019-04-21T15:09:51Z</time>
      </trkpt>
      <trkpt lat="45.06394" lon="5.36997">
        <ele>261.11</ele>
        <time>2019-04-21T15:10:00Z</time>
      </trkpt>
      <trkpt lat="45.06394" lon="5.36997">
        <ele>260.149</ele>
        <time>2019-04-21T15:10:02Z</time>
      </trkpt>
      <trkpt lat="45.06394" lon="5.36997">
        <ele>258.635</ele>
        <time>2019-04-21T15:10:18Z</time>
      </trkpt>
      <trkpt lat="45.06394" lon="5.36991">
        <ele>258.156</ele>
        <time>2019-04-21T15:10:19Z</time>
      </trkpt>
      <trkpt lat="45.06394" lon="5.36991">
        <ele>258.243</ele>
        <time>2019-04-21T15:10:20Z</time>
      </trkpt>
      <trkpt lat="45.06394" lon="5.36991">
        <ele>258.031</ele>
        <time>2019-04-21T15:10:27Z</time>
      </trkpt>
      <trkpt lat="45.06394" lon="5.3699">
        <ele>257.975</ele>
        <time>2019-04-21T15:10:28Z</time>
      </trkpt>
      <trkpt lat="45.06394" lon="5.3699">
        <ele>257.975</ele>
        <time>2019-04-21T15:10:28Z</time>
      </trkpt>
      <trkpt lat="45.06395" lon="5.36991">
        <ele>258.741</ele>
        <time>2019-04-21T15:10:29Z</time>
      </trkpt>
      <trkpt lat="45.06395" lon="5.36991">
        <ele>258.287</ele>
        <time>2019-04-21T15:10:30Z</time>
      </trkpt>
      <trkpt lat="45.06395" lon="5.36991">
        <ele>258.287</ele>
        <time>2019-04-21T15:10:30Z</time>
      </trkpt>
      <trkpt lat="45.06395" lon="5.36991">
        <ele>258.556</ele>
        <time>2019-04-21T15:10:31Z</time>
      </trkpt>
      <trkpt lat="45.06396" lon="5.36989">
        <ele>259.006</ele>
        <time>2019-04-21T15:10:34Z</time>
      </trkpt>
      <trkpt lat="45.06396" lon="5.36989">
        <ele>258.225</ele>
        <time>2019-04-21T15:10:45Z</time>
      </trkpt>
      <trkpt lat="45.06396" lon="5.36986">
        <ele>257.969</ele>
        <time>2019-04-21T15:10:46Z</time>
      </trkpt>
      <trkpt lat="45.06395" lon="5.36986">
        <ele>258.138</ele>
        <time>2019-04-21T15:10:47Z</time>
      </trkpt>
      <trkpt lat="45.06395" lon="5.36986">
        <ele>258.138</ele>
        <time>2019-04-21T15:10:48Z</time>
      </trkpt>
      <trkpt lat="45.06395" lon="5.36986">
        <ele>257.957</ele>
        <time>2019-04-21T15:10:50Z</time>
      </trkpt>
      <trkpt lat="45.06395" lon="5.36985">
        <ele>258.234</ele>
        <time>2019-04-21T15:10:51Z</time>
      </trkpt>
      <trkpt lat="45.06395" lon="5.36985">
        <ele>257.423</ele>
        <time>2019-04-21T15:10:52Z</time>
      </trkpt>
      <trkpt lat="45.06395" lon="5.36985">
        <ele>257.028</ele>
        <time>2019-04-21T15:10:53Z</time>
      </trkpt>
      <trkpt lat="45.06395" lon="5.36985">
        <ele>256.879</ele>
        <time>2019-04-21T15:10:54Z</time>
      </trkpt>
      <trkpt lat="45.06396" lon="5.36984">
        <ele>254.643</ele>
        <time>2019-04-21T15:10:55Z</time>
      </trkpt>
      <trkpt lat="45.06396" lon="5.36984">
        <ele>254.643</ele>
        <time>2019-04-21T15:10:55Z</time>
      </trkpt>
      <trkpt lat="45.06396" lon="5.36984">
        <ele>254.957</ele>
        <time>2019-04-21T15:10:56Z</time>
      </trkpt>
      <trkpt lat="45.06396" lon="5.36984">
        <ele>254.947</ele>
        <time>2019-04-21T15:10:58Z</time>
      </trkpt>
      <trkpt lat="45.06395" lon="5.36983">
        <ele>255.433</ele>
        <time>2019-04-21T15:10:59Z</time>
      </trkpt>
      <trkpt lat="45.06395" lon="5.36983">
        <ele>255.595</ele>
        <time>2019-04-21T15:11:00Z</time>
      </trkpt>
      <trkpt lat="45.06395" lon="5.36983">
        <ele>255.407</ele>
        <time>2019-04-21T15:11:02Z</time>
      </trkpt>
      <trkpt lat="45.06396" lon="5.36983">
        <ele>255.39</ele>
        <time>2019-04-21T15:11:03Z</time>
      </trkpt>
      <trkpt lat="45.06397" lon="5.36984">
        <ele>255.961</ele>
        <time>2019-04-21T15:11:08Z</time>
      </trkpt>
      <trkpt lat="45.06397" lon="5.36984">
        <ele>256.076</ele>
        <time>2019-04-21T15:11:48Z</time>
      </trkpt>
      <trkpt lat="45.064" lon="5.36983">
        <ele>256.235</ele>
        <time>2019-04-21T15:11:49Z</time>
      </trkpt>
      <trkpt lat="45.064" lon="5.36983">
        <ele>256.073</ele>
        <time>2019-04-21T15:11:50Z</time>
      </trkpt>
      <trkpt lat="45.064" lon="5.36983">
        <ele>256.636</ele>
        <time>2019-04-21T15:11:58Z</time>
      </trkpt>
      <trkpt lat="45.06398" lon="5.36982">
        <ele>256.606</ele>
        <time>2019-04-21T15:11:59Z</time>
      </trkpt>
      <trkpt lat="45.06398" lon="5.36982">
        <ele>256.815</ele>
        <time>2019-04-21T15:12:00Z</time>
      </trkpt>
      <trkpt lat="45.06398" lon="5.36982">
        <ele>256.806</ele>
        <time>2019-04-21T15:12:12Z</time>
      </trkpt>
      <trkpt lat="45.06397" lon="5.3698">
        <ele>257.147</ele>
        <time>2019-04-21T15:12:13Z</time>
      </trkpt>
      <trkpt lat="45.06396" lon="5.3698">
        <ele>256.404</ele>
        <time>2019-04-21T15:12:16Z</time>
      </trkpt>
      <trkpt lat="45.06396" lon="5.3698">
        <ele>256.184</ele>
        <time>2019-04-21T15:12:18Z</time>
      </trkpt>
      <trkpt lat="45.06396" lon="5.3698">
        <ele>255.153</ele>
        <time>2019-04-21T15:12:45Z</time>
      </trkpt>
      <trkpt lat="45.06398" lon="5.36977">
        <ele>254.6</ele>
        <time>2019-04-21T15:12:46Z</time>
      </trkpt>
      <trkpt lat="45.06398" lon="5.36977">
        <ele>254.6</ele>
        <time>2019-04-21T15:12:46Z</time>
      </trkpt>
      <trkpt lat="45.06398" lon="5.36977">
        <ele>256.096</ele>
        <time>2019-04-21T15:12:47Z</time>
      </trkpt>
      <trkpt lat="45.06398" lon="5.36977">
        <ele>256.594</ele>
        <time>2019-04-21T15:13:17Z</time>
      </trkpt>
      <trkpt lat="45.06397" lon="5.36977">
        <ele>256.318</ele>
        <time>2019-04-21T15:13:18Z</time>
      </trkpt>
      <trkpt lat="45.06397" lon="5.36977">
        <ele>256.318</ele>
        <time>2019-04-21T15:13:18Z</time>
      </trkpt>
      <trkpt lat="45.06397" lon="5.36977">
        <ele>255.219</ele>
        <time>2019-04-21T15:13:19Z</time>
      </trkpt>
      <trkpt lat="45.06397" lon="5.36976">
        <ele>255.475</ele>
        <time>2019-04-21T15:13:21Z</time>
      </trkpt>
      <trkpt lat="45.06399" lon="5.36975">
        <ele>255.157</ele>
        <time>2019-04-21T15:13:23Z</time>
      </trkpt>
      <trkpt lat="45.064" lon="5.36975">
        <ele>253.591</ele>
        <time>2019-04-21T15:13:25Z</time>
      </trkpt>
      <trkpt lat="45.064" lon="5.36975">
        <ele>253.591</ele>
        <time>2019-04-21T15:13:25Z</time>
      </trkpt>
      <trkpt lat="45.064" lon="5.36975">
        <ele>253.055</ele>
        <time>2019-04-21T15:13:26Z</time>
      </trkpt>
      <trkpt lat="45.064" lon="5.36975">
        <ele>253.055</ele>
        <time>2019-04-21T15:13:26Z</time>
      </trkpt>
      <trkpt lat="45.06401" lon="5.36977">
        <ele>253.249</ele>
        <time>2019-04-21T15:13:27Z</time>
      </trkpt>
      <trkpt lat="45.06401" lon="5.36977">
        <ele>253.249</ele>
        <time>2019-04-21T15:13:27Z</time>
      </trkpt>
      <trkpt lat="45.06401" lon="5.36977">
        <ele>253.204</ele>
        <time>2019-04-21T15:13:28Z</time>
      </trkpt>
      <trkpt lat="45.06401" lon="5.36977">
        <ele>253.527</ele>
        <time>2019-04-21T15:13:29Z</time>
      </trkpt>
      <trkpt lat="45.064" lon="5.36977">
        <ele>252.676</ele>
        <time>2019-04-21T15:13:30Z</time>
      </trkpt>
      <trkpt lat="45.06397" lon="5.36978">
        <ele>252.753</ele>
        <time>2019-04-21T15:13:32Z</time>
      </trkpt>
      <trkpt lat="45.06396" lon="5.36978">
        <ele>252.597</ele>
        <time>2019-04-21T15:13:33Z</time>
      </trkpt>
      <trkpt lat="45.06396" lon="5.36978">
        <ele>253.108</ele>
        <time>2019-04-21T15:13:35Z</time>
      </trkpt>
      <trkpt lat="45.06396" lon="5.36978">
        <ele>252.598</ele>
        <time>2019-04-21T15:13:37Z</time>
      </trkpt>
      <trkpt lat="45.06397" lon="5.36978">
        <ele>252.448</ele>
        <time>2019-04-21T15:13:38Z</time>
      </trkpt>
      <trkpt lat="45.06396" lon="5.36978">
        <ele>252.941</ele>
        <time>2019-04-21T15:13:39Z</time>
      </trkpt>
      <trkpt lat="45.06393" lon="5.36979">
        <ele>253.365</ele>
        <time>2019-04-21T15:13:42Z</time>
      </trkpt>
      <trkpt lat="45.06394" lon="5.3698">
        <ele>253.308</ele>
        <time>2019-04-21T15:13:43Z</time>
      </trkpt>
      <trkpt lat="45.06395" lon="5.36982">
        <ele>253.417</ele>
        <time>2019-04-21T15:13:44Z</time>
      </trkpt>
      <trkpt lat="45.06397" lon="5.36986">
        <ele>252.339</ele>
        <time>2019-04-21T15:13:46Z</time>
      </trkpt>
      <trkpt lat="45.06397" lon="5.36986">
        <ele>251.907</ele>
        <time>2019-04-21T15:13:47Z</time>
      </trkpt>
      <trkpt lat="45.06398" lon="5.36986">
        <ele>251.907</ele>
        <time>2019-04-21T15:13:48Z</time>
      </trkpt>
      <trkpt lat="45.06398" lon="5.36986">
        <ele>251.689</ele>
        <time>2019-04-21T15:13:49Z</time>
      </trkpt>
      <trkpt lat="45.06398" lon="5.36986">
        <ele>251.262</ele>
        <time>2019-04-21T15:14:03Z</time>
      </trkpt>
      <trkpt lat="45.06399" lon="5.36984">
        <ele>252.225</ele>
        <time>2019-04-21T15:14:04Z</time>
      </trkpt>
      <trkpt lat="45.06399" lon="5.36981">
        <ele>250.862</ele>
        <time>2019-04-21T15:14:07Z</time>
      </trkpt>
      <trkpt lat="45.064" lon="5.36978">
        <ele>251.198</ele>
        <time>2019-04-21T15:14:09Z</time>
      </trkpt>
      <trkpt lat="45.06402" lon="5.36967">
        <ele>254.461</ele>
        <time>2019-04-21T15:14:14Z</time>
      </trkpt>
      <trkpt lat="45.06404" lon="5.36956">
        <ele>255.341</ele>
        <time>2019-04-21T15:14:20Z</time>
      </trkpt>
      <trkpt lat="45.06405" lon="5.36951">
        <ele>255.412</ele>
        <time>2019-04-21T15:14:23Z</time>
      </trkpt>
      <trkpt lat="45.06405" lon="5.36945">
        <ele>255.588</ele>
        <time>2019-04-21T15:14:27Z</time>
      </trkpt>
      <trkpt lat="45.06406" lon="5.36942">
        <ele>255.572</ele>
        <time>2019-04-21T15:14:30Z</time>
      </trkpt>
      <trkpt lat="45.06406" lon="5.3694">
        <ele>255.027</ele>
        <time>2019-04-21T15:14:32Z</time>
      </trkpt>
      <trkpt lat="45.06405" lon="5.36938">
        <ele>254.948</ele>
        <time>2019-04-21T15:14:33Z</time>
      </trkpt>
      <trkpt lat="45.06405" lon="5.36922">
        <ele>255.827</ele>
        <time>2019-04-21T15:14:39Z</time>
      </trkpt>
      <trkpt lat="45.06405" lon="5.36918">
        <ele>256.316</ele>
        <time>2019-04-21T15:14:41Z</time>
      </trkpt>
      <trkpt lat="45.06404" lon="5.36913">
        <ele>256.525</ele>
        <time>2019-04-21T15:14:44Z</time>
      </trkpt>
      <trkpt lat="45.06403" lon="5.3691">
        <ele>256.76</ele>
        <time>2019-04-21T15:14:46Z</time>
      </trkpt>
      <trkpt lat="45.06403" lon="5.36906">
        <ele>257.682</ele>
        <time>2019-04-21T15:14:49Z</time>
      </trkpt>
      <trkpt lat="45.06404" lon="5.369">
        <ele>258.243</ele>
        <time>2019-04-21T15:14:53Z</time>
      </trkpt>
      <trkpt lat="45.06405" lon="5.36895">
        <ele>257.565</ele>
        <time>2019-04-21T15:14:57Z</time>
      </trkpt>
      <trkpt lat="45.06406" lon="5.36891">
        <ele>257.662</ele>
        <time>2019-04-21T15:15:00Z</time>
      </trkpt>
      <trkpt lat="45.06406" lon="5.36889">
        <ele>257.569</ele>
        <time>2019-04-21T15:15:02Z</time>
      </trkpt>
      <trkpt lat="45.06425" lon="5.36813">
        <ele>255.538</ele>
        <time>2019-04-21T15:15:35Z</time>
      </trkpt>
      <trkpt lat="45.06427" lon="5.36805">
        <ele>255.383</ele>
        <time>2019-04-21T15:15:40Z</time>
      </trkpt>
      <trkpt lat="45.06429" lon="5.36802">
        <ele>255.376</ele>
        <time>2019-04-21T15:15:42Z</time>
      </trkpt>
      <trkpt lat="45.06431" lon="5.36791">
        <ele>255.684</ele>
        <time>2019-04-21T15:15:50Z</time>
      </trkpt>
      <trkpt lat="45.06432" lon="5.36778">
        <ele>256.449</ele>
        <time>2019-04-21T15:16:00Z</time>
      </trkpt>
      <trkpt lat="45.06433" lon="5.36765">
        <ele>254.223</ele>
        <time>2019-04-21T15:16:12Z</time>
      </trkpt>
      <trkpt lat="45.06431" lon="5.36755">
        <ele>253.578</ele>
        <time>2019-04-21T15:16:20Z</time>
      </trkpt>
      <trkpt lat="45.0643" lon="5.36754">
        <ele>253.266</ele>
        <time>2019-04-21T15:16:23Z</time>
      </trkpt>
      <trkpt lat="45.06432" lon="5.36753">
        <ele>253.361</ele>
        <time>2019-04-21T15:16:25Z</time>
      </trkpt>
      <trkpt lat="45.06439" lon="5.36747">
        <ele>252.714</ele>
        <time>2019-04-21T15:16:31Z</time>
      </trkpt>
      <trkpt lat="45.06445" lon="5.36746">
        <ele>252.674</ele>
        <time>2019-04-21T15:16:35Z</time>
      </trkpt>
      <trkpt lat="45.06449" lon="5.36746">
        <ele>252.443</ele>
        <time>2019-04-21T15:16:38Z</time>
      </trkpt>
      <trkpt lat="45.06451" lon="5.36746">
        <ele>252.643</ele>
        <time>2019-04-21T15:16:39Z</time>
      </trkpt>
      <trkpt lat="45.06456" lon="5.36744">
        <ele>252.932</ele>
        <time>2019-04-21T15:16:42Z</time>
      </trkpt>
      <trkpt lat="45.06462" lon="5.3674">
        <ele>252.197</ele>
        <time>2019-04-21T15:16:48Z</time>
      </trkpt>
      <trkpt lat="45.06464" lon="5.36737">
        <ele>251.204</ele>
        <time>2019-04-21T15:16:52Z</time>
      </trkpt>
      <trkpt lat="45.06466" lon="5.36734">
        <ele>250.805</ele>
        <time>2019-04-21T15:16:55Z</time>
      </trkpt>
      <trkpt lat="45.0647" lon="5.36731">
        <ele>250.919</ele>
        <time>2019-04-21T15:16:58Z</time>
      </trkpt>
      <trkpt lat="45.06472" lon="5.36727">
        <ele>250.794</ele>
        <time>2019-04-21T15:17:01Z</time>
      </trkpt>
      <trkpt lat="45.06477" lon="5.36718">
        <ele>249.787</ele>
        <time>2019-04-21T15:17:07Z</time>
      </trkpt>
      <trkpt lat="45.06481" lon="5.367">
        <ele>249.903</ele>
        <time>2019-04-21T15:17:17Z</time>
      </trkpt>
      <trkpt lat="45.06482" lon="5.36696">
        <ele>249.868</ele>
        <time>2019-04-21T15:17:19Z</time>
      </trkpt>
      <trkpt lat="45.06483" lon="5.36689">
        <ele>249.586</ele>
        <time>2019-04-21T15:17:23Z</time>
      </trkpt>
      <trkpt lat="45.06481" lon="5.36677">
        <ele>249.265</ele>
        <time>2019-04-21T15:17:29Z</time>
      </trkpt>
      <trkpt lat="45.06481" lon="5.36675">
        <ele>249.231</ele>
        <time>2019-04-21T15:17:31Z</time>
      </trkpt>
      <trkpt lat="45.0648" lon="5.36673">
        <ele>249.572</ele>
        <time>2019-04-21T15:17:33Z</time>
      </trkpt>
      <trkpt lat="45.06468" lon="5.36631">
        <ele>249.818</ele>
        <time>2019-04-21T15:17:57Z</time>
      </trkpt>
      <trkpt lat="45.06464" lon="5.36616">
        <ele>249.985</ele>
        <time>2019-04-21T15:18:04Z</time>
      </trkpt>
      <trkpt lat="45.06455" lon="5.36572">
        <ele>248.475</ele>
        <time>2019-04-21T15:18:32Z</time>
      </trkpt>
      <trkpt lat="45.06454" lon="5.36565">
        <ele>249.1</ele>
        <time>2019-04-21T15:18:35Z</time>
      </trkpt>
      <trkpt lat="45.06453" lon="5.36561">
        <ele>249.294</ele>
        <time>2019-04-21T15:18:37Z</time>
      </trkpt>
      <trkpt lat="45.06451" lon="5.36556">
        <ele>249.785</ele>
        <time>2019-04-21T15:18:40Z</time>
      </trkpt>
      <trkpt lat="45.06448" lon="5.36544">
        <ele>250.039</ele>
        <time>2019-04-21T15:18:47Z</time>
      </trkpt>
      <trkpt lat="45.06448" lon="5.36542">
        <ele>250.298</ele>
        <time>2019-04-21T15:18:48Z</time>
      </trkpt>
      <trkpt lat="45.06436" lon="5.36491">
        <ele>251.966</ele>
        <time>2019-04-21T15:19:20Z</time>
      </trkpt>
      <trkpt lat="45.06436" lon="5.36489">
        <ele>251.77</ele>
        <time>2019-04-21T15:19:22Z</time>
      </trkpt>
      <trkpt lat="45.06426" lon="5.36438">
        <ele>253.832</ele>
        <time>2019-04-21T15:19:55Z</time>
      </trkpt>
      <trkpt lat="45.06431" lon="5.3643">
        <ele>255.05</ele>
        <time>2019-04-21T15:20:01Z</time>
      </trkpt>
      <trkpt lat="45.06431" lon="5.36429">
        <ele>255.557</ele>
        <time>2019-04-21T15:20:02Z</time>
      </trkpt>
      <trkpt lat="45.06432" lon="5.36419">
        <ele>256.324</ele>
        <time>2019-04-21T15:20:08Z</time>
      </trkpt>
      <trkpt lat="45.06434" lon="5.36415">
        <ele>256.096</ele>
        <time>2019-04-21T15:20:11Z</time>
      </trkpt>
      <trkpt lat="45.06438" lon="5.36411">
        <ele>256.244</ele>
        <time>2019-04-21T15:20:15Z</time>
      </trkpt>
      <trkpt lat="45.06447" lon="5.36402">
        <ele>256.649</ele>
        <time>2019-04-21T15:20:25Z</time>
      </trkpt>
      <trkpt lat="45.06459" lon="5.36394">
        <ele>256.943</ele>
        <time>2019-04-21T15:20:36Z</time>
      </trkpt>
      <trkpt lat="45.06463" lon="5.36391">
        <ele>257.318</ele>
        <time>2019-04-21T15:20:39Z</time>
      </trkpt>
      <trkpt lat="45.0647" lon="5.36384">
        <ele>256.979</ele>
        <time>2019-04-21T15:20:45Z</time>
      </trkpt>
      <trkpt lat="45.06486" lon="5.36352">
        <ele>255.838</ele>
        <time>2019-04-21T15:21:07Z</time>
      </trkpt>
      <trkpt lat="45.06491" lon="5.3634">
        <ele>256.644</ele>
        <time>2019-04-21T15:21:16Z</time>
      </trkpt>
      <trkpt lat="45.06497" lon="5.36329">
        <ele>257.625</ele>
        <time>2019-04-21T15:21:24Z</time>
      </trkpt>
      <trkpt lat="45.06497" lon="5.36325">
        <ele>257.673</ele>
        <time>2019-04-21T15:21:27Z</time>
      </trkpt>
      <trkpt lat="45.06499" lon="5.3631">
        <ele>257.714</ele>
        <time>2019-04-21T15:21:36Z</time>
      </trkpt>
      <trkpt lat="45.06502" lon="5.36305">
        <ele>258.063</ele>
        <time>2019-04-21T15:21:39Z</time>
      </trkpt>
      <trkpt lat="45.06505" lon="5.36298">
        <ele>258.792</ele>
        <time>2019-04-21T15:21:44Z</time>
      </trkpt>
      <trkpt lat="45.06506" lon="5.3629">
        <ele>259.041</ele>
        <time>2019-04-21T15:21:48Z</time>
      </trkpt>
      <trkpt lat="45.06506" lon="5.36286">
        <ele>258.959</ele>
        <time>2019-04-21T15:21:51Z</time>
      </trkpt>
      <trkpt lat="45.06507" lon="5.36285">
        <ele>259.332</ele>
        <time>2019-04-21T15:21:52Z</time>
      </trkpt>
      <trkpt lat="45.06508" lon="5.3628">
        <ele>259.924</ele>
        <time>2019-04-21T15:21:55Z</time>
      </trkpt>
      <trkpt lat="45.06509" lon="5.36279">
        <ele>260.086</ele>
        <time>2019-04-21T15:21:56Z</time>
      </trkpt>
      <trkpt lat="45.0651" lon="5.36278">
        <ele>259.766</ele>
        <time>2019-04-21T15:21:57Z</time>
      </trkpt>
      <trkpt lat="45.06514" lon="5.36271">
        <ele>260.013</ele>
        <time>2019-04-21T15:22:02Z</time>
      </trkpt>
      <trkpt lat="45.06514" lon="5.36265">
        <ele>261.054</ele>
        <time>2019-04-21T15:22:05Z</time>
      </trkpt>
      <trkpt lat="45.06514" lon="5.36259">
        <ele>261.369</ele>
        <time>2019-04-21T15:22:08Z</time>
      </trkpt>
      <trkpt lat="45.06515" lon="5.3625">
        <ele>261.671</ele>
        <time>2019-04-21T15:22:12Z</time>
      </trkpt>
      <trkpt lat="45.06516" lon="5.36209">
        <ele>263.756</ele>
        <time>2019-04-21T15:22:34Z</time>
      </trkpt>
      <trkpt lat="45.06516" lon="5.36207">
        <ele>263.864</ele>
        <time>2019-04-21T15:22:35Z</time>
      </trkpt>
      <trkpt lat="45.06516" lon="5.36179">
        <ele>263.723</ele>
        <time>2019-04-21T15:22:47Z</time>
      </trkpt>
      <trkpt lat="45.06518" lon="5.36171">
        <ele>263.02</ele>
        <time>2019-04-21T15:22:53Z</time>
      </trkpt>
      <trkpt lat="45.06519" lon="5.3617">
        <ele>263.319</ele>
        <time>2019-04-21T15:22:55Z</time>
      </trkpt>
      <trkpt lat="45.0652" lon="5.36169">
        <ele>263.392</ele>
        <time>2019-04-21T15:22:56Z</time>
      </trkpt>
      <trkpt lat="45.06524" lon="5.36163">
        <ele>263.157</ele>
        <time>2019-04-21T15:23:01Z</time>
      </trkpt>
      <trkpt lat="45.06525" lon="5.3616">
        <ele>262.975</ele>
        <time>2019-04-21T15:23:04Z</time>
      </trkpt>
      <trkpt lat="45.06525" lon="5.36159">
        <ele>262.935</ele>
        <time>2019-04-21T15:23:05Z</time>
      </trkpt>
      <trkpt lat="45.06526" lon="5.36159">
        <ele>263.294</ele>
        <time>2019-04-21T15:23:08Z</time>
      </trkpt>
      <trkpt lat="45.06526" lon="5.36159">
        <ele>263.325</ele>
        <time>2019-04-21T15:23:41Z</time>
      </trkpt>
      <trkpt lat="45.06528" lon="5.3616">
        <ele>263.472</ele>
        <time>2019-04-21T15:23:42Z</time>
      </trkpt>
      <trkpt lat="45.06528" lon="5.3616">
        <ele>263.448</ele>
        <time>2019-04-21T15:23:43Z</time>
      </trkpt>
      <trkpt lat="45.06528" lon="5.3616">
        <ele>262.895</ele>
        <time>2019-04-21T15:23:49Z</time>
      </trkpt>
      <trkpt lat="45.06528" lon="5.36161">
        <ele>262.195</ele>
        <time>2019-04-21T15:23:50Z</time>
      </trkpt>
      <trkpt lat="45.06528" lon="5.36161">
        <ele>262.984</ele>
        <time>2019-04-21T15:23:52Z</time>
      </trkpt>
      <trkpt lat="45.06528" lon="5.36161">
        <ele>262.22</ele>
        <time>2019-04-21T15:23:54Z</time>
      </trkpt>
      <trkpt lat="45.0653" lon="5.3616">
        <ele>261.964</ele>
        <time>2019-04-21T15:23:55Z</time>
      </trkpt>
      <trkpt lat="45.06531" lon="5.36161">
        <ele>260.675</ele>
        <time>2019-04-21T15:23:57Z</time>
      </trkpt>
      <trkpt lat="45.06531" lon="5.36161">
        <ele>259.83</ele>
        <time>2019-04-21T15:23:58Z</time>
      </trkpt>
      <trkpt lat="45.06531" lon="5.36161">
        <ele>260.233</ele>
        <time>2019-04-21T15:24:03Z</time>
      </trkpt>
      <trkpt lat="45.06532" lon="5.3616">
        <ele>259.752</ele>
        <time>2019-04-21T15:24:04Z</time>
      </trkpt>
      <trkpt lat="45.06533" lon="5.36159">
        <ele>259.428</ele>
        <time>2019-04-21T15:24:05Z</time>
      </trkpt>
      <trkpt lat="45.06532" lon="5.36155">
        <ele>259.477</ele>
        <time>2019-04-21T15:24:09Z</time>
      </trkpt>
      <trkpt lat="45.06529" lon="5.36156">
        <ele>260.39</ele>
        <time>2019-04-21T15:24:11Z</time>
      </trkpt>
      <trkpt lat="45.06529" lon="5.36157">
        <ele>260.763</ele>
        <time>2019-04-21T15:24:12Z</time>
      </trkpt>
      <trkpt lat="45.06526" lon="5.36157">
        <ele>261.162</ele>
        <time>2019-04-21T15:24:18Z</time>
      </trkpt>
      <trkpt lat="45.06526" lon="5.36156">
        <ele>260.51</ele>
        <time>2019-04-21T15:24:19Z</time>
      </trkpt>
      <trkpt lat="45.06525" lon="5.36155">
        <ele>259.73</ele>
        <time>2019-04-21T15:24:22Z</time>
      </trkpt>
      <trkpt lat="45.06525" lon="5.36155">
        <ele>259.826</ele>
        <time>2019-04-21T15:24:23Z</time>
      </trkpt>
      <trkpt lat="45.06525" lon="5.36155">
        <ele>260.163</ele>
        <time>2019-04-21T15:24:24Z</time>
      </trkpt>
      <trkpt lat="45.06525" lon="5.36155">
        <ele>260.163</ele>
        <time>2019-04-21T15:24:24Z</time>
      </trkpt>
      <trkpt lat="45.06524" lon="5.36156">
        <ele>260.202</ele>
        <time>2019-04-21T15:24:25Z</time>
      </trkpt>
      <trkpt lat="45.06522" lon="5.36157">
        <ele>260.058</ele>
        <time>2019-04-21T15:24:27Z</time>
      </trkpt>
      <trkpt lat="45.06522" lon="5.36157">
        <ele>260.671</ele>
        <time>2019-04-21T15:24:28Z</time>
      </trkpt>
      <trkpt lat="45.06522" lon="5.36157">
        <ele>260.493</ele>
        <time>2019-04-21T15:24:29Z</time>
      </trkpt>
      <trkpt lat="45.06522" lon="5.36159">
        <ele>260.228</ele>
        <time>2019-04-21T15:24:30Z</time>
      </trkpt>
      <trkpt lat="45.06522" lon="5.36159">
        <ele>260.228</ele>
        <time>2019-04-21T15:24:30Z</time>
      </trkpt>
      <trkpt lat="45.06522" lon="5.36159">
        <ele>260.042</ele>
        <time>2019-04-21T15:24:31Z</time>
      </trkpt>
      <trkpt lat="45.06523" lon="5.36158">
        <ele>258.954</ele>
        <time>2019-04-21T15:24:35Z</time>
      </trkpt>
      <trkpt lat="45.06523" lon="5.36157">
        <ele>259.725</ele>
        <time>2019-04-21T15:24:37Z</time>
      </trkpt>
      <trkpt lat="45.06523" lon="5.36157">
        <ele>258.915</ele>
        <time>2019-04-21T15:24:39Z</time>
      </trkpt>
      <trkpt lat="45.0652" lon="5.36156">
        <ele>259.683</ele>
        <time>2019-04-21T15:24:40Z</time>
      </trkpt>
      <trkpt lat="45.0652" lon="5.36157">
        <ele>259.98</ele>
        <time>2019-04-21T15:24:41Z</time>
      </trkpt>
      <trkpt lat="45.06518" lon="5.36161">
        <ele>260.014</ele>
        <time>2019-04-21T15:24:43Z</time>
      </trkpt>
      <trkpt lat="45.06517" lon="5.36158">
        <ele>262.418</ele>
        <time>2019-04-21T15:24:47Z</time>
      </trkpt>
      <trkpt lat="45.0652" lon="5.36158">
        <ele>263.216</ele>
        <time>2019-04-21T15:24:50Z</time>
      </trkpt>
      <trkpt lat="45.06521" lon="5.3616">
        <ele>262.556</ele>
        <time>2019-04-21T15:24:51Z</time>
      </trkpt>
      <trkpt lat="45.06521" lon="5.36161">
        <ele>262.424</ele>
        <time>2019-04-21T15:24:53Z</time>
      </trkpt>
      <trkpt lat="45.06521" lon="5.36161">
        <ele>262.424</ele>
        <time>2019-04-21T15:24:53Z</time>
      </trkpt>
      <trkpt lat="45.06522" lon="5.36162">
        <ele>261.488</ele>
        <time>2019-04-21T15:24:54Z</time>
      </trkpt>
      <trkpt lat="45.06525" lon="5.36159">
        <ele>260.166</ele>
        <time>2019-04-21T15:24:58Z</time>
      </trkpt>
      <trkpt lat="45.06525" lon="5.36158">
        <ele>259.701</ele>
        <time>2019-04-21T15:24:59Z</time>
      </trkpt>
      <trkpt lat="45.06526" lon="5.36157">
        <ele>259.434</ele>
        <time>2019-04-21T15:25:00Z</time>
      </trkpt>
      <trkpt lat="45.0653" lon="5.36152">
        <ele>260.188</ele>
        <time>2019-04-21T15:25:04Z</time>
      </trkpt>
      <trkpt lat="45.06534" lon="5.36133">
        <ele>262.626</ele>
        <time>2019-04-21T15:25:14Z</time>
      </trkpt>
      <trkpt lat="45.06539" lon="5.36125">
        <ele>261.779</ele>
        <time>2019-04-21T15:25:18Z</time>
      </trkpt>
      <trkpt lat="45.06543" lon="5.36119">
        <ele>259.91</ele>
        <time>2019-04-21T15:25:23Z</time>
      </trkpt>
      <trkpt lat="45.06544" lon="5.36115">
        <ele>261.288</ele>
        <time>2019-04-21T15:25:27Z</time>
      </trkpt>
      <trkpt lat="45.06544" lon="5.36115">
        <ele>261.288</ele>
        <time>2019-04-21T15:25:27Z</time>
      </trkpt>
      <trkpt lat="45.06545" lon="5.36115">
        <ele>261.611</ele>
        <time>2019-04-21T15:25:28Z</time>
      </trkpt>
      <trkpt lat="45.06545" lon="5.36115">
        <ele>261.595</ele>
        <time>2019-04-21T15:25:29Z</time>
      </trkpt>
      <trkpt lat="45.06545" lon="5.36115">
        <ele>261.595</ele>
        <time>2019-04-21T15:25:29Z</time>
      </trkpt>
      <trkpt lat="45.06545" lon="5.36114">
        <ele>261.074</ele>
        <time>2019-04-21T15:25:30Z</time>
      </trkpt>
      <trkpt lat="45.06545" lon="5.3611">
        <ele>261.375</ele>
        <time>2019-04-21T15:25:33Z</time>
      </trkpt>
      <trkpt lat="45.06549" lon="5.36092">
        <ele>261.483</ele>
        <time>2019-04-21T15:25:42Z</time>
      </trkpt>
      <trkpt lat="45.06549" lon="5.36085">
        <ele>261.136</ele>
        <time>2019-04-21T15:25:45Z</time>
      </trkpt>
      <trkpt lat="45.06546" lon="5.36068">
        <ele>260.807</ele>
        <time>2019-04-21T15:25:52Z</time>
      </trkpt>
      <trkpt lat="45.06534" lon="5.36029">
        <ele>258.712</ele>
        <time>2019-04-21T15:26:23Z</time>
      </trkpt>
      <trkpt lat="45.06533" lon="5.36025">
        <ele>257.606</ele>
        <time>2019-04-21T15:26:25Z</time>
      </trkpt>
      <trkpt lat="45.06523" lon="5.35988">
        <ele>257.041</ele>
        <time>2019-04-21T15:26:43Z</time>
      </trkpt>
      <trkpt lat="45.06524" lon="5.35981">
        <ele>255.021</ele>
        <time>2019-04-21T15:26:49Z</time>
      </trkpt>
      <trkpt lat="45.06525" lon="5.3597">
        <ele>254.653</ele>
        <time>2019-04-21T15:26:55Z</time>
      </trkpt>
      <trkpt lat="45.06525" lon="5.35962">
        <ele>254.113</ele>
        <time>2019-04-21T15:26:58Z</time>
      </trkpt>
      <trkpt lat="45.06525" lon="5.35953">
        <ele>253.559</ele>
        <time>2019-04-21T15:27:02Z</time>
      </trkpt>
      <trkpt lat="45.06521" lon="5.35945">
        <ele>252.706</ele>
        <time>2019-04-21T15:27:07Z</time>
      </trkpt>
      <trkpt lat="45.06514" lon="5.35933">
        <ele>252.866</ele>
        <time>2019-04-21T15:27:14Z</time>
      </trkpt>
      <trkpt lat="45.06514" lon="5.35933">
        <ele>252.898</ele>
        <time>2019-04-21T15:27:15Z</time>
      </trkpt>
      <trkpt lat="45.06514" lon="5.35933">
        <ele>252.898</ele>
        <time>2019-04-21T15:27:15Z</time>
      </trkpt>
      <trkpt lat="45.06514" lon="5.35934">
        <ele>252.881</ele>
        <time>2019-04-21T15:27:16Z</time>
      </trkpt>
      <trkpt lat="45.06512" lon="5.3593">
        <ele>252.681</ele>
        <time>2019-04-21T15:27:18Z</time>
      </trkpt>
      <trkpt lat="45.0651" lon="5.35936">
        <ele>252.14</ele>
        <time>2019-04-21T15:27:22Z</time>
      </trkpt>
      <trkpt lat="45.06507" lon="5.35937">
        <ele>251.868</ele>
        <time>2019-04-21T15:27:25Z</time>
      </trkpt>
      <trkpt lat="45.0649" lon="5.35923">
        <ele>251.879</ele>
        <time>2019-04-21T15:27:36Z</time>
      </trkpt>
      <trkpt lat="45.06486" lon="5.35919">
        <ele>251.38</ele>
        <time>2019-04-21T15:27:40Z</time>
      </trkpt>
      <trkpt lat="45.06481" lon="5.35919">
        <ele>250.888</ele>
        <time>2019-04-21T15:27:44Z</time>
      </trkpt>
      <trkpt lat="45.06478" lon="5.35914">
        <ele>250.811</ele>
        <time>2019-04-21T15:27:46Z</time>
      </trkpt>
      <trkpt lat="45.06471" lon="5.35893">
        <ele>248.794</ele>
        <time>2019-04-21T15:27:58Z</time>
      </trkpt>
      <trkpt lat="45.06466" lon="5.35878">
        <ele>247.447</ele>
        <time>2019-04-21T15:28:11Z</time>
      </trkpt>
      <trkpt lat="45.06461" lon="5.35849">
        <ele>247.073</ele>
        <time>2019-04-21T15:28:25Z</time>
      </trkpt>
      <trkpt lat="45.06459" lon="5.35846">
        <ele>247.414</ele>
        <time>2019-04-21T15:28:29Z</time>
      </trkpt>
      <trkpt lat="45.06453" lon="5.35808">
        <ele>245.351</ele>
        <time>2019-04-21T15:28:53Z</time>
      </trkpt>
      <trkpt lat="45.0645" lon="5.35801">
        <ele>245.189</ele>
        <time>2019-04-21T15:28:59Z</time>
      </trkpt>
      <trkpt lat="45.06449" lon="5.35801">
        <ele>245.461</ele>
        <time>2019-04-21T15:29:00Z</time>
      </trkpt>
      <trkpt lat="45.06448" lon="5.35797">
        <ele>245.165</ele>
        <time>2019-04-21T15:29:03Z</time>
      </trkpt>
      <trkpt lat="45.06448" lon="5.35782">
        <ele>244.815</ele>
        <time>2019-04-21T15:29:08Z</time>
      </trkpt>
      <trkpt lat="45.06448" lon="5.35776">
        <ele>244.834</ele>
        <time>2019-04-21T15:29:10Z</time>
      </trkpt>
      <trkpt lat="45.06444" lon="5.35761">
        <ele>244.487</ele>
        <time>2019-04-21T15:29:16Z</time>
      </trkpt>
      <trkpt lat="45.06443" lon="5.35756">
        <ele>244.136</ele>
        <time>2019-04-21T15:29:20Z</time>
      </trkpt>
      <trkpt lat="45.06438" lon="5.35741">
        <ele>244.225</ele>
        <time>2019-04-21T15:29:34Z</time>
      </trkpt>
      <trkpt lat="45.06435" lon="5.35729">
        <ele>244.053</ele>
        <time>2019-04-21T15:29:42Z</time>
      </trkpt>
      <trkpt lat="45.06436" lon="5.35725">
        <ele>243.626</ele>
        <time>2019-04-21T15:29:45Z</time>
      </trkpt>
      <trkpt lat="45.06435" lon="5.3572">
        <ele>243.861</ele>
        <time>2019-04-21T15:29:50Z</time>
      </trkpt>
      <trkpt lat="45.06436" lon="5.35716">
        <ele>243.613</ele>
        <time>2019-04-21T15:29:54Z</time>
      </trkpt>
      <trkpt lat="45.06437" lon="5.35711">
        <ele>242.758</ele>
        <time>2019-04-21T15:29:57Z</time>
      </trkpt>
      <trkpt lat="45.06435" lon="5.357">
        <ele>242.752</ele>
        <time>2019-04-21T15:30:05Z</time>
      </trkpt>
      <trkpt lat="45.06437" lon="5.35687">
        <ele>242.727</ele>
        <time>2019-04-21T15:30:15Z</time>
      </trkpt>
      <trkpt lat="45.06439" lon="5.3568">
        <ele>241.54</ele>
        <time>2019-04-21T15:30:21Z</time>
      </trkpt>
      <trkpt lat="45.06439" lon="5.35668">
        <ele>241.333</ele>
        <time>2019-04-21T15:30:28Z</time>
      </trkpt>
      <trkpt lat="45.06441" lon="5.3566">
        <ele>241.424</ele>
        <time>2019-04-21T15:30:35Z</time>
      </trkpt>
      <trkpt lat="45.06443" lon="5.35656">
        <ele>241.146</ele>
        <time>2019-04-21T15:30:38Z</time>
      </trkpt>
      <trkpt lat="45.06443" lon="5.35648">
        <ele>241.045</ele>
        <time>2019-04-21T15:30:42Z</time>
      </trkpt>
      <trkpt lat="45.06441" lon="5.35643">
        <ele>241.167</ele>
        <time>2019-04-21T15:30:46Z</time>
      </trkpt>
      <trkpt lat="45.0644" lon="5.35631">
        <ele>241.366</ele>
        <time>2019-04-21T15:30:54Z</time>
      </trkpt>
      <trkpt lat="45.06441" lon="5.35623">
        <ele>241.073</ele>
        <time>2019-04-21T15:30:57Z</time>
      </trkpt>
      <trkpt lat="45.06471" lon="5.35612">
        <ele>240.465</ele>
        <time>2019-04-21T15:31:03Z</time>
      </trkpt>
      <trkpt lat="45.06475" lon="5.35607">
        <ele>239.246</ele>
        <time>2019-04-21T15:31:05Z</time>
      </trkpt>
      <trkpt lat="45.06474" lon="5.35603">
        <ele>239.069</ele>
        <time>2019-04-21T15:31:07Z</time>
      </trkpt>
      <trkpt lat="45.06472" lon="5.356">
        <ele>239.246</ele>
        <time>2019-04-21T15:31:08Z</time>
      </trkpt>
      <trkpt lat="45.0647" lon="5.35597">
        <ele>239.283</ele>
        <time>2019-04-21T15:31:09Z</time>
      </trkpt>
      <trkpt lat="45.06462" lon="5.35589">
        <ele>240.095</ele>
        <time>2019-04-21T15:31:13Z</time>
      </trkpt>
      <trkpt lat="45.06461" lon="5.35589">
        <ele>240.323</ele>
        <time>2019-04-21T15:31:14Z</time>
      </trkpt>
      <trkpt lat="45.06461" lon="5.35589">
        <ele>240.323</ele>
        <time>2019-04-21T15:31:14Z</time>
      </trkpt>
      <trkpt lat="45.06461" lon="5.3559">
        <ele>240.36</ele>
        <time>2019-04-21T15:31:15Z</time>
      </trkpt>
      <trkpt lat="45.06459" lon="5.35588">
        <ele>240.722</ele>
        <time>2019-04-21T15:31:17Z</time>
      </trkpt>
      <trkpt lat="45.0646" lon="5.35581">
        <ele>240.646</ele>
        <time>2019-04-21T15:31:19Z</time>
      </trkpt>
      <trkpt lat="45.06462" lon="5.35576">
        <ele>240.893</ele>
        <time>2019-04-21T15:31:21Z</time>
      </trkpt>
      <trkpt lat="45.06457" lon="5.35572">
        <ele>241.09</ele>
        <time>2019-04-21T15:31:25Z</time>
      </trkpt>
      <trkpt lat="45.06456" lon="5.35571">
        <ele>241.425</ele>
        <time>2019-04-21T15:31:26Z</time>
      </trkpt>
      <trkpt lat="45.06451" lon="5.35567">
        <ele>241.722</ele>
        <time>2019-04-21T15:31:29Z</time>
      </trkpt>
      <trkpt lat="45.06453" lon="5.35563">
        <ele>241.747</ele>
        <time>2019-04-21T15:31:31Z</time>
      </trkpt>
      <trkpt lat="45.06455" lon="5.35559">
        <ele>242.288</ele>
        <time>2019-04-21T15:31:34Z</time>
      </trkpt>
      <trkpt lat="45.06452" lon="5.35556">
        <ele>241.398</ele>
        <time>2019-04-21T15:31:37Z</time>
      </trkpt>
      <trkpt lat="45.06456" lon="5.35554">
        <ele>241.371</ele>
        <time>2019-04-21T15:31:39Z</time>
      </trkpt>
      <trkpt lat="45.06458" lon="5.35553">
        <ele>241.172</ele>
        <time>2019-04-21T15:31:40Z</time>
      </trkpt>
      <trkpt lat="45.06466" lon="5.35545">
        <ele>241.572</ele>
        <time>2019-04-21T15:31:44Z</time>
      </trkpt>
      <trkpt lat="45.0647" lon="5.35538">
        <ele>241.237</ele>
        <time>2019-04-21T15:31:47Z</time>
      </trkpt>
      <trkpt lat="45.06468" lon="5.35535">
        <ele>241.122</ele>
        <time>2019-04-21T15:31:49Z</time>
      </trkpt>
      <trkpt lat="45.06466" lon="5.35526">
        <ele>242.35</ele>
        <time>2019-04-21T15:31:52Z</time>
      </trkpt>
      <trkpt lat="45.06465" lon="5.35524">
        <ele>240.99</ele>
        <time>2019-04-21T15:31:54Z</time>
      </trkpt>
      <trkpt lat="45.06461" lon="5.35524">
        <ele>242.13</ele>
        <time>2019-04-21T15:31:56Z</time>
      </trkpt>
      <trkpt lat="45.06454" lon="5.35523">
        <ele>242.569</ele>
        <time>2019-04-21T15:31:58Z</time>
      </trkpt>
      <trkpt lat="45.06451" lon="5.3552">
        <ele>242.55</ele>
        <time>2019-04-21T15:31:59Z</time>
      </trkpt>
      <trkpt lat="45.06451" lon="5.35517">
        <ele>242.65</ele>
        <time>2019-04-21T15:32:01Z</time>
      </trkpt>
      <trkpt lat="45.06453" lon="5.35517">
        <ele>243.048</ele>
        <time>2019-04-21T15:32:02Z</time>
      </trkpt>
      <trkpt lat="45.06458" lon="5.35517">
        <ele>241.837</ele>
        <time>2019-04-21T15:32:04Z</time>
      </trkpt>
      <trkpt lat="45.06465" lon="5.35512">
        <ele>240.962</ele>
        <time>2019-04-21T15:32:07Z</time>
      </trkpt>
      <trkpt lat="45.06471" lon="5.35509">
        <ele>240.911</ele>
        <time>2019-04-21T15:32:09Z</time>
      </trkpt>
      <trkpt lat="45.06476" lon="5.3551">
        <ele>240.084</ele>
        <time>2019-04-21T15:32:11Z</time>
      </trkpt>
      <trkpt lat="45.06477" lon="5.35511">
        <ele>239.884</ele>
        <time>2019-04-21T15:32:12Z</time>
      </trkpt>
      <trkpt lat="45.06477" lon="5.35506">
        <ele>240.399</ele>
        <time>2019-04-21T15:32:15Z</time>
      </trkpt>
      <trkpt lat="45.06476" lon="5.35502">
        <ele>240.955</ele>
        <time>2019-04-21T15:32:16Z</time>
      </trkpt>
      <trkpt lat="45.06481" lon="5.35498">
        <ele>240.774</ele>
        <time>2019-04-21T15:32:18Z</time>
      </trkpt>
      <trkpt lat="45.06485" lon="5.35493">
        <ele>240.362</ele>
        <time>2019-04-21T15:32:19Z</time>
      </trkpt>
      <trkpt lat="45.06492" lon="5.35487">
        <ele>240.731</ele>
        <time>2019-04-21T15:32:22Z</time>
      </trkpt>
      <trkpt lat="45.06488" lon="5.35485">
        <ele>241.255</ele>
        <time>2019-04-21T15:32:25Z</time>
      </trkpt>
      <trkpt lat="45.06484" lon="5.35482">
        <ele>242.796</ele>
        <time>2019-04-21T15:32:28Z</time>
      </trkpt>
      <trkpt lat="45.06484" lon="5.35482">
        <ele>242.796</ele>
        <time>2019-04-21T15:32:28Z</time>
      </trkpt>
      <trkpt lat="45.06487" lon="5.35484">
        <ele>242.377</ele>
        <time>2019-04-21T15:32:29Z</time>
      </trkpt>
      <trkpt lat="45.0649" lon="5.35487">
        <ele>241.857</ele>
        <time>2019-04-21T15:32:31Z</time>
      </trkpt>
      <trkpt lat="45.06487" lon="5.35489">
        <ele>241.283</ele>
        <time>2019-04-21T15:32:33Z</time>
      </trkpt>
      <trkpt lat="45.06484" lon="5.35488">
        <ele>241.653</ele>
        <time>2019-04-21T15:32:34Z</time>
      </trkpt>
      <trkpt lat="45.06481" lon="5.35485">
        <ele>241.626</ele>
        <time>2019-04-21T15:32:36Z</time>
      </trkpt>
      <trkpt lat="45.06479" lon="5.3548">
        <ele>241.122</ele>
        <time>2019-04-21T15:32:38Z</time>
      </trkpt>
      <trkpt lat="45.06479" lon="5.35476">
        <ele>241.334</ele>
        <time>2019-04-21T15:32:40Z</time>
      </trkpt>
      <trkpt lat="45.06483" lon="5.35473">
        <ele>241.082</ele>
        <time>2019-04-21T15:32:41Z</time>
      </trkpt>
      <trkpt lat="45.06492" lon="5.35468">
        <ele>240.986</ele>
        <time>2019-04-21T15:32:43Z</time>
      </trkpt>
      <trkpt lat="45.06497" lon="5.35464">
        <ele>239.873</ele>
        <time>2019-04-21T15:32:46Z</time>
      </trkpt>
      <trkpt lat="45.06479" lon="5.3546">
        <ele>238.904</ele>
        <time>2019-04-21T15:32:47Z</time>
      </trkpt>
      <trkpt lat="45.06478" lon="5.35458">
        <ele>240.051</ele>
        <time>2019-04-21T15:32:48Z</time>
      </trkpt>
      <trkpt lat="45.06483" lon="5.35456">
        <ele>240.29</ele>
        <time>2019-04-21T15:32:52Z</time>
      </trkpt>
      <trkpt lat="45.06489" lon="5.35452">
        <ele>239.799</ele>
        <time>2019-04-21T15:32:54Z</time>
      </trkpt>
      <trkpt lat="45.06502" lon="5.35445">
        <ele>239.046</ele>
        <time>2019-04-21T15:32:58Z</time>
      </trkpt>
      <trkpt lat="45.06507" lon="5.35441">
        <ele>239.318</ele>
        <time>2019-04-21T15:32:59Z</time>
      </trkpt>
      <trkpt lat="45.06514" lon="5.35435">
        <ele>238.619</ele>
        <time>2019-04-21T15:33:02Z</time>
      </trkpt>
      <trkpt lat="45.06513" lon="5.35434">
        <ele>239.087</ele>
        <time>2019-04-21T15:33:04Z</time>
      </trkpt>
      <trkpt lat="45.06509" lon="5.35434">
        <ele>237.981</ele>
        <time>2019-04-21T15:33:06Z</time>
      </trkpt>
      <trkpt lat="45.06505" lon="5.35433">
        <ele>237.277</ele>
        <time>2019-04-21T15:33:07Z</time>
      </trkpt>
      <trkpt lat="45.06501" lon="5.35429">
        <ele>236.572</ele>
        <time>2019-04-21T15:33:11Z</time>
      </trkpt>
      <trkpt lat="45.06503" lon="5.35425">
        <ele>236.128</ele>
        <time>2019-04-21T15:33:13Z</time>
      </trkpt>
      <trkpt lat="45.06504" lon="5.35422">
        <ele>235.966</ele>
        <time>2019-04-21T15:33:14Z</time>
      </trkpt>
      <trkpt lat="45.06506" lon="5.35418">
        <ele>235.779</ele>
        <time>2019-04-21T15:33:15Z</time>
      </trkpt>
      <trkpt lat="45.06508" lon="5.35415">
        <ele>235.501</ele>
        <time>2019-04-21T15:33:16Z</time>
      </trkpt>
      <trkpt lat="45.06511" lon="5.35408">
        <ele>234.95</ele>
        <time>2019-04-21T15:33:19Z</time>
      </trkpt>
      <trkpt lat="45.06511" lon="5.35408">
        <ele>234.843</ele>
        <time>2019-04-21T15:33:21Z</time>
      </trkpt>
      <trkpt lat="45.06514" lon="5.35407">
        <ele>236.403</ele>
        <time>2019-04-21T15:33:23Z</time>
      </trkpt>
      <trkpt lat="45.06525" lon="5.35402">
        <ele>236.457</ele>
        <time>2019-04-21T15:33:27Z</time>
      </trkpt>
      <trkpt lat="45.06531" lon="5.35397">
        <ele>236.719</ele>
        <time>2019-04-21T15:33:29Z</time>
      </trkpt>
      <trkpt lat="45.06532" lon="5.35396">
        <ele>237.178</ele>
        <time>2019-04-21T15:33:30Z</time>
      </trkpt>
      <trkpt lat="45.06532" lon="5.35395">
        <ele>237.097</ele>
        <time>2019-04-21T15:33:31Z</time>
      </trkpt>
      <trkpt lat="45.06528" lon="5.35391">
        <ele>236.283</ele>
        <time>2019-04-21T15:33:33Z</time>
      </trkpt>
      <trkpt lat="45.06524" lon="5.35387">
        <ele>235.434</ele>
        <time>2019-04-21T15:33:37Z</time>
      </trkpt>
      <trkpt lat="45.06525" lon="5.35384">
        <ele>236.509</ele>
        <time>2019-04-21T15:33:41Z</time>
      </trkpt>
      <trkpt lat="45.06524" lon="5.3538">
        <ele>238.566</ele>
        <time>2019-04-21T15:33:44Z</time>
      </trkpt>
      <trkpt lat="45.06524" lon="5.35377">
        <ele>238.813</ele>
        <time>2019-04-21T15:33:47Z</time>
      </trkpt>
      <trkpt lat="45.06519" lon="5.35374">
        <ele>238.028</ele>
        <time>2019-04-21T15:33:50Z</time>
      </trkpt>
      <trkpt lat="45.06517" lon="5.35372">
        <ele>238.039</ele>
        <time>2019-04-21T15:33:51Z</time>
      </trkpt>
      <trkpt lat="45.06505" lon="5.35364">
        <ele>237.907</ele>
        <time>2019-04-21T15:33:55Z</time>
      </trkpt>
      <trkpt lat="45.06496" lon="5.35359">
        <ele>238.125</ele>
        <time>2019-04-21T15:33:58Z</time>
      </trkpt>
      <trkpt lat="45.06494" lon="5.3536">
        <ele>238.381</ele>
        <time>2019-04-21T15:33:59Z</time>
      </trkpt>
      <trkpt lat="45.06491" lon="5.35359">
        <ele>238.145</ele>
        <time>2019-04-21T15:34:02Z</time>
      </trkpt>
      <trkpt lat="45.06491" lon="5.35359">
        <ele>238.145</ele>
        <time>2019-04-21T15:34:02Z</time>
      </trkpt>
      <trkpt lat="45.0649" lon="5.35358">
        <ele>238.129</ele>
        <time>2019-04-21T15:34:03Z</time>
      </trkpt>
      <trkpt lat="45.06489" lon="5.35356">
        <ele>238.336</ele>
        <time>2019-04-21T15:34:04Z</time>
      </trkpt>
      <trkpt lat="45.06486" lon="5.35354">
        <ele>238.436</ele>
        <time>2019-04-21T15:34:06Z</time>
      </trkpt>
      <trkpt lat="45.06484" lon="5.3535">
        <ele>238.941</ele>
        <time>2019-04-21T15:34:09Z</time>
      </trkpt>
      <trkpt lat="45.06485" lon="5.35348">
        <ele>239.903</ele>
        <time>2019-04-21T15:34:11Z</time>
      </trkpt>
      <trkpt lat="45.06483" lon="5.35344">
        <ele>237.608</ele>
        <time>2019-04-21T15:34:19Z</time>
      </trkpt>
      <trkpt lat="45.06483" lon="5.35342">
        <ele>237.798</ele>
        <time>2019-04-21T15:34:20Z</time>
      </trkpt>
      <trkpt lat="45.06482" lon="5.35341">
        <ele>237.836</ele>
        <time>2019-04-21T15:34:22Z</time>
      </trkpt>
      <trkpt lat="45.06485" lon="5.3533">
        <ele>237.06</ele>
        <time>2019-04-21T15:34:27Z</time>
      </trkpt>
      <trkpt lat="45.06484" lon="5.35324">
        <ele>236.879</ele>
        <time>2019-04-21T15:34:28Z</time>
      </trkpt>
      <trkpt lat="45.06477" lon="5.35311">
        <ele>236.995</ele>
        <time>2019-04-21T15:34:33Z</time>
      </trkpt>
      <trkpt lat="45.06476" lon="5.35306">
        <ele>237.427</ele>
        <time>2019-04-21T15:34:36Z</time>
      </trkpt>
      <trkpt lat="45.06473" lon="5.35304">
        <ele>237.244</ele>
        <time>2019-04-21T15:34:39Z</time>
      </trkpt>
      <trkpt lat="45.0647" lon="5.35298">
        <ele>237.453</ele>
        <time>2019-04-21T15:34:43Z</time>
      </trkpt>
      <trkpt lat="45.06468" lon="5.35293">
        <ele>237.721</ele>
        <time>2019-04-21T15:34:44Z</time>
      </trkpt>
      <trkpt lat="45.06465" lon="5.35285">
        <ele>238.554</ele>
        <time>2019-04-21T15:34:47Z</time>
      </trkpt>
      <trkpt lat="45.06461" lon="5.35281">
        <ele>237.918</ele>
        <time>2019-04-21T15:34:51Z</time>
      </trkpt>
      <trkpt lat="45.06456" lon="5.35269">
        <ele>238.013</ele>
        <time>2019-04-21T15:34:55Z</time>
      </trkpt>
      <trkpt lat="45.06453" lon="5.35271">
        <ele>238.552</ele>
        <time>2019-04-21T15:34:58Z</time>
      </trkpt>
      <trkpt lat="45.06451" lon="5.35278">
        <ele>238.56</ele>
        <time>2019-04-21T15:34:59Z</time>
      </trkpt>
      <trkpt lat="45.0645" lon="5.35287">
        <ele>238.368</ele>
        <time>2019-04-21T15:35:01Z</time>
      </trkpt>
      <trkpt lat="45.06451" lon="5.35289">
        <ele>238.454</ele>
        <time>2019-04-21T15:35:02Z</time>
      </trkpt>
      <trkpt lat="45.06453" lon="5.35284">
        <ele>237.995</ele>
        <time>2019-04-21T15:35:06Z</time>
      </trkpt>
      <trkpt lat="45.06453" lon="5.35282">
        <ele>238.234</ele>
        <time>2019-04-21T15:35:08Z</time>
      </trkpt>
      <trkpt lat="45.06453" lon="5.35279">
        <ele>238.221</ele>
        <time>2019-04-21T15:35:10Z</time>
      </trkpt>
      <trkpt lat="45.06451" lon="5.35272">
        <ele>238.679</ele>
        <time>2019-04-21T15:35:15Z</time>
      </trkpt>
      <trkpt lat="45.06451" lon="5.35271">
        <ele>238.346</ele>
        <time>2019-04-21T15:35:16Z</time>
      </trkpt>
      <trkpt lat="45.0645" lon="5.35263">
        <ele>237.97</ele>
        <time>2019-04-21T15:35:20Z</time>
      </trkpt>
      <trkpt lat="45.06451" lon="5.35263">
        <ele>237.163</ele>
        <time>2019-04-21T15:35:21Z</time>
      </trkpt>
      <trkpt lat="45.06452" lon="5.35264">
        <ele>236.797</ele>
        <time>2019-04-21T15:35:22Z</time>
      </trkpt>
      <trkpt lat="45.06452" lon="5.35264">
        <ele>236.584</ele>
        <time>2019-04-21T15:35:24Z</time>
      </trkpt>
      <trkpt lat="45.06452" lon="5.35264">
        <ele>236.584</ele>
        <time>2019-04-21T15:35:24Z</time>
      </trkpt>
      <trkpt lat="45.06452" lon="5.35265">
        <ele>236.477</ele>
        <time>2019-04-21T15:35:25Z</time>
      </trkpt>
      <trkpt lat="45.06452" lon="5.35266">
        <ele>235.676</ele>
        <time>2019-04-21T15:35:27Z</time>
      </trkpt>
      <trkpt lat="45.06452" lon="5.35266">
        <ele>235.676</ele>
        <time>2019-04-21T15:35:27Z</time>
      </trkpt>
      <trkpt lat="45.06453" lon="5.35266">
        <ele>235.006</ele>
        <time>2019-04-21T15:35:28Z</time>
      </trkpt>
      <trkpt lat="45.06452" lon="5.35266">
        <ele>235.007</ele>
        <time>2019-04-21T15:35:29Z</time>
      </trkpt>
      <trkpt lat="45.06452" lon="5.35266">
        <ele>235.168</ele>
        <time>2019-04-21T15:35:30Z</time>
      </trkpt>
      <trkpt lat="45.06452" lon="5.35266">
        <ele>236.277</ele>
        <time>2019-04-21T15:35:59Z</time>
      </trkpt>
      <trkpt lat="45.06452" lon="5.35266">
        <ele>235.751</ele>
        <time>2019-04-21T15:36:00Z</time>
      </trkpt>
      <trkpt lat="45.06452" lon="5.35265">
        <ele>235.561</ele>
        <time>2019-04-21T15:36:01Z</time>
      </trkpt>
      <trkpt lat="45.0645" lon="5.35261">
        <ele>235.439</ele>
        <time>2019-04-21T15:36:04Z</time>
      </trkpt>
      <trkpt lat="45.06447" lon="5.35255">
        <ele>235.637</ele>
        <time>2019-04-21T15:36:07Z</time>
      </trkpt>
      <trkpt lat="45.06446" lon="5.35253">
        <ele>235.499</ele>
        <time>2019-04-21T15:36:09Z</time>
      </trkpt>
      <trkpt lat="45.06442" lon="5.35248">
        <ele>236.222</ele>
        <time>2019-04-21T15:36:14Z</time>
      </trkpt>
      <trkpt lat="45.06441" lon="5.35246">
        <ele>236.749</ele>
        <time>2019-04-21T15:36:15Z</time>
      </trkpt>
      <trkpt lat="45.0644" lon="5.35242">
        <ele>237.06</ele>
        <time>2019-04-21T15:36:17Z</time>
      </trkpt>
      <trkpt lat="45.0644" lon="5.35241">
        <ele>236.504</ele>
        <time>2019-04-21T15:36:18Z</time>
      </trkpt>
      <trkpt lat="45.0644" lon="5.35242">
        <ele>237.889</ele>
        <time>2019-04-21T15:36:20Z</time>
      </trkpt>
      <trkpt lat="45.06438" lon="5.35245">
        <ele>237.692</ele>
        <time>2019-04-21T15:36:23Z</time>
      </trkpt>
      <trkpt lat="45.06437" lon="5.35246">
        <ele>237.414</ele>
        <time>2019-04-21T15:36:25Z</time>
      </trkpt>
      <trkpt lat="45.06436" lon="5.35246">
        <ele>237.022</ele>
        <time>2019-04-21T15:36:26Z</time>
      </trkpt>
      <trkpt lat="45.06433" lon="5.35245">
        <ele>237.722</ele>
        <time>2019-04-21T15:36:29Z</time>
      </trkpt>
      <trkpt lat="45.0643" lon="5.35239">
        <ele>238.009</ele>
        <time>2019-04-21T15:36:30Z</time>
      </trkpt>
      <trkpt lat="45.06421" lon="5.35228">
        <ele>239.243</ele>
        <time>2019-04-21T15:36:35Z</time>
      </trkpt>
      <trkpt lat="45.06418" lon="5.3523">
        <ele>240.922</ele>
        <time>2019-04-21T15:36:39Z</time>
      </trkpt>
      <trkpt lat="45.06418" lon="5.3523">
        <ele>241.552</ele>
        <time>2019-04-21T15:36:40Z</time>
      </trkpt>
      <trkpt lat="45.06418" lon="5.3523">
        <ele>241.552</ele>
        <time>2019-04-21T15:36:40Z</time>
      </trkpt>
      <trkpt lat="45.06417" lon="5.35229">
        <ele>241.303</ele>
        <time>2019-04-21T15:36:41Z</time>
      </trkpt>
      <trkpt lat="45.06418" lon="5.35225">
        <ele>241.264</ele>
        <time>2019-04-21T15:36:45Z</time>
      </trkpt>
      <trkpt lat="45.06417" lon="5.35221">
        <ele>241.023</ele>
        <time>2019-04-21T15:36:47Z</time>
      </trkpt>
      <trkpt lat="45.06413" lon="5.35215">
        <ele>240.883</ele>
        <time>2019-04-21T15:36:49Z</time>
      </trkpt>
      <trkpt lat="45.06409" lon="5.3521">
        <ele>240.462</ele>
        <time>2019-04-21T15:36:52Z</time>
      </trkpt>
      <trkpt lat="45.06409" lon="5.3521">
        <ele>240.958</ele>
        <time>2019-04-21T15:36:53Z</time>
      </trkpt>
      <trkpt lat="45.06408" lon="5.35208">
        <ele>240.892</ele>
        <time>2019-04-21T15:36:56Z</time>
      </trkpt>
      <trkpt lat="45.06406" lon="5.35209">
        <ele>239.025</ele>
        <time>2019-04-21T15:37:00Z</time>
      </trkpt>
      <trkpt lat="45.06406" lon="5.3521">
        <ele>238.246</ele>
        <time>2019-04-21T15:37:01Z</time>
      </trkpt>
      <trkpt lat="45.06404" lon="5.35208">
        <ele>237.727</ele>
        <time>2019-04-21T15:37:04Z</time>
      </trkpt>
      <trkpt lat="45.06402" lon="5.35204">
        <ele>237.439</ele>
        <time>2019-04-21T15:37:06Z</time>
      </trkpt>
      <trkpt lat="45.06402" lon="5.35204">
        <ele>240.369</ele>
        <time>2019-04-21T15:37:07Z</time>
      </trkpt>
      <trkpt lat="45.06402" lon="5.35204">
        <ele>240.369</ele>
        <time>2019-04-21T15:37:07Z</time>
      </trkpt>
      <trkpt lat="45.06403" lon="5.35202">
        <ele>240.065</ele>
        <time>2019-04-21T15:37:08Z</time>
      </trkpt>
      <trkpt lat="45.06404" lon="5.35199">
        <ele>239.795</ele>
        <time>2019-04-21T15:37:09Z</time>
      </trkpt>
      <trkpt lat="45.06409" lon="5.35187">
        <ele>238.565</ele>
        <time>2019-04-21T15:37:14Z</time>
      </trkpt>
      <trkpt lat="45.06407" lon="5.35182">
        <ele>237.839</ele>
        <time>2019-04-21T15:37:16Z</time>
      </trkpt>
      <trkpt lat="45.06404" lon="5.3518">
        <ele>238.145</ele>
        <time>2019-04-21T15:37:17Z</time>
      </trkpt>
      <trkpt lat="45.06396" lon="5.35175">
        <ele>238.47</ele>
        <time>2019-04-21T15:37:19Z</time>
      </trkpt>
      <trkpt lat="45.06394" lon="5.3517">
        <ele>238.647</ele>
        <time>2019-04-21T15:37:21Z</time>
      </trkpt>
      <trkpt lat="45.06394" lon="5.35162">
        <ele>237.953</ele>
        <time>2019-04-21T15:37:23Z</time>
      </trkpt>
      <trkpt lat="45.06394" lon="5.35156">
        <ele>237.661</ele>
        <time>2019-04-21T15:37:24Z</time>
      </trkpt>
      <trkpt lat="45.06396" lon="5.3515">
        <ele>236.48</ele>
        <time>2019-04-21T15:37:26Z</time>
      </trkpt>
      <trkpt lat="45.064" lon="5.35146">
        <ele>235.952</ele>
        <time>2019-04-21T15:37:27Z</time>
      </trkpt>
      <trkpt lat="45.06404" lon="5.35143">
        <ele>235.497</ele>
        <time>2019-04-21T15:37:29Z</time>
      </trkpt>
      <trkpt lat="45.06405" lon="5.35143">
        <ele>235.302</ele>
        <time>2019-04-21T15:37:30Z</time>
      </trkpt>
      <trkpt lat="45.06406" lon="5.35144">
        <ele>235.95</ele>
        <time>2019-04-21T15:37:32Z</time>
      </trkpt>
      <trkpt lat="45.06406" lon="5.35143">
        <ele>236.095</ele>
        <time>2019-04-21T15:37:33Z</time>
      </trkpt>
      <trkpt lat="45.06405" lon="5.35142">
        <ele>235.516</ele>
        <time>2019-04-21T15:37:34Z</time>
      </trkpt>
      <trkpt lat="45.06405" lon="5.3514">
        <ele>234.689</ele>
        <time>2019-04-21T15:37:38Z</time>
      </trkpt>
      <trkpt lat="45.06406" lon="5.35139">
        <ele>234.449</ele>
        <time>2019-04-21T15:37:40Z</time>
      </trkpt>
      <trkpt lat="45.06407" lon="5.3514">
        <ele>233.926</ele>
        <time>2019-04-21T15:37:41Z</time>
      </trkpt>
      <trkpt lat="45.06407" lon="5.3514">
        <ele>233.926</ele>
        <time>2019-04-21T15:37:41Z</time>
      </trkpt>
      <trkpt lat="45.06407" lon="5.3514">
        <ele>233.973</ele>
        <time>2019-04-21T15:37:42Z</time>
      </trkpt>
      <trkpt lat="45.06408" lon="5.35138">
        <ele>233.756</ele>
        <time>2019-04-21T15:37:44Z</time>
      </trkpt>
      <trkpt lat="45.06407" lon="5.35132">
        <ele>233.957</ele>
        <time>2019-04-21T15:37:47Z</time>
      </trkpt>
      <trkpt lat="45.06406" lon="5.3512">
        <ele>234.157</ele>
        <time>2019-04-21T15:37:51Z</time>
      </trkpt>
      <trkpt lat="45.06409" lon="5.35109">
        <ele>233.897</ele>
        <time>2019-04-21T15:37:53Z</time>
      </trkpt>
      <trkpt lat="45.06409" lon="5.351">
        <ele>233.968</ele>
        <time>2019-04-21T15:37:56Z</time>
      </trkpt>
      <trkpt lat="45.06408" lon="5.35102">
        <ele>233.97</ele>
        <time>2019-04-21T15:37:57Z</time>
      </trkpt>
      <trkpt lat="45.06405" lon="5.35103">
        <ele>234.015</ele>
        <time>2019-04-21T15:37:59Z</time>
      </trkpt>
      <trkpt lat="45.06403" lon="5.35104">
        <ele>234.428</ele>
        <time>2019-04-21T15:38:04Z</time>
      </trkpt>
      <trkpt lat="45.06403" lon="5.35104">
        <ele>234.428</ele>
        <time>2019-04-21T15:38:04Z</time>
      </trkpt>
      <trkpt lat="45.06402" lon="5.35103">
        <ele>234.109</ele>
        <time>2019-04-21T15:38:05Z</time>
      </trkpt>
      <trkpt lat="45.06401" lon="5.35101">
        <ele>233.963</ele>
        <time>2019-04-21T15:38:06Z</time>
      </trkpt>
      <trkpt lat="45.064" lon="5.35097">
        <ele>233.69</ele>
        <time>2019-04-21T15:38:10Z</time>
      </trkpt>
      <trkpt lat="45.06394" lon="5.35094">
        <ele>233.699</ele>
        <time>2019-04-21T15:38:12Z</time>
      </trkpt>
      <trkpt lat="45.06391" lon="5.35092">
        <ele>233.273</ele>
        <time>2019-04-21T15:38:14Z</time>
      </trkpt>
      <trkpt lat="45.0639" lon="5.35088">
        <ele>232.836</ele>
        <time>2019-04-21T15:38:16Z</time>
      </trkpt>
      <trkpt lat="45.06388" lon="5.35076">
        <ele>231.967</ele>
        <time>2019-04-21T15:38:20Z</time>
      </trkpt>
      <trkpt lat="45.06391" lon="5.35075">
        <ele>231.086</ele>
        <time>2019-04-21T15:38:22Z</time>
      </trkpt>
      <trkpt lat="45.06395" lon="5.35077">
        <ele>230.627</ele>
        <time>2019-04-21T15:38:24Z</time>
      </trkpt>
      <trkpt lat="45.06398" lon="5.35073">
        <ele>230.506</ele>
        <time>2019-04-21T15:38:26Z</time>
      </trkpt>
      <trkpt lat="45.064" lon="5.35068">
        <ele>230.308</ele>
        <time>2019-04-21T15:38:27Z</time>
      </trkpt>
      <trkpt lat="45.064" lon="5.35056">
        <ele>228.597</ele>
        <time>2019-04-21T15:38:31Z</time>
      </trkpt>
      <trkpt lat="45.06398" lon="5.35056">
        <ele>228.523</ele>
        <time>2019-04-21T15:38:33Z</time>
      </trkpt>
      <trkpt lat="45.06392" lon="5.35054">
        <ele>228.455</ele>
        <time>2019-04-21T15:38:37Z</time>
      </trkpt>
      <trkpt lat="45.06389" lon="5.35053">
        <ele>228.625</ele>
        <time>2019-04-21T15:38:38Z</time>
      </trkpt>
      <trkpt lat="45.06375" lon="5.35045">
        <ele>229.693</ele>
        <time>2019-04-21T15:38:44Z</time>
      </trkpt>
      <trkpt lat="45.06374" lon="5.35042">
        <ele>229.849</ele>
        <time>2019-04-21T15:38:45Z</time>
      </trkpt>
      <trkpt lat="45.06374" lon="5.35037">
        <ele>229.529</ele>
        <time>2019-04-21T15:38:48Z</time>
      </trkpt>
      <trkpt lat="45.06374" lon="5.35037">
        <ele>229.529</ele>
        <time>2019-04-21T15:38:48Z</time>
      </trkpt>
      <trkpt lat="45.06376" lon="5.35039">
        <ele>229.082</ele>
        <time>2019-04-21T15:38:49Z</time>
      </trkpt>
      <trkpt lat="45.06378" lon="5.35039">
        <ele>228.521</ele>
        <time>2019-04-21T15:38:52Z</time>
      </trkpt>
      <trkpt lat="45.06378" lon="5.35038">
        <ele>228.773</ele>
        <time>2019-04-21T15:38:53Z</time>
      </trkpt>
      <trkpt lat="45.06376" lon="5.35038">
        <ele>228.754</ele>
        <time>2019-04-21T15:38:54Z</time>
      </trkpt>
      <trkpt lat="45.06373" lon="5.35039">
        <ele>229.265</ele>
        <time>2019-04-21T15:38:55Z</time>
      </trkpt>
      <trkpt lat="45.0637" lon="5.35042">
        <ele>230.023</ele>
        <time>2019-04-21T15:38:56Z</time>
      </trkpt>
      <trkpt lat="45.06368" lon="5.35043">
        <ele>231.179</ele>
        <time>2019-04-21T15:38:58Z</time>
      </trkpt>
      <trkpt lat="45.06368" lon="5.35039">
        <ele>231.465</ele>
        <time>2019-04-21T15:39:00Z</time>
      </trkpt>
      <trkpt lat="45.06369" lon="5.35026">
        <ele>230.975</ele>
        <time>2019-04-21T15:39:04Z</time>
      </trkpt>
      <trkpt lat="45.06368" lon="5.35015">
        <ele>229.052</ele>
        <time>2019-04-21T15:39:08Z</time>
      </trkpt>
      <trkpt lat="45.06365" lon="5.35014">
        <ele>229.004</ele>
        <time>2019-04-21T15:39:10Z</time>
      </trkpt>
      <trkpt lat="45.06358" lon="5.35005">
        <ele>228.492</ele>
        <time>2019-04-21T15:39:13Z</time>
      </trkpt>
      <trkpt lat="45.06357" lon="5.34999">
        <ele>228.306</ele>
        <time>2019-04-21T15:39:14Z</time>
      </trkpt>
      <trkpt lat="45.06355" lon="5.34988">
        <ele>227.927</ele>
        <time>2019-04-21T15:39:16Z</time>
      </trkpt>
      <trkpt lat="45.06354" lon="5.34986">
        <ele>227.741</ele>
        <time>2019-04-21T15:39:18Z</time>
      </trkpt>
      <trkpt lat="45.06354" lon="5.34988">
        <ele>227.937</ele>
        <time>2019-04-21T15:39:19Z</time>
      </trkpt>
      <trkpt lat="45.06353" lon="5.34991">
        <ele>228.321</ele>
        <time>2019-04-21T15:39:20Z</time>
      </trkpt>
      <trkpt lat="45.06355" lon="5.34997">
        <ele>228.952</ele>
        <time>2019-04-21T15:39:22Z</time>
      </trkpt>
      <trkpt lat="45.06357" lon="5.35009">
        <ele>229.139</ele>
        <time>2019-04-21T15:39:24Z</time>
      </trkpt>
      <trkpt lat="45.06358" lon="5.3501">
        <ele>229.593</ele>
        <time>2019-04-21T15:39:26Z</time>
      </trkpt>
      <trkpt lat="45.06358" lon="5.3501">
        <ele>229.759</ele>
        <time>2019-04-21T15:39:27Z</time>
      </trkpt>
      <trkpt lat="45.06359" lon="5.35012">
        <ele>229.853</ele>
        <time>2019-04-21T15:39:28Z</time>
      </trkpt>
      <trkpt lat="45.0636" lon="5.35012">
        <ele>230.234</ele>
        <time>2019-04-21T15:39:29Z</time>
      </trkpt>
      <trkpt lat="45.0636" lon="5.35012">
        <ele>230.047</ele>
        <time>2019-04-21T15:39:30Z</time>
      </trkpt>
      <trkpt lat="45.0636" lon="5.35012">
        <ele>230.047</ele>
        <time>2019-04-21T15:39:30Z</time>
      </trkpt>
      <trkpt lat="45.06362" lon="5.35012">
        <ele>230.144</ele>
        <time>2019-04-21T15:39:31Z</time>
      </trkpt>
      <trkpt lat="45.06363" lon="5.35012">
        <ele>229.544</ele>
        <time>2019-04-21T15:39:34Z</time>
      </trkpt>
      <trkpt lat="45.06363" lon="5.35012">
        <ele>229.544</ele>
        <time>2019-04-21T15:39:34Z</time>
      </trkpt>
      <trkpt lat="45.06363" lon="5.35012">
        <ele>229.315</ele>
        <time>2019-04-21T15:39:35Z</time>
      </trkpt>
      <trkpt lat="45.06361" lon="5.35013">
        <ele>229.781</ele>
        <time>2019-04-21T15:39:38Z</time>
      </trkpt>
      <trkpt lat="45.06359" lon="5.35014">
        <ele>230.009</ele>
        <time>2019-04-21T15:39:39Z</time>
      </trkpt>
      <trkpt lat="45.06359" lon="5.35016">
        <ele>229.827</ele>
        <time>2019-04-21T15:39:41Z</time>
      </trkpt>
      <trkpt lat="45.06359" lon="5.35016">
        <ele>229.523</ele>
        <time>2019-04-21T15:40:08Z</time>
      </trkpt>
      <trkpt lat="45.0636" lon="5.35017">
        <ele>229.264</ele>
        <time>2019-04-21T15:40:09Z</time>
      </trkpt>
      <trkpt lat="45.06359" lon="5.35017">
        <ele>228.869</ele>
        <time>2019-04-21T15:40:10Z</time>
      </trkpt>
      <trkpt lat="45.06355" lon="5.35015">
        <ele>229.628</ele>
        <time>2019-04-21T15:40:13Z</time>
      </trkpt>
      <trkpt lat="45.06352" lon="5.35011">
        <ele>229.751</ele>
        <time>2019-04-21T15:40:15Z</time>
      </trkpt>
      <trkpt lat="45.06344" lon="5.3499">
        <ele>229.863</ele>
        <time>2019-04-21T15:40:21Z</time>
      </trkpt>
      <trkpt lat="45.06345" lon="5.3499">
        <ele>228.368</ele>
        <time>2019-04-21T15:40:23Z</time>
      </trkpt>
      <trkpt lat="45.0634" lon="5.34995">
        <ele>227.88</ele>
        <time>2019-04-21T15:40:26Z</time>
      </trkpt>
      <trkpt lat="45.06334" lon="5.35">
        <ele>229.73</ele>
        <time>2019-04-21T15:40:27Z</time>
      </trkpt>
      <trkpt lat="45.06329" lon="5.35006">
        <ele>231.765</ele>
        <time>2019-04-21T15:40:28Z</time>
      </trkpt>
      <trkpt lat="45.06325" lon="5.35008">
        <ele>231.184</ele>
        <time>2019-04-21T15:40:29Z</time>
      </trkpt>
      <trkpt lat="45.06321" lon="5.35006">
        <ele>233.691</ele>
        <time>2019-04-21T15:40:31Z</time>
      </trkpt>
      <trkpt lat="45.0632" lon="5.35006">
        <ele>232.259</ele>
        <time>2019-04-21T15:40:33Z</time>
      </trkpt>
      <trkpt lat="45.06321" lon="5.35001">
        <ele>233.161</ele>
        <time>2019-04-21T15:40:35Z</time>
      </trkpt>
      <trkpt lat="45.0632" lon="5.34997">
        <ele>232.75</ele>
        <time>2019-04-21T15:40:36Z</time>
      </trkpt>
      <trkpt lat="45.06318" lon="5.34983">
        <ele>232.484</ele>
        <time>2019-04-21T15:40:39Z</time>
      </trkpt>
      <trkpt lat="45.06318" lon="5.34976">
        <ele>230.902</ele>
        <time>2019-04-21T15:40:40Z</time>
      </trkpt>
      <trkpt lat="45.06317" lon="5.34966">
        <ele>229.138</ele>
        <time>2019-04-21T15:40:43Z</time>
      </trkpt>
      <trkpt lat="45.06316" lon="5.3496">
        <ele>228.619</ele>
        <time>2019-04-21T15:40:45Z</time>
      </trkpt>
      <trkpt lat="45.06313" lon="5.34963">
        <ele>228.415</ele>
        <time>2019-04-21T15:40:48Z</time>
      </trkpt>
      <trkpt lat="45.0631" lon="5.34994">
        <ele>229.498</ele>
        <time>2019-04-21T15:40:49Z</time>
      </trkpt>
      <trkpt lat="45.0631" lon="5.34987">
        <ele>230.043</ele>
        <time>2019-04-21T15:40:51Z</time>
      </trkpt>
      <trkpt lat="45.06307" lon="5.3499">
        <ele>230.149</ele>
        <time>2019-04-21T15:40:53Z</time>
      </trkpt>
      <trkpt lat="45.06307" lon="5.34989">
        <ele>230.523</ele>
        <time>2019-04-21T15:40:54Z</time>
      </trkpt>
      <trkpt lat="45.06307" lon="5.34983">
        <ele>234.177</ele>
        <time>2019-04-21T15:40:56Z</time>
      </trkpt>
      <trkpt lat="45.063" lon="5.34965">
        <ele>232.328</ele>
        <time>2019-04-21T15:41:07Z</time>
      </trkpt>
      <trkpt lat="45.06294" lon="5.34953">
        <ele>231.388</ele>
        <time>2019-04-21T15:41:12Z</time>
      </trkpt>
      <trkpt lat="45.06289" lon="5.34941">
        <ele>230.862</ele>
        <time>2019-04-21T15:41:14Z</time>
      </trkpt>
      <trkpt lat="45.06284" lon="5.34937">
        <ele>231.576</ele>
        <time>2019-04-21T15:41:16Z</time>
      </trkpt>
      <trkpt lat="45.06283" lon="5.34938">
        <ele>231.634</ele>
        <time>2019-04-21T15:41:17Z</time>
      </trkpt>
      <trkpt lat="45.06283" lon="5.34939">
        <ele>231.287</ele>
        <time>2019-04-21T15:41:18Z</time>
      </trkpt>
      <trkpt lat="45.06282" lon="5.34939">
        <ele>230.564</ele>
        <time>2019-04-21T15:41:19Z</time>
      </trkpt>
      <trkpt lat="45.06285" lon="5.34947">
        <ele>229.738</ele>
        <time>2019-04-21T15:41:22Z</time>
      </trkpt>
      <trkpt lat="45.06285" lon="5.34951">
        <ele>230.505</ele>
        <time>2019-04-21T15:41:23Z</time>
      </trkpt>
      <trkpt lat="45.06285" lon="5.34956">
        <ele>231.044</ele>
        <time>2019-04-21T15:41:24Z</time>
      </trkpt>
      <trkpt lat="45.06281" lon="5.34968">
        <ele>232.781</ele>
        <time>2019-04-21T15:41:27Z</time>
      </trkpt>
      <trkpt lat="45.06273" lon="5.34979">
        <ele>234.531</ele>
        <time>2019-04-21T15:41:30Z</time>
      </trkpt>
      <trkpt lat="45.06269" lon="5.34983">
        <ele>234.98</ele>
        <time>2019-04-21T15:41:32Z</time>
      </trkpt>
      <trkpt lat="45.06266" lon="5.3498">
        <ele>236.25</ele>
        <time>2019-04-21T15:41:34Z</time>
      </trkpt>
      <trkpt lat="45.06265" lon="5.34976">
        <ele>239.017</ele>
        <time>2019-04-21T15:41:35Z</time>
      </trkpt>
      <trkpt lat="45.06264" lon="5.34971">
        <ele>238.894</ele>
        <time>2019-04-21T15:41:36Z</time>
      </trkpt>
      <trkpt lat="45.06259" lon="5.34952">
        <ele>236.748</ele>
        <time>2019-04-21T15:41:41Z</time>
      </trkpt>
      <trkpt lat="45.06257" lon="5.34942">
        <ele>235.611</ele>
        <time>2019-04-21T15:41:44Z</time>
      </trkpt>
      <trkpt lat="45.06255" lon="5.34936">
        <ele>233.554</ele>
        <time>2019-04-21T15:41:45Z</time>
      </trkpt>
      <trkpt lat="45.06254" lon="5.34936">
        <ele>233.467</ele>
        <time>2019-04-21T15:41:47Z</time>
      </trkpt>
      <trkpt lat="45.06252" lon="5.34927">
        <ele>233.017</ele>
        <time>2019-04-21T15:41:50Z</time>
      </trkpt>
      <trkpt lat="45.0625" lon="5.34915">
        <ele>232.16</ele>
        <time>2019-04-21T15:41:54Z</time>
      </trkpt>
      <trkpt lat="45.06246" lon="5.34917">
        <ele>233.376</ele>
        <time>2019-04-21T15:41:56Z</time>
      </trkpt>
      <trkpt lat="45.06243" lon="5.3492">
        <ele>234.436</ele>
        <time>2019-04-21T15:41:57Z</time>
      </trkpt>
      <trkpt lat="45.06236" lon="5.34954">
        <ele>234.293</ele>
        <time>2019-04-21T15:41:58Z</time>
      </trkpt>
      <trkpt lat="45.06236" lon="5.34959">
        <ele>234.989</ele>
        <time>2019-04-21T15:41:59Z</time>
      </trkpt>
      <trkpt lat="45.06236" lon="5.3496">
        <ele>237.631</ele>
        <time>2019-04-21T15:42:01Z</time>
      </trkpt>
      <trkpt lat="45.06235" lon="5.34958">
        <ele>238.97</ele>
        <time>2019-04-21T15:42:02Z</time>
      </trkpt>
      <trkpt lat="45.06235" lon="5.34958">
        <ele>238.897</ele>
        <time>2019-04-21T15:42:03Z</time>
      </trkpt>
      <trkpt lat="45.06235" lon="5.34956">
        <ele>239.268</ele>
        <time>2019-04-21T15:42:04Z</time>
      </trkpt>
      <trkpt lat="45.06237" lon="5.34954">
        <ele>239.526</ele>
        <time>2019-04-21T15:42:05Z</time>
      </trkpt>
      <trkpt lat="45.06237" lon="5.34953">
        <ele>239.755</ele>
        <time>2019-04-21T15:42:06Z</time>
      </trkpt>
      <trkpt lat="45.06237" lon="5.34953">
        <ele>240.064</ele>
        <time>2019-04-21T15:42:07Z</time>
      </trkpt>
      <trkpt lat="45.06237" lon="5.34952">
        <ele>240.382</ele>
        <time>2019-04-21T15:42:08Z</time>
      </trkpt>
      <trkpt lat="45.06237" lon="5.3495">
        <ele>240.711</ele>
        <time>2019-04-21T15:42:09Z</time>
      </trkpt>
      <trkpt lat="45.06238" lon="5.34946">
        <ele>239.173</ele>
        <time>2019-04-21T15:42:10Z</time>
      </trkpt>
      <trkpt lat="45.06237" lon="5.34935">
        <ele>238.018</ele>
        <time>2019-04-21T15:42:12Z</time>
      </trkpt>
      <trkpt lat="45.06236" lon="5.34926">
        <ele>234.381</ele>
        <time>2019-04-21T15:42:14Z</time>
      </trkpt>
      <trkpt lat="45.06233" lon="5.34932">
        <ele>233.688</ele>
        <time>2019-04-21T15:42:16Z</time>
      </trkpt>
      <trkpt lat="45.06232" lon="5.34938">
        <ele>233.862</ele>
        <time>2019-04-21T15:42:17Z</time>
      </trkpt>
      <trkpt lat="45.06231" lon="5.34945">
        <ele>236.027</ele>
        <time>2019-04-21T15:42:19Z</time>
      </trkpt>
      <trkpt lat="45.06227" lon="5.34945">
        <ele>236.993</ele>
        <time>2019-04-21T15:42:21Z</time>
      </trkpt>
      <trkpt lat="45.06225" lon="5.34942">
        <ele>238.196</ele>
        <time>2019-04-21T15:42:24Z</time>
      </trkpt>
      <trkpt lat="45.0622" lon="5.34942">
        <ele>238.53</ele>
        <time>2019-04-21T15:42:27Z</time>
      </trkpt>
      <trkpt lat="45.06217" lon="5.34939">
        <ele>239.394</ele>
        <time>2019-04-21T15:42:29Z</time>
      </trkpt>
      <trkpt lat="45.06215" lon="5.34945">
        <ele>240.053</ele>
        <time>2019-04-21T15:42:30Z</time>
      </trkpt>
      <trkpt lat="45.06213" lon="5.34951">
        <ele>240.429</ele>
        <time>2019-04-21T15:42:31Z</time>
      </trkpt>
      <trkpt lat="45.06206" lon="5.34976">
        <ele>242.19</ele>
        <time>2019-04-21T15:42:37Z</time>
      </trkpt>
      <trkpt lat="45.06206" lon="5.3497">
        <ele>242.483</ele>
        <time>2019-04-21T15:42:39Z</time>
      </trkpt>
      <trkpt lat="45.06204" lon="5.34966">
        <ele>242.772</ele>
        <time>2019-04-21T15:42:40Z</time>
      </trkpt>
      <trkpt lat="45.06203" lon="5.34962">
        <ele>245.309</ele>
        <time>2019-04-21T15:42:41Z</time>
      </trkpt>
      <trkpt lat="45.06202" lon="5.34949">
        <ele>243.301</ele>
        <time>2019-04-21T15:42:44Z</time>
      </trkpt>
      <trkpt lat="45.06198" lon="5.3495">
        <ele>245.362</ele>
        <time>2019-04-21T15:42:48Z</time>
      </trkpt>
      <trkpt lat="45.06194" lon="5.34951">
        <ele>246.755</ele>
        <time>2019-04-21T15:42:52Z</time>
      </trkpt>
      <trkpt lat="45.06193" lon="5.34952">
        <ele>246.051</ele>
        <time>2019-04-21T15:42:54Z</time>
      </trkpt>
      <trkpt lat="45.06193" lon="5.34955">
        <ele>246.147</ele>
        <time>2019-04-21T15:42:56Z</time>
      </trkpt>
      <trkpt lat="45.06194" lon="5.34948">
        <ele>245.662</ele>
        <time>2019-04-21T15:42:59Z</time>
      </trkpt>
      <trkpt lat="45.06194" lon="5.34942">
        <ele>245.63</ele>
        <time>2019-04-21T15:43:00Z</time>
      </trkpt>
      <trkpt lat="45.06192" lon="5.34935">
        <ele>243.435</ele>
        <time>2019-04-21T15:43:01Z</time>
      </trkpt>
      <trkpt lat="45.06191" lon="5.34924">
        <ele>239.855</ele>
        <time>2019-04-21T15:43:03Z</time>
      </trkpt>
      <trkpt lat="45.06191" lon="5.34922">
        <ele>237.497</ele>
        <time>2019-04-21T15:43:04Z</time>
      </trkpt>
      <trkpt lat="45.06193" lon="5.34921">
        <ele>239.66</ele>
        <time>2019-04-21T15:43:07Z</time>
      </trkpt>
      <trkpt lat="45.06193" lon="5.34921">
        <ele>235.579</ele>
        <time>2019-04-21T15:43:08Z</time>
      </trkpt>
      <trkpt lat="45.06193" lon="5.34921">
        <ele>237.744</ele>
        <time>2019-04-21T15:43:44Z</time>
      </trkpt>
      <trkpt lat="45.06196" lon="5.3492">
        <ele>237.405</ele>
        <time>2019-04-21T15:43:45Z</time>
      </trkpt>
      <trkpt lat="45.06195" lon="5.3492">
        <ele>234.692</ele>
        <time>2019-04-21T15:43:47Z</time>
      </trkpt>
      <trkpt lat="45.06185" lon="5.34921">
        <ele>237.895</ele>
        <time>2019-04-21T15:43:53Z</time>
      </trkpt>
      <trkpt lat="45.06182" lon="5.34916">
        <ele>237.001</ele>
        <time>2019-04-21T15:43:55Z</time>
      </trkpt>
      <trkpt lat="45.06178" lon="5.34913">
        <ele>236.402</ele>
        <time>2019-04-21T15:43:58Z</time>
      </trkpt>
      <trkpt lat="45.06171" lon="5.34908">
        <ele>239.537</ele>
        <time>2019-04-21T15:44:02Z</time>
      </trkpt>
      <trkpt lat="45.06171" lon="5.34907">
        <ele>239.595</ele>
        <time>2019-04-21T15:44:03Z</time>
      </trkpt>
      <trkpt lat="45.06167" lon="5.34903">
        <ele>237.432</ele>
        <time>2019-04-21T15:44:07Z</time>
      </trkpt>
      <trkpt lat="45.06161" lon="5.349">
        <ele>238.904</ele>
        <time>2019-04-21T15:44:12Z</time>
      </trkpt>
      <trkpt lat="45.06161" lon="5.34899">
        <ele>238.825</ele>
        <time>2019-04-21T15:44:13Z</time>
      </trkpt>
      <trkpt lat="45.06156" lon="5.34895">
        <ele>241.973</ele>
        <time>2019-04-21T15:44:16Z</time>
      </trkpt>
      <trkpt lat="45.06153" lon="5.34887">
        <ele>243.224</ele>
        <time>2019-04-21T15:44:18Z</time>
      </trkpt>
      <trkpt lat="45.06152" lon="5.34882">
        <ele>243.7</ele>
        <time>2019-04-21T15:44:19Z</time>
      </trkpt>
      <trkpt lat="45.06152" lon="5.34875">
        <ele>241.178</ele>
        <time>2019-04-21T15:44:20Z</time>
      </trkpt>
      <trkpt lat="45.06151" lon="5.34863">
        <ele>240.95</ele>
        <time>2019-04-21T15:44:22Z</time>
      </trkpt>
      <trkpt lat="45.06149" lon="5.34853">
        <ele>241.152</ele>
        <time>2019-04-21T15:44:25Z</time>
      </trkpt>
      <trkpt lat="45.06149" lon="5.34854">
        <ele>241.911</ele>
        <time>2019-04-21T15:44:26Z</time>
      </trkpt>
      <trkpt lat="45.06148" lon="5.34858">
        <ele>242.219</ele>
        <time>2019-04-21T15:44:28Z</time>
      </trkpt>
      <trkpt lat="45.06143" lon="5.34867">
        <ele>244.488</ele>
        <time>2019-04-21T15:44:31Z</time>
      </trkpt>
      <trkpt lat="45.06137" lon="5.34872">
        <ele>247.408</ele>
        <time>2019-04-21T15:44:37Z</time>
      </trkpt>
      <trkpt lat="45.06134" lon="5.3487">
        <ele>246.777</ele>
        <time>2019-04-21T15:44:40Z</time>
      </trkpt>
      <trkpt lat="45.06131" lon="5.34866">
        <ele>247.62</ele>
        <time>2019-04-21T15:44:42Z</time>
      </trkpt>
      <trkpt lat="45.06129" lon="5.34864">
        <ele>247.638</ele>
        <time>2019-04-21T15:44:43Z</time>
      </trkpt>
      <trkpt lat="45.06126" lon="5.34863">
        <ele>247.455</ele>
        <time>2019-04-21T15:44:44Z</time>
      </trkpt>
      <trkpt lat="45.06113" lon="5.34858">
        <ele>250.78</ele>
        <time>2019-04-21T15:44:49Z</time>
      </trkpt>
      <trkpt lat="45.06112" lon="5.34859">
        <ele>249.712</ele>
        <time>2019-04-21T15:44:50Z</time>
      </trkpt>
      <trkpt lat="45.06107" lon="5.34865">
        <ele>251.451</ele>
        <time>2019-04-21T15:44:53Z</time>
      </trkpt>
      <trkpt lat="45.06104" lon="5.34873">
        <ele>251.461</ele>
        <time>2019-04-21T15:44:55Z</time>
      </trkpt>
      <trkpt lat="45.06105" lon="5.34876">
        <ele>248.864</ele>
        <time>2019-04-21T15:44:56Z</time>
      </trkpt>
      <trkpt lat="45.06106" lon="5.3488">
        <ele>247.88</ele>
        <time>2019-04-21T15:44:57Z</time>
      </trkpt>
      <trkpt lat="45.0611" lon="5.34888">
        <ele>247.268</ele>
        <time>2019-04-21T15:44:59Z</time>
      </trkpt>
      <trkpt lat="45.0611" lon="5.34888">
        <ele>247.028</ele>
        <time>2019-04-21T15:45:06Z</time>
      </trkpt>
      <trkpt lat="45.06111" lon="5.34892">
        <ele>247.038</ele>
        <time>2019-04-21T15:45:07Z</time>
      </trkpt>
      <trkpt lat="45.0611" lon="5.34891">
        <ele>247.001</ele>
        <time>2019-04-21T15:45:08Z</time>
      </trkpt>
      <trkpt lat="45.06096" lon="5.34868">
        <ele>247.544</ele>
        <time>2019-04-21T15:45:15Z</time>
      </trkpt>
      <trkpt lat="45.06092" lon="5.34857">
        <ele>245.466</ele>
        <time>2019-04-21T15:45:18Z</time>
      </trkpt>
      <trkpt lat="45.06093" lon="5.34852">
        <ele>245.025</ele>
        <time>2019-04-21T15:45:19Z</time>
      </trkpt>
      <trkpt lat="45.06098" lon="5.34833">
        <ele>242.641</ele>
        <time>2019-04-21T15:45:25Z</time>
      </trkpt>
      <trkpt lat="45.06099" lon="5.34833">
        <ele>242.711</ele>
        <time>2019-04-21T15:45:28Z</time>
      </trkpt>
      <trkpt lat="45.06099" lon="5.34833">
        <ele>242.431</ele>
        <time>2019-04-21T15:45:29Z</time>
      </trkpt>
      <trkpt lat="45.06099" lon="5.34831">
        <ele>241.669</ele>
        <time>2019-04-21T15:45:33Z</time>
      </trkpt>
      <trkpt lat="45.06099" lon="5.34833">
        <ele>241.302</ele>
        <time>2019-04-21T15:45:34Z</time>
      </trkpt>
      <trkpt lat="45.06097" lon="5.34838">
        <ele>241.826</ele>
        <time>2019-04-21T15:45:36Z</time>
      </trkpt>
      <trkpt lat="45.06096" lon="5.34845">
        <ele>240.663</ele>
        <time>2019-04-21T15:45:38Z</time>
      </trkpt>
      <trkpt lat="45.06096" lon="5.34845">
        <ele>240.544</ele>
        <time>2019-04-21T15:45:39Z</time>
      </trkpt>
      <trkpt lat="45.06096" lon="5.34845">
        <ele>240.544</ele>
        <time>2019-04-21T15:45:39Z</time>
      </trkpt>
      <trkpt lat="45.06096" lon="5.34845">
        <ele>240.793</ele>
        <time>2019-04-21T15:45:40Z</time>
      </trkpt>
      <trkpt lat="45.06096" lon="5.34844">
        <ele>241.279</ele>
        <time>2019-04-21T15:45:42Z</time>
      </trkpt>
      <trkpt lat="45.06096" lon="5.34844">
        <ele>241.765</ele>
        <time>2019-04-21T15:45:43Z</time>
      </trkpt>
      <trkpt lat="45.06096" lon="5.34844">
        <ele>241.765</ele>
        <time>2019-04-21T15:45:43Z</time>
      </trkpt>
      <trkpt lat="45.06097" lon="5.34843">
        <ele>241.862</ele>
        <time>2019-04-21T15:45:44Z</time>
      </trkpt>
      <trkpt lat="45.06097" lon="5.34843">
        <ele>241.304</ele>
        <time>2019-04-21T15:45:45Z</time>
      </trkpt>
      <trkpt lat="45.06097" lon="5.34843">
        <ele>241.304</ele>
        <time>2019-04-21T15:45:45Z</time>
      </trkpt>
      <trkpt lat="45.06099" lon="5.34844">
        <ele>241.631</ele>
        <time>2019-04-21T15:45:46Z</time>
      </trkpt>
      <trkpt lat="45.06099" lon="5.34844">
        <ele>241.384</ele>
        <time>2019-04-21T15:45:47Z</time>
      </trkpt>
      <trkpt lat="45.06099" lon="5.34844">
        <ele>242.357</ele>
        <time>2019-04-21T15:46:02Z</time>
      </trkpt>
      <trkpt lat="45.06101" lon="5.34843">
        <ele>242.432</ele>
        <time>2019-04-21T15:46:03Z</time>
      </trkpt>
      <trkpt lat="45.061" lon="5.34842">
        <ele>242.786</ele>
        <time>2019-04-21T15:46:04Z</time>
      </trkpt>
      <trkpt lat="45.061" lon="5.34842">
        <ele>241.16</ele>
        <time>2019-04-21T15:46:05Z</time>
      </trkpt>
      <trkpt lat="45.061" lon="5.34842">
        <ele>240.907</ele>
        <time>2019-04-21T15:46:06Z</time>
      </trkpt>
      <trkpt lat="45.06099" lon="5.34841">
        <ele>240.823</ele>
        <time>2019-04-21T15:46:07Z</time>
      </trkpt>
      <trkpt lat="45.06099" lon="5.34841">
        <ele>240.906</ele>
        <time>2019-04-21T15:46:08Z</time>
      </trkpt>
      <trkpt lat="45.06099" lon="5.34841">
        <ele>240.906</ele>
        <time>2019-04-21T15:46:08Z</time>
      </trkpt>
      <trkpt lat="45.06098" lon="5.34841">
        <ele>240.932</ele>
        <time>2019-04-21T15:46:09Z</time>
      </trkpt>
      <trkpt lat="45.06098" lon="5.34841">
        <ele>241.122</ele>
        <time>2019-04-21T15:46:10Z</time>
      </trkpt>
      <trkpt lat="45.06098" lon="5.34841">
        <ele>241.434</ele>
        <time>2019-04-21T15:46:11Z</time>
      </trkpt>
      <trkpt lat="45.06097" lon="5.34842">
        <ele>241.448</ele>
        <time>2019-04-21T15:46:12Z</time>
      </trkpt>
      <trkpt lat="45.06099" lon="5.34841">
        <ele>241.006</ele>
        <time>2019-04-21T15:46:16Z</time>
      </trkpt>
      <trkpt lat="45.06099" lon="5.3484">
        <ele>240.361</ele>
        <time>2019-04-21T15:46:17Z</time>
      </trkpt>
      <trkpt lat="45.06099" lon="5.34839">
        <ele>240.344</ele>
        <time>2019-04-21T15:46:18Z</time>
      </trkpt>
      <trkpt lat="45.06098" lon="5.34838">
        <ele>240.057</ele>
        <time>2019-04-21T15:46:19Z</time>
      </trkpt>
      <trkpt lat="45.06097" lon="5.34836">
        <ele>239.871</ele>
        <time>2019-04-21T15:46:22Z</time>
      </trkpt>
      <trkpt lat="45.06097" lon="5.34836">
        <ele>240.051</ele>
        <time>2019-04-21T15:46:28Z</time>
      </trkpt>
      <trkpt lat="45.06096" lon="5.34832">
        <ele>241.937</ele>
        <time>2019-04-21T15:46:29Z</time>
      </trkpt>
      <trkpt lat="45.06097" lon="5.34832">
        <ele>235.202</ele>
        <time>2019-04-21T15:46:32Z</time>
      </trkpt>
      <trkpt lat="45.06098" lon="5.34831">
        <ele>236.359</ele>
        <time>2019-04-21T15:46:33Z</time>
      </trkpt>
      <trkpt lat="45.06097" lon="5.34827">
        <ele>233.687</ele>
        <time>2019-04-21T15:46:38Z</time>
      </trkpt>
      <trkpt lat="45.06097" lon="5.34826">
        <ele>233.849</ele>
        <time>2019-04-21T15:46:39Z</time>
      </trkpt>
      <trkpt lat="45.06096" lon="5.34826">
        <ele>232.237</ele>
        <time>2019-04-21T15:46:43Z</time>
      </trkpt>
      <trkpt lat="45.06096" lon="5.34826">
        <ele>232.282</ele>
        <time>2019-04-21T15:46:44Z</time>
      </trkpt>
      <trkpt lat="45.06097" lon="5.34829">
        <ele>232.311</ele>
        <time>2019-04-21T15:46:45Z</time>
      </trkpt>
      <trkpt lat="45.06096" lon="5.3483">
        <ele>231.367</ele>
        <time>2019-04-21T15:46:47Z</time>
      </trkpt>
      <trkpt lat="45.06096" lon="5.3483">
        <ele>231.436</ele>
        <time>2019-04-21T15:46:59Z</time>
      </trkpt>
      <trkpt lat="45.06095" lon="5.34834">
        <ele>230.991</ele>
        <time>2019-04-21T15:47:00Z</time>
      </trkpt>
      <trkpt lat="45.06095" lon="5.34834">
        <ele>231.959</ele>
        <time>2019-04-21T15:47:03Z</time>
      </trkpt>
      <trkpt lat="45.06095" lon="5.34834">
        <ele>231.959</ele>
        <time>2019-04-21T15:47:03Z</time>
      </trkpt>
      <trkpt lat="45.06095" lon="5.34833">
        <ele>231.388</ele>
        <time>2019-04-21T15:47:04Z</time>
      </trkpt>
      <trkpt lat="45.06095" lon="5.34833">
        <ele>231.355</ele>
        <time>2019-04-21T15:47:05Z</time>
      </trkpt>
      <trkpt lat="45.06094" lon="5.34833">
        <ele>231.168</ele>
        <time>2019-04-21T15:47:06Z</time>
      </trkpt>
      <trkpt lat="45.06093" lon="5.34831">
        <ele>232.165</ele>
        <time>2019-04-21T15:47:08Z</time>
      </trkpt>
      <trkpt lat="45.0609" lon="5.34826">
        <ele>230.106</ele>
        <time>2019-04-21T15:47:13Z</time>
      </trkpt>
      <trkpt lat="45.0609" lon="5.34826">
        <ele>230.125</ele>
        <time>2019-04-21T15:47:15Z</time>
      </trkpt>
      <trkpt lat="45.0609" lon="5.34826">
        <ele>229.941</ele>
        <time>2019-04-21T15:47:16Z</time>
      </trkpt>
      <trkpt lat="45.0609" lon="5.34826">
        <ele>229.521</ele>
        <time>2019-04-21T15:47:22Z</time>
      </trkpt>
      <trkpt lat="45.06091" lon="5.34825">
        <ele>229.776</ele>
        <time>2019-04-21T15:47:23Z</time>
      </trkpt>
      <trkpt lat="45.0609" lon="5.34824">
        <ele>230.491</ele>
        <time>2019-04-21T15:47:24Z</time>
      </trkpt>
      <trkpt lat="45.06088" lon="5.3482">
        <ele>228.559</ele>
        <time>2019-04-21T15:47:27Z</time>
      </trkpt>
      <trkpt lat="45.06088" lon="5.3482">
        <ele>228.559</ele>
        <time>2019-04-21T15:47:27Z</time>
      </trkpt>
      <trkpt lat="45.06088" lon="5.3482">
        <ele>228.913</ele>
        <time>2019-04-21T15:47:28Z</time>
      </trkpt>
      <trkpt lat="45.06087" lon="5.34819">
        <ele>228.432</ele>
        <time>2019-04-21T15:47:31Z</time>
      </trkpt>
      <trkpt lat="45.06087" lon="5.34818">
        <ele>228.784</ele>
        <time>2019-04-21T15:47:32Z</time>
      </trkpt>
      <trkpt lat="45.06087" lon="5.34815">
        <ele>229.251</ele>
        <time>2019-04-21T15:47:35Z</time>
      </trkpt>
      <trkpt lat="45.06078" lon="5.34798">
        <ele>228.393</ele>
        <time>2019-04-21T15:47:52Z</time>
      </trkpt>
      <trkpt lat="45.06079" lon="5.34796">
        <ele>228.681</ele>
        <time>2019-04-21T15:47:54Z</time>
      </trkpt>
      <trkpt lat="45.06079" lon="5.34796">
        <ele>228.824</ele>
        <time>2019-04-21T15:47:55Z</time>
      </trkpt>
      <trkpt lat="45.06079" lon="5.34795">
        <ele>228.84</ele>
        <time>2019-04-21T15:47:56Z</time>
      </trkpt>
      <trkpt lat="45.06078" lon="5.34791">
        <ele>229.308</ele>
        <time>2019-04-21T15:47:59Z</time>
      </trkpt>
      <trkpt lat="45.06075" lon="5.34783">
        <ele>228.517</ele>
        <time>2019-04-21T15:48:05Z</time>
      </trkpt>
      <trkpt lat="45.06074" lon="5.34781">
        <ele>228.115</ele>
        <time>2019-04-21T15:48:07Z</time>
      </trkpt>
      <trkpt lat="45.06075" lon="5.34781">
        <ele>227.932</ele>
        <time>2019-04-21T15:48:10Z</time>
      </trkpt>
      <trkpt lat="45.06073" lon="5.34781">
        <ele>228.039</ele>
        <time>2019-04-21T15:48:13Z</time>
      </trkpt>
      <trkpt lat="45.0607" lon="5.34779">
        <ele>228.395</ele>
        <time>2019-04-21T15:48:17Z</time>
      </trkpt>
      <trkpt lat="45.06068" lon="5.34775">
        <ele>228.717</ele>
        <time>2019-04-21T15:48:21Z</time>
      </trkpt>
      <trkpt lat="45.06069" lon="5.34772">
        <ele>228.904</ele>
        <time>2019-04-21T15:48:24Z</time>
      </trkpt>
      <trkpt lat="45.06069" lon="5.34772">
        <ele>228.934</ele>
        <time>2019-04-21T15:48:25Z</time>
      </trkpt>
      <trkpt lat="45.06072" lon="5.34774">
        <ele>228.801</ele>
        <time>2019-04-21T15:48:26Z</time>
      </trkpt>
      <trkpt lat="45.06071" lon="5.34774">
        <ele>228.693</ele>
        <time>2019-04-21T15:48:27Z</time>
      </trkpt>
      <trkpt lat="45.06071" lon="5.34773">
        <ele>228.025</ele>
        <time>2019-04-21T15:48:28Z</time>
      </trkpt>
      <trkpt lat="45.06069" lon="5.34771">
        <ele>228.092</ele>
        <time>2019-04-21T15:48:30Z</time>
      </trkpt>
      <trkpt lat="45.06054" lon="5.34742">
        <ele>229.231</ele>
        <time>2019-04-21T15:48:52Z</time>
      </trkpt>
      <trkpt lat="45.06054" lon="5.3474">
        <ele>228.911</ele>
        <time>2019-04-21T15:48:55Z</time>
      </trkpt>
      <trkpt lat="45.06052" lon="5.34741">
        <ele>228.167</ele>
        <time>2019-04-21T15:48:59Z</time>
      </trkpt>
      <trkpt lat="45.0605" lon="5.34738">
        <ele>227.742</ele>
        <time>2019-04-21T15:49:04Z</time>
      </trkpt>
      <trkpt lat="45.06049" lon="5.34738">
        <ele>224.641</ele>
        <time>2019-04-21T15:49:07Z</time>
      </trkpt>
      <trkpt lat="45.06049" lon="5.34738">
        <ele>223.85</ele>
        <time>2019-04-21T15:49:09Z</time>
      </trkpt>
      <trkpt lat="45.06047" lon="5.34739">
        <ele>223.83</ele>
        <time>2019-04-21T15:49:10Z</time>
      </trkpt>
      <trkpt lat="45.06042" lon="5.34734">
        <ele>225.06</ele>
        <time>2019-04-21T15:49:14Z</time>
      </trkpt>
      <trkpt lat="45.06043" lon="5.34735">
        <ele>224.349</ele>
        <time>2019-04-21T15:49:15Z</time>
      </trkpt>
      <trkpt lat="45.06044" lon="5.34739">
        <ele>222.957</ele>
        <time>2019-04-21T15:49:17Z</time>
      </trkpt>
      <trkpt lat="45.06044" lon="5.34739">
        <ele>222.982</ele>
        <time>2019-04-21T15:49:18Z</time>
      </trkpt>
      <trkpt lat="45.06047" lon="5.34745">
        <ele>221.645</ele>
        <time>2019-04-21T15:49:23Z</time>
      </trkpt>
      <trkpt lat="45.06047" lon="5.34745">
        <ele>221.645</ele>
        <time>2019-04-21T15:49:23Z</time>
      </trkpt>
      <trkpt lat="45.06047" lon="5.34745">
        <ele>222.026</ele>
        <time>2019-04-21T15:49:24Z</time>
      </trkpt>
      <trkpt lat="45.06048" lon="5.34745">
        <ele>221.74</ele>
        <time>2019-04-21T15:49:25Z</time>
      </trkpt>
      <trkpt lat="45.06048" lon="5.34744">
        <ele>222.098</ele>
        <time>2019-04-21T15:49:26Z</time>
      </trkpt>
      <trkpt lat="45.06048" lon="5.34743">
        <ele>222.341</ele>
        <time>2019-04-21T15:49:27Z</time>
      </trkpt>
      <trkpt lat="45.06048" lon="5.34742">
        <ele>223.016</ele>
        <time>2019-04-21T15:49:28Z</time>
      </trkpt>
      <trkpt lat="45.06047" lon="5.34737">
        <ele>224.468</ele>
        <time>2019-04-21T15:49:33Z</time>
      </trkpt>
      <trkpt lat="45.06047" lon="5.34737">
        <ele>224.468</ele>
        <time>2019-04-21T15:49:33Z</time>
      </trkpt>
      <trkpt lat="45.06047" lon="5.34736">
        <ele>224.743</ele>
        <time>2019-04-21T15:49:34Z</time>
      </trkpt>
      <trkpt lat="45.06047" lon="5.34736">
        <ele>221.734</ele>
        <time>2019-04-21T15:49:35Z</time>
      </trkpt>
      <trkpt lat="45.06046" lon="5.34732">
        <ele>218.686</ele>
        <time>2019-04-21T15:49:44Z</time>
      </trkpt>
      <trkpt lat="45.06045" lon="5.34732">
        <ele>219.77</ele>
        <time>2019-04-21T15:49:45Z</time>
      </trkpt>
      <trkpt lat="45.06044" lon="5.34726">
        <ele>220.769</ele>
        <time>2019-04-21T15:49:51Z</time>
      </trkpt>
      <trkpt lat="45.06044" lon="5.34726">
        <ele>221.283</ele>
        <time>2019-04-21T15:49:52Z</time>
      </trkpt>
      <trkpt lat="45.06044" lon="5.34726">
        <ele>221.874</ele>
        <time>2019-04-21T15:49:53Z</time>
      </trkpt>
      <trkpt lat="45.06045" lon="5.34723">
        <ele>222.219</ele>
        <time>2019-04-21T15:49:55Z</time>
      </trkpt>
      <trkpt lat="45.06046" lon="5.34723">
        <ele>221.105</ele>
        <time>2019-04-21T15:49:57Z</time>
      </trkpt>
      <trkpt lat="45.06045" lon="5.34723">
        <ele>221.613</ele>
        <time>2019-04-21T15:50:00Z</time>
      </trkpt>
      <trkpt lat="45.06045" lon="5.34723">
        <ele>221.399</ele>
        <time>2019-04-21T15:50:01Z</time>
      </trkpt>
      <trkpt lat="45.06045" lon="5.34723">
        <ele>221.399</ele>
        <time>2019-04-21T15:50:01Z</time>
      </trkpt>
      <trkpt lat="45.06044" lon="5.34725">
        <ele>221.836</ele>
        <time>2019-04-21T15:50:02Z</time>
      </trkpt>
      <trkpt lat="45.06043" lon="5.34725">
        <ele>222.025</ele>
        <time>2019-04-21T15:50:03Z</time>
      </trkpt>
      <trkpt lat="45.06043" lon="5.34724">
        <ele>221.897</ele>
        <time>2019-04-21T15:50:06Z</time>
      </trkpt>
      <trkpt lat="45.06043" lon="5.34724">
        <ele>221.834</ele>
        <time>2019-04-21T15:50:30Z</time>
      </trkpt>
      <trkpt lat="45.06046" lon="5.34724">
        <ele>221.329</ele>
        <time>2019-04-21T15:50:31Z</time>
      </trkpt>
      <trkpt lat="45.06046" lon="5.34725">
        <ele>218.935</ele>
        <time>2019-04-21T15:50:34Z</time>
      </trkpt>
      <trkpt lat="45.06045" lon="5.34728">
        <ele>215.58</ele>
        <time>2019-04-21T15:50:36Z</time>
      </trkpt>
      <trkpt lat="45.06045" lon="5.34729">
        <ele>216.319</ele>
        <time>2019-04-21T15:50:37Z</time>
      </trkpt>
      <trkpt lat="45.06042" lon="5.3473">
        <ele>218.153</ele>
        <time>2019-04-21T15:50:41Z</time>
      </trkpt>
      <trkpt lat="45.06042" lon="5.3473">
        <ele>217.959</ele>
        <time>2019-04-21T15:50:42Z</time>
      </trkpt>
      <trkpt lat="45.06042" lon="5.3473">
        <ele>216.141</ele>
        <time>2019-04-21T15:50:47Z</time>
      </trkpt>
      <trkpt lat="45.0604" lon="5.34732">
        <ele>215.286</ele>
        <time>2019-04-21T15:50:48Z</time>
      </trkpt>
      <trkpt lat="45.0604" lon="5.34732">
        <ele>217.738</ele>
        <time>2019-04-21T15:50:54Z</time>
      </trkpt>
      <trkpt lat="45.06036" lon="5.34726">
        <ele>215.558</ele>
        <time>2019-04-21T15:51:03Z</time>
      </trkpt>
      <trkpt lat="45.06036" lon="5.34726">
        <ele>215.115</ele>
        <time>2019-04-21T15:51:04Z</time>
      </trkpt>
      <trkpt lat="45.06037" lon="5.34726">
        <ele>214.037</ele>
        <time>2019-04-21T15:51:05Z</time>
      </trkpt>
      <trkpt lat="45.06038" lon="5.34724">
        <ele>214.322</ele>
        <time>2019-04-21T15:51:06Z</time>
      </trkpt>
      <trkpt lat="45.06041" lon="5.34721">
        <ele>214.814</ele>
        <time>2019-04-21T15:51:09Z</time>
      </trkpt>
      <trkpt lat="45.06042" lon="5.34721">
        <ele>215.054</ele>
        <time>2019-04-21T15:51:10Z</time>
      </trkpt>
      <trkpt lat="45.06042" lon="5.3472">
        <ele>214.41</ele>
        <time>2019-04-21T15:51:13Z</time>
      </trkpt>
      <trkpt lat="45.06042" lon="5.3472">
        <ele>214.41</ele>
        <time>2019-04-21T15:51:13Z</time>
      </trkpt>
      <trkpt lat="45.06042" lon="5.34719">
        <ele>213.818</ele>
        <time>2019-04-21T15:51:14Z</time>
      </trkpt>
      <trkpt lat="45.06042" lon="5.34719">
        <ele>213.818</ele>
        <time>2019-04-21T15:51:14Z</time>
      </trkpt>
      <trkpt lat="45.06042" lon="5.34719">
        <ele>213.049</ele>
        <time>2019-04-21T15:51:15Z</time>
      </trkpt>
      <trkpt lat="45.06041" lon="5.34718">
        <ele>213.504</ele>
        <time>2019-04-21T15:51:16Z</time>
      </trkpt>
      <trkpt lat="45.0604" lon="5.34714">
        <ele>213.25</ele>
        <time>2019-04-21T15:51:18Z</time>
      </trkpt>
      <trkpt lat="45.0604" lon="5.34708">
        <ele>214.953</ele>
        <time>2019-04-21T15:51:22Z</time>
      </trkpt>
      <trkpt lat="45.0604" lon="5.34707">
        <ele>214.622</ele>
        <time>2019-04-21T15:51:23Z</time>
      </trkpt>
      <trkpt lat="45.0604" lon="5.34705">
        <ele>214.526</ele>
        <time>2019-04-21T15:51:25Z</time>
      </trkpt>
      <trkpt lat="45.06041" lon="5.34691">
        <ele>215.077</ele>
        <time>2019-04-21T15:51:37Z</time>
      </trkpt>
      <trkpt lat="45.06041" lon="5.34683">
        <ele>215.149</ele>
        <time>2019-04-21T15:51:42Z</time>
      </trkpt>
      <trkpt lat="45.06047" lon="5.34673">
        <ele>215.413</ele>
        <time>2019-04-21T15:51:52Z</time>
      </trkpt>
      <trkpt lat="45.06048" lon="5.34674">
        <ele>215.487</ele>
        <time>2019-04-21T15:51:53Z</time>
      </trkpt>
      <trkpt lat="45.06048" lon="5.34674">
        <ele>215.487</ele>
        <time>2019-04-21T15:51:53Z</time>
      </trkpt>
      <trkpt lat="45.06048" lon="5.34674">
        <ele>215.454</ele>
        <time>2019-04-21T15:51:54Z</time>
      </trkpt>
      <trkpt lat="45.06049" lon="5.34669">
        <ele>215.608</ele>
        <time>2019-04-21T15:51:58Z</time>
      </trkpt>
      <trkpt lat="45.06047" lon="5.34665">
        <ele>215.656</ele>
        <time>2019-04-21T15:52:00Z</time>
      </trkpt>
      <trkpt lat="45.06042" lon="5.34653">
        <ele>215.491</ele>
        <time>2019-04-21T15:52:06Z</time>
      </trkpt>
      <trkpt lat="45.06041" lon="5.34654">
        <ele>215.318</ele>
        <time>2019-04-21T15:52:07Z</time>
      </trkpt>
      <trkpt lat="45.06042" lon="5.34659">
        <ele>215.447</ele>
        <time>2019-04-21T15:52:10Z</time>
      </trkpt>
      <trkpt lat="45.06043" lon="5.34661">
        <ele>215.523</ele>
        <time>2019-04-21T15:52:14Z</time>
      </trkpt>
      <trkpt lat="45.06043" lon="5.34661">
        <ele>215.523</ele>
        <time>2019-04-21T15:52:14Z</time>
      </trkpt>
      <trkpt lat="45.06044" lon="5.34662">
        <ele>215.492</ele>
        <time>2019-04-21T15:52:15Z</time>
      </trkpt>
      <trkpt lat="45.06045" lon="5.34661">
        <ele>215.332</ele>
        <time>2019-04-21T15:52:17Z</time>
      </trkpt>
      <trkpt lat="45.06044" lon="5.34658">
        <ele>215.283</ele>
        <time>2019-04-21T15:52:18Z</time>
      </trkpt>
      <trkpt lat="45.06043" lon="5.34655">
        <ele>215.089</ele>
        <time>2019-04-21T15:52:19Z</time>
      </trkpt>
      <trkpt lat="45.06041" lon="5.34653">
        <ele>215.037</ele>
        <time>2019-04-21T15:52:20Z</time>
      </trkpt>
      <trkpt lat="45.06041" lon="5.34653">
        <ele>214.973</ele>
        <time>2019-04-21T15:52:21Z</time>
      </trkpt>
      <trkpt lat="45.06041" lon="5.34653">
        <ele>214.826</ele>
        <time>2019-04-21T15:52:23Z</time>
      </trkpt>
      <trkpt lat="45.06037" lon="5.3465">
        <ele>214.704</ele>
        <time>2019-04-21T15:52:24Z</time>
      </trkpt>
      <trkpt lat="45.06038" lon="5.34647">
        <ele>214.571</ele>
        <time>2019-04-21T15:52:27Z</time>
      </trkpt>
      <trkpt lat="45.06037" lon="5.34645">
        <ele>214.174</ele>
        <time>2019-04-21T15:52:28Z</time>
      </trkpt>
      <trkpt lat="45.06038" lon="5.34644">
        <ele>213.775</ele>
        <time>2019-04-21T15:52:31Z</time>
      </trkpt>
      <trkpt lat="45.06041" lon="5.34645">
        <ele>213.817</ele>
        <time>2019-04-21T15:52:33Z</time>
      </trkpt>
      <trkpt lat="45.06042" lon="5.34646">
        <ele>213.757</ele>
        <time>2019-04-21T15:52:34Z</time>
      </trkpt>
      <trkpt lat="45.06042" lon="5.34647">
        <ele>213.744</ele>
        <time>2019-04-21T15:52:35Z</time>
      </trkpt>
      <trkpt lat="45.06042" lon="5.34648">
        <ele>213.987</ele>
        <time>2019-04-21T15:52:37Z</time>
      </trkpt>
      <trkpt lat="45.06042" lon="5.34648">
        <ele>214.131</ele>
        <time>2019-04-21T15:52:38Z</time>
      </trkpt>
      <trkpt lat="45.06044" lon="5.34652">
        <ele>213.746</ele>
        <time>2019-04-21T15:52:39Z</time>
      </trkpt>
      <trkpt lat="45.06048" lon="5.34654">
        <ele>213.581</ele>
        <time>2019-04-21T15:52:41Z</time>
      </trkpt>
      <trkpt lat="45.06053" lon="5.34656">
        <ele>213.223</ele>
        <time>2019-04-21T15:52:43Z</time>
      </trkpt>
      <trkpt lat="45.06059" lon="5.34651">
        <ele>213.179</ele>
        <time>2019-04-21T15:52:47Z</time>
      </trkpt>
      <trkpt lat="45.06064" lon="5.34646">
        <ele>212.471</ele>
        <time>2019-04-21T15:52:51Z</time>
      </trkpt>
      <trkpt lat="45.06073" lon="5.34643">
        <ele>215.11</ele>
        <time>2019-04-21T15:52:56Z</time>
      </trkpt>
      <trkpt lat="45.06081" lon="5.34637">
        <ele>217.154</ele>
        <time>2019-04-21T15:53:02Z</time>
      </trkpt>
      <trkpt lat="45.06082" lon="5.34633">
        <ele>217.581</ele>
        <time>2019-04-21T15:53:04Z</time>
      </trkpt>
      <trkpt lat="45.06086" lon="5.34621">
        <ele>218.337</ele>
        <time>2019-04-21T15:53:10Z</time>
      </trkpt>
      <trkpt lat="45.0609" lon="5.34617">
        <ele>218.655</ele>
        <time>2019-04-21T15:53:13Z</time>
      </trkpt>
      <trkpt lat="45.061" lon="5.34609">
        <ele>220.538</ele>
        <time>2019-04-21T15:53:24Z</time>
      </trkpt>
      <trkpt lat="45.06102" lon="5.34604">
        <ele>220.398</ele>
        <time>2019-04-21T15:53:29Z</time>
      </trkpt>
      <trkpt lat="45.06103" lon="5.34592">
        <ele>222.472</ele>
        <time>2019-04-21T15:53:35Z</time>
      </trkpt>
      <trkpt lat="45.06104" lon="5.3459">
        <ele>222.853</ele>
        <time>2019-04-21T15:53:37Z</time>
      </trkpt>
      <trkpt lat="45.06105" lon="5.34586">
        <ele>222.819</ele>
        <time>2019-04-21T15:53:39Z</time>
      </trkpt>
      <trkpt lat="45.06107" lon="5.34573">
        <ele>222.158</ele>
        <time>2019-04-21T15:53:43Z</time>
      </trkpt>
      <trkpt lat="45.06106" lon="5.34572">
        <ele>222.09</ele>
        <time>2019-04-21T15:53:44Z</time>
      </trkpt>
      <trkpt lat="45.06106" lon="5.34557">
        <ele>219.994</ele>
        <time>2019-04-21T15:53:53Z</time>
      </trkpt>
      <trkpt lat="45.061" lon="5.34548">
        <ele>219.386</ele>
        <time>2019-04-21T15:53:57Z</time>
      </trkpt>
      <trkpt lat="45.06091" lon="5.34535">
        <ele>218.735</ele>
        <time>2019-04-21T15:54:04Z</time>
      </trkpt>
      <trkpt lat="45.06094" lon="5.34524">
        <ele>219.408</ele>
        <time>2019-04-21T15:54:09Z</time>
      </trkpt>
      <trkpt lat="45.06099" lon="5.34524">
        <ele>220.207</ele>
        <time>2019-04-21T15:54:11Z</time>
      </trkpt>
      <trkpt lat="45.06103" lon="5.3452">
        <ele>221.14</ele>
        <time>2019-04-21T15:54:15Z</time>
      </trkpt>
      <trkpt lat="45.06104" lon="5.34513">
        <ele>221.929</ele>
        <time>2019-04-21T15:54:19Z</time>
      </trkpt>
      <trkpt lat="45.06104" lon="5.34512">
        <ele>221.681</ele>
        <time>2019-04-21T15:54:21Z</time>
      </trkpt>
      <trkpt lat="45.06103" lon="5.34512">
        <ele>220.758</ele>
        <time>2019-04-21T15:54:24Z</time>
      </trkpt>
      <trkpt lat="45.06102" lon="5.34511">
        <ele>220.827</ele>
        <time>2019-04-21T15:54:27Z</time>
      </trkpt>
      <trkpt lat="45.06102" lon="5.34511">
        <ele>220.827</ele>
        <time>2019-04-21T15:54:27Z</time>
      </trkpt>
      <trkpt lat="45.06101" lon="5.3451">
        <ele>221.294</ele>
        <time>2019-04-21T15:54:28Z</time>
      </trkpt>
      <trkpt lat="45.06101" lon="5.34508">
        <ele>221.9</ele>
        <time>2019-04-21T15:54:30Z</time>
      </trkpt>
      <trkpt lat="45.06102" lon="5.34492">
        <ele>221.487</ele>
        <time>2019-04-21T15:54:40Z</time>
      </trkpt>
      <trkpt lat="45.06104" lon="5.3449">
        <ele>221.162</ele>
        <time>2019-04-21T15:54:43Z</time>
      </trkpt>
      <trkpt lat="45.06106" lon="5.3449">
        <ele>221.098</ele>
        <time>2019-04-21T15:54:45Z</time>
      </trkpt>
      <trkpt lat="45.06108" lon="5.34486">
        <ele>220.668</ele>
        <time>2019-04-21T15:54:49Z</time>
      </trkpt>
      <trkpt lat="45.06107" lon="5.34484">
        <ele>220.455</ele>
        <time>2019-04-21T15:54:50Z</time>
      </trkpt>
      <trkpt lat="45.06108" lon="5.34478">
        <ele>219.144</ele>
        <time>2019-04-21T15:54:53Z</time>
      </trkpt>
      <trkpt lat="45.06109" lon="5.34471">
        <ele>218.623</ele>
        <time>2019-04-21T15:54:57Z</time>
      </trkpt>
      <trkpt lat="45.06109" lon="5.34471">
        <ele>218.623</ele>
        <time>2019-04-21T15:54:57Z</time>
      </trkpt>
      <trkpt lat="45.06109" lon="5.3447">
        <ele>218.655</ele>
        <time>2019-04-21T15:54:58Z</time>
      </trkpt>
      <trkpt lat="45.0611" lon="5.34469">
        <ele>218.558</ele>
        <time>2019-04-21T15:54:59Z</time>
      </trkpt>
      <trkpt lat="45.0611" lon="5.34467">
        <ele>218.649</ele>
        <time>2019-04-21T15:55:00Z</time>
      </trkpt>
      <trkpt lat="45.06111" lon="5.34462">
        <ele>218.16</ele>
        <time>2019-04-21T15:55:02Z</time>
      </trkpt>
      <trkpt lat="45.06116" lon="5.3445">
        <ele>219.15</ele>
        <time>2019-04-21T15:55:07Z</time>
      </trkpt>
      <trkpt lat="45.06118" lon="5.34446">
        <ele>219.229</ele>
        <time>2019-04-21T15:55:09Z</time>
      </trkpt>
      <trkpt lat="45.06124" lon="5.3443">
        <ele>218.841</ele>
        <time>2019-04-21T15:55:19Z</time>
      </trkpt>
      <trkpt lat="45.06126" lon="5.34421">
        <ele>218.615</ele>
        <time>2019-04-21T15:55:25Z</time>
      </trkpt>
      <trkpt lat="45.06128" lon="5.34414">
        <ele>218.272</ele>
        <time>2019-04-21T15:55:28Z</time>
      </trkpt>
      <trkpt lat="45.06127" lon="5.34409">
        <ele>217.691</ele>
        <time>2019-04-21T15:55:31Z</time>
      </trkpt>
      <trkpt lat="45.06125" lon="5.34396">
        <ele>216.195</ele>
        <time>2019-04-21T15:55:37Z</time>
      </trkpt>
      <trkpt lat="45.06127" lon="5.34393">
        <ele>213.629</ele>
        <time>2019-04-21T15:55:43Z</time>
      </trkpt>
      <trkpt lat="45.06135" lon="5.34387">
        <ele>211.609</ele>
        <time>2019-04-21T15:55:54Z</time>
      </trkpt>
      <trkpt lat="45.06135" lon="5.34387">
        <ele>211.351</ele>
        <time>2019-04-21T15:55:56Z</time>
      </trkpt>
      <trkpt lat="45.06135" lon="5.34387">
        <ele>211.222</ele>
        <time>2019-04-21T15:55:57Z</time>
      </trkpt>
      <trkpt lat="45.06135" lon="5.34388">
        <ele>210.5</ele>
        <time>2019-04-21T15:55:58Z</time>
      </trkpt>
      <trkpt lat="45.06136" lon="5.34387">
        <ele>210.121</ele>
        <time>2019-04-21T15:55:59Z</time>
      </trkpt>
      <trkpt lat="45.06142" lon="5.34377">
        <ele>209.005</ele>
        <time>2019-04-21T15:56:07Z</time>
      </trkpt>
      <trkpt lat="45.06143" lon="5.34374">
        <ele>209.916</ele>
        <time>2019-04-21T15:56:09Z</time>
      </trkpt>
      <trkpt lat="45.06143" lon="5.34373">
        <ele>210.213</ele>
        <time>2019-04-21T15:56:11Z</time>
      </trkpt>
      <trkpt lat="45.06143" lon="5.34373">
        <ele>211.361</ele>
        <time>2019-04-21T15:56:16Z</time>
      </trkpt>
      <trkpt lat="45.06144" lon="5.34369">
        <ele>211.49</ele>
        <time>2019-04-21T15:56:17Z</time>
      </trkpt>
      <trkpt lat="45.06144" lon="5.34368">
        <ele>212.047</ele>
        <time>2019-04-21T15:56:18Z</time>
      </trkpt>
      <trkpt lat="45.06145" lon="5.34368">
        <ele>211.663</ele>
        <time>2019-04-21T15:56:19Z</time>
      </trkpt>
      <trkpt lat="45.06146" lon="5.34368">
        <ele>211.958</ele>
        <time>2019-04-21T15:56:20Z</time>
      </trkpt>
      <trkpt lat="45.06149" lon="5.34366">
        <ele>211.813</ele>
        <time>2019-04-21T15:56:24Z</time>
      </trkpt>
      <trkpt lat="45.06153" lon="5.34364">
        <ele>212.681</ele>
        <time>2019-04-21T15:56:29Z</time>
      </trkpt>
      <trkpt lat="45.06155" lon="5.3436">
        <ele>213.06</ele>
        <time>2019-04-21T15:56:30Z</time>
      </trkpt>
      <trkpt lat="45.06158" lon="5.34348">
        <ele>213.388</ele>
        <time>2019-04-21T15:56:32Z</time>
      </trkpt>
      <trkpt lat="45.06159" lon="5.3434">
        <ele>213.567</ele>
        <time>2019-04-21T15:56:33Z</time>
      </trkpt>
      <trkpt lat="45.06159" lon="5.34336">
        <ele>213.495</ele>
        <time>2019-04-21T15:56:34Z</time>
      </trkpt>
      <trkpt lat="45.06157" lon="5.34338">
        <ele>214.803</ele>
        <time>2019-04-21T15:56:36Z</time>
      </trkpt>
      <trkpt lat="45.06157" lon="5.34338">
        <ele>216.006</ele>
        <time>2019-04-21T15:56:37Z</time>
      </trkpt>
      <trkpt lat="45.06157" lon="5.34338">
        <ele>216.184</ele>
        <time>2019-04-21T15:56:38Z</time>
      </trkpt>
      <trkpt lat="45.06154" lon="5.34344">
        <ele>216.504</ele>
        <time>2019-04-21T15:56:39Z</time>
      </trkpt>
      <trkpt lat="45.06154" lon="5.34344">
        <ele>216.081</ele>
        <time>2019-04-21T15:56:40Z</time>
      </trkpt>
      <trkpt lat="45.06154" lon="5.34344">
        <ele>216.081</ele>
        <time>2019-04-21T15:56:40Z</time>
      </trkpt>
      <trkpt lat="45.06153" lon="5.34346">
        <ele>215.931</ele>
        <time>2019-04-21T15:56:41Z</time>
      </trkpt>
      <trkpt lat="45.06152" lon="5.34348">
        <ele>214.882</ele>
        <time>2019-04-21T15:56:42Z</time>
      </trkpt>
      <trkpt lat="45.06152" lon="5.34351">
        <ele>214.538</ele>
        <time>2019-04-21T15:56:43Z</time>
      </trkpt>
      <trkpt lat="45.06152" lon="5.34354">
        <ele>215.037</ele>
        <time>2019-04-21T15:56:45Z</time>
      </trkpt>
      <trkpt lat="45.06154" lon="5.3436">
        <ele>215.413</ele>
        <time>2019-04-21T15:56:48Z</time>
      </trkpt>
      <trkpt lat="45.06154" lon="5.3436">
        <ele>215.413</ele>
        <time>2019-04-21T15:56:53Z</time>
      </trkpt>
    </trkseg>
  </trk>
</gpx>